<?xml version="1.0" encoding="UTF-8" standalone="no" ?>
<gpx xmlns="http://www.topografix.com/GPX/1/1" xmlns:xsi="http://www.w3.org/2001/XMLSchema-instance" xsi:schemaLocation="http://www.topografix.com/GPX/1/1 http://www.topografix.com/GPX/1/1/gpx.xsd" version="1.1" creator="VisuGPX - https://www.visugpx.com">
  <metadata>
    <name>J4 Maribor - Celje</name>
  </metadata>
  <trk>
    <name><![CDATA[J4 Maribor - Celje]]></name>
    <trkseg>
      <trkpt lat="46.54676" lon="15.64892">
        <ele>260.314177</ele>
        <time>2026-07-10T07:03:53.000Z</time>
      </trkpt>
      <trkpt lat="46.54652" lon="15.64867">
        <ele>260.314177</ele>
        <time>2026-07-10T07:04:05.000Z</time>
      </trkpt>
      <trkpt lat="46.54641" lon="15.64875">
        <ele>260.314177</ele>
        <time>2026-07-10T07:04:09.000Z</time>
      </trkpt>
      <trkpt lat="46.5463" lon="15.6487">
        <ele>260.314177</ele>
        <time>2026-07-10T07:04:12.000Z</time>
      </trkpt>
      <trkpt lat="46.54626" lon="15.64871">
        <ele>260.314177</ele>
        <time>2026-07-10T07:04:13.000Z</time>
      </trkpt>
      <trkpt lat="46.54608" lon="15.6488">
        <ele>260.314177</ele>
        <time>2026-07-10T07:04:17.000Z</time>
      </trkpt>
      <trkpt lat="46.54592" lon="15.6488">
        <ele>260.36219</ele>
        <time>2026-07-10T07:04:20.000Z</time>
      </trkpt>
      <trkpt lat="46.54588" lon="15.64881">
        <ele>260.490773</ele>
        <time>2026-07-10T07:04:21.000Z</time>
      </trkpt>
      <trkpt lat="46.54569" lon="15.64884">
        <ele>261.066995</ele>
        <time>2026-07-10T07:04:25.000Z</time>
      </trkpt>
      <trkpt lat="46.54554" lon="15.64884">
        <ele>261.529357</ele>
        <time>2026-07-10T07:04:28.000Z</time>
      </trkpt>
      <trkpt lat="46.54545" lon="15.64883">
        <ele>261.806212</ele>
        <time>2026-07-10T07:04:30.000Z</time>
      </trkpt>
      <trkpt lat="46.54527" lon="15.64886">
        <ele>262.371139</ele>
        <time>2026-07-10T07:04:34.000Z</time>
      </trkpt>
      <trkpt lat="46.54522" lon="15.64887">
        <ele>262.506593</ele>
        <time>2026-07-10T07:04:35.000Z</time>
      </trkpt>
      <trkpt lat="46.54518" lon="15.64887">
        <ele>262.649685</ele>
        <time>2026-07-10T07:04:36.000Z</time>
      </trkpt>
      <trkpt lat="46.54508" lon="15.64888">
        <ele>262.942424</ele>
        <time>2026-07-10T07:04:38.000Z</time>
      </trkpt>
      <trkpt lat="46.54498" lon="15.64887">
        <ele>263.233073</ele>
        <time>2026-07-10T07:04:40.000Z</time>
      </trkpt>
      <trkpt lat="46.54485" lon="15.64884">
        <ele>263.644539</ele>
        <time>2026-07-10T07:04:43.000Z</time>
      </trkpt>
      <trkpt lat="46.54481" lon="15.64883">
        <ele>263.781809</ele>
        <time>2026-07-10T07:04:44.000Z</time>
      </trkpt>
      <trkpt lat="46.54476" lon="15.64883">
        <ele>263.915655</ele>
        <time>2026-07-10T07:04:45.000Z</time>
      </trkpt>
      <trkpt lat="46.54462" lon="15.64883">
        <ele>264.341804</ele>
        <time>2026-07-10T07:04:48.000Z</time>
      </trkpt>
      <trkpt lat="46.54453" lon="15.64884">
        <ele>264.62388</ele>
        <time>2026-07-10T07:04:50.000Z</time>
      </trkpt>
      <trkpt lat="46.54444" lon="15.64886">
        <ele>264.906816</ele>
        <time>2026-07-10T07:04:52.000Z</time>
      </trkpt>
      <trkpt lat="46.54439" lon="15.64886">
        <ele>265.055911</ele>
        <time>2026-07-10T07:04:53.000Z</time>
      </trkpt>
      <trkpt lat="46.54429" lon="15.64886">
        <ele>265.360098</ele>
        <time>2026-07-10T07:04:55.000Z</time>
      </trkpt>
      <trkpt lat="46.54424" lon="15.64886">
        <ele>265.509267</ele>
        <time>2026-07-10T07:04:56.000Z</time>
      </trkpt>
      <trkpt lat="46.54419" lon="15.64886">
        <ele>265.658319</ele>
        <time>2026-07-10T07:04:57.000Z</time>
      </trkpt>
      <trkpt lat="46.54414" lon="15.64885">
        <ele>265.812491</ele>
        <time>2026-07-10T07:04:58.000Z</time>
      </trkpt>
      <trkpt lat="46.54363" lon="15.64886">
        <ele>267.569108</ele>
        <time>2026-07-10T07:05:09.000Z</time>
      </trkpt>
      <trkpt lat="46.54329" lon="15.64882">
        <ele>268.755114</ele>
        <time>2026-07-10T07:05:17.000Z</time>
      </trkpt>
      <trkpt lat="46.54305" lon="15.64873">
        <ele>269.622185</ele>
        <time>2026-07-10T07:05:24.000Z</time>
      </trkpt>
      <trkpt lat="46.5429" lon="15.64866">
        <ele>270.161056</ele>
        <time>2026-07-10T07:05:29.000Z</time>
      </trkpt>
      <trkpt lat="46.54272" lon="15.64858">
        <ele>270.819107</ele>
        <time>2026-07-10T07:05:36.000Z</time>
      </trkpt>
      <trkpt lat="46.54264" lon="15.64849">
        <ele>271.175204</ele>
        <time>2026-07-10T07:05:40.000Z</time>
      </trkpt>
      <trkpt lat="46.54257" lon="15.64854">
        <ele>271.456908</ele>
        <time>2026-07-10T07:05:44.000Z</time>
      </trkpt>
      <trkpt lat="46.54255" lon="15.64855">
        <ele>271.511733</ele>
        <time>2026-07-10T07:05:47.000Z</time>
      </trkpt>
      <trkpt lat="46.54251" lon="15.64854">
        <ele>271.679524</ele>
        <time>2026-07-10T07:06:49.000Z</time>
      </trkpt>
      <trkpt lat="46.54248" lon="15.64853">
        <ele>271.770014</ele>
        <time>2026-07-10T07:06:50.000Z</time>
      </trkpt>
      <trkpt lat="46.54232" lon="15.64847">
        <ele>272.249803</ele>
        <time>2026-07-10T07:06:55.000Z</time>
      </trkpt>
      <trkpt lat="46.54198" lon="15.64834">
        <ele>273.127511</ele>
        <time>2026-07-10T07:07:04.000Z</time>
      </trkpt>
      <trkpt lat="46.54173" lon="15.64821">
        <ele>273.801128</ele>
        <time>2026-07-10T07:07:12.000Z</time>
      </trkpt>
      <trkpt lat="46.5415" lon="15.64816">
        <ele>274.372531</ele>
        <time>2026-07-10T07:07:18.000Z</time>
      </trkpt>
      <trkpt lat="46.54146" lon="15.64816">
        <ele>274.473189</ele>
        <time>2026-07-10T07:07:19.000Z</time>
      </trkpt>
      <trkpt lat="46.54139" lon="15.64813">
        <ele>274.661561</ele>
        <time>2026-07-10T07:07:21.000Z</time>
      </trkpt>
      <trkpt lat="46.54127" lon="15.64808">
        <ele>274.96864</ele>
        <time>2026-07-10T07:07:24.000Z</time>
      </trkpt>
      <trkpt lat="46.54122" lon="15.64806">
        <ele>275.08489</ele>
        <time>2026-07-10T07:07:25.000Z</time>
      </trkpt>
      <trkpt lat="46.54103" lon="15.64797">
        <ele>275.594186</ele>
        <time>2026-07-10T07:07:30.000Z</time>
      </trkpt>
      <trkpt lat="46.541" lon="15.64796">
        <ele>275.685852</ele>
        <time>2026-07-10T07:07:31.000Z</time>
      </trkpt>
      <trkpt lat="46.54089" lon="15.64791">
        <ele>275.954786</ele>
        <time>2026-07-10T07:07:34.000Z</time>
      </trkpt>
      <trkpt lat="46.54058" lon="15.64777">
        <ele>276.520661</ele>
        <time>2026-07-10T07:07:43.000Z</time>
      </trkpt>
      <trkpt lat="46.54048" lon="15.64771">
        <ele>276.530878</ele>
        <time>2026-07-10T07:07:46.000Z</time>
      </trkpt>
      <trkpt lat="46.54036" lon="15.64766">
        <ele>276.543613</ele>
        <time>2026-07-10T07:07:50.000Z</time>
      </trkpt>
      <trkpt lat="46.54033" lon="15.64765">
        <ele>276.546727</ele>
        <time>2026-07-10T07:07:51.000Z</time>
      </trkpt>
      <trkpt lat="46.54016" lon="15.64756">
        <ele>276.563864</ele>
        <time>2026-07-10T07:07:56.000Z</time>
      </trkpt>
      <trkpt lat="46.54003" lon="15.64751">
        <ele>276.576998</ele>
        <time>2026-07-10T07:08:00.000Z</time>
      </trkpt>
      <trkpt lat="46.53991" lon="15.64744">
        <ele>276.590285</ele>
        <time>2026-07-10T07:08:06.000Z</time>
      </trkpt>
      <trkpt lat="46.53983" lon="15.64736">
        <ele>276.600202</ele>
        <time>2026-07-10T07:08:10.000Z</time>
      </trkpt>
      <trkpt lat="46.53982" lon="15.64733">
        <ele>276.602347</ele>
        <time>2026-07-10T07:08:11.000Z</time>
      </trkpt>
      <trkpt lat="46.53982" lon="15.64718">
        <ele>276.612547</ele>
        <time>2026-07-10T07:08:17.000Z</time>
      </trkpt>
      <trkpt lat="46.53982" lon="15.64717">
        <ele>276.613363</ele>
        <time>2026-07-10T07:08:18.000Z</time>
      </trkpt>
      <trkpt lat="46.53982" lon="15.64716">
        <ele>276.614137</ele>
        <time>2026-07-10T07:08:19.000Z</time>
      </trkpt>
      <trkpt lat="46.53975" lon="15.64714">
        <ele>276.62063</ele>
        <time>2026-07-10T07:10:07.000Z</time>
      </trkpt>
      <trkpt lat="46.53973" lon="15.64713">
        <ele>276.622953</ele>
        <time>2026-07-10T07:10:08.000Z</time>
      </trkpt>
      <trkpt lat="46.53962" lon="15.64711">
        <ele>276.633427</ele>
        <time>2026-07-10T07:10:12.000Z</time>
      </trkpt>
      <trkpt lat="46.53953" lon="15.64713">
        <ele>276.642568</ele>
        <time>2026-07-10T07:10:16.000Z</time>
      </trkpt>
      <trkpt lat="46.53942" lon="15.64723">
        <ele>276.655536</ele>
        <time>2026-07-10T07:10:22.000Z</time>
      </trkpt>
      <trkpt lat="46.53942" lon="15.64724">
        <ele>276.656057</ele>
        <time>2026-07-10T07:10:24.000Z</time>
      </trkpt>
      <trkpt lat="46.5394" lon="15.64729">
        <ele>276.660207</ele>
        <time>2026-07-10T07:11:42.000Z</time>
      </trkpt>
      <trkpt lat="46.53939" lon="15.64732">
        <ele>276.66237</ele>
        <time>2026-07-10T07:11:43.000Z</time>
      </trkpt>
      <trkpt lat="46.53937" lon="15.64755">
        <ele>276.678533</ele>
        <time>2026-07-10T07:11:49.000Z</time>
      </trkpt>
      <trkpt lat="46.53944" lon="15.64766">
        <ele>276.676389</ele>
        <time>2026-07-10T07:11:52.000Z</time>
      </trkpt>
      <trkpt lat="46.53949" lon="15.64779">
        <ele>276.520393</ele>
        <time>2026-07-10T07:11:55.000Z</time>
      </trkpt>
      <trkpt lat="46.5395" lon="15.64785">
        <ele>276.456419</ele>
        <time>2026-07-10T07:11:56.000Z</time>
      </trkpt>
      <trkpt lat="46.53951" lon="15.64792">
        <ele>276.391736</ele>
        <time>2026-07-10T07:11:57.000Z</time>
      </trkpt>
      <trkpt lat="46.53956" lon="15.6481">
        <ele>276.192332</ele>
        <time>2026-07-10T07:12:00.000Z</time>
      </trkpt>
      <trkpt lat="46.53958" lon="15.64816">
        <ele>276.126665</ele>
        <time>2026-07-10T07:12:01.000Z</time>
      </trkpt>
      <trkpt lat="46.53961" lon="15.64829">
        <ele>275.992928</ele>
        <time>2026-07-10T07:12:03.000Z</time>
      </trkpt>
      <trkpt lat="46.53963" lon="15.64844">
        <ele>275.8343</ele>
        <time>2026-07-10T07:12:05.000Z</time>
      </trkpt>
      <trkpt lat="46.53975" lon="15.64893">
        <ele>275.311577</ele>
        <time>2026-07-10T07:12:11.000Z</time>
      </trkpt>
      <trkpt lat="46.53997" lon="15.64964">
        <ele>274.531968</ele>
        <time>2026-07-10T07:12:19.000Z</time>
      </trkpt>
      <trkpt lat="46.54001" lon="15.64983">
        <ele>274.326951</ele>
        <time>2026-07-10T07:12:22.000Z</time>
      </trkpt>
      <trkpt lat="46.54001" lon="15.64988">
        <ele>274.273654</ele>
        <time>2026-07-10T07:12:23.000Z</time>
      </trkpt>
      <trkpt lat="46.53992" lon="15.64999">
        <ele>274.106539</ele>
        <time>2026-07-10T07:12:26.000Z</time>
      </trkpt>
      <trkpt lat="46.53972" lon="15.64996">
        <ele>274.624246</ele>
        <time>2026-07-10T07:12:31.000Z</time>
      </trkpt>
      <trkpt lat="46.53962" lon="15.64992">
        <ele>274.972641</ele>
        <time>2026-07-10T07:12:34.000Z</time>
      </trkpt>
      <trkpt lat="46.5395" lon="15.64982">
        <ele>275.41253</ele>
        <time>2026-07-10T07:12:38.000Z</time>
      </trkpt>
      <trkpt lat="46.53933" lon="15.64958">
        <ele>276.222553</ele>
        <time>2026-07-10T07:12:46.000Z</time>
      </trkpt>
      <trkpt lat="46.53926" lon="15.6495">
        <ele>276.518396</ele>
        <time>2026-07-10T07:12:49.000Z</time>
      </trkpt>
      <trkpt lat="46.53921" lon="15.64938">
        <ele>276.846476</ele>
        <time>2026-07-10T07:12:52.000Z</time>
      </trkpt>
      <trkpt lat="46.53906" lon="15.64904">
        <ele>277.779915</ele>
        <time>2026-07-10T07:13:01.000Z</time>
      </trkpt>
      <trkpt lat="46.53894" lon="15.64878">
        <ele>278.503716</ele>
        <time>2026-07-10T07:13:08.000Z</time>
      </trkpt>
      <trkpt lat="46.5388" lon="15.64862">
        <ele>279.083867</ele>
        <time>2026-07-10T07:13:13.000Z</time>
      </trkpt>
      <trkpt lat="46.53874" lon="15.64856">
        <ele>279.333533</ele>
        <time>2026-07-10T07:13:15.000Z</time>
      </trkpt>
      <trkpt lat="46.53861" lon="15.64845">
        <ele>279.853429</ele>
        <time>2026-07-10T07:13:19.000Z</time>
      </trkpt>
      <trkpt lat="46.53848" lon="15.64836">
        <ele>280.017724</ele>
        <time>2026-07-10T07:13:23.000Z</time>
      </trkpt>
      <trkpt lat="46.53816" lon="15.64822">
        <ele>279.692438</ele>
        <time>2026-07-10T07:13:32.000Z</time>
      </trkpt>
      <trkpt lat="46.53795" lon="15.64816">
        <ele>279.489111</ele>
        <time>2026-07-10T07:13:38.000Z</time>
      </trkpt>
      <trkpt lat="46.53785" lon="15.64814">
        <ele>279.392823</ele>
        <time>2026-07-10T07:13:41.000Z</time>
      </trkpt>
      <trkpt lat="46.53774" lon="15.64812">
        <ele>279.280369</ele>
        <time>2026-07-10T07:13:45.000Z</time>
      </trkpt>
      <trkpt lat="46.53766" lon="15.6481">
        <ele>279.202028</ele>
        <time>2026-07-10T07:13:48.000Z</time>
      </trkpt>
      <trkpt lat="46.53753" lon="15.6481">
        <ele>279.081362</ele>
        <time>2026-07-10T07:13:53.000Z</time>
      </trkpt>
      <trkpt lat="46.53748" lon="15.64816">
        <ele>279.015395</ele>
        <time>2026-07-10T07:13:55.000Z</time>
      </trkpt>
      <trkpt lat="46.53743" lon="15.64824">
        <ele>278.943408</ele>
        <time>2026-07-10T07:13:57.000Z</time>
      </trkpt>
      <trkpt lat="46.53727" lon="15.64858">
        <ele>278.668282</ele>
        <time>2026-07-10T07:14:04.000Z</time>
      </trkpt>
      <trkpt lat="46.53724" lon="15.64863">
        <ele>278.62884</ele>
        <time>2026-07-10T07:14:05.000Z</time>
      </trkpt>
      <trkpt lat="46.53713" lon="15.64879">
        <ele>278.480286</ele>
        <time>2026-07-10T07:14:09.000Z</time>
      </trkpt>
      <trkpt lat="46.5371" lon="15.6488">
        <ele>278.446917</ele>
        <time>2026-07-10T07:14:10.000Z</time>
      </trkpt>
      <trkpt lat="46.537" lon="15.64875">
        <ele>278.351279</ele>
        <time>2026-07-10T07:14:13.000Z</time>
      </trkpt>
      <trkpt lat="46.53696" lon="15.64868">
        <ele>278.371512</ele>
        <time>2026-07-10T07:14:15.000Z</time>
      </trkpt>
      <trkpt lat="46.5369" lon="15.64857">
        <ele>278.398794</ele>
        <time>2026-07-10T07:14:18.000Z</time>
      </trkpt>
      <trkpt lat="46.53688" lon="15.64852">
        <ele>278.40984</ele>
        <time>2026-07-10T07:14:22.000Z</time>
      </trkpt>
      <trkpt lat="46.53685" lon="15.64848">
        <ele>278.421701</ele>
        <time>2026-07-10T07:14:25.000Z</time>
      </trkpt>
      <trkpt lat="46.53681" lon="15.6484">
        <ele>278.441195</ele>
        <time>2026-07-10T07:14:28.000Z</time>
      </trkpt>
      <trkpt lat="46.53673" lon="15.6483">
        <ele>278.471851</ele>
        <time>2026-07-10T07:14:32.000Z</time>
      </trkpt>
      <trkpt lat="46.53668" lon="15.64825">
        <ele>278.489381</ele>
        <time>2026-07-10T07:14:34.000Z</time>
      </trkpt>
      <trkpt lat="46.53661" lon="15.64817">
        <ele>278.515957</ele>
        <time>2026-07-10T07:14:37.000Z</time>
      </trkpt>
      <trkpt lat="46.53658" lon="15.64814">
        <ele>278.525857</ele>
        <time>2026-07-10T07:14:38.000Z</time>
      </trkpt>
      <trkpt lat="46.53652" lon="15.64808">
        <ele>278.546664</ele>
        <time>2026-07-10T07:14:40.000Z</time>
      </trkpt>
      <trkpt lat="46.53646" lon="15.64801">
        <ele>278.568215</ele>
        <time>2026-07-10T07:14:42.000Z</time>
      </trkpt>
      <trkpt lat="46.53622" lon="15.64775">
        <ele>278.655768</ele>
        <time>2026-07-10T07:14:50.000Z</time>
      </trkpt>
      <trkpt lat="46.536" lon="15.64756">
        <ele>278.729827</ele>
        <time>2026-07-10T07:14:57.000Z</time>
      </trkpt>
      <trkpt lat="46.53587" lon="15.64745">
        <ele>278.775271</ele>
        <time>2026-07-10T07:15:01.000Z</time>
      </trkpt>
      <trkpt lat="46.53569" lon="15.64732">
        <ele>278.834398</ele>
        <time>2026-07-10T07:15:06.000Z</time>
      </trkpt>
      <trkpt lat="46.53557" lon="15.64724">
        <ele>278.869634</ele>
        <time>2026-07-10T07:15:09.000Z</time>
      </trkpt>
      <trkpt lat="46.53534" lon="15.6471">
        <ele>278.662886</ele>
        <time>2026-07-10T07:15:15.000Z</time>
      </trkpt>
      <trkpt lat="46.53526" lon="15.64706">
        <ele>278.590811</ele>
        <time>2026-07-10T07:15:17.000Z</time>
      </trkpt>
      <trkpt lat="46.53518" lon="15.64702">
        <ele>278.52234</ele>
        <time>2026-07-10T07:15:19.000Z</time>
      </trkpt>
      <trkpt lat="46.53502" lon="15.64694">
        <ele>278.38353</ele>
        <time>2026-07-10T07:15:23.000Z</time>
      </trkpt>
      <trkpt lat="46.53494" lon="15.64691">
        <ele>278.306304</ele>
        <time>2026-07-10T07:15:25.000Z</time>
      </trkpt>
      <trkpt lat="46.53468" lon="15.64681">
        <ele>278.083006</ele>
        <time>2026-07-10T07:15:31.000Z</time>
      </trkpt>
      <trkpt lat="46.53455" lon="15.64676">
        <ele>277.969265</ele>
        <time>2026-07-10T07:15:34.000Z</time>
      </trkpt>
      <trkpt lat="46.53448" lon="15.64674">
        <ele>277.89999</ele>
        <time>2026-07-10T07:15:36.000Z</time>
      </trkpt>
      <trkpt lat="46.53436" lon="15.64669">
        <ele>277.796058</ele>
        <time>2026-07-10T07:15:39.000Z</time>
      </trkpt>
      <trkpt lat="46.53431" lon="15.64667">
        <ele>277.756782</ele>
        <time>2026-07-10T07:15:40.000Z</time>
      </trkpt>
      <trkpt lat="46.53423" lon="15.64663">
        <ele>277.684621</ele>
        <time>2026-07-10T07:15:42.000Z</time>
      </trkpt>
      <trkpt lat="46.53404" lon="15.64657">
        <ele>277.51212</ele>
        <time>2026-07-10T07:15:47.000Z</time>
      </trkpt>
      <trkpt lat="46.53383" lon="15.64649">
        <ele>277.343576</ele>
        <time>2026-07-10T07:15:53.000Z</time>
      </trkpt>
      <trkpt lat="46.53361" lon="15.64642">
        <ele>277.38035</ele>
        <time>2026-07-10T07:15:59.000Z</time>
      </trkpt>
      <trkpt lat="46.53336" lon="15.64634">
        <ele>277.423731</ele>
        <time>2026-07-10T07:16:05.000Z</time>
      </trkpt>
      <trkpt lat="46.53327" lon="15.64631">
        <ele>277.439092</ele>
        <time>2026-07-10T07:16:07.000Z</time>
      </trkpt>
      <trkpt lat="46.533" lon="15.64621">
        <ele>277.48617</ele>
        <time>2026-07-10T07:16:13.000Z</time>
      </trkpt>
      <trkpt lat="46.53278" lon="15.64614">
        <ele>277.524976</ele>
        <time>2026-07-10T07:16:18.000Z</time>
      </trkpt>
      <trkpt lat="46.53229" lon="15.646">
        <ele>277.609065</ele>
        <time>2026-07-10T07:16:29.000Z</time>
      </trkpt>
      <trkpt lat="46.53211" lon="15.64598">
        <ele>277.63928</ele>
        <time>2026-07-10T07:16:33.000Z</time>
      </trkpt>
      <trkpt lat="46.53184" lon="15.64595">
        <ele>277.655319</ele>
        <time>2026-07-10T07:16:39.000Z</time>
      </trkpt>
      <trkpt lat="46.53175" lon="15.64594">
        <ele>277.659192</ele>
        <time>2026-07-10T07:16:41.000Z</time>
      </trkpt>
      <trkpt lat="46.53166" lon="15.64594">
        <ele>277.663233</ele>
        <time>2026-07-10T07:16:43.000Z</time>
      </trkpt>
      <trkpt lat="46.53147" lon="15.64593">
        <ele>277.671142</ele>
        <time>2026-07-10T07:16:47.000Z</time>
      </trkpt>
      <trkpt lat="46.53138" lon="15.64593">
        <ele>277.675139</ele>
        <time>2026-07-10T07:16:49.000Z</time>
      </trkpt>
      <trkpt lat="46.53105" lon="15.64595">
        <ele>277.689413</ele>
        <time>2026-07-10T07:16:56.000Z</time>
      </trkpt>
      <trkpt lat="46.53072" lon="15.64602">
        <ele>277.703759</ele>
        <time>2026-07-10T07:17:03.000Z</time>
      </trkpt>
      <trkpt lat="46.53062" lon="15.64606">
        <ele>277.708051</ele>
        <time>2026-07-10T07:17:05.000Z</time>
      </trkpt>
      <trkpt lat="46.53039" lon="15.64614">
        <ele>277.71832</ele>
        <time>2026-07-10T07:17:10.000Z</time>
      </trkpt>
      <trkpt lat="46.52988" lon="15.64636">
        <ele>277.7704</ele>
        <time>2026-07-10T07:17:21.000Z</time>
      </trkpt>
      <trkpt lat="46.52952" lon="15.64657">
        <ele>277.812388</ele>
        <time>2026-07-10T07:17:29.000Z</time>
      </trkpt>
      <trkpt lat="46.52948" lon="15.6466">
        <ele>277.817826</ele>
        <time>2026-07-10T07:17:30.000Z</time>
      </trkpt>
      <trkpt lat="46.52926" lon="15.64676">
        <ele>277.844459</ele>
        <time>2026-07-10T07:17:35.000Z</time>
      </trkpt>
      <trkpt lat="46.52895" lon="15.64695">
        <ele>277.880742</ele>
        <time>2026-07-10T07:17:42.000Z</time>
      </trkpt>
      <trkpt lat="46.52873" lon="15.64709">
        <ele>277.906747</ele>
        <time>2026-07-10T07:17:47.000Z</time>
      </trkpt>
      <trkpt lat="46.52847" lon="15.64723">
        <ele>278.084625</ele>
        <time>2026-07-10T07:17:53.000Z</time>
      </trkpt>
      <trkpt lat="46.52834" lon="15.64731">
        <ele>278.224234</ele>
        <time>2026-07-10T07:17:56.000Z</time>
      </trkpt>
      <trkpt lat="46.52783" lon="15.64758">
        <ele>278.738184</ele>
        <time>2026-07-10T07:18:07.000Z</time>
      </trkpt>
      <trkpt lat="46.52737" lon="15.6478">
        <ele>279.207921</ele>
        <time>2026-07-10T07:18:17.000Z</time>
      </trkpt>
      <trkpt lat="46.52693" lon="15.64799">
        <ele>279.642394</ele>
        <time>2026-07-10T07:18:27.000Z</time>
      </trkpt>
      <trkpt lat="46.52661" lon="15.64811">
        <ele>279.38715</ele>
        <time>2026-07-10T07:18:35.000Z</time>
      </trkpt>
      <trkpt lat="46.52658" lon="15.64812">
        <ele>279.358811</ele>
        <time>2026-07-10T07:18:36.000Z</time>
      </trkpt>
      <trkpt lat="46.52642" lon="15.64817">
        <ele>279.233139</ele>
        <time>2026-07-10T07:18:40.000Z</time>
      </trkpt>
      <trkpt lat="46.52616" lon="15.64825">
        <ele>279.02294</ele>
        <time>2026-07-10T07:18:46.000Z</time>
      </trkpt>
      <trkpt lat="46.52599" lon="15.64829">
        <ele>278.879244</ele>
        <time>2026-07-10T07:18:50.000Z</time>
      </trkpt>
      <trkpt lat="46.52584" lon="15.64831">
        <ele>278.766466</ele>
        <time>2026-07-10T07:18:53.000Z</time>
      </trkpt>
      <trkpt lat="46.52566" lon="15.64835">
        <ele>278.61945</ele>
        <time>2026-07-10T07:18:58.000Z</time>
      </trkpt>
      <trkpt lat="46.52541" lon="15.64839">
        <ele>278.41752</ele>
        <time>2026-07-10T07:19:04.000Z</time>
      </trkpt>
      <trkpt lat="46.52539" lon="15.64838">
        <ele>278.404542</ele>
        <time>2026-07-10T07:19:07.000Z</time>
      </trkpt>
      <trkpt lat="46.52547" lon="15.64839">
        <ele>278.345028</ele>
        <time>2026-07-10T07:19:13.000Z</time>
      </trkpt>
      <trkpt lat="46.52551" lon="15.64838">
        <ele>278.310716</ele>
        <time>2026-07-10T07:19:15.000Z</time>
      </trkpt>
      <trkpt lat="46.52556" lon="15.64837">
        <ele>278.269304</ele>
        <time>2026-07-10T07:19:17.000Z</time>
      </trkpt>
      <trkpt lat="46.52559" lon="15.64837">
        <ele>278.246301</ele>
        <time>2026-07-10T07:19:18.000Z</time>
      </trkpt>
      <trkpt lat="46.52569" lon="15.64835">
        <ele>278.443388</ele>
        <time>2026-07-10T07:19:21.000Z</time>
      </trkpt>
      <trkpt lat="46.52577" lon="15.64833">
        <ele>278.733871</ele>
        <time>2026-07-10T07:19:26.000Z</time>
      </trkpt>
      <trkpt lat="46.52579" lon="15.6484">
        <ele>278.896786</ele>
        <time>2026-07-10T07:19:31.000Z</time>
      </trkpt>
      <trkpt lat="46.52579" lon="15.64842">
        <ele>278.94492</ele>
        <time>2026-07-10T07:19:32.000Z</time>
      </trkpt>
      <trkpt lat="46.52579" lon="15.64843">
        <ele>278.976318</ele>
        <time>2026-07-10T07:19:33.000Z</time>
      </trkpt>
      <trkpt lat="46.52567" lon="15.64852">
        <ele>279.430068</ele>
        <time>2026-07-10T07:19:44.000Z</time>
      </trkpt>
      <trkpt lat="46.52561" lon="15.64853">
        <ele>279.639886</ele>
        <time>2026-07-10T07:19:47.000Z</time>
      </trkpt>
      <trkpt lat="46.52547" lon="15.6485">
        <ele>280.143281</ele>
        <time>2026-07-10T07:19:54.000Z</time>
      </trkpt>
      <trkpt lat="46.52535" lon="15.64848">
        <ele>280.577186</ele>
        <time>2026-07-10T07:20:00.000Z</time>
      </trkpt>
      <trkpt lat="46.52527" lon="15.64851">
        <ele>280.868219</ele>
        <time>2026-07-10T07:20:04.000Z</time>
      </trkpt>
      <trkpt lat="46.52521" lon="15.64858">
        <ele>281.125062</ele>
        <time>2026-07-10T07:20:07.000Z</time>
      </trkpt>
      <trkpt lat="46.52515" lon="15.64872">
        <ele>281.508623</ele>
        <time>2026-07-10T07:20:12.000Z</time>
      </trkpt>
      <trkpt lat="46.52515" lon="15.64875">
        <ele>281.592877</ele>
        <time>2026-07-10T07:20:14.000Z</time>
      </trkpt>
      <trkpt lat="46.52514" lon="15.64876">
        <ele>281.61882</ele>
        <time>2026-07-10T07:20:15.000Z</time>
      </trkpt>
      <trkpt lat="46.52514" lon="15.64866">
        <ele>281.844482</ele>
        <time>2026-07-10T07:20:20.000Z</time>
      </trkpt>
      <trkpt lat="46.52514" lon="15.64863">
        <ele>281.933364</ele>
        <time>2026-07-10T07:20:21.000Z</time>
      </trkpt>
      <trkpt lat="46.52515" lon="15.64851">
        <ele>282.204964</ele>
        <time>2026-07-10T07:20:25.000Z</time>
      </trkpt>
      <trkpt lat="46.52515" lon="15.64842">
        <ele>282.423425</ele>
        <time>2026-07-10T07:20:28.000Z</time>
      </trkpt>
      <trkpt lat="46.52515" lon="15.64829">
        <ele>282.735785</ele>
        <time>2026-07-10T07:20:32.000Z</time>
      </trkpt>
      <trkpt lat="46.52515" lon="15.64826">
        <ele>282.820447</ele>
        <time>2026-07-10T07:20:33.000Z</time>
      </trkpt>
      <trkpt lat="46.52516" lon="15.64816">
        <ele>283.056097</ele>
        <time>2026-07-10T07:20:36.000Z</time>
      </trkpt>
      <trkpt lat="46.52515" lon="15.64801">
        <ele>283.417518</ele>
        <time>2026-07-10T07:20:41.000Z</time>
      </trkpt>
      <trkpt lat="46.52518" lon="15.64785">
        <ele>283.818233</ele>
        <time>2026-07-10T07:20:47.000Z</time>
      </trkpt>
      <trkpt lat="46.52519" lon="15.64784">
        <ele>283.859775</ele>
        <time>2026-07-10T07:20:50.000Z</time>
      </trkpt>
      <trkpt lat="46.52521" lon="15.6478">
        <ele>283.960641</ele>
        <time>2026-07-10T07:20:58.000Z</time>
      </trkpt>
      <trkpt lat="46.52521" lon="15.64763">
        <ele>284.380835</ele>
        <time>2026-07-10T07:21:02.000Z</time>
      </trkpt>
      <trkpt lat="46.52521" lon="15.64747">
        <ele>284.350019</ele>
        <time>2026-07-10T07:21:05.000Z</time>
      </trkpt>
      <trkpt lat="46.52518" lon="15.64737">
        <ele>284.208767</ele>
        <time>2026-07-10T07:21:07.000Z</time>
      </trkpt>
      <trkpt lat="46.52514" lon="15.64725">
        <ele>284.032551</ele>
        <time>2026-07-10T07:21:10.000Z</time>
      </trkpt>
      <trkpt lat="46.52513" lon="15.64715">
        <ele>283.901076</ele>
        <time>2026-07-10T07:21:12.000Z</time>
      </trkpt>
      <trkpt lat="46.52512" lon="15.64706">
        <ele>283.770908</ele>
        <time>2026-07-10T07:21:14.000Z</time>
      </trkpt>
      <trkpt lat="46.5251" lon="15.64682">
        <ele>283.449718</ele>
        <time>2026-07-10T07:21:20.000Z</time>
      </trkpt>
      <trkpt lat="46.5251" lon="15.64673">
        <ele>283.341127</ele>
        <time>2026-07-10T07:21:22.000Z</time>
      </trkpt>
      <trkpt lat="46.52509" lon="15.64653">
        <ele>283.064227</ele>
        <time>2026-07-10T07:21:27.000Z</time>
      </trkpt>
      <trkpt lat="46.52509" lon="15.64649">
        <ele>283.016406</ele>
        <time>2026-07-10T07:21:28.000Z</time>
      </trkpt>
      <trkpt lat="46.52509" lon="15.64624">
        <ele>282.680085</ele>
        <time>2026-07-10T07:21:37.000Z</time>
      </trkpt>
      <trkpt lat="46.52509" lon="15.64624">
        <ele>282.674312</ele>
        <time>2026-07-10T07:21:38.000Z</time>
      </trkpt>
      <trkpt lat="46.52504" lon="15.64624">
        <ele>282.574233</ele>
        <time>2026-07-10T07:21:41.000Z</time>
      </trkpt>
      <trkpt lat="46.52502" lon="15.64626">
        <ele>282.526629</ele>
        <time>2026-07-10T07:21:42.000Z</time>
      </trkpt>
      <trkpt lat="46.52497" lon="15.64646">
        <ele>282.244286</ele>
        <time>2026-07-10T07:21:47.000Z</time>
      </trkpt>
      <trkpt lat="46.52491" lon="15.64665">
        <ele>281.970687</ele>
        <time>2026-07-10T07:21:51.000Z</time>
      </trkpt>
      <trkpt lat="46.52484" lon="15.64668">
        <ele>281.821907</ele>
        <time>2026-07-10T07:21:53.000Z</time>
      </trkpt>
      <trkpt lat="46.52476" lon="15.6467">
        <ele>281.671378</ele>
        <time>2026-07-10T07:21:55.000Z</time>
      </trkpt>
      <trkpt lat="46.52472" lon="15.64671">
        <ele>281.589475</ele>
        <time>2026-07-10T07:21:56.000Z</time>
      </trkpt>
      <trkpt lat="46.52468" lon="15.64673">
        <ele>281.508112</ele>
        <time>2026-07-10T07:21:57.000Z</time>
      </trkpt>
      <trkpt lat="46.52459" lon="15.64675">
        <ele>281.328684</ele>
        <time>2026-07-10T07:21:59.000Z</time>
      </trkpt>
      <trkpt lat="46.52454" lon="15.64676">
        <ele>281.242766</ele>
        <time>2026-07-10T07:22:00.000Z</time>
      </trkpt>
      <trkpt lat="46.52445" lon="15.64678">
        <ele>281.072826</ele>
        <time>2026-07-10T07:22:02.000Z</time>
      </trkpt>
      <trkpt lat="46.52441" lon="15.6468">
        <ele>281.012651</ele>
        <time>2026-07-10T07:22:03.000Z</time>
      </trkpt>
      <trkpt lat="46.52421" lon="15.64687">
        <ele>280.840384</ele>
        <time>2026-07-10T07:22:08.000Z</time>
      </trkpt>
      <trkpt lat="46.52412" lon="15.64691">
        <ele>280.76689</ele>
        <time>2026-07-10T07:22:10.000Z</time>
      </trkpt>
      <trkpt lat="46.52394" lon="15.64697">
        <ele>280.609463</ele>
        <time>2026-07-10T07:22:14.000Z</time>
      </trkpt>
      <trkpt lat="46.52375" lon="15.647">
        <ele>280.454636</ele>
        <time>2026-07-10T07:22:18.000Z</time>
      </trkpt>
      <trkpt lat="46.52336" lon="15.64704">
        <ele>280.131741</ele>
        <time>2026-07-10T07:22:26.000Z</time>
      </trkpt>
      <trkpt lat="46.5228" lon="15.64714">
        <ele>279.669144</ele>
        <time>2026-07-10T07:22:37.000Z</time>
      </trkpt>
      <trkpt lat="46.52275" lon="15.64716">
        <ele>279.625547</ele>
        <time>2026-07-10T07:22:38.000Z</time>
      </trkpt>
      <trkpt lat="46.5227" lon="15.64717">
        <ele>279.580932</ele>
        <time>2026-07-10T07:22:39.000Z</time>
      </trkpt>
      <trkpt lat="46.52236" lon="15.6473">
        <ele>279.642223</ele>
        <time>2026-07-10T07:22:46.000Z</time>
      </trkpt>
      <trkpt lat="46.52216" lon="15.64738">
        <ele>279.705653</ele>
        <time>2026-07-10T07:22:50.000Z</time>
      </trkpt>
      <trkpt lat="46.52206" lon="15.64743">
        <ele>279.736275</ele>
        <time>2026-07-10T07:22:52.000Z</time>
      </trkpt>
      <trkpt lat="46.52196" lon="15.64748">
        <ele>279.768143</ele>
        <time>2026-07-10T07:22:54.000Z</time>
      </trkpt>
      <trkpt lat="46.52191" lon="15.6475">
        <ele>279.783886</ele>
        <time>2026-07-10T07:22:55.000Z</time>
      </trkpt>
      <trkpt lat="46.52162" lon="15.6476">
        <ele>279.873021</ele>
        <time>2026-07-10T07:23:01.000Z</time>
      </trkpt>
      <trkpt lat="46.52152" lon="15.64764">
        <ele>279.904117</ele>
        <time>2026-07-10T07:23:03.000Z</time>
      </trkpt>
      <trkpt lat="46.52148" lon="15.64767">
        <ele>279.919938</ele>
        <time>2026-07-10T07:23:04.000Z</time>
      </trkpt>
      <trkpt lat="46.52139" lon="15.64776">
        <ele>279.952128</ele>
        <time>2026-07-10T07:23:06.000Z</time>
      </trkpt>
      <trkpt lat="46.52136" lon="15.64781">
        <ele>279.966552</ele>
        <time>2026-07-10T07:23:07.000Z</time>
      </trkpt>
      <trkpt lat="46.52132" lon="15.64786">
        <ele>279.981702</ele>
        <time>2026-07-10T07:23:08.000Z</time>
      </trkpt>
      <trkpt lat="46.52114" lon="15.64802">
        <ele>280.045329</ele>
        <time>2026-07-10T07:23:12.000Z</time>
      </trkpt>
      <trkpt lat="46.52063" lon="15.6484">
        <ele>280.369748</ele>
        <time>2026-07-10T07:23:22.000Z</time>
      </trkpt>
      <trkpt lat="46.52049" lon="15.64851">
        <ele>280.479339</ele>
        <time>2026-07-10T07:23:25.000Z</time>
      </trkpt>
      <trkpt lat="46.52024" lon="15.64869">
        <ele>280.66065</ele>
        <time>2026-07-10T07:23:30.000Z</time>
      </trkpt>
      <trkpt lat="46.51976" lon="15.64902">
        <ele>281.016717</ele>
        <time>2026-07-10T07:23:40.000Z</time>
      </trkpt>
      <trkpt lat="46.51951" lon="15.64919">
        <ele>281.196852</ele>
        <time>2026-07-10T07:23:45.000Z</time>
      </trkpt>
      <trkpt lat="46.51919" lon="15.64943">
        <ele>281.454163</ele>
        <time>2026-07-10T07:23:52.000Z</time>
      </trkpt>
      <trkpt lat="46.51896" lon="15.64959">
        <ele>281.636853</ele>
        <time>2026-07-10T07:23:57.000Z</time>
      </trkpt>
      <trkpt lat="46.5188" lon="15.64972">
        <ele>281.776812</ele>
        <time>2026-07-10T07:24:01.000Z</time>
      </trkpt>
      <trkpt lat="46.51842" lon="15.64998">
        <ele>282.081392</ele>
        <time>2026-07-10T07:24:10.000Z</time>
      </trkpt>
      <trkpt lat="46.51838" lon="15.65001">
        <ele>282.115482</ele>
        <time>2026-07-10T07:24:11.000Z</time>
      </trkpt>
      <trkpt lat="46.518" lon="15.65027">
        <ele>282.421571</ele>
        <time>2026-07-10T07:24:20.000Z</time>
      </trkpt>
      <trkpt lat="46.51791" lon="15.65034">
        <ele>282.496888</ele>
        <time>2026-07-10T07:24:22.000Z</time>
      </trkpt>
      <trkpt lat="46.51772" lon="15.65046">
        <ele>282.600704</ele>
        <time>2026-07-10T07:24:26.000Z</time>
      </trkpt>
      <trkpt lat="46.51734" lon="15.65064">
        <ele>282.604641</ele>
        <time>2026-07-10T07:24:33.000Z</time>
      </trkpt>
      <trkpt lat="46.51717" lon="15.65072">
        <ele>282.606402</ele>
        <time>2026-07-10T07:24:36.000Z</time>
      </trkpt>
      <trkpt lat="46.51705" lon="15.65078">
        <ele>282.607568</ele>
        <time>2026-07-10T07:24:38.000Z</time>
      </trkpt>
      <trkpt lat="46.517" lon="15.65081">
        <ele>282.608113</ele>
        <time>2026-07-10T07:24:39.000Z</time>
      </trkpt>
      <trkpt lat="46.51689" lon="15.65087">
        <ele>282.609236</ele>
        <time>2026-07-10T07:24:41.000Z</time>
      </trkpt>
      <trkpt lat="46.51667" lon="15.65099">
        <ele>282.611596</ele>
        <time>2026-07-10T07:24:45.000Z</time>
      </trkpt>
      <trkpt lat="46.51637" lon="15.65115">
        <ele>282.614653</ele>
        <time>2026-07-10T07:24:50.000Z</time>
      </trkpt>
      <trkpt lat="46.51615" lon="15.65128">
        <ele>282.617023</ele>
        <time>2026-07-10T07:24:54.000Z</time>
      </trkpt>
      <trkpt lat="46.51592" lon="15.65142">
        <ele>282.358476</ele>
        <time>2026-07-10T07:24:58.000Z</time>
      </trkpt>
      <trkpt lat="46.51545" lon="15.65164">
        <ele>281.653019</ele>
        <time>2026-07-10T07:25:06.000Z</time>
      </trkpt>
      <trkpt lat="46.51504" lon="15.6518">
        <ele>281.042553</ele>
        <time>2026-07-10T07:25:13.000Z</time>
      </trkpt>
      <trkpt lat="46.51498" lon="15.65182">
        <ele>280.958723</ele>
        <time>2026-07-10T07:25:14.000Z</time>
      </trkpt>
      <trkpt lat="46.51469" lon="15.65191">
        <ele>280.541357</ele>
        <time>2026-07-10T07:25:19.000Z</time>
      </trkpt>
      <trkpt lat="46.51453" lon="15.65195">
        <ele>280.30744</ele>
        <time>2026-07-10T07:25:22.000Z</time>
      </trkpt>
      <trkpt lat="46.51409" lon="15.65208">
        <ele>280.033799</ele>
        <time>2026-07-10T07:25:30.000Z</time>
      </trkpt>
      <trkpt lat="46.51358" lon="15.65217">
        <ele>279.996711</ele>
        <time>2026-07-10T07:25:39.000Z</time>
      </trkpt>
      <trkpt lat="46.5132" lon="15.65224">
        <ele>279.968973</ele>
        <time>2026-07-10T07:25:46.000Z</time>
      </trkpt>
      <trkpt lat="46.51293" lon="15.65223">
        <ele>279.949622</ele>
        <time>2026-07-10T07:25:51.000Z</time>
      </trkpt>
      <trkpt lat="46.51282" lon="15.6522">
        <ele>279.941368</ele>
        <time>2026-07-10T07:25:53.000Z</time>
      </trkpt>
      <trkpt lat="46.51271" lon="15.65216">
        <ele>279.93322</ele>
        <time>2026-07-10T07:25:55.000Z</time>
      </trkpt>
      <trkpt lat="46.51265" lon="15.65213">
        <ele>279.928895</ele>
        <time>2026-07-10T07:25:56.000Z</time>
      </trkpt>
      <trkpt lat="46.51249" lon="15.65204">
        <ele>279.990896</ele>
        <time>2026-07-10T07:25:59.000Z</time>
      </trkpt>
      <trkpt lat="46.51216" lon="15.65195">
        <ele>280.205828</ele>
        <time>2026-07-10T07:26:05.000Z</time>
      </trkpt>
      <trkpt lat="46.51196" lon="15.65194">
        <ele>280.33952</ele>
        <time>2026-07-10T07:26:09.000Z</time>
      </trkpt>
      <trkpt lat="46.5118" lon="15.65194">
        <ele>280.442016</ele>
        <time>2026-07-10T07:26:12.000Z</time>
      </trkpt>
      <trkpt lat="46.51155" lon="15.65195">
        <ele>280.602915</ele>
        <time>2026-07-10T07:26:17.000Z</time>
      </trkpt>
      <trkpt lat="46.51136" lon="15.65193">
        <ele>280.725948</ele>
        <time>2026-07-10T07:26:21.000Z</time>
      </trkpt>
      <trkpt lat="46.51104" lon="15.65187">
        <ele>280.935729</ele>
        <time>2026-07-10T07:26:28.000Z</time>
      </trkpt>
      <trkpt lat="46.5108" lon="15.65184">
        <ele>281.089879</ele>
        <time>2026-07-10T07:26:33.000Z</time>
      </trkpt>
      <trkpt lat="46.51061" lon="15.65182">
        <ele>281.055826</ele>
        <time>2026-07-10T07:26:37.000Z</time>
      </trkpt>
      <trkpt lat="46.51013" lon="15.65172">
        <ele>280.97117</ele>
        <time>2026-07-10T07:26:47.000Z</time>
      </trkpt>
      <trkpt lat="46.50966" lon="15.65161">
        <ele>280.88922</ele>
        <time>2026-07-10T07:26:56.000Z</time>
      </trkpt>
      <trkpt lat="46.50946" lon="15.65156">
        <ele>280.852237</ele>
        <time>2026-07-10T07:27:00.000Z</time>
      </trkpt>
      <trkpt lat="46.50933" lon="15.65154">
        <ele>280.830497</ele>
        <time>2026-07-10T07:27:03.000Z</time>
      </trkpt>
      <trkpt lat="46.50901" lon="15.65149">
        <ele>280.76287</ele>
        <time>2026-07-10T07:27:10.000Z</time>
      </trkpt>
      <trkpt lat="46.50896" lon="15.65149">
        <ele>280.69999</ele>
        <time>2026-07-10T07:27:11.000Z</time>
      </trkpt>
      <trkpt lat="46.50885" lon="15.65153">
        <ele>280.56798</ele>
        <time>2026-07-10T07:27:13.000Z</time>
      </trkpt>
      <trkpt lat="46.5088" lon="15.65155">
        <ele>280.502349</ele>
        <time>2026-07-10T07:27:14.000Z</time>
      </trkpt>
      <trkpt lat="46.50861" lon="15.65168">
        <ele>280.249819</ele>
        <time>2026-07-10T07:27:18.000Z</time>
      </trkpt>
      <trkpt lat="46.50852" lon="15.65169">
        <ele>280.142949</ele>
        <time>2026-07-10T07:27:20.000Z</time>
      </trkpt>
      <trkpt lat="46.50843" lon="15.65167">
        <ele>280.027956</ele>
        <time>2026-07-10T07:27:22.000Z</time>
      </trkpt>
      <trkpt lat="46.5083" lon="15.65157">
        <ele>279.848116</ele>
        <time>2026-07-10T07:27:25.000Z</time>
      </trkpt>
      <trkpt lat="46.50796" lon="15.65136">
        <ele>279.407808</ele>
        <time>2026-07-10T07:27:32.000Z</time>
      </trkpt>
      <trkpt lat="46.50752" lon="15.65115">
        <ele>278.847926</ele>
        <time>2026-07-10T07:27:41.000Z</time>
      </trkpt>
      <trkpt lat="46.50704" lon="15.6509">
        <ele>278.679593</ele>
        <time>2026-07-10T07:27:51.000Z</time>
      </trkpt>
      <trkpt lat="46.50694" lon="15.65085">
        <ele>278.706241</ele>
        <time>2026-07-10T07:27:53.000Z</time>
      </trkpt>
      <trkpt lat="46.50675" lon="15.65075">
        <ele>278.758292</ele>
        <time>2026-07-10T07:27:57.000Z</time>
      </trkpt>
      <trkpt lat="46.5065" lon="15.65065">
        <ele>278.822367</ele>
        <time>2026-07-10T07:28:02.000Z</time>
      </trkpt>
      <trkpt lat="46.50641" lon="15.65061">
        <ele>278.84824</ele>
        <time>2026-07-10T07:28:04.000Z</time>
      </trkpt>
      <trkpt lat="46.50615" lon="15.65051">
        <ele>278.914781</ele>
        <time>2026-07-10T07:28:09.000Z</time>
      </trkpt>
      <trkpt lat="46.50573" lon="15.65031">
        <ele>279.027558</ele>
        <time>2026-07-10T07:28:17.000Z</time>
      </trkpt>
      <trkpt lat="46.50544" lon="15.6502">
        <ele>279.306786</ele>
        <time>2026-07-10T07:28:23.000Z</time>
      </trkpt>
      <trkpt lat="46.50529" lon="15.65016">
        <ele>279.518262</ele>
        <time>2026-07-10T07:28:26.000Z</time>
      </trkpt>
      <trkpt lat="46.5051" lon="15.6501">
        <ele>279.784928</ele>
        <time>2026-07-10T07:28:30.000Z</time>
      </trkpt>
      <trkpt lat="46.5048" lon="15.65004">
        <ele>280.199368</ele>
        <time>2026-07-10T07:28:36.000Z</time>
      </trkpt>
      <trkpt lat="46.50458" lon="15.64999">
        <ele>280.502645</ele>
        <time>2026-07-10T07:28:40.000Z</time>
      </trkpt>
      <trkpt lat="46.5043" lon="15.64996">
        <ele>280.881873</ele>
        <time>2026-07-10T07:28:45.000Z</time>
      </trkpt>
      <trkpt lat="46.50403" lon="15.64992">
        <ele>281.251505</ele>
        <time>2026-07-10T07:28:50.000Z</time>
      </trkpt>
      <trkpt lat="46.50388" lon="15.64992">
        <ele>281.450774</ele>
        <time>2026-07-10T07:28:53.000Z</time>
      </trkpt>
      <trkpt lat="46.5035" lon="15.64989">
        <ele>281.874151</ele>
        <time>2026-07-10T07:29:01.000Z</time>
      </trkpt>
      <trkpt lat="46.50341" lon="15.64988">
        <ele>281.976415</ele>
        <time>2026-07-10T07:29:03.000Z</time>
      </trkpt>
      <trkpt lat="46.50326" lon="15.64981">
        <ele>282.138816</ele>
        <time>2026-07-10T07:29:06.000Z</time>
      </trkpt>
      <trkpt lat="46.50291" lon="15.64953">
        <ele>282.564971</ele>
        <time>2026-07-10T07:29:14.000Z</time>
      </trkpt>
      <trkpt lat="46.50264" lon="15.64927">
        <ele>282.913948</ele>
        <time>2026-07-10T07:29:20.000Z</time>
      </trkpt>
      <trkpt lat="46.50261" lon="15.64923">
        <ele>282.965727</ele>
        <time>2026-07-10T07:29:22.000Z</time>
      </trkpt>
      <trkpt lat="46.50238" lon="15.64889">
        <ele>283.316026</ele>
        <time>2026-07-10T07:29:29.000Z</time>
      </trkpt>
      <trkpt lat="46.50216" lon="15.64865">
        <ele>283.605549</ele>
        <time>2026-07-10T07:29:35.000Z</time>
      </trkpt>
      <trkpt lat="46.50195" lon="15.64849">
        <ele>283.861688</ele>
        <time>2026-07-10T07:29:41.000Z</time>
      </trkpt>
      <trkpt lat="46.50191" lon="15.64847">
        <ele>283.912864</ele>
        <time>2026-07-10T07:29:42.000Z</time>
      </trkpt>
      <trkpt lat="46.50186" lon="15.64845">
        <ele>283.961508</ele>
        <time>2026-07-10T07:29:43.000Z</time>
      </trkpt>
      <trkpt lat="46.50168" lon="15.64839">
        <ele>284.161576</ele>
        <time>2026-07-10T07:29:47.000Z</time>
      </trkpt>
      <trkpt lat="46.50135" lon="15.64834">
        <ele>284.523478</ele>
        <time>2026-07-10T07:29:54.000Z</time>
      </trkpt>
      <trkpt lat="46.50096" lon="15.64839">
        <ele>284.943912</ele>
        <time>2026-07-10T07:30:02.000Z</time>
      </trkpt>
      <trkpt lat="46.50068" lon="15.64844">
        <ele>285.252531</ele>
        <time>2026-07-10T07:30:08.000Z</time>
      </trkpt>
      <trkpt lat="46.50048" lon="15.64849">
        <ele>285.277684</ele>
        <time>2026-07-10T07:30:12.000Z</time>
      </trkpt>
      <trkpt lat="46.50038" lon="15.64853">
        <ele>285.151077</ele>
        <time>2026-07-10T07:30:14.000Z</time>
      </trkpt>
      <trkpt lat="46.50029" lon="15.64857">
        <ele>285.025067</ele>
        <time>2026-07-10T07:30:16.000Z</time>
      </trkpt>
      <trkpt lat="46.50007" lon="15.64867">
        <ele>284.728744</ele>
        <time>2026-07-10T07:30:21.000Z</time>
      </trkpt>
      <trkpt lat="46.49974" lon="15.64877">
        <ele>284.290317</ele>
        <time>2026-07-10T07:30:29.000Z</time>
      </trkpt>
      <trkpt lat="46.4997" lon="15.64878">
        <ele>284.240222</ele>
        <time>2026-07-10T07:30:30.000Z</time>
      </trkpt>
      <trkpt lat="46.49954" lon="15.64876">
        <ele>284.033323</ele>
        <time>2026-07-10T07:30:34.000Z</time>
      </trkpt>
      <trkpt lat="46.4994" lon="15.64882">
        <ele>283.856515</ele>
        <time>2026-07-10T07:30:37.000Z</time>
      </trkpt>
      <trkpt lat="46.49936" lon="15.64886">
        <ele>283.789629</ele>
        <time>2026-07-10T07:30:38.000Z</time>
      </trkpt>
      <trkpt lat="46.49922" lon="15.64895">
        <ele>283.589685</ele>
        <time>2026-07-10T07:30:41.000Z</time>
      </trkpt>
      <trkpt lat="46.49908" lon="15.64908">
        <ele>283.385269</ele>
        <time>2026-07-10T07:30:44.000Z</time>
      </trkpt>
      <trkpt lat="46.49881" lon="15.64933">
        <ele>282.970797</ele>
        <time>2026-07-10T07:30:50.000Z</time>
      </trkpt>
      <trkpt lat="46.49842" lon="15.64965">
        <ele>282.389724</ele>
        <time>2026-07-10T07:30:58.000Z</time>
      </trkpt>
      <trkpt lat="46.49813" lon="15.64987">
        <ele>281.970841</ele>
        <time>2026-07-10T07:31:04.000Z</time>
      </trkpt>
      <trkpt lat="46.49804" lon="15.64995">
        <ele>281.836825</ele>
        <time>2026-07-10T07:31:06.000Z</time>
      </trkpt>
      <trkpt lat="46.49789" lon="15.65004">
        <ele>281.62043</ele>
        <time>2026-07-10T07:31:09.000Z</time>
      </trkpt>
      <trkpt lat="46.49752" lon="15.65027">
        <ele>281.109607</ele>
        <time>2026-07-10T07:31:16.000Z</time>
      </trkpt>
      <trkpt lat="46.49721" lon="15.65043">
        <ele>280.688465</ele>
        <time>2026-07-10T07:31:22.000Z</time>
      </trkpt>
      <trkpt lat="46.49699" lon="15.65053">
        <ele>280.417353</ele>
        <time>2026-07-10T07:31:26.000Z</time>
      </trkpt>
      <trkpt lat="46.49648" lon="15.65081">
        <ele>279.764506</ele>
        <time>2026-07-10T07:31:36.000Z</time>
      </trkpt>
      <trkpt lat="46.49643" lon="15.65085">
        <ele>279.699897</ele>
        <time>2026-07-10T07:31:37.000Z</time>
      </trkpt>
      <trkpt lat="46.49608" lon="15.65109">
        <ele>279.236525</ele>
        <time>2026-07-10T07:31:44.000Z</time>
      </trkpt>
      <trkpt lat="46.49587" lon="15.65122">
        <ele>278.963037</ele>
        <time>2026-07-10T07:31:48.000Z</time>
      </trkpt>
      <trkpt lat="46.49581" lon="15.65125">
        <ele>278.891447</ele>
        <time>2026-07-10T07:31:49.000Z</time>
      </trkpt>
      <trkpt lat="46.49537" lon="15.65144">
        <ele>277.941553</ele>
        <time>2026-07-10T07:31:57.000Z</time>
      </trkpt>
      <trkpt lat="46.49503" lon="15.65153">
        <ele>276.905048</ele>
        <time>2026-07-10T07:32:03.000Z</time>
      </trkpt>
      <trkpt lat="46.49475" lon="15.65159">
        <ele>276.07398</ele>
        <time>2026-07-10T07:32:08.000Z</time>
      </trkpt>
      <trkpt lat="46.49447" lon="15.65164">
        <ele>275.244079</ele>
        <time>2026-07-10T07:32:13.000Z</time>
      </trkpt>
      <trkpt lat="46.49425" lon="15.65169">
        <ele>274.577437</ele>
        <time>2026-07-10T07:32:17.000Z</time>
      </trkpt>
      <trkpt lat="46.49396" lon="15.65175">
        <ele>273.715194</ele>
        <time>2026-07-10T07:32:22.000Z</time>
      </trkpt>
      <trkpt lat="46.49367" lon="15.65181">
        <ele>273.220737</ele>
        <time>2026-07-10T07:32:27.000Z</time>
      </trkpt>
      <trkpt lat="46.49315" lon="15.65191">
        <ele>273.021232</ele>
        <time>2026-07-10T07:32:36.000Z</time>
      </trkpt>
      <trkpt lat="46.49292" lon="15.65195">
        <ele>272.931128</ele>
        <time>2026-07-10T07:32:40.000Z</time>
      </trkpt>
      <trkpt lat="46.49281" lon="15.65197">
        <ele>272.887912</ele>
        <time>2026-07-10T07:32:42.000Z</time>
      </trkpt>
      <trkpt lat="46.4927" lon="15.652">
        <ele>272.846943</ele>
        <time>2026-07-10T07:32:44.000Z</time>
      </trkpt>
      <trkpt lat="46.49254" lon="15.65201">
        <ele>272.784247</ele>
        <time>2026-07-10T07:32:47.000Z</time>
      </trkpt>
      <trkpt lat="46.49232" lon="15.65199">
        <ele>272.698815</ele>
        <time>2026-07-10T07:32:51.000Z</time>
      </trkpt>
      <trkpt lat="46.49221" lon="15.65194">
        <ele>272.656802</ele>
        <time>2026-07-10T07:32:53.000Z</time>
      </trkpt>
      <trkpt lat="46.49201" lon="15.6518">
        <ele>272.640737</ele>
        <time>2026-07-10T07:32:57.000Z</time>
      </trkpt>
      <trkpt lat="46.49176" lon="15.65154">
        <ele>273.007051</ele>
        <time>2026-07-10T07:33:03.000Z</time>
      </trkpt>
      <trkpt lat="46.49157" lon="15.65137">
        <ele>273.263256</ele>
        <time>2026-07-10T07:33:07.000Z</time>
      </trkpt>
      <trkpt lat="46.49152" lon="15.65135">
        <ele>273.326387</ele>
        <time>2026-07-10T07:33:08.000Z</time>
      </trkpt>
      <trkpt lat="46.49138" lon="15.65131">
        <ele>273.494025</ele>
        <time>2026-07-10T07:33:11.000Z</time>
      </trkpt>
      <trkpt lat="46.49129" lon="15.65133">
        <ele>273.605229</ele>
        <time>2026-07-10T07:33:13.000Z</time>
      </trkpt>
      <trkpt lat="46.49124" lon="15.65135">
        <ele>273.661848</ele>
        <time>2026-07-10T07:33:14.000Z</time>
      </trkpt>
      <trkpt lat="46.49109" lon="15.65144">
        <ele>273.857324</ele>
        <time>2026-07-10T07:33:18.000Z</time>
      </trkpt>
      <trkpt lat="46.49098" lon="15.6515">
        <ele>273.988239</ele>
        <time>2026-07-10T07:33:23.000Z</time>
      </trkpt>
      <trkpt lat="46.49086" lon="15.65143">
        <ele>274.146254</ele>
        <time>2026-07-10T07:33:27.000Z</time>
      </trkpt>
      <trkpt lat="46.49062" lon="15.65135">
        <ele>274.424844</ele>
        <time>2026-07-10T07:33:32.000Z</time>
      </trkpt>
      <trkpt lat="46.49034" lon="15.65141">
        <ele>274.691379</ele>
        <time>2026-07-10T07:33:38.000Z</time>
      </trkpt>
      <trkpt lat="46.49005" lon="15.65157">
        <ele>274.653047</ele>
        <time>2026-07-10T07:33:44.000Z</time>
      </trkpt>
      <trkpt lat="46.48996" lon="15.65164">
        <ele>274.639707</ele>
        <time>2026-07-10T07:33:46.000Z</time>
      </trkpt>
      <trkpt lat="46.48975" lon="15.65179">
        <ele>274.610165</ele>
        <time>2026-07-10T07:33:51.000Z</time>
      </trkpt>
      <trkpt lat="46.48971" lon="15.65179">
        <ele>274.605134</ele>
        <time>2026-07-10T07:33:52.000Z</time>
      </trkpt>
      <trkpt lat="46.4896" lon="15.6518">
        <ele>274.592038</ele>
        <time>2026-07-10T07:33:55.000Z</time>
      </trkpt>
      <trkpt lat="46.48957" lon="15.65182">
        <ele>274.587441</ele>
        <time>2026-07-10T07:33:56.000Z</time>
      </trkpt>
      <trkpt lat="46.48942" lon="15.65193">
        <ele>274.566151</ele>
        <time>2026-07-10T07:34:00.000Z</time>
      </trkpt>
      <trkpt lat="46.48927" lon="15.65199">
        <ele>274.547408</ele>
        <time>2026-07-10T07:34:03.000Z</time>
      </trkpt>
      <trkpt lat="46.48895" lon="15.65205">
        <ele>274.506726</ele>
        <time>2026-07-10T07:34:09.000Z</time>
      </trkpt>
      <trkpt lat="46.48849" lon="15.65204">
        <ele>274.86127</ele>
        <time>2026-07-10T07:34:18.000Z</time>
      </trkpt>
      <trkpt lat="46.48792" lon="15.652">
        <ele>276.016241</ele>
        <time>2026-07-10T07:34:29.000Z</time>
      </trkpt>
      <trkpt lat="46.48771" lon="15.652">
        <ele>276.427979</ele>
        <time>2026-07-10T07:34:33.000Z</time>
      </trkpt>
      <trkpt lat="46.48751" lon="15.65199">
        <ele>276.8377</ele>
        <time>2026-07-10T07:34:37.000Z</time>
      </trkpt>
      <trkpt lat="46.48737" lon="15.65198">
        <ele>277.124253</ele>
        <time>2026-07-10T07:34:40.000Z</time>
      </trkpt>
      <trkpt lat="46.48726" lon="15.65198">
        <ele>277.348188</ele>
        <time>2026-07-10T07:34:42.000Z</time>
      </trkpt>
      <trkpt lat="46.4871" lon="15.65197">
        <ele>277.655146</ele>
        <time>2026-07-10T07:34:45.000Z</time>
      </trkpt>
      <trkpt lat="46.48705" lon="15.65197">
        <ele>277.76028</ele>
        <time>2026-07-10T07:34:46.000Z</time>
      </trkpt>
      <trkpt lat="46.4869" lon="15.65196">
        <ele>278.064919</ele>
        <time>2026-07-10T07:34:49.000Z</time>
      </trkpt>
      <trkpt lat="46.48669" lon="15.65197">
        <ele>278.778366</ele>
        <time>2026-07-10T07:34:53.000Z</time>
      </trkpt>
      <trkpt lat="46.48639" lon="15.65197">
        <ele>279.85703</ele>
        <time>2026-07-10T07:34:59.000Z</time>
      </trkpt>
      <trkpt lat="46.48585" lon="15.65202">
        <ele>281.812513</ele>
        <time>2026-07-10T07:35:10.000Z</time>
      </trkpt>
      <trkpt lat="46.48543" lon="15.65205">
        <ele>283.331174</ele>
        <time>2026-07-10T07:35:19.000Z</time>
      </trkpt>
      <trkpt lat="46.48508" lon="15.65207">
        <ele>284.552115</ele>
        <time>2026-07-10T07:35:26.000Z</time>
      </trkpt>
      <trkpt lat="46.48458" lon="15.65211">
        <ele>284.937887</ele>
        <time>2026-07-10T07:35:36.000Z</time>
      </trkpt>
      <trkpt lat="46.48408" lon="15.65214">
        <ele>285.318202</ele>
        <time>2026-07-10T07:35:46.000Z</time>
      </trkpt>
      <trkpt lat="46.48363" lon="15.65217">
        <ele>285.666307</ele>
        <time>2026-07-10T07:35:56.000Z</time>
      </trkpt>
      <trkpt lat="46.48352" lon="15.65216">
        <ele>285.749998</ele>
        <time>2026-07-10T07:35:59.000Z</time>
      </trkpt>
      <trkpt lat="46.48343" lon="15.65216">
        <ele>285.812843</ele>
        <time>2026-07-10T07:36:01.000Z</time>
      </trkpt>
      <trkpt lat="46.48326" lon="15.65218">
        <ele>285.917078</ele>
        <time>2026-07-10T07:36:05.000Z</time>
      </trkpt>
      <trkpt lat="46.48314" lon="15.65218">
        <ele>285.886333</ele>
        <time>2026-07-10T07:36:08.000Z</time>
      </trkpt>
      <trkpt lat="46.48292" lon="15.65219">
        <ele>285.831574</ele>
        <time>2026-07-10T07:36:13.000Z</time>
      </trkpt>
      <trkpt lat="46.48269" lon="15.6522">
        <ele>285.772567</ele>
        <time>2026-07-10T07:36:18.000Z</time>
      </trkpt>
      <trkpt lat="46.48241" lon="15.65223">
        <ele>285.704036</ele>
        <time>2026-07-10T07:36:24.000Z</time>
      </trkpt>
      <trkpt lat="46.48228" lon="15.65226">
        <ele>285.669337</ele>
        <time>2026-07-10T07:36:27.000Z</time>
      </trkpt>
      <trkpt lat="46.48209" lon="15.65229">
        <ele>285.622481</ele>
        <time>2026-07-10T07:36:31.000Z</time>
      </trkpt>
      <trkpt lat="46.48163" lon="15.6524">
        <ele>285.505</ele>
        <time>2026-07-10T07:36:41.000Z</time>
      </trkpt>
      <trkpt lat="46.48139" lon="15.65245">
        <ele>285.409474</ele>
        <time>2026-07-10T07:36:46.000Z</time>
      </trkpt>
      <trkpt lat="46.48103" lon="15.65254">
        <ele>285.195219</ele>
        <time>2026-07-10T07:36:54.000Z</time>
      </trkpt>
      <trkpt lat="46.48053" lon="15.65268">
        <ele>284.899592</ele>
        <time>2026-07-10T07:37:04.000Z</time>
      </trkpt>
      <trkpt lat="46.48015" lon="15.65279">
        <ele>284.673948</ele>
        <time>2026-07-10T07:37:12.000Z</time>
      </trkpt>
      <trkpt lat="46.47991" lon="15.65286">
        <ele>284.530688</ele>
        <time>2026-07-10T07:37:17.000Z</time>
      </trkpt>
      <trkpt lat="46.47967" lon="15.65294">
        <ele>284.501705</ele>
        <time>2026-07-10T07:37:22.000Z</time>
      </trkpt>
      <trkpt lat="46.47932" lon="15.65305">
        <ele>284.849075</ele>
        <time>2026-07-10T07:37:30.000Z</time>
      </trkpt>
      <trkpt lat="46.47916" lon="15.65309">
        <ele>285.000551</ele>
        <time>2026-07-10T07:37:34.000Z</time>
      </trkpt>
      <trkpt lat="46.47905" lon="15.65308">
        <ele>285.110455</ele>
        <time>2026-07-10T07:37:37.000Z</time>
      </trkpt>
      <trkpt lat="46.47888" lon="15.65299">
        <ele>285.285849</ele>
        <time>2026-07-10T07:37:43.000Z</time>
      </trkpt>
      <trkpt lat="46.47885" lon="15.65294">
        <ele>285.331182</ele>
        <time>2026-07-10T07:37:45.000Z</time>
      </trkpt>
      <trkpt lat="46.47881" lon="15.65294">
        <ele>285.367112</ele>
        <time>2026-07-10T07:37:47.000Z</time>
      </trkpt>
      <trkpt lat="46.47874" lon="15.65299">
        <ele>285.441951</ele>
        <time>2026-07-10T07:37:52.000Z</time>
      </trkpt>
      <trkpt lat="46.47872" lon="15.65301">
        <ele>285.465122</ele>
        <time>2026-07-10T07:37:53.000Z</time>
      </trkpt>
      <trkpt lat="46.4787" lon="15.65314">
        <ele>285.553079</ele>
        <time>2026-07-10T07:37:56.000Z</time>
      </trkpt>
      <trkpt lat="46.47867" lon="15.65322">
        <ele>285.618117</ele>
        <time>2026-07-10T07:37:58.000Z</time>
      </trkpt>
      <trkpt lat="46.47861" lon="15.65328">
        <ele>285.683296</ele>
        <time>2026-07-10T07:38:00.000Z</time>
      </trkpt>
      <trkpt lat="46.47834" lon="15.65339">
        <ele>285.962328</ele>
        <time>2026-07-10T07:38:07.000Z</time>
      </trkpt>
      <trkpt lat="46.47813" lon="15.65348">
        <ele>286.175364</ele>
        <time>2026-07-10T07:38:13.000Z</time>
      </trkpt>
      <trkpt lat="46.47781" lon="15.65362">
        <ele>286.000173</ele>
        <time>2026-07-10T07:38:21.000Z</time>
      </trkpt>
      <trkpt lat="46.47774" lon="15.65366">
        <ele>285.957646</ele>
        <time>2026-07-10T07:38:23.000Z</time>
      </trkpt>
      <trkpt lat="46.47754" lon="15.65377">
        <ele>285.847201</ele>
        <time>2026-07-10T07:38:29.000Z</time>
      </trkpt>
      <trkpt lat="46.4774" lon="15.65394">
        <ele>285.745872</ele>
        <time>2026-07-10T07:38:34.000Z</time>
      </trkpt>
      <trkpt lat="46.4773" lon="15.65409">
        <ele>285.670755</ele>
        <time>2026-07-10T07:38:37.000Z</time>
      </trkpt>
      <trkpt lat="46.47719" lon="15.65419">
        <ele>285.598435</ele>
        <time>2026-07-10T07:38:40.000Z</time>
      </trkpt>
      <trkpt lat="46.47711" lon="15.65426">
        <ele>285.54909</ele>
        <time>2026-07-10T07:38:42.000Z</time>
      </trkpt>
      <trkpt lat="46.47689" lon="15.65447">
        <ele>285.408274</ele>
        <time>2026-07-10T07:38:48.000Z</time>
      </trkpt>
      <trkpt lat="46.47673" lon="15.65459">
        <ele>285.313946</ele>
        <time>2026-07-10T07:38:52.000Z</time>
      </trkpt>
      <trkpt lat="46.47666" lon="15.65466">
        <ele>285.269021</ele>
        <time>2026-07-10T07:38:54.000Z</time>
      </trkpt>
      <trkpt lat="46.47664" lon="15.65471">
        <ele>285.246799</ele>
        <time>2026-07-10T07:38:55.000Z</time>
      </trkpt>
      <trkpt lat="46.47657" lon="15.65487">
        <ele>285.155886</ele>
        <time>2026-07-10T07:38:59.000Z</time>
      </trkpt>
      <trkpt lat="46.47646" lon="15.65496">
        <ele>285.046022</ele>
        <time>2026-07-10T07:39:03.000Z</time>
      </trkpt>
      <trkpt lat="46.47646" lon="15.655">
        <ele>285.022171</ele>
        <time>2026-07-10T07:39:04.000Z</time>
      </trkpt>
      <trkpt lat="46.47652" lon="15.65523">
        <ele>284.876655</ele>
        <time>2026-07-10T07:39:08.000Z</time>
      </trkpt>
      <trkpt lat="46.47654" lon="15.65529">
        <ele>284.834619</ele>
        <time>2026-07-10T07:39:09.000Z</time>
      </trkpt>
      <trkpt lat="46.47657" lon="15.65544">
        <ele>284.741576</ele>
        <time>2026-07-10T07:39:11.000Z</time>
      </trkpt>
      <trkpt lat="46.47666" lon="15.65581">
        <ele>284.513738</ele>
        <time>2026-07-10T07:39:16.000Z</time>
      </trkpt>
      <trkpt lat="46.47669" lon="15.65595">
        <ele>284.420417</ele>
        <time>2026-07-10T07:39:18.000Z</time>
      </trkpt>
      <trkpt lat="46.47677" lon="15.65624">
        <ele>284.24299</ele>
        <time>2026-07-10T07:39:22.000Z</time>
      </trkpt>
      <trkpt lat="46.47683" lon="15.65652">
        <ele>284.067559</ele>
        <time>2026-07-10T07:39:26.000Z</time>
      </trkpt>
      <trkpt lat="46.47687" lon="15.65665">
        <ele>283.984502</ele>
        <time>2026-07-10T07:39:28.000Z</time>
      </trkpt>
      <trkpt lat="46.4769" lon="15.65691">
        <ele>283.823808</ele>
        <time>2026-07-10T07:39:32.000Z</time>
      </trkpt>
      <trkpt lat="46.47699" lon="15.65731">
        <ele>283.604395</ele>
        <time>2026-07-10T07:39:38.000Z</time>
      </trkpt>
      <trkpt lat="46.477" lon="15.65738">
        <ele>283.578055</ele>
        <time>2026-07-10T07:39:39.000Z</time>
      </trkpt>
      <trkpt lat="46.47711" lon="15.65793">
        <ele>283.351775</ele>
        <time>2026-07-10T07:39:47.000Z</time>
      </trkpt>
      <trkpt lat="46.47726" lon="15.65852">
        <ele>283.102129</ele>
        <time>2026-07-10T07:39:55.000Z</time>
      </trkpt>
      <trkpt lat="46.47745" lon="15.65895">
        <ele>282.902509</ele>
        <time>2026-07-10T07:40:01.000Z</time>
      </trkpt>
      <trkpt lat="46.47747" lon="15.65901">
        <ele>282.87383</ele>
        <time>2026-07-10T07:40:02.000Z</time>
      </trkpt>
      <trkpt lat="46.47747" lon="15.65913">
        <ele>282.827161</ele>
        <time>2026-07-10T07:40:04.000Z</time>
      </trkpt>
      <trkpt lat="46.47741" lon="15.65924">
        <ele>282.772067</ele>
        <time>2026-07-10T07:40:06.000Z</time>
      </trkpt>
      <trkpt lat="46.47737" lon="15.65928">
        <ele>282.742404</ele>
        <time>2026-07-10T07:40:07.000Z</time>
      </trkpt>
      <trkpt lat="46.47708" lon="15.6595">
        <ele>282.482536</ele>
        <time>2026-07-10T07:40:13.000Z</time>
      </trkpt>
      <trkpt lat="46.47703" lon="15.65952">
        <ele>282.41491</ele>
        <time>2026-07-10T07:40:14.000Z</time>
      </trkpt>
      <trkpt lat="46.47686" lon="15.65962">
        <ele>282.20456</ele>
        <time>2026-07-10T07:40:17.000Z</time>
      </trkpt>
      <trkpt lat="46.47674" lon="15.65967">
        <ele>282.058443</ele>
        <time>2026-07-10T07:40:19.000Z</time>
      </trkpt>
      <trkpt lat="46.47629" lon="15.65992">
        <ele>281.50638</ele>
        <time>2026-07-10T07:40:26.000Z</time>
      </trkpt>
      <trkpt lat="46.47591" lon="15.66019">
        <ele>281.025672</ele>
        <time>2026-07-10T07:40:32.000Z</time>
      </trkpt>
      <trkpt lat="46.47585" lon="15.66022">
        <ele>280.950736</ele>
        <time>2026-07-10T07:40:33.000Z</time>
      </trkpt>
      <trkpt lat="46.47574" lon="15.6603">
        <ele>280.804891</ele>
        <time>2026-07-10T07:40:35.000Z</time>
      </trkpt>
      <trkpt lat="46.47547" lon="15.66048">
        <ele>280.475394</ele>
        <time>2026-07-10T07:40:40.000Z</time>
      </trkpt>
      <trkpt lat="46.47541" lon="15.66052">
        <ele>280.417658</ele>
        <time>2026-07-10T07:40:41.000Z</time>
      </trkpt>
      <trkpt lat="46.47526" lon="15.66062">
        <ele>280.250428</ele>
        <time>2026-07-10T07:40:44.000Z</time>
      </trkpt>
      <trkpt lat="46.47504" lon="15.66076">
        <ele>280.023725</ele>
        <time>2026-07-10T07:40:48.000Z</time>
      </trkpt>
      <trkpt lat="46.47494" lon="15.66083">
        <ele>279.911527</ele>
        <time>2026-07-10T07:40:50.000Z</time>
      </trkpt>
      <trkpt lat="46.4747" lon="15.66105">
        <ele>279.638102</ele>
        <time>2026-07-10T07:40:55.000Z</time>
      </trkpt>
      <trkpt lat="46.47465" lon="15.6611">
        <ele>279.582202</ele>
        <time>2026-07-10T07:40:56.000Z</time>
      </trkpt>
      <trkpt lat="46.47461" lon="15.66116">
        <ele>279.526916</ele>
        <time>2026-07-10T07:40:57.000Z</time>
      </trkpt>
      <trkpt lat="46.47453" lon="15.66127">
        <ele>279.420595</ele>
        <time>2026-07-10T07:40:59.000Z</time>
      </trkpt>
      <trkpt lat="46.4745" lon="15.66134">
        <ele>279.365712</ele>
        <time>2026-07-10T07:41:00.000Z</time>
      </trkpt>
      <trkpt lat="46.47441" lon="15.66156">
        <ele>279.196076</ele>
        <time>2026-07-10T07:41:03.000Z</time>
      </trkpt>
      <trkpt lat="46.47436" lon="15.66172">
        <ele>279.080194</ele>
        <time>2026-07-10T07:41:05.000Z</time>
      </trkpt>
      <trkpt lat="46.4743" lon="15.66187">
        <ele>278.961551</ele>
        <time>2026-07-10T07:41:07.000Z</time>
      </trkpt>
      <trkpt lat="46.47417" lon="15.66219">
        <ele>278.5864</ele>
        <time>2026-07-10T07:41:11.000Z</time>
      </trkpt>
      <trkpt lat="46.47414" lon="15.66226">
        <ele>278.445366</ele>
        <time>2026-07-10T07:41:12.000Z</time>
      </trkpt>
      <trkpt lat="46.47388" lon="15.66291">
        <ele>277.299049</ele>
        <time>2026-07-10T07:41:20.000Z</time>
      </trkpt>
      <trkpt lat="46.4736" lon="15.66352">
        <ele>276.172476</ele>
        <time>2026-07-10T07:41:28.000Z</time>
      </trkpt>
      <trkpt lat="46.47353" lon="15.66365">
        <ele>275.905634</ele>
        <time>2026-07-10T07:41:30.000Z</time>
      </trkpt>
      <trkpt lat="46.47327" lon="15.66413">
        <ele>274.969679</ele>
        <time>2026-07-10T07:41:37.000Z</time>
      </trkpt>
      <trkpt lat="46.47324" lon="15.6642">
        <ele>274.83123</ele>
        <time>2026-07-10T07:41:38.000Z</time>
      </trkpt>
      <trkpt lat="46.47304" lon="15.66465">
        <ele>274.386142</ele>
        <time>2026-07-10T07:41:44.000Z</time>
      </trkpt>
      <trkpt lat="46.47299" lon="15.66481">
        <ele>274.245346</ele>
        <time>2026-07-10T07:41:46.000Z</time>
      </trkpt>
      <trkpt lat="46.47294" lon="15.66497">
        <ele>274.106271</ele>
        <time>2026-07-10T07:41:48.000Z</time>
      </trkpt>
      <trkpt lat="46.47281" lon="15.66544">
        <ele>273.695738</ele>
        <time>2026-07-10T07:41:54.000Z</time>
      </trkpt>
      <trkpt lat="46.47268" lon="15.66592">
        <ele>273.280487</ele>
        <time>2026-07-10T07:42:00.000Z</time>
      </trkpt>
      <trkpt lat="46.47259" lon="15.66616">
        <ele>273.063677</ele>
        <time>2026-07-10T07:42:03.000Z</time>
      </trkpt>
      <trkpt lat="46.47252" lon="15.6663">
        <ele>272.921899</ele>
        <time>2026-07-10T07:42:05.000Z</time>
      </trkpt>
      <trkpt lat="46.4724" lon="15.66649">
        <ele>272.713619</ele>
        <time>2026-07-10T07:42:08.000Z</time>
      </trkpt>
      <trkpt lat="46.47203" lon="15.66695">
        <ele>272.537735</ele>
        <time>2026-07-10T07:42:16.000Z</time>
      </trkpt>
      <trkpt lat="46.47194" lon="15.66705">
        <ele>272.498017</ele>
        <time>2026-07-10T07:42:18.000Z</time>
      </trkpt>
      <trkpt lat="46.47184" lon="15.66715">
        <ele>272.456902</ele>
        <time>2026-07-10T07:42:20.000Z</time>
      </trkpt>
      <trkpt lat="46.4714" lon="15.66748">
        <ele>272.292592</ele>
        <time>2026-07-10T07:42:28.000Z</time>
      </trkpt>
      <trkpt lat="46.47102" lon="15.6677">
        <ele>272.153735</ele>
        <time>2026-07-10T07:42:35.000Z</time>
      </trkpt>
      <trkpt lat="46.47092" lon="15.66778">
        <ele>272.114873</ele>
        <time>2026-07-10T07:42:37.000Z</time>
      </trkpt>
      <trkpt lat="46.47083" lon="15.66791">
        <ele>272.095079</ele>
        <time>2026-07-10T07:42:39.000Z</time>
      </trkpt>
      <trkpt lat="46.47076" lon="15.66806">
        <ele>272.110234</ele>
        <time>2026-07-10T07:42:41.000Z</time>
      </trkpt>
      <trkpt lat="46.47068" lon="15.66821">
        <ele>272.125126</ele>
        <time>2026-07-10T07:42:43.000Z</time>
      </trkpt>
      <trkpt lat="46.47044" lon="15.66861">
        <ele>272.167643</ele>
        <time>2026-07-10T07:42:49.000Z</time>
      </trkpt>
      <trkpt lat="46.47009" lon="15.66908">
        <ele>272.224247</ele>
        <time>2026-07-10T07:42:57.000Z</time>
      </trkpt>
      <trkpt lat="46.47005" lon="15.66915">
        <ele>272.231102</ele>
        <time>2026-07-10T07:42:58.000Z</time>
      </trkpt>
      <trkpt lat="46.46999" lon="15.6693">
        <ele>272.245435</ele>
        <time>2026-07-10T07:43:00.000Z</time>
      </trkpt>
      <trkpt lat="46.46995" lon="15.66948">
        <ele>272.260461</ele>
        <time>2026-07-10T07:43:02.000Z</time>
      </trkpt>
      <trkpt lat="46.46981" lon="15.67029">
        <ele>271.99122</ele>
        <time>2026-07-10T07:43:11.000Z</time>
      </trkpt>
      <trkpt lat="46.46971" lon="15.67084">
        <ele>271.479037</ele>
        <time>2026-07-10T07:43:17.000Z</time>
      </trkpt>
      <trkpt lat="46.46969" lon="15.67093">
        <ele>271.393852</ele>
        <time>2026-07-10T07:43:18.000Z</time>
      </trkpt>
      <trkpt lat="46.46966" lon="15.67101">
        <ele>271.310553</ele>
        <time>2026-07-10T07:43:19.000Z</time>
      </trkpt>
      <trkpt lat="46.46958" lon="15.67116">
        <ele>271.14567</ele>
        <time>2026-07-10T07:43:21.000Z</time>
      </trkpt>
      <trkpt lat="46.46954" lon="15.67122">
        <ele>271.063237</ele>
        <time>2026-07-10T07:43:22.000Z</time>
      </trkpt>
      <trkpt lat="46.46921" lon="15.67167">
        <ele>270.477695</ele>
        <time>2026-07-10T07:43:29.000Z</time>
      </trkpt>
      <trkpt lat="46.46903" lon="15.67192">
        <ele>270.15011</ele>
        <time>2026-07-10T07:43:33.000Z</time>
      </trkpt>
      <trkpt lat="46.46899" lon="15.67198">
        <ele>270.069873</ele>
        <time>2026-07-10T07:43:34.000Z</time>
      </trkpt>
      <trkpt lat="46.4689" lon="15.6721">
        <ele>269.940624</ele>
        <time>2026-07-10T07:43:36.000Z</time>
      </trkpt>
      <trkpt lat="46.46882" lon="15.67223">
        <ele>269.911065</ele>
        <time>2026-07-10T07:43:38.000Z</time>
      </trkpt>
      <trkpt lat="46.46858" lon="15.67253">
        <ele>269.834229</ele>
        <time>2026-07-10T07:43:43.000Z</time>
      </trkpt>
      <trkpt lat="46.4684" lon="15.67277">
        <ele>269.774063</ele>
        <time>2026-07-10T07:43:47.000Z</time>
      </trkpt>
      <trkpt lat="46.46809" lon="15.67318">
        <ele>269.672074</ele>
        <time>2026-07-10T07:43:54.000Z</time>
      </trkpt>
      <trkpt lat="46.46768" lon="15.67372">
        <ele>269.538659</ele>
        <time>2026-07-10T07:44:03.000Z</time>
      </trkpt>
      <trkpt lat="46.46764" lon="15.67378">
        <ele>269.524433</ele>
        <time>2026-07-10T07:44:04.000Z</time>
      </trkpt>
      <trkpt lat="46.46729" lon="15.67425">
        <ele>269.194166</ele>
        <time>2026-07-10T07:44:12.000Z</time>
      </trkpt>
      <trkpt lat="46.46707" lon="15.67457">
        <ele>268.951234</ele>
        <time>2026-07-10T07:44:18.000Z</time>
      </trkpt>
      <trkpt lat="46.46702" lon="15.67461">
        <ele>268.913644</ele>
        <time>2026-07-10T07:44:19.000Z</time>
      </trkpt>
      <trkpt lat="46.46693" lon="15.67475">
        <ele>268.80823</ele>
        <time>2026-07-10T07:44:23.000Z</time>
      </trkpt>
      <trkpt lat="46.46694" lon="15.67488">
        <ele>268.738071</ele>
        <time>2026-07-10T07:44:25.000Z</time>
      </trkpt>
      <trkpt lat="46.46698" lon="15.67502">
        <ele>268.660013</ele>
        <time>2026-07-10T07:44:27.000Z</time>
      </trkpt>
      <trkpt lat="46.46711" lon="15.67541">
        <ele>268.43186</ele>
        <time>2026-07-10T07:44:32.000Z</time>
      </trkpt>
      <trkpt lat="46.46726" lon="15.67589">
        <ele>268.154228</ele>
        <time>2026-07-10T07:44:38.000Z</time>
      </trkpt>
      <trkpt lat="46.46741" lon="15.67618">
        <ele>267.996922</ele>
        <time>2026-07-10T07:44:42.000Z</time>
      </trkpt>
      <trkpt lat="46.46745" lon="15.67623">
        <ele>267.959444</ele>
        <time>2026-07-10T07:44:43.000Z</time>
      </trkpt>
      <trkpt lat="46.46778" lon="15.6766">
        <ele>267.69729</ele>
        <time>2026-07-10T07:44:50.000Z</time>
      </trkpt>
      <trkpt lat="46.46813" lon="15.67708">
        <ele>267.394663</ele>
        <time>2026-07-10T07:44:58.000Z</time>
      </trkpt>
      <trkpt lat="46.46845" lon="15.67762">
        <ele>267.082014</ele>
        <time>2026-07-10T07:45:07.000Z</time>
      </trkpt>
      <trkpt lat="46.46864" lon="15.67796">
        <ele>266.845244</ele>
        <time>2026-07-10T07:45:13.000Z</time>
      </trkpt>
      <trkpt lat="46.46897" lon="15.67838">
        <ele>266.437526</ele>
        <time>2026-07-10T07:45:21.000Z</time>
      </trkpt>
      <trkpt lat="46.46907" lon="15.67857">
        <ele>266.283265</ele>
        <time>2026-07-10T07:45:24.000Z</time>
      </trkpt>
      <trkpt lat="46.46913" lon="15.67873">
        <ele>266.168743</ele>
        <time>2026-07-10T07:45:26.000Z</time>
      </trkpt>
      <trkpt lat="46.4693" lon="15.6793">
        <ele>265.771588</ele>
        <time>2026-07-10T07:45:33.000Z</time>
      </trkpt>
      <trkpt lat="46.46936" lon="15.67955">
        <ele>265.601123</ele>
        <time>2026-07-10T07:45:36.000Z</time>
      </trkpt>
      <trkpt lat="46.46938" lon="15.67972">
        <ele>265.490494</ele>
        <time>2026-07-10T07:45:38.000Z</time>
      </trkpt>
      <trkpt lat="46.46937" lon="15.67981">
        <ele>265.435338</ele>
        <time>2026-07-10T07:45:39.000Z</time>
      </trkpt>
      <trkpt lat="46.46934" lon="15.67997">
        <ele>265.337263</ele>
        <time>2026-07-10T07:45:41.000Z</time>
      </trkpt>
      <trkpt lat="46.46926" lon="15.6802">
        <ele>265.414922</ele>
        <time>2026-07-10T07:45:44.000Z</time>
      </trkpt>
      <trkpt lat="46.469" lon="15.68079">
        <ele>265.630449</ele>
        <time>2026-07-10T07:45:52.000Z</time>
      </trkpt>
      <trkpt lat="46.4688" lon="15.68125">
        <ele>265.795433</ele>
        <time>2026-07-10T07:45:58.000Z</time>
      </trkpt>
      <trkpt lat="46.46872" lon="15.68139">
        <ele>265.850908</ele>
        <time>2026-07-10T07:46:00.000Z</time>
      </trkpt>
      <trkpt lat="46.46843" lon="15.68197">
        <ele>266.070756</ele>
        <time>2026-07-10T07:46:08.000Z</time>
      </trkpt>
      <trkpt lat="46.46836" lon="15.68212">
        <ele>266.124884</ele>
        <time>2026-07-10T07:46:10.000Z</time>
      </trkpt>
      <trkpt lat="46.46806" lon="15.68285">
        <ele>266.085465</ele>
        <time>2026-07-10T07:46:20.000Z</time>
      </trkpt>
      <trkpt lat="46.4678" lon="15.6836">
        <ele>266.039128</ele>
        <time>2026-07-10T07:46:30.000Z</time>
      </trkpt>
      <trkpt lat="46.46769" lon="15.68401">
        <ele>266.015104</ele>
        <time>2026-07-10T07:46:35.000Z</time>
      </trkpt>
      <trkpt lat="46.46765" lon="15.68417">
        <ele>266.005609</ele>
        <time>2026-07-10T07:46:37.000Z</time>
      </trkpt>
      <trkpt lat="46.46753" lon="15.68464">
        <ele>265.940993</ele>
        <time>2026-07-10T07:46:43.000Z</time>
      </trkpt>
      <trkpt lat="46.46745" lon="15.68486">
        <ele>265.873655</ele>
        <time>2026-07-10T07:46:46.000Z</time>
      </trkpt>
      <trkpt lat="46.46717" lon="15.68544">
        <ele>265.680179</ele>
        <time>2026-07-10T07:46:54.000Z</time>
      </trkpt>
      <trkpt lat="46.46683" lon="15.68597">
        <ele>265.480908</ele>
        <time>2026-07-10T07:47:02.000Z</time>
      </trkpt>
      <trkpt lat="46.46651" lon="15.68642">
        <ele>265.30691</ele>
        <time>2026-07-10T07:47:09.000Z</time>
      </trkpt>
      <trkpt lat="46.46646" lon="15.68646">
        <ele>265.282067</ele>
        <time>2026-07-10T07:47:10.000Z</time>
      </trkpt>
      <trkpt lat="46.4664" lon="15.68649">
        <ele>265.251654</ele>
        <time>2026-07-10T07:47:11.000Z</time>
      </trkpt>
      <trkpt lat="46.46611" lon="15.68663">
        <ele>265.08071</ele>
        <time>2026-07-10T07:47:16.000Z</time>
      </trkpt>
      <trkpt lat="46.4657" lon="15.68683">
        <ele>264.843047</ele>
        <time>2026-07-10T07:47:23.000Z</time>
      </trkpt>
      <trkpt lat="46.46518" lon="15.68713">
        <ele>264.534711</ele>
        <time>2026-07-10T07:47:32.000Z</time>
      </trkpt>
      <trkpt lat="46.46512" lon="15.68716">
        <ele>264.49977</ele>
        <time>2026-07-10T07:47:33.000Z</time>
      </trkpt>
      <trkpt lat="46.46472" lon="15.68738">
        <ele>264.278983</ele>
        <time>2026-07-10T07:47:40.000Z</time>
      </trkpt>
      <trkpt lat="46.46426" lon="15.68763">
        <ele>264.2484</ele>
        <time>2026-07-10T07:47:48.000Z</time>
      </trkpt>
      <trkpt lat="46.46403" lon="15.68776">
        <ele>264.233298</ele>
        <time>2026-07-10T07:47:52.000Z</time>
      </trkpt>
      <trkpt lat="46.46358" lon="15.68801">
        <ele>264.203809</ele>
        <time>2026-07-10T07:48:00.000Z</time>
      </trkpt>
      <trkpt lat="46.46341" lon="15.6881">
        <ele>264.192562</ele>
        <time>2026-07-10T07:48:03.000Z</time>
      </trkpt>
      <trkpt lat="46.46291" lon="15.68841">
        <ele>264.040331</ele>
        <time>2026-07-10T07:48:12.000Z</time>
      </trkpt>
      <trkpt lat="46.46285" lon="15.68845">
        <ele>263.995796</ele>
        <time>2026-07-10T07:48:13.000Z</time>
      </trkpt>
      <trkpt lat="46.46262" lon="15.68859">
        <ele>263.815936</ele>
        <time>2026-07-10T07:48:17.000Z</time>
      </trkpt>
      <trkpt lat="46.46239" lon="15.68872">
        <ele>263.636596</ele>
        <time>2026-07-10T07:48:21.000Z</time>
      </trkpt>
      <trkpt lat="46.46192" lon="15.68898">
        <ele>263.276528</ele>
        <time>2026-07-10T07:48:29.000Z</time>
      </trkpt>
      <trkpt lat="46.46181" lon="15.68906">
        <ele>263.188409</ele>
        <time>2026-07-10T07:48:31.000Z</time>
      </trkpt>
      <trkpt lat="46.46129" lon="15.68937">
        <ele>262.813853</ele>
        <time>2026-07-10T07:48:40.000Z</time>
      </trkpt>
      <trkpt lat="46.46076" lon="15.68966">
        <ele>262.535415</ele>
        <time>2026-07-10T07:48:49.000Z</time>
      </trkpt>
      <trkpt lat="46.46065" lon="15.68973">
        <ele>262.476715</ele>
        <time>2026-07-10T07:48:51.000Z</time>
      </trkpt>
      <trkpt lat="46.46019" lon="15.68998">
        <ele>262.233927</ele>
        <time>2026-07-10T07:49:00.000Z</time>
      </trkpt>
      <trkpt lat="46.4598" lon="15.69021">
        <ele>262.024016</ele>
        <time>2026-07-10T07:49:08.000Z</time>
      </trkpt>
      <trkpt lat="46.45955" lon="15.69036">
        <ele>262.210239</ele>
        <time>2026-07-10T07:49:13.000Z</time>
      </trkpt>
      <trkpt lat="46.45941" lon="15.69044">
        <ele>262.382739</ele>
        <time>2026-07-10T07:49:16.000Z</time>
      </trkpt>
      <trkpt lat="46.45936" lon="15.69047">
        <ele>262.439199</ele>
        <time>2026-07-10T07:49:17.000Z</time>
      </trkpt>
      <trkpt lat="46.45926" lon="15.69052">
        <ele>262.55656</ele>
        <time>2026-07-10T07:49:19.000Z</time>
      </trkpt>
      <trkpt lat="46.45916" lon="15.69057">
        <ele>262.675209</ele>
        <time>2026-07-10T07:49:21.000Z</time>
      </trkpt>
      <trkpt lat="46.45888" lon="15.69074">
        <ele>263.015987</ele>
        <time>2026-07-10T07:49:27.000Z</time>
      </trkpt>
      <trkpt lat="46.45835" lon="15.69104">
        <ele>263.65321</ele>
        <time>2026-07-10T07:49:38.000Z</time>
      </trkpt>
      <trkpt lat="46.45781" lon="15.69134">
        <ele>263.954246</ele>
        <time>2026-07-10T07:49:49.000Z</time>
      </trkpt>
      <trkpt lat="46.45766" lon="15.69143">
        <ele>263.926732</ele>
        <time>2026-07-10T07:49:52.000Z</time>
      </trkpt>
      <trkpt lat="46.45732" lon="15.69162">
        <ele>263.86418</ele>
        <time>2026-07-10T07:49:59.000Z</time>
      </trkpt>
      <trkpt lat="46.45698" lon="15.69179">
        <ele>263.803396</ele>
        <time>2026-07-10T07:50:06.000Z</time>
      </trkpt>
      <trkpt lat="46.45648" lon="15.69201">
        <ele>263.714334</ele>
        <time>2026-07-10T07:50:15.000Z</time>
      </trkpt>
      <trkpt lat="46.45619" lon="15.69212">
        <ele>263.617963</ele>
        <time>2026-07-10T07:50:20.000Z</time>
      </trkpt>
      <trkpt lat="46.45585" lon="15.69224">
        <ele>263.474936</ele>
        <time>2026-07-10T07:50:26.000Z</time>
      </trkpt>
      <trkpt lat="46.45553" lon="15.69237">
        <ele>263.334144</ele>
        <time>2026-07-10T07:50:32.000Z</time>
      </trkpt>
      <trkpt lat="46.45503" lon="15.69256">
        <ele>263.122287</ele>
        <time>2026-07-10T07:50:41.000Z</time>
      </trkpt>
      <trkpt lat="46.45481" lon="15.69265">
        <ele>263.027082</ele>
        <time>2026-07-10T07:50:45.000Z</time>
      </trkpt>
      <trkpt lat="46.45466" lon="15.69267">
        <ele>262.964442</ele>
        <time>2026-07-10T07:50:48.000Z</time>
      </trkpt>
      <trkpt lat="46.45461" lon="15.69267">
        <ele>262.942548</ele>
        <time>2026-07-10T07:50:49.000Z</time>
      </trkpt>
      <trkpt lat="46.45439" lon="15.69264">
        <ele>262.864241</ele>
        <time>2026-07-10T07:50:53.000Z</time>
      </trkpt>
      <trkpt lat="46.45415" lon="15.69262">
        <ele>262.77989</ele>
        <time>2026-07-10T07:50:58.000Z</time>
      </trkpt>
      <trkpt lat="46.45411" lon="15.69262">
        <ele>262.764551</ele>
        <time>2026-07-10T07:50:59.000Z</time>
      </trkpt>
      <trkpt lat="46.45407" lon="15.69265">
        <ele>262.75031</ele>
        <time>2026-07-10T07:51:00.000Z</time>
      </trkpt>
      <trkpt lat="46.45404" lon="15.69268">
        <ele>262.735419</ele>
        <time>2026-07-10T07:51:01.000Z</time>
      </trkpt>
      <trkpt lat="46.454" lon="15.69279">
        <ele>262.706939</ele>
        <time>2026-07-10T07:51:03.000Z</time>
      </trkpt>
      <trkpt lat="46.45399" lon="15.69285">
        <ele>262.691006</ele>
        <time>2026-07-10T07:51:04.000Z</time>
      </trkpt>
      <trkpt lat="46.45397" lon="15.69291">
        <ele>262.674975</ele>
        <time>2026-07-10T07:51:05.000Z</time>
      </trkpt>
      <trkpt lat="46.45392" lon="15.69302">
        <ele>262.642627</ele>
        <time>2026-07-10T07:51:07.000Z</time>
      </trkpt>
      <trkpt lat="46.45387" lon="15.69305">
        <ele>262.624875</ele>
        <time>2026-07-10T07:51:08.000Z</time>
      </trkpt>
      <trkpt lat="46.45355" lon="15.6932">
        <ele>262.505557</ele>
        <time>2026-07-10T07:51:14.000Z</time>
      </trkpt>
      <trkpt lat="46.45316" lon="15.69334">
        <ele>262.363927</ele>
        <time>2026-07-10T07:51:21.000Z</time>
      </trkpt>
      <trkpt lat="46.45284" lon="15.69347">
        <ele>262.190766</ele>
        <time>2026-07-10T07:51:28.000Z</time>
      </trkpt>
      <trkpt lat="46.45271" lon="15.69351">
        <ele>262.10871</ele>
        <time>2026-07-10T07:51:31.000Z</time>
      </trkpt>
      <trkpt lat="46.45252" lon="15.69358">
        <ele>261.981713</ele>
        <time>2026-07-10T07:51:35.000Z</time>
      </trkpt>
      <trkpt lat="46.45242" lon="15.69361">
        <ele>261.911059</ele>
        <time>2026-07-10T07:51:37.000Z</time>
      </trkpt>
      <trkpt lat="46.45216" lon="15.69371">
        <ele>261.736816</ele>
        <time>2026-07-10T07:51:42.000Z</time>
      </trkpt>
      <trkpt lat="46.45197" lon="15.69379">
        <ele>261.611227</ele>
        <time>2026-07-10T07:51:46.000Z</time>
      </trkpt>
      <trkpt lat="46.45189" lon="15.69383">
        <ele>261.555739</ele>
        <time>2026-07-10T07:51:48.000Z</time>
      </trkpt>
      <trkpt lat="46.45159" lon="15.69397">
        <ele>261.354327</ele>
        <time>2026-07-10T07:51:55.000Z</time>
      </trkpt>
      <trkpt lat="46.45125" lon="15.6941">
        <ele>261.112916</ele>
        <time>2026-07-10T07:52:02.000Z</time>
      </trkpt>
      <trkpt lat="46.45114" lon="15.69414">
        <ele>261.014623</ele>
        <time>2026-07-10T07:52:04.000Z</time>
      </trkpt>
      <trkpt lat="46.45071" lon="15.69432">
        <ele>260.62595</ele>
        <time>2026-07-10T07:52:12.000Z</time>
      </trkpt>
      <trkpt lat="46.45029" lon="15.69451">
        <ele>260.23173</ele>
        <time>2026-07-10T07:52:20.000Z</time>
      </trkpt>
      <trkpt lat="46.45006" lon="15.69459">
        <ele>260.031473</ele>
        <time>2026-07-10T07:52:24.000Z</time>
      </trkpt>
      <trkpt lat="46.45001" lon="15.69461">
        <ele>259.97925</ele>
        <time>2026-07-10T07:52:25.000Z</time>
      </trkpt>
      <trkpt lat="46.44978" lon="15.69466">
        <ele>259.780641</ele>
        <time>2026-07-10T07:52:29.000Z</time>
      </trkpt>
      <trkpt lat="46.44948" lon="15.69478">
        <ele>259.52812</ele>
        <time>2026-07-10T07:52:35.000Z</time>
      </trkpt>
      <trkpt lat="46.44917" lon="15.6949">
        <ele>259.36779</ele>
        <time>2026-07-10T07:52:41.000Z</time>
      </trkpt>
      <trkpt lat="46.44901" lon="15.69496">
        <ele>259.285124</ele>
        <time>2026-07-10T07:52:44.000Z</time>
      </trkpt>
      <trkpt lat="46.44852" lon="15.69508">
        <ele>259.035494</ele>
        <time>2026-07-10T07:52:53.000Z</time>
      </trkpt>
      <trkpt lat="46.44815" lon="15.69501">
        <ele>258.848215</ele>
        <time>2026-07-10T07:53:00.000Z</time>
      </trkpt>
      <trkpt lat="46.44799" lon="15.69499">
        <ele>258.765412</ele>
        <time>2026-07-10T07:53:03.000Z</time>
      </trkpt>
      <trkpt lat="46.44788" lon="15.69499">
        <ele>258.709077</ele>
        <time>2026-07-10T07:53:05.000Z</time>
      </trkpt>
      <trkpt lat="46.44782" lon="15.695">
        <ele>258.680904</ele>
        <time>2026-07-10T07:53:06.000Z</time>
      </trkpt>
      <trkpt lat="46.44771" lon="15.69501">
        <ele>258.667614</ele>
        <time>2026-07-10T07:53:08.000Z</time>
      </trkpt>
      <trkpt lat="46.4476" lon="15.69503">
        <ele>258.682757</ele>
        <time>2026-07-10T07:53:10.000Z</time>
      </trkpt>
      <trkpt lat="46.44749" lon="15.69504">
        <ele>258.698821</ele>
        <time>2026-07-10T07:53:12.000Z</time>
      </trkpt>
      <trkpt lat="46.44733" lon="15.69509">
        <ele>258.722347</ele>
        <time>2026-07-10T07:53:15.000Z</time>
      </trkpt>
      <trkpt lat="46.44711" lon="15.69516">
        <ele>258.755153</ele>
        <time>2026-07-10T07:53:19.000Z</time>
      </trkpt>
      <trkpt lat="46.447" lon="15.69519">
        <ele>258.77127</ele>
        <time>2026-07-10T07:53:21.000Z</time>
      </trkpt>
      <trkpt lat="46.44689" lon="15.69523">
        <ele>258.786164</ele>
        <time>2026-07-10T07:53:23.000Z</time>
      </trkpt>
      <trkpt lat="46.44661" lon="15.69531">
        <ele>258.826807</ele>
        <time>2026-07-10T07:53:29.000Z</time>
      </trkpt>
      <trkpt lat="46.44628" lon="15.69535">
        <ele>258.875372</ele>
        <time>2026-07-10T07:53:36.000Z</time>
      </trkpt>
      <trkpt lat="46.44583" lon="15.69539">
        <ele>258.892756</ele>
        <time>2026-07-10T07:53:44.000Z</time>
      </trkpt>
      <trkpt lat="46.44578" lon="15.6954">
        <ele>258.885156</ele>
        <time>2026-07-10T07:53:45.000Z</time>
      </trkpt>
      <trkpt lat="46.44544" lon="15.69547">
        <ele>258.840614</ele>
        <time>2026-07-10T07:53:51.000Z</time>
      </trkpt>
      <trkpt lat="46.44539" lon="15.69548">
        <ele>258.83354</ele>
        <time>2026-07-10T07:53:52.000Z</time>
      </trkpt>
      <trkpt lat="46.44517" lon="15.69551">
        <ele>258.803486</ele>
        <time>2026-07-10T07:53:56.000Z</time>
      </trkpt>
      <trkpt lat="46.44505" lon="15.69552">
        <ele>258.788048</ele>
        <time>2026-07-10T07:53:58.000Z</time>
      </trkpt>
      <trkpt lat="46.44488" lon="15.69555">
        <ele>258.764808</ele>
        <time>2026-07-10T07:54:01.000Z</time>
      </trkpt>
      <trkpt lat="46.44482" lon="15.69556">
        <ele>258.757066</ele>
        <time>2026-07-10T07:54:02.000Z</time>
      </trkpt>
      <trkpt lat="46.4447" lon="15.69558">
        <ele>258.741742</ele>
        <time>2026-07-10T07:54:04.000Z</time>
      </trkpt>
      <trkpt lat="46.44453" lon="15.69561">
        <ele>258.719051</ele>
        <time>2026-07-10T07:54:07.000Z</time>
      </trkpt>
      <trkpt lat="46.44437" lon="15.69563">
        <ele>258.697225</ele>
        <time>2026-07-10T07:54:10.000Z</time>
      </trkpt>
      <trkpt lat="46.44426" lon="15.69563">
        <ele>258.682501</ele>
        <time>2026-07-10T07:54:12.000Z</time>
      </trkpt>
      <trkpt lat="46.44392" lon="15.69565">
        <ele>258.638776</ele>
        <time>2026-07-10T07:54:18.000Z</time>
      </trkpt>
      <trkpt lat="46.4438" lon="15.69565">
        <ele>258.624536</ele>
        <time>2026-07-10T07:54:20.000Z</time>
      </trkpt>
      <trkpt lat="46.44343" lon="15.69572">
        <ele>258.577077</ele>
        <time>2026-07-10T07:54:27.000Z</time>
      </trkpt>
      <trkpt lat="46.44338" lon="15.69572">
        <ele>258.570849</ele>
        <time>2026-07-10T07:54:28.000Z</time>
      </trkpt>
      <trkpt lat="46.44334" lon="15.69571">
        <ele>258.564825</ele>
        <time>2026-07-10T07:54:29.000Z</time>
      </trkpt>
      <trkpt lat="46.44317" lon="15.69567">
        <ele>258.542919</ele>
        <time>2026-07-10T07:54:33.000Z</time>
      </trkpt>
      <trkpt lat="46.44308" lon="15.69566">
        <ele>258.531545</ele>
        <time>2026-07-10T07:54:35.000Z</time>
      </trkpt>
      <trkpt lat="46.44284" lon="15.69563">
        <ele>258.501311</ele>
        <time>2026-07-10T07:54:40.000Z</time>
      </trkpt>
      <trkpt lat="46.44247" lon="15.69566">
        <ele>258.454871</ele>
        <time>2026-07-10T07:54:48.000Z</time>
      </trkpt>
      <trkpt lat="46.44219" lon="15.69577">
        <ele>258.627829</ele>
        <time>2026-07-10T07:54:54.000Z</time>
      </trkpt>
      <trkpt lat="46.44209" lon="15.69579">
        <ele>258.701399</ele>
        <time>2026-07-10T07:54:56.000Z</time>
      </trkpt>
      <trkpt lat="46.442" lon="15.69579">
        <ele>258.766212</ele>
        <time>2026-07-10T07:54:58.000Z</time>
      </trkpt>
      <trkpt lat="46.44195" lon="15.69575">
        <ele>258.810037</ele>
        <time>2026-07-10T07:55:00.000Z</time>
      </trkpt>
      <trkpt lat="46.44193" lon="15.69557">
        <ele>258.899957</ele>
        <time>2026-07-10T07:55:04.000Z</time>
      </trkpt>
      <trkpt lat="46.4419" lon="15.6952">
        <ele>259.095019</ele>
        <time>2026-07-10T07:55:10.000Z</time>
      </trkpt>
      <trkpt lat="46.44188" lon="15.69513">
        <ele>259.12956</ele>
        <time>2026-07-10T07:55:11.000Z</time>
      </trkpt>
      <trkpt lat="46.44185" lon="15.69493">
        <ele>259.237837</ele>
        <time>2026-07-10T07:55:14.000Z</time>
      </trkpt>
      <trkpt lat="46.44183" lon="15.69479">
        <ele>259.312886</ele>
        <time>2026-07-10T07:55:16.000Z</time>
      </trkpt>
      <trkpt lat="46.44181" lon="15.69464">
        <ele>259.390397</ele>
        <time>2026-07-10T07:55:18.000Z</time>
      </trkpt>
      <trkpt lat="46.44179" lon="15.6945">
        <ele>259.464822</ele>
        <time>2026-07-10T07:55:20.000Z</time>
      </trkpt>
      <trkpt lat="46.44177" lon="15.69443">
        <ele>259.503846</ele>
        <time>2026-07-10T07:55:21.000Z</time>
      </trkpt>
      <trkpt lat="46.44175" lon="15.69436">
        <ele>259.540013</ele>
        <time>2026-07-10T07:55:22.000Z</time>
      </trkpt>
      <trkpt lat="46.44173" lon="15.6943">
        <ele>259.577184</ele>
        <time>2026-07-10T07:55:23.000Z</time>
      </trkpt>
      <trkpt lat="46.44158" lon="15.694">
        <ele>259.764486</ele>
        <time>2026-07-10T07:55:28.000Z</time>
      </trkpt>
      <trkpt lat="46.44137" lon="15.69357">
        <ele>259.894037</ele>
        <time>2026-07-10T07:55:35.000Z</time>
      </trkpt>
      <trkpt lat="46.44134" lon="15.69343">
        <ele>259.92702</ele>
        <time>2026-07-10T07:55:37.000Z</time>
      </trkpt>
      <trkpt lat="46.44126" lon="15.69315">
        <ele>259.994599</ele>
        <time>2026-07-10T07:55:41.000Z</time>
      </trkpt>
      <trkpt lat="46.4412" lon="15.69285">
        <ele>260.063531</ele>
        <time>2026-07-10T07:55:45.000Z</time>
      </trkpt>
      <trkpt lat="46.4411" lon="15.69251">
        <ele>260.145698</ele>
        <time>2026-07-10T07:55:50.000Z</time>
      </trkpt>
      <trkpt lat="46.44106" lon="15.69238">
        <ele>260.177296</ele>
        <time>2026-07-10T07:55:52.000Z</time>
      </trkpt>
      <trkpt lat="46.44097" lon="15.69205">
        <ele>260.255036</ele>
        <time>2026-07-10T07:55:57.000Z</time>
      </trkpt>
      <trkpt lat="46.44095" lon="15.692">
        <ele>260.269431</ele>
        <time>2026-07-10T07:55:58.000Z</time>
      </trkpt>
      <trkpt lat="46.44086" lon="15.69165">
        <ele>260.350568</ele>
        <time>2026-07-10T07:56:04.000Z</time>
      </trkpt>
      <trkpt lat="46.44073" lon="15.69118">
        <ele>260.418695</ele>
        <time>2026-07-10T07:56:11.000Z</time>
      </trkpt>
      <trkpt lat="46.44062" lon="15.6908">
        <ele>260.469085</ele>
        <time>2026-07-10T07:56:17.000Z</time>
      </trkpt>
      <trkpt lat="46.44059" lon="15.69073">
        <ele>260.477935</ele>
        <time>2026-07-10T07:56:18.000Z</time>
      </trkpt>
      <trkpt lat="46.44054" lon="15.6906">
        <ele>260.495541</ele>
        <time>2026-07-10T07:56:20.000Z</time>
      </trkpt>
      <trkpt lat="46.44048" lon="15.69041">
        <ele>260.521032</ele>
        <time>2026-07-10T07:56:23.000Z</time>
      </trkpt>
      <trkpt lat="46.4404" lon="15.69021">
        <ele>260.548323</ele>
        <time>2026-07-10T07:56:26.000Z</time>
      </trkpt>
      <trkpt lat="46.44034" lon="15.69008">
        <ele>260.566963</ele>
        <time>2026-07-10T07:56:28.000Z</time>
      </trkpt>
      <trkpt lat="46.44025" lon="15.68984">
        <ele>260.600688</ele>
        <time>2026-07-10T07:56:32.000Z</time>
      </trkpt>
      <trkpt lat="46.44018" lon="15.68966">
        <ele>260.625316</ele>
        <time>2026-07-10T07:56:35.000Z</time>
      </trkpt>
      <trkpt lat="46.44013" lon="15.68953">
        <ele>260.64225</ele>
        <time>2026-07-10T07:56:37.000Z</time>
      </trkpt>
      <trkpt lat="46.43995" lon="15.689">
        <ele>260.56924</ele>
        <time>2026-07-10T07:56:45.000Z</time>
      </trkpt>
      <trkpt lat="46.43981" lon="15.68866">
        <ele>260.419479</ele>
        <time>2026-07-10T07:56:50.000Z</time>
      </trkpt>
      <trkpt lat="46.43973" lon="15.68846">
        <ele>260.331421</ele>
        <time>2026-07-10T07:56:53.000Z</time>
      </trkpt>
      <trkpt lat="46.4397" lon="15.6884">
        <ele>260.303544</ele>
        <time>2026-07-10T07:56:54.000Z</time>
      </trkpt>
      <trkpt lat="46.4395" lon="15.68778">
        <ele>260.042459</ele>
        <time>2026-07-10T07:57:03.000Z</time>
      </trkpt>
      <trkpt lat="46.43939" lon="15.68742">
        <ele>259.892663</ele>
        <time>2026-07-10T07:57:08.000Z</time>
      </trkpt>
      <trkpt lat="46.43931" lon="15.6872">
        <ele>259.799627</ele>
        <time>2026-07-10T07:57:11.000Z</time>
      </trkpt>
      <trkpt lat="46.43908" lon="15.68674">
        <ele>259.755068</ele>
        <time>2026-07-10T07:57:18.000Z</time>
      </trkpt>
      <trkpt lat="46.43894" lon="15.68648">
        <ele>259.843371</ele>
        <time>2026-07-10T07:57:22.000Z</time>
      </trkpt>
      <trkpt lat="46.43879" lon="15.68623">
        <ele>259.932434</ele>
        <time>2026-07-10T07:57:26.000Z</time>
      </trkpt>
      <trkpt lat="46.43855" lon="15.68561">
        <ele>260.122843</ele>
        <time>2026-07-10T07:57:35.000Z</time>
      </trkpt>
      <trkpt lat="46.43845" lon="15.6851">
        <ele>260.263708</ele>
        <time>2026-07-10T07:57:42.000Z</time>
      </trkpt>
      <trkpt lat="46.43843" lon="15.68503">
        <ele>260.284675</ele>
        <time>2026-07-10T07:57:43.000Z</time>
      </trkpt>
      <trkpt lat="46.43836" lon="15.68483">
        <ele>260.343812</ele>
        <time>2026-07-10T07:57:46.000Z</time>
      </trkpt>
      <trkpt lat="46.43813" lon="15.68438">
        <ele>261.924425</ele>
        <time>2026-07-10T07:57:54.000Z</time>
      </trkpt>
      <trkpt lat="46.43794" lon="15.684">
        <ele>263.640736</ele>
        <time>2026-07-10T07:58:00.000Z</time>
      </trkpt>
      <trkpt lat="46.43789" lon="15.68386">
        <ele>264.240279</ele>
        <time>2026-07-10T07:58:02.000Z</time>
      </trkpt>
      <trkpt lat="46.43785" lon="15.6837">
        <ele>264.825579</ele>
        <time>2026-07-10T07:58:04.000Z</time>
      </trkpt>
      <trkpt lat="46.43783" lon="15.68362">
        <ele>265.154887</ele>
        <time>2026-07-10T07:58:05.000Z</time>
      </trkpt>
      <trkpt lat="46.43779" lon="15.68335">
        <ele>266.161705</ele>
        <time>2026-07-10T07:58:08.000Z</time>
      </trkpt>
      <trkpt lat="46.43776" lon="15.68309">
        <ele>267.111824</ele>
        <time>2026-07-10T07:58:11.000Z</time>
      </trkpt>
      <trkpt lat="46.43776" lon="15.68291">
        <ele>267.749104</ele>
        <time>2026-07-10T07:58:13.000Z</time>
      </trkpt>
      <trkpt lat="46.4378" lon="15.68268">
        <ele>268.635318</ele>
        <time>2026-07-10T07:58:16.000Z</time>
      </trkpt>
      <trkpt lat="46.43781" lon="15.68237">
        <ele>269.756481</ele>
        <time>2026-07-10T07:58:20.000Z</time>
      </trkpt>
      <trkpt lat="46.43782" lon="15.68229">
        <ele>269.954443</ele>
        <time>2026-07-10T07:58:21.000Z</time>
      </trkpt>
      <trkpt lat="46.43782" lon="15.68221">
        <ele>270.083739</ele>
        <time>2026-07-10T07:58:22.000Z</time>
      </trkpt>
      <trkpt lat="46.43784" lon="15.68192">
        <ele>270.559432</ele>
        <time>2026-07-10T07:58:26.000Z</time>
      </trkpt>
      <trkpt lat="46.43783" lon="15.68185">
        <ele>270.672328</ele>
        <time>2026-07-10T07:58:27.000Z</time>
      </trkpt>
      <trkpt lat="46.43776" lon="15.68167">
        <ele>271.014861</ele>
        <time>2026-07-10T07:58:30.000Z</time>
      </trkpt>
      <trkpt lat="46.43764" lon="15.68154">
        <ele>271.370668</ele>
        <time>2026-07-10T07:58:33.000Z</time>
      </trkpt>
      <trkpt lat="46.43755" lon="15.68148">
        <ele>271.605344</ele>
        <time>2026-07-10T07:58:35.000Z</time>
      </trkpt>
      <trkpt lat="46.43728" lon="15.68136">
        <ele>272.264116</ele>
        <time>2026-07-10T07:58:41.000Z</time>
      </trkpt>
      <trkpt lat="46.43722" lon="15.68134">
        <ele>272.400871</ele>
        <time>2026-07-10T07:58:42.000Z</time>
      </trkpt>
      <trkpt lat="46.43711" lon="15.68133">
        <ele>272.660489</ele>
        <time>2026-07-10T07:58:44.000Z</time>
      </trkpt>
      <trkpt lat="46.437" lon="15.68136">
        <ele>272.93138</ele>
        <time>2026-07-10T07:58:46.000Z</time>
      </trkpt>
      <trkpt lat="46.43663" lon="15.68146">
        <ele>273.819073</ele>
        <time>2026-07-10T07:58:53.000Z</time>
      </trkpt>
      <trkpt lat="46.43627" lon="15.68163">
        <ele>272.707947</ele>
        <time>2026-07-10T07:59:00.000Z</time>
      </trkpt>
      <trkpt lat="46.43623" lon="15.68167">
        <ele>272.408759</ele>
        <time>2026-07-10T07:59:01.000Z</time>
      </trkpt>
      <trkpt lat="46.43608" lon="15.68176">
        <ele>271.508559</ele>
        <time>2026-07-10T07:59:04.000Z</time>
      </trkpt>
      <trkpt lat="46.43599" lon="15.68182">
        <ele>270.931196</ele>
        <time>2026-07-10T07:59:06.000Z</time>
      </trkpt>
      <trkpt lat="46.43594" lon="15.68184">
        <ele>270.627497</ele>
        <time>2026-07-10T07:59:07.000Z</time>
      </trkpt>
      <trkpt lat="46.43577" lon="15.68192">
        <ele>269.625344</ele>
        <time>2026-07-10T07:59:10.000Z</time>
      </trkpt>
      <trkpt lat="46.43565" lon="15.68195">
        <ele>268.937873</ele>
        <time>2026-07-10T07:59:12.000Z</time>
      </trkpt>
      <trkpt lat="46.4356" lon="15.68197">
        <ele>268.627173</ele>
        <time>2026-07-10T07:59:13.000Z</time>
      </trkpt>
      <trkpt lat="46.43549" lon="15.68202">
        <ele>267.985797</ele>
        <time>2026-07-10T07:59:15.000Z</time>
      </trkpt>
      <trkpt lat="46.43539" lon="15.68207">
        <ele>267.35123</ele>
        <time>2026-07-10T07:59:17.000Z</time>
      </trkpt>
      <trkpt lat="46.4349" lon="15.68232">
        <ele>264.425495</ele>
        <time>2026-07-10T07:59:26.000Z</time>
      </trkpt>
      <trkpt lat="46.43485" lon="15.68236">
        <ele>264.090769</ele>
        <time>2026-07-10T07:59:27.000Z</time>
      </trkpt>
      <trkpt lat="46.43472" lon="15.6825">
        <ele>263.478622</ele>
        <time>2026-07-10T07:59:30.000Z</time>
      </trkpt>
      <trkpt lat="46.43468" lon="15.68255">
        <ele>263.318845</ele>
        <time>2026-07-10T07:59:31.000Z</time>
      </trkpt>
      <trkpt lat="46.43448" lon="15.68276">
        <ele>262.587189</ele>
        <time>2026-07-10T07:59:36.000Z</time>
      </trkpt>
      <trkpt lat="46.43439" lon="15.68284">
        <ele>262.260914</ele>
        <time>2026-07-10T07:59:38.000Z</time>
      </trkpt>
      <trkpt lat="46.43425" lon="15.68297">
        <ele>261.752768</ele>
        <time>2026-07-10T07:59:41.000Z</time>
      </trkpt>
      <trkpt lat="46.43401" lon="15.68324">
        <ele>260.870819</ele>
        <time>2026-07-10T07:59:46.000Z</time>
      </trkpt>
      <trkpt lat="46.43387" lon="15.68339">
        <ele>260.338823</ele>
        <time>2026-07-10T07:59:49.000Z</time>
      </trkpt>
      <trkpt lat="46.43357" lon="15.68378">
        <ele>259.127499</ele>
        <time>2026-07-10T07:59:56.000Z</time>
      </trkpt>
      <trkpt lat="46.43319" lon="15.68415">
        <ele>258.134007</ele>
        <time>2026-07-10T08:00:04.000Z</time>
      </trkpt>
      <trkpt lat="46.43299" lon="15.68432">
        <ele>257.82087</ele>
        <time>2026-07-10T08:00:08.000Z</time>
      </trkpt>
      <trkpt lat="46.43291" lon="15.68443">
        <ele>257.669013</ele>
        <time>2026-07-10T08:00:10.000Z</time>
      </trkpt>
      <trkpt lat="46.4328" lon="15.68461">
        <ele>257.444791</ele>
        <time>2026-07-10T08:00:13.000Z</time>
      </trkpt>
      <trkpt lat="46.43265" lon="15.68487">
        <ele>257.137511</ele>
        <time>2026-07-10T08:00:17.000Z</time>
      </trkpt>
      <trkpt lat="46.43261" lon="15.68493">
        <ele>257.05845</ele>
        <time>2026-07-10T08:00:18.000Z</time>
      </trkpt>
      <trkpt lat="46.43244" lon="15.68517">
        <ele>256.737694</ele>
        <time>2026-07-10T08:00:22.000Z</time>
      </trkpt>
      <trkpt lat="46.43226" lon="15.68541">
        <ele>256.414345</ele>
        <time>2026-07-10T08:00:26.000Z</time>
      </trkpt>
      <trkpt lat="46.43184" lon="15.68599">
        <ele>256.085206</ele>
        <time>2026-07-10T08:00:36.000Z</time>
      </trkpt>
      <trkpt lat="46.4318" lon="15.68603">
        <ele>256.095767</ele>
        <time>2026-07-10T08:00:37.000Z</time>
      </trkpt>
      <trkpt lat="46.43158" lon="15.68626">
        <ele>256.148023</ele>
        <time>2026-07-10T08:00:42.000Z</time>
      </trkpt>
      <trkpt lat="46.43138" lon="15.68651">
        <ele>256.199194</ele>
        <time>2026-07-10T08:00:48.000Z</time>
      </trkpt>
      <trkpt lat="46.43125" lon="15.68663">
        <ele>256.228343</ele>
        <time>2026-07-10T08:00:52.000Z</time>
      </trkpt>
      <trkpt lat="46.43123" lon="15.68664">
        <ele>256.23348</ele>
        <time>2026-07-10T08:00:53.000Z</time>
      </trkpt>
      <trkpt lat="46.43118" lon="15.68662">
        <ele>256.242131</ele>
        <time>2026-07-10T08:00:55.000Z</time>
      </trkpt>
      <trkpt lat="46.43115" lon="15.68656">
        <ele>256.252005</ele>
        <time>2026-07-10T08:00:57.000Z</time>
      </trkpt>
      <trkpt lat="46.43105" lon="15.68633">
        <ele>256.288317</ele>
        <time>2026-07-10T08:01:02.000Z</time>
      </trkpt>
      <trkpt lat="46.43088" lon="15.68593">
        <ele>256.350344</ele>
        <time>2026-07-10T08:01:09.000Z</time>
      </trkpt>
      <trkpt lat="46.43078" lon="15.68571">
        <ele>256.474077</ele>
        <time>2026-07-10T08:01:13.000Z</time>
      </trkpt>
      <trkpt lat="46.4307" lon="15.68554">
        <ele>256.769043</ele>
        <time>2026-07-10T08:01:16.000Z</time>
      </trkpt>
      <trkpt lat="46.43061" lon="15.68536">
        <ele>257.075553</ele>
        <time>2026-07-10T08:01:19.000Z</time>
      </trkpt>
      <trkpt lat="46.43053" lon="15.68518">
        <ele>257.389082</ele>
        <time>2026-07-10T08:01:22.000Z</time>
      </trkpt>
      <trkpt lat="46.43034" lon="15.68484">
        <ele>258.015086</ele>
        <time>2026-07-10T08:01:28.000Z</time>
      </trkpt>
      <trkpt lat="46.43005" lon="15.68429">
        <ele>258.989995</ele>
        <time>2026-07-10T08:01:38.000Z</time>
      </trkpt>
      <trkpt lat="46.42995" lon="15.68414">
        <ele>259.286081</ele>
        <time>2026-07-10T08:01:41.000Z</time>
      </trkpt>
      <trkpt lat="46.42983" lon="15.68391">
        <ele>259.696067</ele>
        <time>2026-07-10T08:01:45.000Z</time>
      </trkpt>
      <trkpt lat="46.42978" lon="15.68381">
        <ele>259.876738</ele>
        <time>2026-07-10T08:01:47.000Z</time>
      </trkpt>
      <trkpt lat="46.42964" lon="15.68353">
        <ele>261.017</ele>
        <time>2026-07-10T08:01:52.000Z</time>
      </trkpt>
      <trkpt lat="46.42959" lon="15.68342">
        <ele>261.713465</ele>
        <time>2026-07-10T08:01:54.000Z</time>
      </trkpt>
      <trkpt lat="46.42947" lon="15.6832">
        <ele>263.047804</ele>
        <time>2026-07-10T08:01:58.000Z</time>
      </trkpt>
      <trkpt lat="46.42938" lon="15.68301">
        <ele>264.14605</ele>
        <time>2026-07-10T08:02:01.000Z</time>
      </trkpt>
      <trkpt lat="46.4293" lon="15.68285">
        <ele>265.08525</ele>
        <time>2026-07-10T08:02:04.000Z</time>
      </trkpt>
      <trkpt lat="46.42909" lon="15.68236">
        <ele>267.890099</ele>
        <time>2026-07-10T08:02:12.000Z</time>
      </trkpt>
      <trkpt lat="46.42897" lon="15.68197">
        <ele>269.958365</ele>
        <time>2026-07-10T08:02:18.000Z</time>
      </trkpt>
      <trkpt lat="46.42895" lon="15.68191">
        <ele>270.30717</ele>
        <time>2026-07-10T08:02:19.000Z</time>
      </trkpt>
      <trkpt lat="46.42886" lon="15.68166">
        <ele>271.665914</ele>
        <time>2026-07-10T08:02:23.000Z</time>
      </trkpt>
      <trkpt lat="46.4288" lon="15.68147">
        <ele>272.644013</ele>
        <time>2026-07-10T08:02:26.000Z</time>
      </trkpt>
      <trkpt lat="46.42875" lon="15.68128">
        <ele>273.07591</ele>
        <time>2026-07-10T08:02:29.000Z</time>
      </trkpt>
      <trkpt lat="46.42873" lon="15.6811">
        <ele>273.414153</ele>
        <time>2026-07-10T08:02:32.000Z</time>
      </trkpt>
      <trkpt lat="46.42872" lon="15.68105">
        <ele>273.532938</ele>
        <time>2026-07-10T08:02:33.000Z</time>
      </trkpt>
      <trkpt lat="46.42869" lon="15.68091">
        <ele>273.80661</ele>
        <time>2026-07-10T08:02:35.000Z</time>
      </trkpt>
      <trkpt lat="46.42867" lon="15.68076">
        <ele>274.089843</ele>
        <time>2026-07-10T08:02:37.000Z</time>
      </trkpt>
      <trkpt lat="46.42863" lon="15.68048">
        <ele>274.652738</ele>
        <time>2026-07-10T08:02:42.000Z</time>
      </trkpt>
      <trkpt lat="46.42857" lon="15.68017">
        <ele>275.260353</ele>
        <time>2026-07-10T08:02:47.000Z</time>
      </trkpt>
      <trkpt lat="46.42853" lon="15.67996">
        <ele>275.680709</ele>
        <time>2026-07-10T08:02:50.000Z</time>
      </trkpt>
      <trkpt lat="46.42839" lon="15.67969">
        <ele>276.323344</ele>
        <time>2026-07-10T08:02:55.000Z</time>
      </trkpt>
      <trkpt lat="46.42832" lon="15.67952">
        <ele>276.713493</ele>
        <time>2026-07-10T08:02:58.000Z</time>
      </trkpt>
      <trkpt lat="46.42823" lon="15.67931">
        <ele>277.185773</ele>
        <time>2026-07-10T08:03:01.000Z</time>
      </trkpt>
      <trkpt lat="46.42811" lon="15.67904">
        <ele>277.714153</ele>
        <time>2026-07-10T08:03:05.000Z</time>
      </trkpt>
      <trkpt lat="46.42809" lon="15.67896">
        <ele>277.717222</ele>
        <time>2026-07-10T08:03:06.000Z</time>
      </trkpt>
      <trkpt lat="46.42796" lon="15.67864">
        <ele>277.731384</ele>
        <time>2026-07-10T08:03:11.000Z</time>
      </trkpt>
      <trkpt lat="46.42791" lon="15.67851">
        <ele>277.736945</ele>
        <time>2026-07-10T08:03:13.000Z</time>
      </trkpt>
      <trkpt lat="46.42788" lon="15.67845">
        <ele>277.739726</ele>
        <time>2026-07-10T08:03:14.000Z</time>
      </trkpt>
      <trkpt lat="46.42779" lon="15.67819">
        <ele>277.750505</ele>
        <time>2026-07-10T08:03:18.000Z</time>
      </trkpt>
      <trkpt lat="46.42773" lon="15.67807">
        <ele>277.756035</ele>
        <time>2026-07-10T08:03:20.000Z</time>
      </trkpt>
      <trkpt lat="46.42767" lon="15.67795">
        <ele>277.761842</ele>
        <time>2026-07-10T08:03:22.000Z</time>
      </trkpt>
      <trkpt lat="46.42765" lon="15.67787">
        <ele>277.764916</ele>
        <time>2026-07-10T08:03:23.000Z</time>
      </trkpt>
      <trkpt lat="46.42761" lon="15.67775">
        <ele>277.769817</ele>
        <time>2026-07-10T08:03:25.000Z</time>
      </trkpt>
      <trkpt lat="46.42758" lon="15.67768">
        <ele>277.773019</ele>
        <time>2026-07-10T08:03:26.000Z</time>
      </trkpt>
      <trkpt lat="46.42752" lon="15.67753">
        <ele>277.779652</ele>
        <time>2026-07-10T08:03:28.000Z</time>
      </trkpt>
      <trkpt lat="46.42746" lon="15.67721">
        <ele>277.792198</ele>
        <time>2026-07-10T08:03:32.000Z</time>
      </trkpt>
      <trkpt lat="46.4274" lon="15.6768">
        <ele>277.808062</ele>
        <time>2026-07-10T08:03:37.000Z</time>
      </trkpt>
      <trkpt lat="46.42739" lon="15.67671">
        <ele>277.748292</ele>
        <time>2026-07-10T08:03:38.000Z</time>
      </trkpt>
      <trkpt lat="46.42734" lon="15.67641">
        <ele>276.908446</ele>
        <time>2026-07-10T08:03:42.000Z</time>
      </trkpt>
      <trkpt lat="46.42729" lon="15.67627">
        <ele>276.450304</ele>
        <time>2026-07-10T08:03:44.000Z</time>
      </trkpt>
      <trkpt lat="46.42725" lon="15.6762">
        <ele>276.198031</ele>
        <time>2026-07-10T08:03:45.000Z</time>
      </trkpt>
      <trkpt lat="46.42714" lon="15.67592">
        <ele>275.299941</ele>
        <time>2026-07-10T08:03:49.000Z</time>
      </trkpt>
      <trkpt lat="46.42706" lon="15.67573">
        <ele>274.674675</ele>
        <time>2026-07-10T08:03:52.000Z</time>
      </trkpt>
      <trkpt lat="46.42695" lon="15.67548">
        <ele>273.853321</ele>
        <time>2026-07-10T08:03:56.000Z</time>
      </trkpt>
      <trkpt lat="46.42688" lon="15.67537">
        <ele>273.439429</ele>
        <time>2026-07-10T08:03:58.000Z</time>
      </trkpt>
      <trkpt lat="46.42678" lon="15.67519">
        <ele>272.778304</ele>
        <time>2026-07-10T08:04:01.000Z</time>
      </trkpt>
      <trkpt lat="46.42665" lon="15.67493">
        <ele>271.915819</ele>
        <time>2026-07-10T08:04:05.000Z</time>
      </trkpt>
      <trkpt lat="46.4266" lon="15.67479">
        <ele>271.475955</ele>
        <time>2026-07-10T08:04:07.000Z</time>
      </trkpt>
      <trkpt lat="46.42655" lon="15.67466">
        <ele>271.040294</ele>
        <time>2026-07-10T08:04:09.000Z</time>
      </trkpt>
      <trkpt lat="46.42653" lon="15.67459">
        <ele>270.840206</ele>
        <time>2026-07-10T08:04:10.000Z</time>
      </trkpt>
      <trkpt lat="46.42647" lon="15.67442">
        <ele>270.951751</ele>
        <time>2026-07-10T08:04:13.000Z</time>
      </trkpt>
      <trkpt lat="46.42646" lon="15.67436">
        <ele>271.261284</ele>
        <time>2026-07-10T08:04:14.000Z</time>
      </trkpt>
      <trkpt lat="46.42648" lon="15.6743">
        <ele>271.591036</ele>
        <time>2026-07-10T08:04:15.000Z</time>
      </trkpt>
      <trkpt lat="46.42655" lon="15.67422">
        <ele>272.238656</ele>
        <time>2026-07-10T08:04:17.000Z</time>
      </trkpt>
      <trkpt lat="46.42673" lon="15.6741">
        <ele>273.623583</ele>
        <time>2026-07-10T08:04:21.000Z</time>
      </trkpt>
      <trkpt lat="46.42681" lon="15.67404">
        <ele>274.276926</ele>
        <time>2026-07-10T08:04:23.000Z</time>
      </trkpt>
      <trkpt lat="46.42689" lon="15.67398">
        <ele>274.928949</ele>
        <time>2026-07-10T08:04:25.000Z</time>
      </trkpt>
      <trkpt lat="46.42717" lon="15.67378">
        <ele>277.139904</ele>
        <time>2026-07-10T08:04:31.000Z</time>
      </trkpt>
      <trkpt lat="46.42722" lon="15.67373">
        <ele>277.568973</ele>
        <time>2026-07-10T08:04:32.000Z</time>
      </trkpt>
      <trkpt lat="46.42736" lon="15.67361">
        <ele>278.683448</ele>
        <time>2026-07-10T08:04:35.000Z</time>
      </trkpt>
      <trkpt lat="46.42753" lon="15.67348">
        <ele>280.087861</ele>
        <time>2026-07-10T08:04:39.000Z</time>
      </trkpt>
      <trkpt lat="46.42758" lon="15.67345">
        <ele>280.463536</ele>
        <time>2026-07-10T08:04:40.000Z</time>
      </trkpt>
      <trkpt lat="46.42768" lon="15.67339">
        <ele>281.21738</ele>
        <time>2026-07-10T08:04:42.000Z</time>
      </trkpt>
      <trkpt lat="46.42777" lon="15.67335">
        <ele>281.894316</ele>
        <time>2026-07-10T08:04:44.000Z</time>
      </trkpt>
      <trkpt lat="46.42795" lon="15.67324">
        <ele>283.305773</ele>
        <time>2026-07-10T08:04:48.000Z</time>
      </trkpt>
      <trkpt lat="46.4281" lon="15.67316">
        <ele>283.640964</ele>
        <time>2026-07-10T08:04:51.000Z</time>
      </trkpt>
      <trkpt lat="46.42814" lon="15.67312">
        <ele>283.745534</ele>
        <time>2026-07-10T08:04:52.000Z</time>
      </trkpt>
      <trkpt lat="46.42831" lon="15.67298">
        <ele>284.149411</ele>
        <time>2026-07-10T08:04:56.000Z</time>
      </trkpt>
      <trkpt lat="46.42835" lon="15.67294">
        <ele>284.250045</ele>
        <time>2026-07-10T08:04:57.000Z</time>
      </trkpt>
      <trkpt lat="46.42839" lon="15.6729">
        <ele>284.343964</ele>
        <time>2026-07-10T08:04:58.000Z</time>
      </trkpt>
      <trkpt lat="46.42847" lon="15.67282">
        <ele>284.542072</ele>
        <time>2026-07-10T08:05:00.000Z</time>
      </trkpt>
      <trkpt lat="46.42864" lon="15.67264">
        <ele>284.969781</ele>
        <time>2026-07-10T08:05:04.000Z</time>
      </trkpt>
      <trkpt lat="46.42872" lon="15.67255">
        <ele>285.17477</ele>
        <time>2026-07-10T08:05:06.000Z</time>
      </trkpt>
      <trkpt lat="46.42881" lon="15.67237">
        <ele>285.491101</ele>
        <time>2026-07-10T08:05:09.000Z</time>
      </trkpt>
      <trkpt lat="46.42884" lon="15.67222">
        <ele>285.719182</ele>
        <time>2026-07-10T08:05:11.000Z</time>
      </trkpt>
      <trkpt lat="46.42882" lon="15.67207">
        <ele>285.931746</ele>
        <time>2026-07-10T08:05:13.000Z</time>
      </trkpt>
      <trkpt lat="46.42879" lon="15.67193">
        <ele>286.130666</ele>
        <time>2026-07-10T08:05:15.000Z</time>
      </trkpt>
      <trkpt lat="46.42871" lon="15.67164">
        <ele>286.567905</ele>
        <time>2026-07-10T08:05:19.000Z</time>
      </trkpt>
      <trkpt lat="46.42868" lon="15.6715">
        <ele>286.784801</ele>
        <time>2026-07-10T08:05:21.000Z</time>
      </trkpt>
      <trkpt lat="46.42866" lon="15.67135">
        <ele>286.995306</ele>
        <time>2026-07-10T08:05:23.000Z</time>
      </trkpt>
      <trkpt lat="46.42863" lon="15.67121">
        <ele>286.254932</ele>
        <time>2026-07-10T08:05:25.000Z</time>
      </trkpt>
      <trkpt lat="46.42861" lon="15.67105">
        <ele>285.352387</ele>
        <time>2026-07-10T08:05:27.000Z</time>
      </trkpt>
      <trkpt lat="46.42855" lon="15.67084">
        <ele>284.098138</ele>
        <time>2026-07-10T08:05:30.000Z</time>
      </trkpt>
      <trkpt lat="46.42852" lon="15.67077">
        <ele>283.640831</ele>
        <time>2026-07-10T08:05:31.000Z</time>
      </trkpt>
      <trkpt lat="46.42843" lon="15.67057">
        <ele>282.325486</ele>
        <time>2026-07-10T08:05:34.000Z</time>
      </trkpt>
      <trkpt lat="46.42826" lon="15.67018">
        <ele>279.788197</ele>
        <time>2026-07-10T08:05:40.000Z</time>
      </trkpt>
      <trkpt lat="46.42824" lon="15.67012">
        <ele>279.386505</ele>
        <time>2026-07-10T08:05:41.000Z</time>
      </trkpt>
      <trkpt lat="46.42822" lon="15.67005">
        <ele>278.974911</ele>
        <time>2026-07-10T08:05:42.000Z</time>
      </trkpt>
      <trkpt lat="46.42801" lon="15.66953">
        <ele>275.573394</ele>
        <time>2026-07-10T08:05:50.000Z</time>
      </trkpt>
      <trkpt lat="46.42792" lon="15.66933">
        <ele>274.278892</ele>
        <time>2026-07-10T08:05:53.000Z</time>
      </trkpt>
      <trkpt lat="46.42787" lon="15.66919">
        <ele>273.408466</ele>
        <time>2026-07-10T08:05:55.000Z</time>
      </trkpt>
      <trkpt lat="46.42785" lon="15.66912">
        <ele>272.961015</ele>
        <time>2026-07-10T08:05:56.000Z</time>
      </trkpt>
      <trkpt lat="46.42782" lon="15.66905">
        <ele>272.514584</ele>
        <time>2026-07-10T08:05:57.000Z</time>
      </trkpt>
      <trkpt lat="46.42779" lon="15.66898">
        <ele>272.411117</ele>
        <time>2026-07-10T08:05:58.000Z</time>
      </trkpt>
      <trkpt lat="46.42772" lon="15.66878">
        <ele>272.152914</ele>
        <time>2026-07-10T08:06:01.000Z</time>
      </trkpt>
      <trkpt lat="46.42769" lon="15.66872">
        <ele>272.06634</ele>
        <time>2026-07-10T08:06:02.000Z</time>
      </trkpt>
      <trkpt lat="46.42749" lon="15.66824">
        <ele>271.440861</ele>
        <time>2026-07-10T08:06:09.000Z</time>
      </trkpt>
      <trkpt lat="46.42739" lon="15.66797">
        <ele>271.105498</ele>
        <time>2026-07-10T08:06:13.000Z</time>
      </trkpt>
      <trkpt lat="46.42731" lon="15.66777">
        <ele>270.843405</ele>
        <time>2026-07-10T08:06:16.000Z</time>
      </trkpt>
      <trkpt lat="46.42722" lon="15.66758">
        <ele>270.587274</ele>
        <time>2026-07-10T08:06:19.000Z</time>
      </trkpt>
      <trkpt lat="46.42712" lon="15.6674">
        <ele>270.327111</ele>
        <time>2026-07-10T08:06:22.000Z</time>
      </trkpt>
      <trkpt lat="46.42707" lon="15.66728">
        <ele>270.162952</ele>
        <time>2026-07-10T08:06:24.000Z</time>
      </trkpt>
      <trkpt lat="46.42699" lon="15.66709">
        <ele>269.918193</ele>
        <time>2026-07-10T08:06:27.000Z</time>
      </trkpt>
      <trkpt lat="46.42685" lon="15.66679">
        <ele>269.61385</ele>
        <time>2026-07-10T08:06:32.000Z</time>
      </trkpt>
      <trkpt lat="46.42682" lon="15.66672">
        <ele>269.67287</ele>
        <time>2026-07-10T08:06:33.000Z</time>
      </trkpt>
      <trkpt lat="46.4268" lon="15.66666">
        <ele>269.728149</ele>
        <time>2026-07-10T08:06:34.000Z</time>
      </trkpt>
      <trkpt lat="46.42664" lon="15.66619">
        <ele>270.13518</ele>
        <time>2026-07-10T08:06:41.000Z</time>
      </trkpt>
      <trkpt lat="46.42659" lon="15.66606">
        <ele>270.24634</ele>
        <time>2026-07-10T08:06:43.000Z</time>
      </trkpt>
      <trkpt lat="46.42652" lon="15.66594">
        <ele>270.366087</ele>
        <time>2026-07-10T08:06:45.000Z</time>
      </trkpt>
      <trkpt lat="46.4265" lon="15.66588">
        <ele>270.423811</ele>
        <time>2026-07-10T08:06:46.000Z</time>
      </trkpt>
      <trkpt lat="46.42648" lon="15.66581">
        <ele>270.479788</ele>
        <time>2026-07-10T08:06:47.000Z</time>
      </trkpt>
      <trkpt lat="46.42638" lon="15.66554">
        <ele>270.714783</ele>
        <time>2026-07-10T08:06:51.000Z</time>
      </trkpt>
      <trkpt lat="46.42614" lon="15.66497">
        <ele>271.224754</ele>
        <time>2026-07-10T08:07:00.000Z</time>
      </trkpt>
      <trkpt lat="46.42608" lon="15.6648">
        <ele>271.378907</ele>
        <time>2026-07-10T08:07:03.000Z</time>
      </trkpt>
      <trkpt lat="46.42605" lon="15.66467">
        <ele>271.480146</ele>
        <time>2026-07-10T08:07:05.000Z</time>
      </trkpt>
      <trkpt lat="46.42601" lon="15.66442">
        <ele>271.208289</ele>
        <time>2026-07-10T08:07:09.000Z</time>
      </trkpt>
      <trkpt lat="46.42599" lon="15.66422">
        <ele>270.564069</ele>
        <time>2026-07-10T08:07:12.000Z</time>
      </trkpt>
      <trkpt lat="46.42596" lon="15.66411">
        <ele>270.205596</ele>
        <time>2026-07-10T08:07:14.000Z</time>
      </trkpt>
      <trkpt lat="46.42591" lon="15.66402">
        <ele>269.839652</ele>
        <time>2026-07-10T08:07:16.000Z</time>
      </trkpt>
      <trkpt lat="46.42578" lon="15.66373">
        <ele>268.793843</ele>
        <time>2026-07-10T08:07:21.000Z</time>
      </trkpt>
      <trkpt lat="46.42575" lon="15.66367">
        <ele>268.562914</ele>
        <time>2026-07-10T08:07:22.000Z</time>
      </trkpt>
      <trkpt lat="46.42562" lon="15.66347">
        <ele>267.687304</ele>
        <time>2026-07-10T08:07:27.000Z</time>
      </trkpt>
      <trkpt lat="46.4255" lon="15.6634">
        <ele>267.147117</ele>
        <time>2026-07-10T08:07:31.000Z</time>
      </trkpt>
      <trkpt lat="46.42546" lon="15.66339">
        <ele>266.94502</ele>
        <time>2026-07-10T08:07:32.000Z</time>
      </trkpt>
      <trkpt lat="46.42541" lon="15.66338">
        <ele>266.729315</ele>
        <time>2026-07-10T08:07:33.000Z</time>
      </trkpt>
      <trkpt lat="46.42522" lon="15.6634">
        <ele>265.882612</ele>
        <time>2026-07-10T08:07:37.000Z</time>
      </trkpt>
      <trkpt lat="46.4249" lon="15.66342">
        <ele>264.46343</ele>
        <time>2026-07-10T08:07:43.000Z</time>
      </trkpt>
      <trkpt lat="46.42469" lon="15.66342">
        <ele>263.532401</ele>
        <time>2026-07-10T08:07:47.000Z</time>
      </trkpt>
      <trkpt lat="46.42465" lon="15.66342">
        <ele>263.424538</ele>
        <time>2026-07-10T08:07:48.000Z</time>
      </trkpt>
      <trkpt lat="46.42451" lon="15.66341">
        <ele>263.0981</ele>
        <time>2026-07-10T08:07:51.000Z</time>
      </trkpt>
      <trkpt lat="46.4243" lon="15.6633">
        <ele>262.594328</ele>
        <time>2026-07-10T08:07:55.000Z</time>
      </trkpt>
      <trkpt lat="46.42425" lon="15.66328">
        <ele>262.485388</ele>
        <time>2026-07-10T08:07:56.000Z</time>
      </trkpt>
      <trkpt lat="46.42421" lon="15.66328">
        <ele>262.377524</ele>
        <time>2026-07-10T08:07:57.000Z</time>
      </trkpt>
      <trkpt lat="46.42416" lon="15.66329">
        <ele>262.261216</ele>
        <time>2026-07-10T08:07:58.000Z</time>
      </trkpt>
      <trkpt lat="46.42406" lon="15.66335">
        <ele>262.020437</ele>
        <time>2026-07-10T08:08:00.000Z</time>
      </trkpt>
      <trkpt lat="46.42401" lon="15.66336">
        <ele>261.898444</ele>
        <time>2026-07-10T08:08:01.000Z</time>
      </trkpt>
      <trkpt lat="46.42396" lon="15.66337">
        <ele>261.781134</ele>
        <time>2026-07-10T08:08:02.000Z</time>
      </trkpt>
      <trkpt lat="46.42386" lon="15.66336">
        <ele>261.555139</ele>
        <time>2026-07-10T08:08:04.000Z</time>
      </trkpt>
      <trkpt lat="46.42381" lon="15.66334">
        <ele>261.44136</ele>
        <time>2026-07-10T08:08:05.000Z</time>
      </trkpt>
      <trkpt lat="46.4235" lon="15.66317">
        <ele>260.673227</ele>
        <time>2026-07-10T08:08:12.000Z</time>
      </trkpt>
      <trkpt lat="46.42337" lon="15.66304">
        <ele>260.327475</ele>
        <time>2026-07-10T08:08:15.000Z</time>
      </trkpt>
      <trkpt lat="46.42326" lon="15.66288">
        <ele>259.963876</ele>
        <time>2026-07-10T08:08:18.000Z</time>
      </trkpt>
      <trkpt lat="46.42311" lon="15.66257">
        <ele>259.420814</ele>
        <time>2026-07-10T08:08:23.000Z</time>
      </trkpt>
      <trkpt lat="46.42306" lon="15.66243">
        <ele>259.4602</ele>
        <time>2026-07-10T08:08:25.000Z</time>
      </trkpt>
      <trkpt lat="46.42296" lon="15.66198">
        <ele>259.578559</ele>
        <time>2026-07-10T08:08:31.000Z</time>
      </trkpt>
      <trkpt lat="46.42296" lon="15.66191">
        <ele>259.598387</ele>
        <time>2026-07-10T08:08:32.000Z</time>
      </trkpt>
      <trkpt lat="46.42296" lon="15.66169">
        <ele>259.653016</ele>
        <time>2026-07-10T08:08:35.000Z</time>
      </trkpt>
      <trkpt lat="46.42298" lon="15.66154">
        <ele>259.69119</ele>
        <time>2026-07-10T08:08:37.000Z</time>
      </trkpt>
      <trkpt lat="46.42302" lon="15.66133">
        <ele>259.747252</ele>
        <time>2026-07-10T08:08:40.000Z</time>
      </trkpt>
      <trkpt lat="46.42304" lon="15.66113">
        <ele>259.796734</ele>
        <time>2026-07-10T08:08:43.000Z</time>
      </trkpt>
      <trkpt lat="46.42305" lon="15.66108">
        <ele>259.811507</ele>
        <time>2026-07-10T08:08:44.000Z</time>
      </trkpt>
      <trkpt lat="46.4231" lon="15.66064">
        <ele>259.922987</ele>
        <time>2026-07-10T08:08:51.000Z</time>
      </trkpt>
      <trkpt lat="46.42321" lon="15.65997">
        <ele>260.126747</ele>
        <time>2026-07-10T08:09:01.000Z</time>
      </trkpt>
      <trkpt lat="46.42329" lon="15.65942">
        <ele>260.429956</ele>
        <time>2026-07-10T08:09:09.000Z</time>
      </trkpt>
      <trkpt lat="46.42335" lon="15.65906">
        <ele>260.631454</ele>
        <time>2026-07-10T08:09:14.000Z</time>
      </trkpt>
      <trkpt lat="46.42339" lon="15.65872">
        <ele>260.817809</ele>
        <time>2026-07-10T08:09:19.000Z</time>
      </trkpt>
      <trkpt lat="46.42341" lon="15.65858">
        <ele>260.894408</ele>
        <time>2026-07-10T08:09:21.000Z</time>
      </trkpt>
      <trkpt lat="46.42345" lon="15.6583">
        <ele>261.05298</ele>
        <time>2026-07-10T08:09:25.000Z</time>
      </trkpt>
      <trkpt lat="46.4235" lon="15.65794">
        <ele>261.252241</ele>
        <time>2026-07-10T08:09:30.000Z</time>
      </trkpt>
      <trkpt lat="46.42355" lon="15.65749">
        <ele>261.490669</ele>
        <time>2026-07-10T08:09:36.000Z</time>
      </trkpt>
      <trkpt lat="46.42358" lon="15.65727">
        <ele>261.518994</ele>
        <time>2026-07-10T08:09:39.000Z</time>
      </trkpt>
      <trkpt lat="46.42363" lon="15.65697">
        <ele>261.557704</ele>
        <time>2026-07-10T08:09:43.000Z</time>
      </trkpt>
      <trkpt lat="46.42367" lon="15.65674">
        <ele>261.587369</ele>
        <time>2026-07-10T08:09:46.000Z</time>
      </trkpt>
      <trkpt lat="46.42376" lon="15.65605">
        <ele>261.677061</ele>
        <time>2026-07-10T08:09:55.000Z</time>
      </trkpt>
      <trkpt lat="46.4238" lon="15.65567">
        <ele>261.725817</ele>
        <time>2026-07-10T08:10:00.000Z</time>
      </trkpt>
      <trkpt lat="46.42382" lon="15.65559">
        <ele>261.735461</ele>
        <time>2026-07-10T08:10:01.000Z</time>
      </trkpt>
      <trkpt lat="46.42383" lon="15.65552">
        <ele>261.745375</ele>
        <time>2026-07-10T08:10:02.000Z</time>
      </trkpt>
      <trkpt lat="46.42384" lon="15.65544">
        <ele>261.75558</ele>
        <time>2026-07-10T08:10:03.000Z</time>
      </trkpt>
      <trkpt lat="46.42387" lon="15.65529">
        <ele>261.774912</ele>
        <time>2026-07-10T08:10:05.000Z</time>
      </trkpt>
      <trkpt lat="46.42394" lon="15.6547">
        <ele>261.820606</ele>
        <time>2026-07-10T08:10:13.000Z</time>
      </trkpt>
      <trkpt lat="46.42397" lon="15.65452">
        <ele>261.822086</ele>
        <time>2026-07-10T08:10:17.000Z</time>
      </trkpt>
      <trkpt lat="46.42397" lon="15.65451">
        <ele>261.822192</ele>
        <time>2026-07-10T08:10:20.000Z</time>
      </trkpt>
      <trkpt lat="46.42402" lon="15.65423">
        <ele>261.824582</ele>
        <time>2026-07-10T08:12:54.000Z</time>
      </trkpt>
      <trkpt lat="46.42402" lon="15.65421">
        <ele>261.82475</ele>
        <time>2026-07-10T08:12:55.000Z</time>
      </trkpt>
      <trkpt lat="46.42404" lon="15.65413">
        <ele>261.825416</ele>
        <time>2026-07-10T08:12:59.000Z</time>
      </trkpt>
      <trkpt lat="46.42405" lon="15.65407">
        <ele>261.825959</ele>
        <time>2026-07-10T08:13:02.000Z</time>
      </trkpt>
      <trkpt lat="46.42406" lon="15.65401">
        <ele>261.826473</ele>
        <time>2026-07-10T08:13:05.000Z</time>
      </trkpt>
      <trkpt lat="46.42406" lon="15.65396">
        <ele>261.826936</ele>
        <time>2026-07-10T08:13:08.000Z</time>
      </trkpt>
      <trkpt lat="46.42407" lon="15.65392">
        <ele>261.827236</ele>
        <time>2026-07-10T08:13:10.000Z</time>
      </trkpt>
      <trkpt lat="46.42409" lon="15.65382">
        <ele>261.828068</ele>
        <time>2026-07-10T08:13:15.000Z</time>
      </trkpt>
      <trkpt lat="46.4241" lon="15.65376">
        <ele>261.828633</ele>
        <time>2026-07-10T08:13:19.000Z</time>
      </trkpt>
      <trkpt lat="46.4241" lon="15.65366">
        <ele>261.829426</ele>
        <time>2026-07-10T08:13:24.000Z</time>
      </trkpt>
      <trkpt lat="46.42409" lon="15.65365">
        <ele>261.829593</ele>
        <time>2026-07-10T08:13:26.000Z</time>
      </trkpt>
      <trkpt lat="46.42408" lon="15.65366">
        <ele>261.829702</ele>
        <time>2026-07-10T08:13:27.000Z</time>
      </trkpt>
      <trkpt lat="46.42408" lon="15.65368">
        <ele>261.829931</ele>
        <time>2026-07-10T08:13:30.000Z</time>
      </trkpt>
      <trkpt lat="46.4241" lon="15.65364">
        <ele>261.830447</ele>
        <time>2026-07-10T08:24:41.000Z</time>
      </trkpt>
      <trkpt lat="46.4241" lon="15.65351">
        <ele>261.831503</ele>
        <time>2026-07-10T08:24:45.000Z</time>
      </trkpt>
      <trkpt lat="46.42411" lon="15.65347">
        <ele>261.831853</ele>
        <time>2026-07-10T08:24:46.000Z</time>
      </trkpt>
      <trkpt lat="46.42414" lon="15.65315">
        <ele>261.834559</ele>
        <time>2026-07-10T08:24:52.000Z</time>
      </trkpt>
      <trkpt lat="46.4242" lon="15.65284">
        <ele>261.837248</ele>
        <time>2026-07-10T08:24:58.000Z</time>
      </trkpt>
      <trkpt lat="46.42426" lon="15.65237">
        <ele>261.885733</ele>
        <time>2026-07-10T08:25:06.000Z</time>
      </trkpt>
      <trkpt lat="46.42427" lon="15.65231">
        <ele>261.907027</ele>
        <time>2026-07-10T08:25:07.000Z</time>
      </trkpt>
      <trkpt lat="46.4243" lon="15.65208">
        <ele>261.991297</ele>
        <time>2026-07-10T08:25:11.000Z</time>
      </trkpt>
      <trkpt lat="46.42432" lon="15.65179">
        <ele>262.097245</ele>
        <time>2026-07-10T08:25:16.000Z</time>
      </trkpt>
      <trkpt lat="46.42432" lon="15.65172">
        <ele>262.120668</ele>
        <time>2026-07-10T08:25:17.000Z</time>
      </trkpt>
      <trkpt lat="46.42433" lon="15.65147">
        <ele>262.212867</ele>
        <time>2026-07-10T08:25:21.000Z</time>
      </trkpt>
      <trkpt lat="46.42431" lon="15.65121">
        <ele>262.304241</ele>
        <time>2026-07-10T08:25:25.000Z</time>
      </trkpt>
      <trkpt lat="46.42427" lon="15.65089">
        <ele>262.422574</ele>
        <time>2026-07-10T08:25:30.000Z</time>
      </trkpt>
      <trkpt lat="46.4242" lon="15.65057">
        <ele>262.544625</ele>
        <time>2026-07-10T08:25:35.000Z</time>
      </trkpt>
      <trkpt lat="46.42408" lon="15.65006">
        <ele>262.73778</ele>
        <time>2026-07-10T08:25:43.000Z</time>
      </trkpt>
      <trkpt lat="46.42406" lon="15.65">
        <ele>262.761801</ele>
        <time>2026-07-10T08:25:44.000Z</time>
      </trkpt>
      <trkpt lat="46.42394" lon="15.64949">
        <ele>263.302142</ele>
        <time>2026-07-10T08:25:52.000Z</time>
      </trkpt>
      <trkpt lat="46.42384" lon="15.64905">
        <ele>263.796526</ele>
        <time>2026-07-10T08:25:59.000Z</time>
      </trkpt>
      <trkpt lat="46.4238" lon="15.64885">
        <ele>264.01826</ele>
        <time>2026-07-10T08:26:02.000Z</time>
      </trkpt>
      <trkpt lat="46.42377" lon="15.64873">
        <ele>264.156976</ele>
        <time>2026-07-10T08:26:04.000Z</time>
      </trkpt>
      <trkpt lat="46.42368" lon="15.64842">
        <ele>264.515815</ele>
        <time>2026-07-10T08:26:09.000Z</time>
      </trkpt>
      <trkpt lat="46.42364" lon="15.64829">
        <ele>264.664377</ele>
        <time>2026-07-10T08:26:11.000Z</time>
      </trkpt>
      <trkpt lat="46.42349" lon="15.64764">
        <ele>265.400575</ele>
        <time>2026-07-10T08:26:21.000Z</time>
      </trkpt>
      <trkpt lat="46.42335" lon="15.64695">
        <ele>265.644522</ele>
        <time>2026-07-10T08:26:32.000Z</time>
      </trkpt>
      <trkpt lat="46.42325" lon="15.64659">
        <ele>265.694926</ele>
        <time>2026-07-10T08:26:38.000Z</time>
      </trkpt>
      <trkpt lat="46.42322" lon="15.64647">
        <ele>265.711721</ele>
        <time>2026-07-10T08:26:40.000Z</time>
      </trkpt>
      <trkpt lat="46.4231" lon="15.64616">
        <ele>265.75664</ele>
        <time>2026-07-10T08:26:46.000Z</time>
      </trkpt>
      <trkpt lat="46.42308" lon="15.64612">
        <ele>265.763665</ele>
        <time>2026-07-10T08:26:47.000Z</time>
      </trkpt>
      <trkpt lat="46.42294" lon="15.64601">
        <ele>265.793129</ele>
        <time>2026-07-10T08:26:51.000Z</time>
      </trkpt>
      <trkpt lat="46.4229" lon="15.64602">
        <ele>265.801952</ele>
        <time>2026-07-10T08:26:52.000Z</time>
      </trkpt>
      <trkpt lat="46.4228" lon="15.64605">
        <ele>265.820668</ele>
        <time>2026-07-10T08:26:54.000Z</time>
      </trkpt>
      <trkpt lat="46.42275" lon="15.64608">
        <ele>265.829865</ele>
        <time>2026-07-10T08:26:55.000Z</time>
      </trkpt>
      <trkpt lat="46.42242" lon="15.64624">
        <ele>265.895273</ele>
        <time>2026-07-10T08:27:02.000Z</time>
      </trkpt>
      <trkpt lat="46.42212" lon="15.64638">
        <ele>265.929588</ele>
        <time>2026-07-10T08:27:08.000Z</time>
      </trkpt>
      <trkpt lat="46.42168" lon="15.64656">
        <ele>265.969133</ele>
        <time>2026-07-10T08:27:17.000Z</time>
      </trkpt>
      <trkpt lat="46.42136" lon="15.64672">
        <ele>265.998446</ele>
        <time>2026-07-10T08:27:24.000Z</time>
      </trkpt>
      <trkpt lat="46.42122" lon="15.64679">
        <ele>266.011523</ele>
        <time>2026-07-10T08:27:27.000Z</time>
      </trkpt>
      <trkpt lat="46.42113" lon="15.64682">
        <ele>266.019236</ele>
        <time>2026-07-10T08:27:29.000Z</time>
      </trkpt>
      <trkpt lat="46.42105" lon="15.64683">
        <ele>266.026134</ele>
        <time>2026-07-10T08:27:31.000Z</time>
      </trkpt>
      <trkpt lat="46.42102" lon="15.64684">
        <ele>266.029111</ele>
        <time>2026-07-10T08:27:32.000Z</time>
      </trkpt>
      <trkpt lat="46.42098" lon="15.64692">
        <ele>266.034589</ele>
        <time>2026-07-10T08:27:34.000Z</time>
      </trkpt>
      <trkpt lat="46.42101" lon="15.64723">
        <ele>266.053125</ele>
        <time>2026-07-10T08:27:39.000Z</time>
      </trkpt>
      <trkpt lat="46.42106" lon="15.64768">
        <ele>265.700363</ele>
        <time>2026-07-10T08:27:45.000Z</time>
      </trkpt>
      <trkpt lat="46.42108" lon="15.64807">
        <ele>265.167798</ele>
        <time>2026-07-10T08:27:50.000Z</time>
      </trkpt>
      <trkpt lat="46.42109" lon="15.64823">
        <ele>264.950101</ele>
        <time>2026-07-10T08:27:52.000Z</time>
      </trkpt>
      <trkpt lat="46.4211" lon="15.64838">
        <ele>264.73831</ele>
        <time>2026-07-10T08:27:54.000Z</time>
      </trkpt>
      <trkpt lat="46.42111" lon="15.64853">
        <ele>264.53441</ele>
        <time>2026-07-10T08:27:56.000Z</time>
      </trkpt>
      <trkpt lat="46.42112" lon="15.64876">
        <ele>264.216832</ele>
        <time>2026-07-10T08:27:59.000Z</time>
      </trkpt>
      <trkpt lat="46.42117" lon="15.64922">
        <ele>263.596913</ele>
        <time>2026-07-10T08:28:05.000Z</time>
      </trkpt>
      <trkpt lat="46.4212" lon="15.64936">
        <ele>263.395045</ele>
        <time>2026-07-10T08:28:07.000Z</time>
      </trkpt>
      <trkpt lat="46.42136" lon="15.64992">
        <ele>262.562276</ele>
        <time>2026-07-10T08:28:15.000Z</time>
      </trkpt>
      <trkpt lat="46.42148" lon="15.6502">
        <ele>262.420727</ele>
        <time>2026-07-10T08:28:19.000Z</time>
      </trkpt>
      <trkpt lat="46.42154" lon="15.65032">
        <ele>262.368826</ele>
        <time>2026-07-10T08:28:21.000Z</time>
      </trkpt>
      <trkpt lat="46.42161" lon="15.65044">
        <ele>262.317314</ele>
        <time>2026-07-10T08:28:23.000Z</time>
      </trkpt>
      <trkpt lat="46.42164" lon="15.65051">
        <ele>262.289781</ele>
        <time>2026-07-10T08:28:24.000Z</time>
      </trkpt>
      <trkpt lat="46.42169" lon="15.65065">
        <ele>262.236954</ele>
        <time>2026-07-10T08:28:26.000Z</time>
      </trkpt>
      <trkpt lat="46.42171" lon="15.65072">
        <ele>262.213542</ele>
        <time>2026-07-10T08:28:27.000Z</time>
      </trkpt>
      <trkpt lat="46.42171" lon="15.65079">
        <ele>262.190387</ele>
        <time>2026-07-10T08:28:28.000Z</time>
      </trkpt>
      <trkpt lat="46.4217" lon="15.65093">
        <ele>262.141837</ele>
        <time>2026-07-10T08:28:30.000Z</time>
      </trkpt>
      <trkpt lat="46.42169" lon="15.651">
        <ele>262.117716</ele>
        <time>2026-07-10T08:28:31.000Z</time>
      </trkpt>
      <trkpt lat="46.42167" lon="15.65107">
        <ele>262.093408</ele>
        <time>2026-07-10T08:28:32.000Z</time>
      </trkpt>
      <trkpt lat="46.4216" lon="15.65125">
        <ele>262.023068</ele>
        <time>2026-07-10T08:28:35.000Z</time>
      </trkpt>
      <trkpt lat="46.42158" lon="15.65131">
        <ele>262.00076</ele>
        <time>2026-07-10T08:28:36.000Z</time>
      </trkpt>
      <trkpt lat="46.42131" lon="15.65177">
        <ele>261.800751</ele>
        <time>2026-07-10T08:28:44.000Z</time>
      </trkpt>
      <trkpt lat="46.42125" lon="15.65189">
        <ele>261.748025</ele>
        <time>2026-07-10T08:28:46.000Z</time>
      </trkpt>
      <trkpt lat="46.4209" lon="15.65251">
        <ele>261.31859</ele>
        <time>2026-07-10T08:28:56.000Z</time>
      </trkpt>
      <trkpt lat="46.42077" lon="15.65295">
        <ele>261.000186</ele>
        <time>2026-07-10T08:29:02.000Z</time>
      </trkpt>
      <trkpt lat="46.42076" lon="15.65302">
        <ele>260.948102</ele>
        <time>2026-07-10T08:29:03.000Z</time>
      </trkpt>
      <trkpt lat="46.42072" lon="15.65341">
        <ele>260.686246</ele>
        <time>2026-07-10T08:29:08.000Z</time>
      </trkpt>
      <trkpt lat="46.42067" lon="15.65409">
        <ele>260.227383</ele>
        <time>2026-07-10T08:29:17.000Z</time>
      </trkpt>
      <trkpt lat="46.42067" lon="15.65416">
        <ele>260.17832</ele>
        <time>2026-07-10T08:29:18.000Z</time>
      </trkpt>
      <trkpt lat="46.42066" lon="15.6543">
        <ele>260.079544</ele>
        <time>2026-07-10T08:29:20.000Z</time>
      </trkpt>
      <trkpt lat="46.42062" lon="15.65444">
        <ele>259.982094</ele>
        <time>2026-07-10T08:29:22.000Z</time>
      </trkpt>
      <trkpt lat="46.42048" lon="15.65467">
        <ele>259.878034</ele>
        <time>2026-07-10T08:29:26.000Z</time>
      </trkpt>
      <trkpt lat="46.42045" lon="15.65474">
        <ele>259.871418</ele>
        <time>2026-07-10T08:29:27.000Z</time>
      </trkpt>
      <trkpt lat="46.4204" lon="15.65488">
        <ele>259.858072</ele>
        <time>2026-07-10T08:29:29.000Z</time>
      </trkpt>
      <trkpt lat="46.42033" lon="15.65517">
        <ele>259.831722</ele>
        <time>2026-07-10T08:29:33.000Z</time>
      </trkpt>
      <trkpt lat="46.42021" lon="15.65576">
        <ele>259.779776</ele>
        <time>2026-07-10T08:29:41.000Z</time>
      </trkpt>
      <trkpt lat="46.42014" lon="15.65636">
        <ele>259.728657</ele>
        <time>2026-07-10T08:29:49.000Z</time>
      </trkpt>
      <trkpt lat="46.42006" lon="15.65695">
        <ele>259.677693</ele>
        <time>2026-07-10T08:29:57.000Z</time>
      </trkpt>
      <trkpt lat="46.42004" lon="15.6571">
        <ele>259.59303</ele>
        <time>2026-07-10T08:29:59.000Z</time>
      </trkpt>
      <trkpt lat="46.41998" lon="15.6574">
        <ele>259.301566</ele>
        <time>2026-07-10T08:30:03.000Z</time>
      </trkpt>
      <trkpt lat="46.41993" lon="15.65754">
        <ele>259.154089</ele>
        <time>2026-07-10T08:30:05.000Z</time>
      </trkpt>
      <trkpt lat="46.41986" lon="15.65765">
        <ele>259.0123</ele>
        <time>2026-07-10T08:30:07.000Z</time>
      </trkpt>
      <trkpt lat="46.41976" lon="15.65772">
        <ele>258.870995</ele>
        <time>2026-07-10T08:30:09.000Z</time>
      </trkpt>
      <trkpt lat="46.41966" lon="15.65777">
        <ele>258.726451</ele>
        <time>2026-07-10T08:30:11.000Z</time>
      </trkpt>
      <trkpt lat="46.41941" lon="15.6579">
        <ele>258.370438</ele>
        <time>2026-07-10T08:30:16.000Z</time>
      </trkpt>
      <trkpt lat="46.41937" lon="15.65794">
        <ele>258.298938</ele>
        <time>2026-07-10T08:30:17.000Z</time>
      </trkpt>
      <trkpt lat="46.41928" lon="15.65804">
        <ele>258.150188</ele>
        <time>2026-07-10T08:30:19.000Z</time>
      </trkpt>
      <trkpt lat="46.41924" lon="15.65809">
        <ele>258.077317</ele>
        <time>2026-07-10T08:30:20.000Z</time>
      </trkpt>
      <trkpt lat="46.41915" lon="15.65828">
        <ele>257.867343</ele>
        <time>2026-07-10T08:30:23.000Z</time>
      </trkpt>
      <trkpt lat="46.41912" lon="15.65842">
        <ele>257.728772</ele>
        <time>2026-07-10T08:30:25.000Z</time>
      </trkpt>
      <trkpt lat="46.41904" lon="15.65879">
        <ele>257.370447</ele>
        <time>2026-07-10T08:30:30.000Z</time>
      </trkpt>
      <trkpt lat="46.41901" lon="15.65893">
        <ele>257.260022</ele>
        <time>2026-07-10T08:30:32.000Z</time>
      </trkpt>
      <trkpt lat="46.41898" lon="15.65907">
        <ele>257.316412</ele>
        <time>2026-07-10T08:30:34.000Z</time>
      </trkpt>
      <trkpt lat="46.41892" lon="15.65942">
        <ele>257.454189</ele>
        <time>2026-07-10T08:30:39.000Z</time>
      </trkpt>
      <trkpt lat="46.41891" lon="15.65951">
        <ele>257.489209</ele>
        <time>2026-07-10T08:30:40.000Z</time>
      </trkpt>
      <trkpt lat="46.41888" lon="15.65964">
        <ele>257.543218</ele>
        <time>2026-07-10T08:30:42.000Z</time>
      </trkpt>
      <trkpt lat="46.41884" lon="15.65978">
        <ele>257.602226</ele>
        <time>2026-07-10T08:30:44.000Z</time>
      </trkpt>
      <trkpt lat="46.41864" lon="15.66032">
        <ele>257.83991</ele>
        <time>2026-07-10T08:30:52.000Z</time>
      </trkpt>
      <trkpt lat="46.41841" lon="15.66096">
        <ele>258.120229</ele>
        <time>2026-07-10T08:31:02.000Z</time>
      </trkpt>
      <trkpt lat="46.41833" lon="15.66126">
        <ele>258.245641</ele>
        <time>2026-07-10T08:31:07.000Z</time>
      </trkpt>
      <trkpt lat="46.41831" lon="15.6613">
        <ele>258.263074</ele>
        <time>2026-07-10T08:31:08.000Z</time>
      </trkpt>
      <trkpt lat="46.41827" lon="15.66133">
        <ele>258.264865</ele>
        <time>2026-07-10T08:31:09.000Z</time>
      </trkpt>
      <trkpt lat="46.41819" lon="15.66132">
        <ele>258.267921</ele>
        <time>2026-07-10T08:31:11.000Z</time>
      </trkpt>
      <trkpt lat="46.41801" lon="15.66109">
        <ele>258.276862</ele>
        <time>2026-07-10T08:31:16.000Z</time>
      </trkpt>
      <trkpt lat="46.4177" lon="15.6606">
        <ele>258.293983</ele>
        <time>2026-07-10T08:31:25.000Z</time>
      </trkpt>
      <trkpt lat="46.41745" lon="15.66024">
        <ele>258.307125</ele>
        <time>2026-07-10T08:31:32.000Z</time>
      </trkpt>
      <trkpt lat="46.41739" lon="15.66013">
        <ele>258.310768</ele>
        <time>2026-07-10T08:31:34.000Z</time>
      </trkpt>
      <trkpt lat="46.41708" lon="15.65966">
        <ele>258.327215</ele>
        <time>2026-07-10T08:31:43.000Z</time>
      </trkpt>
      <trkpt lat="46.41683" lon="15.65932">
        <ele>258.286129</ele>
        <time>2026-07-10T08:31:50.000Z</time>
      </trkpt>
      <trkpt lat="46.4166" lon="15.65894">
        <ele>258.230048</ele>
        <time>2026-07-10T08:31:57.000Z</time>
      </trkpt>
      <trkpt lat="46.41647" lon="15.65872">
        <ele>258.196904</ele>
        <time>2026-07-10T08:32:01.000Z</time>
      </trkpt>
      <trkpt lat="46.41641" lon="15.6586">
        <ele>258.180671</ele>
        <time>2026-07-10T08:32:03.000Z</time>
      </trkpt>
      <trkpt lat="46.41637" lon="15.65854">
        <ele>258.172414</ele>
        <time>2026-07-10T08:32:04.000Z</time>
      </trkpt>
      <trkpt lat="46.41623" lon="15.65815">
        <ele>258.122748</ele>
        <time>2026-07-10T08:32:10.000Z</time>
      </trkpt>
      <trkpt lat="46.41617" lon="15.65786">
        <ele>258.08943</ele>
        <time>2026-07-10T08:32:14.000Z</time>
      </trkpt>
      <trkpt lat="46.41611" lon="15.65773">
        <ele>258.072534</ele>
        <time>2026-07-10T08:32:16.000Z</time>
      </trkpt>
      <trkpt lat="46.41604" lon="15.65763">
        <ele>258.056354</ele>
        <time>2026-07-10T08:32:18.000Z</time>
      </trkpt>
      <trkpt lat="46.41593" lon="15.65748">
        <ele>258.06702</ele>
        <time>2026-07-10T08:32:21.000Z</time>
      </trkpt>
      <trkpt lat="46.41589" lon="15.65744">
        <ele>258.098506</ele>
        <time>2026-07-10T08:32:22.000Z</time>
      </trkpt>
      <trkpt lat="46.41572" lon="15.6572">
        <ele>258.249087</ele>
        <time>2026-07-10T08:32:27.000Z</time>
      </trkpt>
      <trkpt lat="46.41564" lon="15.65711">
        <ele>258.312293</ele>
        <time>2026-07-10T08:32:29.000Z</time>
      </trkpt>
      <trkpt lat="46.41527" lon="15.65666">
        <ele>258.611204</ele>
        <time>2026-07-10T08:32:39.000Z</time>
      </trkpt>
      <trkpt lat="46.415" lon="15.6563">
        <ele>258.837787</ele>
        <time>2026-07-10T08:32:47.000Z</time>
      </trkpt>
      <trkpt lat="46.41481" lon="15.65604">
        <ele>259.004615</ele>
        <time>2026-07-10T08:32:53.000Z</time>
      </trkpt>
      <trkpt lat="46.41466" lon="15.65586">
        <ele>259.121916</ele>
        <time>2026-07-10T08:32:57.000Z</time>
      </trkpt>
      <trkpt lat="46.41463" lon="15.65581">
        <ele>259.150725</ele>
        <time>2026-07-10T08:32:58.000Z</time>
      </trkpt>
      <trkpt lat="46.41445" lon="15.6556">
        <ele>259.079715</ele>
        <time>2026-07-10T08:33:03.000Z</time>
      </trkpt>
      <trkpt lat="46.41438" lon="15.65552">
        <ele>259.047641</ele>
        <time>2026-07-10T08:33:05.000Z</time>
      </trkpt>
      <trkpt lat="46.41431" lon="15.65543">
        <ele>259.015194</ele>
        <time>2026-07-10T08:33:07.000Z</time>
      </trkpt>
      <trkpt lat="46.41407" lon="15.65509">
        <ele>258.895236</ele>
        <time>2026-07-10T08:33:14.000Z</time>
      </trkpt>
      <trkpt lat="46.4137" lon="15.65462">
        <ele>258.720595</ele>
        <time>2026-07-10T08:33:24.000Z</time>
      </trkpt>
      <trkpt lat="46.41348" lon="15.65435">
        <ele>258.618416</ele>
        <time>2026-07-10T08:33:30.000Z</time>
      </trkpt>
      <trkpt lat="46.4134" lon="15.65427">
        <ele>258.584527</ele>
        <time>2026-07-10T08:33:32.000Z</time>
      </trkpt>
      <trkpt lat="46.41336" lon="15.65415">
        <ele>258.550562</ele>
        <time>2026-07-10T08:33:34.000Z</time>
      </trkpt>
      <trkpt lat="46.41335" lon="15.65408">
        <ele>258.53266</ele>
        <time>2026-07-10T08:33:35.000Z</time>
      </trkpt>
      <trkpt lat="46.41335" lon="15.654">
        <ele>258.518915</ele>
        <time>2026-07-10T08:33:36.000Z</time>
      </trkpt>
      <trkpt lat="46.41339" lon="15.65388">
        <ele>258.530274</ele>
        <time>2026-07-10T08:33:38.000Z</time>
      </trkpt>
      <trkpt lat="46.41369" lon="15.65322">
        <ele>258.59536</ele>
        <time>2026-07-10T08:33:49.000Z</time>
      </trkpt>
      <trkpt lat="46.41371" lon="15.65309">
        <ele>258.60671</ele>
        <time>2026-07-10T08:33:51.000Z</time>
      </trkpt>
      <trkpt lat="46.4137" lon="15.65295">
        <ele>258.618313</ele>
        <time>2026-07-10T08:33:53.000Z</time>
      </trkpt>
      <trkpt lat="46.41354" lon="15.65258">
        <ele>258.65433</ele>
        <time>2026-07-10T08:33:59.000Z</time>
      </trkpt>
      <trkpt lat="46.41331" lon="15.652">
        <ele>258.709095</ele>
        <time>2026-07-10T08:34:08.000Z</time>
      </trkpt>
      <trkpt lat="46.41318" lon="15.65169">
        <ele>258.732956</ele>
        <time>2026-07-10T08:34:13.000Z</time>
      </trkpt>
      <trkpt lat="46.41312" lon="15.65157">
        <ele>258.732111</ele>
        <time>2026-07-10T08:34:15.000Z</time>
      </trkpt>
      <trkpt lat="46.41309" lon="15.65152">
        <ele>258.731672</ele>
        <time>2026-07-10T08:34:16.000Z</time>
      </trkpt>
      <trkpt lat="46.41302" lon="15.65143">
        <ele>258.730837</ele>
        <time>2026-07-10T08:34:18.000Z</time>
      </trkpt>
      <trkpt lat="46.41294" lon="15.65134">
        <ele>258.729982</ele>
        <time>2026-07-10T08:34:20.000Z</time>
      </trkpt>
      <trkpt lat="46.41285" lon="15.65126">
        <ele>258.729072</ele>
        <time>2026-07-10T08:34:22.000Z</time>
      </trkpt>
      <trkpt lat="46.41269" lon="15.65112">
        <ele>258.727423</ele>
        <time>2026-07-10T08:34:26.000Z</time>
      </trkpt>
      <trkpt lat="46.41242" lon="15.65092">
        <ele>258.724849</ele>
        <time>2026-07-10T08:34:32.000Z</time>
      </trkpt>
      <trkpt lat="46.41201" lon="15.65049">
        <ele>258.720459</ele>
        <time>2026-07-10T08:34:42.000Z</time>
      </trkpt>
      <trkpt lat="46.4118" lon="15.65028">
        <ele>258.718264</ele>
        <time>2026-07-10T08:34:47.000Z</time>
      </trkpt>
      <trkpt lat="46.41171" lon="15.65021">
        <ele>258.757445</ele>
        <time>2026-07-10T08:34:49.000Z</time>
      </trkpt>
      <trkpt lat="46.4116" lon="15.65009">
        <ele>258.870518</ele>
        <time>2026-07-10T08:34:52.000Z</time>
      </trkpt>
      <trkpt lat="46.41153" lon="15.64999">
        <ele>258.942479</ele>
        <time>2026-07-10T08:34:54.000Z</time>
      </trkpt>
      <trkpt lat="46.41151" lon="15.64993">
        <ele>258.977906</ele>
        <time>2026-07-10T08:34:55.000Z</time>
      </trkpt>
      <trkpt lat="46.41151" lon="15.64987">
        <ele>259.012262</ele>
        <time>2026-07-10T08:34:56.000Z</time>
      </trkpt>
      <trkpt lat="46.41154" lon="15.64974">
        <ele>259.086598</ele>
        <time>2026-07-10T08:34:58.000Z</time>
      </trkpt>
      <trkpt lat="46.41172" lon="15.64908">
        <ele>259.47404</ele>
        <time>2026-07-10T08:35:08.000Z</time>
      </trkpt>
      <trkpt lat="46.41182" lon="15.6486">
        <ele>259.745743</ele>
        <time>2026-07-10T08:35:15.000Z</time>
      </trkpt>
      <trkpt lat="46.41183" lon="15.6484">
        <ele>259.855665</ele>
        <time>2026-07-10T08:35:18.000Z</time>
      </trkpt>
      <trkpt lat="46.41182" lon="15.64827">
        <ele>259.924667</ele>
        <time>2026-07-10T08:35:20.000Z</time>
      </trkpt>
      <trkpt lat="46.4118" lon="15.64816">
        <ele>259.988604</ele>
        <time>2026-07-10T08:35:22.000Z</time>
      </trkpt>
      <trkpt lat="46.41175" lon="15.64809">
        <ele>260.042771</ele>
        <time>2026-07-10T08:35:24.000Z</time>
      </trkpt>
      <trkpt lat="46.41167" lon="15.64809">
        <ele>260.105897</ele>
        <time>2026-07-10T08:35:26.000Z</time>
      </trkpt>
      <trkpt lat="46.41163" lon="15.64811">
        <ele>260.132999</ele>
        <time>2026-07-10T08:35:27.000Z</time>
      </trkpt>
      <trkpt lat="46.41159" lon="15.64813">
        <ele>260.083746</ele>
        <time>2026-07-10T08:35:28.000Z</time>
      </trkpt>
      <trkpt lat="46.4115" lon="15.64816">
        <ele>259.983381</ele>
        <time>2026-07-10T08:35:30.000Z</time>
      </trkpt>
      <trkpt lat="46.41141" lon="15.64819">
        <ele>259.880603</ele>
        <time>2026-07-10T08:35:32.000Z</time>
      </trkpt>
      <trkpt lat="46.41112" lon="15.64822">
        <ele>259.565666</ele>
        <time>2026-07-10T08:35:38.000Z</time>
      </trkpt>
      <trkpt lat="46.41102" lon="15.64823">
        <ele>259.460501</ele>
        <time>2026-07-10T08:35:40.000Z</time>
      </trkpt>
      <trkpt lat="46.41078" lon="15.64825">
        <ele>259.196028</ele>
        <time>2026-07-10T08:35:45.000Z</time>
      </trkpt>
      <trkpt lat="46.41063" lon="15.64826">
        <ele>259.034573</ele>
        <time>2026-07-10T08:35:48.000Z</time>
      </trkpt>
      <trkpt lat="46.41053" lon="15.64825">
        <ele>258.927616</ele>
        <time>2026-07-10T08:35:50.000Z</time>
      </trkpt>
      <trkpt lat="46.41039" lon="15.64827">
        <ele>258.768946</ele>
        <time>2026-07-10T08:35:53.000Z</time>
      </trkpt>
      <trkpt lat="46.41024" lon="15.64827">
        <ele>258.61188</ele>
        <time>2026-07-10T08:35:56.000Z</time>
      </trkpt>
      <trkpt lat="46.41001" lon="15.64827">
        <ele>258.353308</ele>
        <time>2026-07-10T08:36:01.000Z</time>
      </trkpt>
      <trkpt lat="46.40996" lon="15.64828">
        <ele>258.303084</ele>
        <time>2026-07-10T08:36:02.000Z</time>
      </trkpt>
      <trkpt lat="46.40973" lon="15.64828">
        <ele>258.088894</ele>
        <time>2026-07-10T08:36:07.000Z</time>
      </trkpt>
      <trkpt lat="46.40964" lon="15.64828">
        <ele>258.017184</ele>
        <time>2026-07-10T08:36:09.000Z</time>
      </trkpt>
      <trkpt lat="46.4093" lon="15.64827">
        <ele>257.749043</ele>
        <time>2026-07-10T08:36:16.000Z</time>
      </trkpt>
      <trkpt lat="46.4092" lon="15.64826">
        <ele>257.674953</ele>
        <time>2026-07-10T08:36:18.000Z</time>
      </trkpt>
      <trkpt lat="46.40906" lon="15.64826">
        <ele>257.56428</ele>
        <time>2026-07-10T08:36:21.000Z</time>
      </trkpt>
      <trkpt lat="46.40897" lon="15.64827">
        <ele>257.490987</ele>
        <time>2026-07-10T08:36:23.000Z</time>
      </trkpt>
      <trkpt lat="46.40884" lon="15.64827">
        <ele>257.39432</ele>
        <time>2026-07-10T08:36:26.000Z</time>
      </trkpt>
      <trkpt lat="46.40876" lon="15.64828">
        <ele>257.332466</ele>
        <time>2026-07-10T08:36:28.000Z</time>
      </trkpt>
      <trkpt lat="46.4087" lon="15.64834">
        <ele>257.272041</ele>
        <time>2026-07-10T08:36:30.000Z</time>
      </trkpt>
      <trkpt lat="46.40865" lon="15.64845">
        <ele>257.203892</ele>
        <time>2026-07-10T08:36:32.000Z</time>
      </trkpt>
      <trkpt lat="46.40862" lon="15.64858">
        <ele>257.129811</ele>
        <time>2026-07-10T08:36:34.000Z</time>
      </trkpt>
      <trkpt lat="46.40859" lon="15.64879">
        <ele>257.016666</ele>
        <time>2026-07-10T08:36:37.000Z</time>
      </trkpt>
      <trkpt lat="46.40854" lon="15.64898">
        <ele>256.904937</ele>
        <time>2026-07-10T08:36:40.000Z</time>
      </trkpt>
      <trkpt lat="46.40851" lon="15.64911">
        <ele>256.828472</ele>
        <time>2026-07-10T08:36:42.000Z</time>
      </trkpt>
      <trkpt lat="46.40847" lon="15.64925">
        <ele>256.744333</ele>
        <time>2026-07-10T08:36:44.000Z</time>
      </trkpt>
      <trkpt lat="46.40843" lon="15.64938">
        <ele>256.643689</ele>
        <time>2026-07-10T08:36:46.000Z</time>
      </trkpt>
      <trkpt lat="46.40839" lon="15.64951">
        <ele>256.545297</ele>
        <time>2026-07-10T08:36:48.000Z</time>
      </trkpt>
      <trkpt lat="46.40832" lon="15.64978">
        <ele>256.347311</ele>
        <time>2026-07-10T08:36:52.000Z</time>
      </trkpt>
      <trkpt lat="46.40823" lon="15.65011">
        <ele>256.109084</ele>
        <time>2026-07-10T08:36:57.000Z</time>
      </trkpt>
      <trkpt lat="46.40807" lon="15.65063">
        <ele>255.715585</ele>
        <time>2026-07-10T08:37:05.000Z</time>
      </trkpt>
      <trkpt lat="46.40802" lon="15.65075">
        <ele>255.621515</ele>
        <time>2026-07-10T08:37:07.000Z</time>
      </trkpt>
      <trkpt lat="46.40798" lon="15.65087">
        <ele>255.525765</ele>
        <time>2026-07-10T08:37:09.000Z</time>
      </trkpt>
      <trkpt lat="46.40795" lon="15.65093">
        <ele>255.477254</ele>
        <time>2026-07-10T08:37:10.000Z</time>
      </trkpt>
      <trkpt lat="46.40792" lon="15.65099">
        <ele>255.428044</ele>
        <time>2026-07-10T08:37:11.000Z</time>
      </trkpt>
      <trkpt lat="46.40778" lon="15.65138">
        <ele>255.13057</ele>
        <time>2026-07-10T08:37:17.000Z</time>
      </trkpt>
      <trkpt lat="46.40769" lon="15.65162">
        <ele>254.977542</ele>
        <time>2026-07-10T08:37:21.000Z</time>
      </trkpt>
      <trkpt lat="46.40755" lon="15.65192">
        <ele>254.933399</ele>
        <time>2026-07-10T08:37:26.000Z</time>
      </trkpt>
      <trkpt lat="46.40744" lon="15.65216">
        <ele>254.897254</ele>
        <time>2026-07-10T08:37:30.000Z</time>
      </trkpt>
      <trkpt lat="46.40736" lon="15.65234">
        <ele>254.870319</ele>
        <time>2026-07-10T08:37:33.000Z</time>
      </trkpt>
      <trkpt lat="46.4073" lon="15.65246">
        <ele>254.852503</ele>
        <time>2026-07-10T08:37:35.000Z</time>
      </trkpt>
      <trkpt lat="46.40717" lon="15.65276">
        <ele>254.808138</ele>
        <time>2026-07-10T08:37:40.000Z</time>
      </trkpt>
      <trkpt lat="46.40702" lon="15.65312">
        <ele>254.755212</ele>
        <time>2026-07-10T08:37:46.000Z</time>
      </trkpt>
      <trkpt lat="46.40695" lon="15.65331">
        <ele>254.728072</ele>
        <time>2026-07-10T08:37:49.000Z</time>
      </trkpt>
      <trkpt lat="46.4067" lon="15.65397">
        <ele>254.70398</ele>
        <time>2026-07-10T08:37:59.000Z</time>
      </trkpt>
      <trkpt lat="46.40663" lon="15.65415">
        <ele>254.747493</ele>
        <time>2026-07-10T08:38:02.000Z</time>
      </trkpt>
      <trkpt lat="46.40655" lon="15.65435">
        <ele>254.792706</ele>
        <time>2026-07-10T08:38:05.000Z</time>
      </trkpt>
      <trkpt lat="46.40653" lon="15.65441">
        <ele>254.808431</ele>
        <time>2026-07-10T08:38:06.000Z</time>
      </trkpt>
      <trkpt lat="46.40644" lon="15.65461">
        <ele>254.856057</ele>
        <time>2026-07-10T08:38:09.000Z</time>
      </trkpt>
      <trkpt lat="46.40626" lon="15.65499">
        <ele>254.948142</ele>
        <time>2026-07-10T08:38:15.000Z</time>
      </trkpt>
      <trkpt lat="46.40608" lon="15.65536">
        <ele>255.042084</ele>
        <time>2026-07-10T08:38:21.000Z</time>
      </trkpt>
      <trkpt lat="46.40601" lon="15.65547">
        <ele>255.071593</ele>
        <time>2026-07-10T08:38:23.000Z</time>
      </trkpt>
      <trkpt lat="46.40595" lon="15.6556">
        <ele>255.102478</ele>
        <time>2026-07-10T08:38:25.000Z</time>
      </trkpt>
      <trkpt lat="46.40588" lon="15.65571">
        <ele>255.133141</ele>
        <time>2026-07-10T08:38:27.000Z</time>
      </trkpt>
      <trkpt lat="46.40556" lon="15.65638">
        <ele>255.450049</ele>
        <time>2026-07-10T08:38:38.000Z</time>
      </trkpt>
      <trkpt lat="46.40553" lon="15.65644">
        <ele>255.485435</ele>
        <time>2026-07-10T08:38:39.000Z</time>
      </trkpt>
      <trkpt lat="46.40544" lon="15.65662">
        <ele>255.592227</ele>
        <time>2026-07-10T08:38:42.000Z</time>
      </trkpt>
      <trkpt lat="46.40541" lon="15.65668">
        <ele>255.628424</ele>
        <time>2026-07-10T08:38:43.000Z</time>
      </trkpt>
      <trkpt lat="46.40535" lon="15.65679">
        <ele>255.694433</ele>
        <time>2026-07-10T08:38:45.000Z</time>
      </trkpt>
      <trkpt lat="46.40532" lon="15.65684">
        <ele>255.726588</ele>
        <time>2026-07-10T08:38:46.000Z</time>
      </trkpt>
      <trkpt lat="46.40527" lon="15.65694">
        <ele>255.785408</ele>
        <time>2026-07-10T08:38:48.000Z</time>
      </trkpt>
      <trkpt lat="46.40521" lon="15.65707">
        <ele>255.859694</ele>
        <time>2026-07-10T08:38:51.000Z</time>
      </trkpt>
      <trkpt lat="46.4051" lon="15.65729">
        <ele>255.994392</ele>
        <time>2026-07-10T08:38:57.000Z</time>
      </trkpt>
      <trkpt lat="46.40505" lon="15.65738">
        <ele>256.045892</ele>
        <time>2026-07-10T08:39:02.000Z</time>
      </trkpt>
      <trkpt lat="46.40505" lon="15.65738">
        <ele>256.045892</ele>
        <time>2026-07-10T08:39:03.000Z</time>
      </trkpt>
      <trkpt lat="46.40502" lon="15.65742">
        <ele>256.074909</ele>
        <time>2026-07-10T08:39:23.000Z</time>
      </trkpt>
      <trkpt lat="46.405" lon="15.65744">
        <ele>256.091587</ele>
        <time>2026-07-10T08:39:24.000Z</time>
      </trkpt>
      <trkpt lat="46.40499" lon="15.65748">
        <ele>256.11291</ele>
        <time>2026-07-10T08:39:25.000Z</time>
      </trkpt>
      <trkpt lat="46.40493" lon="15.65761">
        <ele>256.185161</ele>
        <time>2026-07-10T08:39:28.000Z</time>
      </trkpt>
      <trkpt lat="46.40488" lon="15.65769">
        <ele>256.240064</ele>
        <time>2026-07-10T08:39:30.000Z</time>
      </trkpt>
      <trkpt lat="46.40479" lon="15.65778">
        <ele>256.313947</ele>
        <time>2026-07-10T08:39:33.000Z</time>
      </trkpt>
      <trkpt lat="46.4047" lon="15.65784">
        <ele>256.388336</ele>
        <time>2026-07-10T08:39:36.000Z</time>
      </trkpt>
      <trkpt lat="46.40457" lon="15.65786">
        <ele>256.437963</ele>
        <time>2026-07-10T08:39:39.000Z</time>
      </trkpt>
      <trkpt lat="46.40447" lon="15.65784">
        <ele>256.415276</ele>
        <time>2026-07-10T08:39:41.000Z</time>
      </trkpt>
      <trkpt lat="46.40437" lon="15.65784">
        <ele>256.391738</ele>
        <time>2026-07-10T08:39:43.000Z</time>
      </trkpt>
      <trkpt lat="46.40427" lon="15.65788">
        <ele>256.368431</ele>
        <time>2026-07-10T08:39:45.000Z</time>
      </trkpt>
      <trkpt lat="46.40422" lon="15.65791">
        <ele>256.356034</ele>
        <time>2026-07-10T08:39:46.000Z</time>
      </trkpt>
      <trkpt lat="46.40413" lon="15.65798">
        <ele>256.332828</ele>
        <time>2026-07-10T08:39:48.000Z</time>
      </trkpt>
      <trkpt lat="46.40395" lon="15.65812">
        <ele>256.284848</ele>
        <time>2026-07-10T08:39:52.000Z</time>
      </trkpt>
      <trkpt lat="46.40375" lon="15.6582">
        <ele>256.23779</ele>
        <time>2026-07-10T08:39:56.000Z</time>
      </trkpt>
      <trkpt lat="46.40367" lon="15.65824">
        <ele>256.218793</ele>
        <time>2026-07-10T08:39:58.000Z</time>
      </trkpt>
      <trkpt lat="46.40346" lon="15.65835">
        <ele>256.165982</ele>
        <time>2026-07-10T08:40:03.000Z</time>
      </trkpt>
      <trkpt lat="46.40315" lon="15.65856">
        <ele>256.087956</ele>
        <time>2026-07-10T08:40:10.000Z</time>
      </trkpt>
      <trkpt lat="46.40311" lon="15.6586">
        <ele>256.076807</ele>
        <time>2026-07-10T08:40:11.000Z</time>
      </trkpt>
      <trkpt lat="46.40299" lon="15.6587">
        <ele>256.044279</ele>
        <time>2026-07-10T08:40:14.000Z</time>
      </trkpt>
      <trkpt lat="46.40277" lon="15.65887">
        <ele>256.155051</ele>
        <time>2026-07-10T08:40:20.000Z</time>
      </trkpt>
      <trkpt lat="46.40274" lon="15.65891">
        <ele>256.181649</ele>
        <time>2026-07-10T08:40:21.000Z</time>
      </trkpt>
      <trkpt lat="46.4027" lon="15.65895">
        <ele>256.20924</ele>
        <time>2026-07-10T08:40:22.000Z</time>
      </trkpt>
      <trkpt lat="46.40262" lon="15.659">
        <ele>256.265963</ele>
        <time>2026-07-10T08:40:24.000Z</time>
      </trkpt>
      <trkpt lat="46.40253" lon="15.65904">
        <ele>256.322992</ele>
        <time>2026-07-10T08:40:26.000Z</time>
      </trkpt>
      <trkpt lat="46.40221" lon="15.65912">
        <ele>256.526032</ele>
        <time>2026-07-10T08:40:33.000Z</time>
      </trkpt>
      <trkpt lat="46.40212" lon="15.65915">
        <ele>256.583857</ele>
        <time>2026-07-10T08:40:35.000Z</time>
      </trkpt>
      <trkpt lat="46.40183" lon="15.65925">
        <ele>256.769171</ele>
        <time>2026-07-10T08:40:41.000Z</time>
      </trkpt>
      <trkpt lat="46.40172" lon="15.65925">
        <ele>256.833704</ele>
        <time>2026-07-10T08:40:43.000Z</time>
      </trkpt>
      <trkpt lat="46.40132" lon="15.65906">
        <ele>257.098122</ele>
        <time>2026-07-10T08:40:51.000Z</time>
      </trkpt>
      <trkpt lat="46.401" lon="15.65891">
        <ele>257.074193</ele>
        <time>2026-07-10T08:40:58.000Z</time>
      </trkpt>
      <trkpt lat="46.40096" lon="15.65889">
        <ele>257.061442</ele>
        <time>2026-07-10T08:40:59.000Z</time>
      </trkpt>
      <trkpt lat="46.40068" lon="15.65875">
        <ele>256.976131</ele>
        <time>2026-07-10T08:41:05.000Z</time>
      </trkpt>
      <trkpt lat="46.40054" lon="15.65867">
        <ele>256.932063</ele>
        <time>2026-07-10T08:41:08.000Z</time>
      </trkpt>
      <trkpt lat="46.40049" lon="15.65863">
        <ele>256.916563</ele>
        <time>2026-07-10T08:41:09.000Z</time>
      </trkpt>
      <trkpt lat="46.40045" lon="15.65859">
        <ele>256.901317</ele>
        <time>2026-07-10T08:41:10.000Z</time>
      </trkpt>
      <trkpt lat="46.40008" lon="15.65828">
        <ele>256.77815</ele>
        <time>2026-07-10T08:41:18.000Z</time>
      </trkpt>
      <trkpt lat="46.40003" lon="15.65824">
        <ele>256.762299</ele>
        <time>2026-07-10T08:41:19.000Z</time>
      </trkpt>
      <trkpt lat="46.39976" lon="15.65796">
        <ele>256.666675</ele>
        <time>2026-07-10T08:41:25.000Z</time>
      </trkpt>
      <trkpt lat="46.39963" lon="15.65783">
        <ele>256.627166</ele>
        <time>2026-07-10T08:41:28.000Z</time>
      </trkpt>
      <trkpt lat="46.39954" lon="15.65774">
        <ele>256.630762</ele>
        <time>2026-07-10T08:41:30.000Z</time>
      </trkpt>
      <trkpt lat="46.39931" lon="15.65752">
        <ele>256.639657</ele>
        <time>2026-07-10T08:41:35.000Z</time>
      </trkpt>
      <trkpt lat="46.39923" lon="15.65744">
        <ele>256.643098</ele>
        <time>2026-07-10T08:41:37.000Z</time>
      </trkpt>
      <trkpt lat="46.39911" lon="15.65732">
        <ele>256.647724</ele>
        <time>2026-07-10T08:41:40.000Z</time>
      </trkpt>
      <trkpt lat="46.39907" lon="15.65728">
        <ele>256.649317</ele>
        <time>2026-07-10T08:41:41.000Z</time>
      </trkpt>
      <trkpt lat="46.39899" lon="15.6572">
        <ele>256.652552</ele>
        <time>2026-07-10T08:41:43.000Z</time>
      </trkpt>
      <trkpt lat="46.39895" lon="15.65716">
        <ele>256.654157</ele>
        <time>2026-07-10T08:41:44.000Z</time>
      </trkpt>
      <trkpt lat="46.39891" lon="15.65712">
        <ele>256.655788</ele>
        <time>2026-07-10T08:41:45.000Z</time>
      </trkpt>
      <trkpt lat="46.39872" lon="15.65693">
        <ele>256.663237</ele>
        <time>2026-07-10T08:41:50.000Z</time>
      </trkpt>
      <trkpt lat="46.39838" lon="15.6566">
        <ele>256.67669</ele>
        <time>2026-07-10T08:41:58.000Z</time>
      </trkpt>
      <trkpt lat="46.39802" lon="15.65628">
        <ele>256.6159</ele>
        <time>2026-07-10T08:42:07.000Z</time>
      </trkpt>
      <trkpt lat="46.39782" lon="15.65609">
        <ele>256.505124</ele>
        <time>2026-07-10T08:42:13.000Z</time>
      </trkpt>
      <trkpt lat="46.39761" lon="15.65591">
        <ele>256.393194</ele>
        <time>2026-07-10T08:42:20.000Z</time>
      </trkpt>
      <trkpt lat="46.39758" lon="15.65587">
        <ele>256.377654</ele>
        <time>2026-07-10T08:42:24.000Z</time>
      </trkpt>
      <trkpt lat="46.39753" lon="15.65585">
        <ele>256.354139</ele>
        <time>2026-07-10T08:42:44.000Z</time>
      </trkpt>
      <trkpt lat="46.39751" lon="15.65586">
        <ele>256.341424</ele>
        <time>2026-07-10T08:42:45.000Z</time>
      </trkpt>
      <trkpt lat="46.39748" lon="15.65589">
        <ele>256.327382</ele>
        <time>2026-07-10T08:42:46.000Z</time>
      </trkpt>
      <trkpt lat="46.39736" lon="15.65603">
        <ele>256.258353</ele>
        <time>2026-07-10T08:42:50.000Z</time>
      </trkpt>
      <trkpt lat="46.39733" lon="15.65607">
        <ele>256.237756</ele>
        <time>2026-07-10T08:42:51.000Z</time>
      </trkpt>
      <trkpt lat="46.39705" lon="15.65638">
        <ele>256.079418</ele>
        <time>2026-07-10T08:42:58.000Z</time>
      </trkpt>
      <trkpt lat="46.39685" lon="15.65661">
        <ele>255.961735</ele>
        <time>2026-07-10T08:43:03.000Z</time>
      </trkpt>
      <trkpt lat="46.39664" lon="15.65684">
        <ele>255.837156</ele>
        <time>2026-07-10T08:43:08.000Z</time>
      </trkpt>
      <trkpt lat="46.39631" lon="15.65723">
        <ele>255.590382</ele>
        <time>2026-07-10T08:43:16.000Z</time>
      </trkpt>
      <trkpt lat="46.39593" lon="15.65775">
        <ele>255.285086</ele>
        <time>2026-07-10T08:43:26.000Z</time>
      </trkpt>
      <trkpt lat="46.39562" lon="15.65814">
        <ele>255.049798</ele>
        <time>2026-07-10T08:43:34.000Z</time>
      </trkpt>
      <trkpt lat="46.39531" lon="15.65861">
        <ele>254.746084</ele>
        <time>2026-07-10T08:43:43.000Z</time>
      </trkpt>
      <trkpt lat="46.39509" lon="15.65904">
        <ele>254.29048</ele>
        <time>2026-07-10T08:43:50.000Z</time>
      </trkpt>
      <trkpt lat="46.39486" lon="15.65954">
        <ele>253.776624</ele>
        <time>2026-07-10T08:43:58.000Z</time>
      </trkpt>
      <trkpt lat="46.39464" lon="15.66008">
        <ele>253.239877</ele>
        <time>2026-07-10T08:44:06.000Z</time>
      </trkpt>
      <trkpt lat="46.39449" lon="15.66048">
        <ele>252.843962</ele>
        <time>2026-07-10T08:44:12.000Z</time>
      </trkpt>
      <trkpt lat="46.39445" lon="15.66055">
        <ele>252.775559</ele>
        <time>2026-07-10T08:44:13.000Z</time>
      </trkpt>
      <trkpt lat="46.39438" lon="15.66068">
        <ele>252.632211</ele>
        <time>2026-07-10T08:44:15.000Z</time>
      </trkpt>
      <trkpt lat="46.39429" lon="15.66082">
        <ele>252.526081</ele>
        <time>2026-07-10T08:44:17.000Z</time>
      </trkpt>
      <trkpt lat="46.39424" lon="15.66089">
        <ele>252.479856</ele>
        <time>2026-07-10T08:44:18.000Z</time>
      </trkpt>
      <trkpt lat="46.39404" lon="15.6612">
        <ele>252.277789</ele>
        <time>2026-07-10T08:44:22.000Z</time>
      </trkpt>
      <trkpt lat="46.394" lon="15.66128">
        <ele>252.234864</ele>
        <time>2026-07-10T08:44:23.000Z</time>
      </trkpt>
      <trkpt lat="46.394" lon="15.66128">
        <ele>252.234864</ele>
        <time>2026-07-10T08:44:28.000Z</time>
      </trkpt>
      <trkpt lat="46.39347" lon="15.66193">
        <ele>251.759278</ele>
        <time>2026-07-10T08:44:34.000Z</time>
      </trkpt>
      <trkpt lat="46.39341" lon="15.66206">
        <ele>251.687642</ele>
        <time>2026-07-10T08:44:36.000Z</time>
      </trkpt>
      <trkpt lat="46.39334" lon="15.6622">
        <ele>251.605578</ele>
        <time>2026-07-10T08:44:39.000Z</time>
      </trkpt>
      <trkpt lat="46.39329" lon="15.66224">
        <ele>251.566131</ele>
        <time>2026-07-10T08:44:41.000Z</time>
      </trkpt>
      <trkpt lat="46.39327" lon="15.66224">
        <ele>251.55176</ele>
        <time>2026-07-10T08:44:42.000Z</time>
      </trkpt>
      <trkpt lat="46.39325" lon="15.66222">
        <ele>251.531258</ele>
        <time>2026-07-10T08:44:46.000Z</time>
      </trkpt>
      <trkpt lat="46.39319" lon="15.66227">
        <ele>251.485142</ele>
        <time>2026-07-10T08:45:19.000Z</time>
      </trkpt>
      <trkpt lat="46.39322" lon="15.66228">
        <ele>251.461311</ele>
        <time>2026-07-10T08:45:21.000Z</time>
      </trkpt>
      <trkpt lat="46.39327" lon="15.66228">
        <ele>251.431253</ele>
        <time>2026-07-10T08:45:23.000Z</time>
      </trkpt>
      <trkpt lat="46.39332" lon="15.66226">
        <ele>251.391975</ele>
        <time>2026-07-10T08:45:26.000Z</time>
      </trkpt>
      <trkpt lat="46.39333" lon="15.66226">
        <ele>251.388537</ele>
        <time>2026-07-10T08:45:27.000Z</time>
      </trkpt>
      <trkpt lat="46.39337" lon="15.66228">
        <ele>251.339191</ele>
        <time>2026-07-10T08:45:37.000Z</time>
      </trkpt>
      <trkpt lat="46.3934" lon="15.6623">
        <ele>251.300602</ele>
        <time>2026-07-10T08:45:38.000Z</time>
      </trkpt>
      <trkpt lat="46.39345" lon="15.66229">
        <ele>251.224006</ele>
        <time>2026-07-10T08:45:40.000Z</time>
      </trkpt>
      <trkpt lat="46.39347" lon="15.66226">
        <ele>251.184478</ele>
        <time>2026-07-10T08:45:41.000Z</time>
      </trkpt>
      <trkpt lat="46.39355" lon="15.66207">
        <ele>250.966145</ele>
        <time>2026-07-10T08:45:45.000Z</time>
      </trkpt>
      <trkpt lat="46.39375" lon="15.66172">
        <ele>250.525621</ele>
        <time>2026-07-10T08:45:51.000Z</time>
      </trkpt>
      <trkpt lat="46.39383" lon="15.66162">
        <ele>250.372603</ele>
        <time>2026-07-10T08:45:53.000Z</time>
      </trkpt>
      <trkpt lat="46.39393" lon="15.66143">
        <ele>250.138403</ele>
        <time>2026-07-10T08:45:56.000Z</time>
      </trkpt>
      <trkpt lat="46.39403" lon="15.66127">
        <ele>249.926113</ele>
        <time>2026-07-10T08:45:59.000Z</time>
      </trkpt>
      <trkpt lat="46.39431" lon="15.66109">
        <ele>249.496308</ele>
        <time>2026-07-10T08:46:04.000Z</time>
      </trkpt>
      <trkpt lat="46.39452" lon="15.66076">
        <ele>249.056177</ele>
        <time>2026-07-10T08:46:11.000Z</time>
      </trkpt>
      <trkpt lat="46.39457" lon="15.66065">
        <ele>248.933191</ele>
        <time>2026-07-10T08:46:13.000Z</time>
      </trkpt>
      <trkpt lat="46.39462" lon="15.66048">
        <ele>248.920918</ele>
        <time>2026-07-10T08:46:16.000Z</time>
      </trkpt>
      <trkpt lat="46.39464" lon="15.66043">
        <ele>248.994075</ele>
        <time>2026-07-10T08:46:17.000Z</time>
      </trkpt>
      <trkpt lat="46.39471" lon="15.66027">
        <ele>249.214292</ele>
        <time>2026-07-10T08:46:20.000Z</time>
      </trkpt>
      <trkpt lat="46.39484" lon="15.65999">
        <ele>249.602508</ele>
        <time>2026-07-10T08:46:25.000Z</time>
      </trkpt>
      <trkpt lat="46.39507" lon="15.65947">
        <ele>250.323082</ele>
        <time>2026-07-10T08:46:34.000Z</time>
      </trkpt>
      <trkpt lat="46.39522" lon="15.65904">
        <ele>250.881573</ele>
        <time>2026-07-10T08:46:42.000Z</time>
      </trkpt>
      <trkpt lat="46.39531" lon="15.65881">
        <ele>251.190416</ele>
        <time>2026-07-10T08:46:47.000Z</time>
      </trkpt>
      <trkpt lat="46.3955" lon="15.65845">
        <ele>251.721245</ele>
        <time>2026-07-10T08:46:54.000Z</time>
      </trkpt>
      <trkpt lat="46.39579" lon="15.65805">
        <ele>251.870877</ele>
        <time>2026-07-10T08:47:02.000Z</time>
      </trkpt>
      <trkpt lat="46.39593" lon="15.65785">
        <ele>251.87111</ele>
        <time>2026-07-10T08:47:06.000Z</time>
      </trkpt>
      <trkpt lat="46.39611" lon="15.65762">
        <ele>251.871399</ele>
        <time>2026-07-10T08:47:11.000Z</time>
      </trkpt>
      <trkpt lat="46.39648" lon="15.65714">
        <ele>251.871984</ele>
        <time>2026-07-10T08:47:21.000Z</time>
      </trkpt>
      <trkpt lat="46.39694" lon="15.65664">
        <ele>251.896776</ele>
        <time>2026-07-10T08:47:33.000Z</time>
      </trkpt>
      <trkpt lat="46.3973" lon="15.65627">
        <ele>252.382879</ele>
        <time>2026-07-10T08:47:42.000Z</time>
      </trkpt>
      <trkpt lat="46.39761" lon="15.65584">
        <ele>252.866502</ele>
        <time>2026-07-10T08:47:51.000Z</time>
      </trkpt>
      <trkpt lat="46.39773" lon="15.65556">
        <ele>253.119522</ele>
        <time>2026-07-10T08:47:56.000Z</time>
      </trkpt>
      <trkpt lat="46.39775" lon="15.65549">
        <ele>253.17252</ele>
        <time>2026-07-10T08:47:57.000Z</time>
      </trkpt>
      <trkpt lat="46.3978" lon="15.65522">
        <ele>253.390241</ele>
        <time>2026-07-10T08:48:01.000Z</time>
      </trkpt>
      <trkpt lat="46.39785" lon="15.65479">
        <ele>253.722848</ele>
        <time>2026-07-10T08:48:07.000Z</time>
      </trkpt>
      <trkpt lat="46.39782" lon="15.65447">
        <ele>253.994122</ele>
        <time>2026-07-10T08:48:12.000Z</time>
      </trkpt>
      <trkpt lat="46.39781" lon="15.65442">
        <ele>254.045573</ele>
        <time>2026-07-10T08:48:13.000Z</time>
      </trkpt>
      <trkpt lat="46.39778" lon="15.65438">
        <ele>254.09091</ele>
        <time>2026-07-10T08:48:14.000Z</time>
      </trkpt>
      <trkpt lat="46.39771" lon="15.65436">
        <ele>254.183809</ele>
        <time>2026-07-10T08:48:16.000Z</time>
      </trkpt>
      <trkpt lat="46.39766" lon="15.65441">
        <ele>254.270323</ele>
        <time>2026-07-10T08:48:18.000Z</time>
      </trkpt>
      <trkpt lat="46.39764" lon="15.65444">
        <ele>254.304125</ele>
        <time>2026-07-10T08:48:19.000Z</time>
      </trkpt>
      <trkpt lat="46.39756" lon="15.65458">
        <ele>254.468426</ele>
        <time>2026-07-10T08:48:24.000Z</time>
      </trkpt>
      <trkpt lat="46.39754" lon="15.65475">
        <ele>254.631141</ele>
        <time>2026-07-10T08:48:30.000Z</time>
      </trkpt>
      <trkpt lat="46.39749" lon="15.65491">
        <ele>254.786937</ele>
        <time>2026-07-10T08:48:36.000Z</time>
      </trkpt>
      <trkpt lat="46.39744" lon="15.65498">
        <ele>254.885563</ele>
        <time>2026-07-10T08:48:40.000Z</time>
      </trkpt>
      <trkpt lat="46.39744" lon="15.65499">
        <ele>254.893175</ele>
        <time>2026-07-10T08:48:41.000Z</time>
      </trkpt>
      <trkpt lat="46.39744" lon="15.65499">
        <ele>254.893175</ele>
        <time>2026-07-10T08:48:42.000Z</time>
      </trkpt>
      <trkpt lat="46.39744" lon="15.65499">
        <ele>254.893175</ele>
        <time>2026-07-10T08:48:43.000Z</time>
      </trkpt>
      <trkpt lat="46.39741" lon="15.655">
        <ele>254.923748</ele>
        <time>2026-07-10T08:48:46.000Z</time>
      </trkpt>
      <trkpt lat="46.39741" lon="15.655">
        <ele>254.923748</ele>
        <time>2026-07-10T08:48:48.000Z</time>
      </trkpt>
      <trkpt lat="46.3975" lon="15.65502">
        <ele>255.037009</ele>
        <time>2026-07-10T08:51:17.000Z</time>
      </trkpt>
      <trkpt lat="46.3975" lon="15.65501">
        <ele>255.047955</ele>
        <time>2026-07-10T08:51:18.000Z</time>
      </trkpt>
      <trkpt lat="46.3975" lon="15.65499">
        <ele>255.060106</ele>
        <time>2026-07-10T08:51:19.000Z</time>
      </trkpt>
      <trkpt lat="46.39751" lon="15.65498">
        <ele>255.073104</ele>
        <time>2026-07-10T08:51:20.000Z</time>
      </trkpt>
      <trkpt lat="46.39742" lon="15.65485">
        <ele>255.237846</ele>
        <time>2026-07-10T08:51:54.000Z</time>
      </trkpt>
      <trkpt lat="46.39742" lon="15.65486">
        <ele>255.246431</ele>
        <time>2026-07-10T08:51:55.000Z</time>
      </trkpt>
      <trkpt lat="46.39739" lon="15.65491">
        <ele>255.308147</ele>
        <time>2026-07-10T08:51:59.000Z</time>
      </trkpt>
      <trkpt lat="46.39741" lon="15.65498">
        <ele>255.379298</ele>
        <time>2026-07-10T08:52:01.000Z</time>
      </trkpt>
      <trkpt lat="46.39714" lon="15.65496">
        <ele>255.737104</ele>
        <time>2026-07-10T09:04:15.000Z</time>
      </trkpt>
      <trkpt lat="46.39715" lon="15.65497">
        <ele>255.756414</ele>
        <time>2026-07-10T09:04:17.000Z</time>
      </trkpt>
      <trkpt lat="46.39762" lon="15.65507">
        <ele>256.324718</ele>
        <time>2026-07-10T09:12:55.000Z</time>
      </trkpt>
      <trkpt lat="46.39763" lon="15.65508">
        <ele>256.333468</ele>
        <time>2026-07-10T09:12:56.000Z</time>
      </trkpt>
      <trkpt lat="46.39763" lon="15.65509">
        <ele>256.337208</ele>
        <time>2026-07-10T09:12:57.000Z</time>
      </trkpt>
      <trkpt lat="46.39762" lon="15.65508">
        <ele>256.347739</ele>
        <time>2026-07-10T09:12:59.000Z</time>
      </trkpt>
      <trkpt lat="46.39754" lon="15.65492">
        <ele>256.445698</ele>
        <time>2026-07-10T09:14:33.000Z</time>
      </trkpt>
      <trkpt lat="46.39751" lon="15.65494">
        <ele>256.468975</ele>
        <time>2026-07-10T09:14:35.000Z</time>
      </trkpt>
      <trkpt lat="46.39755" lon="15.65497">
        <ele>256.501466</ele>
        <time>2026-07-10T09:19:26.000Z</time>
      </trkpt>
      <trkpt lat="46.39755" lon="15.65495">
        <ele>256.508903</ele>
        <time>2026-07-10T09:19:27.000Z</time>
      </trkpt>
      <trkpt lat="46.39758" lon="15.65482">
        <ele>256.579032</ele>
        <time>2026-07-10T09:19:33.000Z</time>
      </trkpt>
      <trkpt lat="46.39761" lon="15.65465">
        <ele>256.663208</ele>
        <time>2026-07-10T09:19:38.000Z</time>
      </trkpt>
      <trkpt lat="46.39763" lon="15.65455">
        <ele>256.716641</ele>
        <time>2026-07-10T09:19:41.000Z</time>
      </trkpt>
      <trkpt lat="46.39766" lon="15.65447">
        <ele>256.760134</ele>
        <time>2026-07-10T09:19:44.000Z</time>
      </trkpt>
      <trkpt lat="46.3977" lon="15.65446">
        <ele>256.787613</ele>
        <time>2026-07-10T09:19:46.000Z</time>
      </trkpt>
      <trkpt lat="46.39777" lon="15.65451">
        <ele>256.839806</ele>
        <time>2026-07-10T09:19:49.000Z</time>
      </trkpt>
      <trkpt lat="46.39778" lon="15.65457">
        <ele>256.873007</ele>
        <time>2026-07-10T09:19:51.000Z</time>
      </trkpt>
      <trkpt lat="46.39779" lon="15.65487">
        <ele>257.019123</ele>
        <time>2026-07-10T09:19:58.000Z</time>
      </trkpt>
      <trkpt lat="46.39775" lon="15.65517">
        <ele>257.168823</ele>
        <time>2026-07-10T09:20:04.000Z</time>
      </trkpt>
      <trkpt lat="46.39773" lon="15.65527">
        <ele>257.221093</ele>
        <time>2026-07-10T09:20:06.000Z</time>
      </trkpt>
      <trkpt lat="46.39764" lon="15.65561">
        <ele>257.402216</ele>
        <time>2026-07-10T09:20:13.000Z</time>
      </trkpt>
      <trkpt lat="46.39761" lon="15.6557">
        <ele>257.453139</ele>
        <time>2026-07-10T09:20:15.000Z</time>
      </trkpt>
      <trkpt lat="46.39748" lon="15.65593">
        <ele>257.387625</ele>
        <time>2026-07-10T09:20:20.000Z</time>
      </trkpt>
      <trkpt lat="46.3974" lon="15.65605">
        <ele>257.17205</ele>
        <time>2026-07-10T09:20:23.000Z</time>
      </trkpt>
      <trkpt lat="46.39722" lon="15.65627">
        <ele>256.717724</ele>
        <time>2026-07-10T09:20:29.000Z</time>
      </trkpt>
      <trkpt lat="46.39718" lon="15.65631">
        <ele>256.639403</ele>
        <time>2026-07-10T09:20:30.000Z</time>
      </trkpt>
      <trkpt lat="46.39692" lon="15.65657">
        <ele>256.035586</ele>
        <time>2026-07-10T09:20:38.000Z</time>
      </trkpt>
      <trkpt lat="46.39658" lon="15.65694">
        <ele>255.229506</ele>
        <time>2026-07-10T09:20:48.000Z</time>
      </trkpt>
      <trkpt lat="46.39651" lon="15.65702">
        <ele>255.070024</ele>
        <time>2026-07-10T09:20:50.000Z</time>
      </trkpt>
      <trkpt lat="46.39638" lon="15.65717">
        <ele>254.743374</ele>
        <time>2026-07-10T09:20:54.000Z</time>
      </trkpt>
      <trkpt lat="46.39625" lon="15.65734">
        <ele>254.414498</ele>
        <time>2026-07-10T09:20:58.000Z</time>
      </trkpt>
      <trkpt lat="46.3959" lon="15.6578">
        <ele>254.085165</ele>
        <time>2026-07-10T09:21:09.000Z</time>
      </trkpt>
      <trkpt lat="46.39562" lon="15.65819">
        <ele>254.027377</ele>
        <time>2026-07-10T09:21:18.000Z</time>
      </trkpt>
      <trkpt lat="46.39559" lon="15.65823">
        <ele>254.021004</ele>
        <time>2026-07-10T09:21:19.000Z</time>
      </trkpt>
      <trkpt lat="46.39544" lon="15.65845">
        <ele>253.988084</ele>
        <time>2026-07-10T09:21:24.000Z</time>
      </trkpt>
      <trkpt lat="46.39532" lon="15.65865">
        <ele>253.961412</ele>
        <time>2026-07-10T09:21:28.000Z</time>
      </trkpt>
      <trkpt lat="46.39529" lon="15.65869">
        <ele>253.954763</ele>
        <time>2026-07-10T09:21:29.000Z</time>
      </trkpt>
      <trkpt lat="46.39522" lon="15.65886">
        <ele>253.934521</ele>
        <time>2026-07-10T09:21:32.000Z</time>
      </trkpt>
      <trkpt lat="46.39519" lon="15.65891">
        <ele>253.927831</ele>
        <time>2026-07-10T09:21:33.000Z</time>
      </trkpt>
      <trkpt lat="46.39506" lon="15.65919">
        <ele>253.892751</ele>
        <time>2026-07-10T09:21:38.000Z</time>
      </trkpt>
      <trkpt lat="46.39488" lon="15.65957">
        <ele>253.924191</ele>
        <time>2026-07-10T09:21:45.000Z</time>
      </trkpt>
      <trkpt lat="46.39484" lon="15.65967">
        <ele>253.964664</ele>
        <time>2026-07-10T09:21:47.000Z</time>
      </trkpt>
      <trkpt lat="46.39475" lon="15.65989">
        <ele>254.05061</ele>
        <time>2026-07-10T09:21:51.000Z</time>
      </trkpt>
      <trkpt lat="46.39471" lon="15.66">
        <ele>254.092534</ele>
        <time>2026-07-10T09:21:53.000Z</time>
      </trkpt>
      <trkpt lat="46.39469" lon="15.66005">
        <ele>254.113625</ele>
        <time>2026-07-10T09:21:54.000Z</time>
      </trkpt>
      <trkpt lat="46.39454" lon="15.66037">
        <ele>254.245738</ele>
        <time>2026-07-10T09:22:00.000Z</time>
      </trkpt>
      <trkpt lat="46.39442" lon="15.6606">
        <ele>254.342717</ele>
        <time>2026-07-10T09:22:04.000Z</time>
      </trkpt>
      <trkpt lat="46.39431" lon="15.66079">
        <ele>254.427471</ele>
        <time>2026-07-10T09:22:07.000Z</time>
      </trkpt>
      <trkpt lat="46.39418" lon="15.661">
        <ele>254.524987</ele>
        <time>2026-07-10T09:22:10.000Z</time>
      </trkpt>
      <trkpt lat="46.39407" lon="15.66113">
        <ele>254.59529</ele>
        <time>2026-07-10T09:22:12.000Z</time>
      </trkpt>
      <trkpt lat="46.39401" lon="15.6612">
        <ele>254.631294</ele>
        <time>2026-07-10T09:22:13.000Z</time>
      </trkpt>
      <trkpt lat="46.39388" lon="15.66136">
        <ele>254.715929</ele>
        <time>2026-07-10T09:22:17.000Z</time>
      </trkpt>
      <trkpt lat="46.39345" lon="15.66192">
        <ele>253.997732</ele>
        <time>2026-07-10T09:22:26.000Z</time>
      </trkpt>
      <trkpt lat="46.39334" lon="15.66223">
        <ele>253.634899</ele>
        <time>2026-07-10T09:22:32.000Z</time>
      </trkpt>
      <trkpt lat="46.39326" lon="15.66228">
        <ele>253.511035</ele>
        <time>2026-07-10T09:22:35.000Z</time>
      </trkpt>
      <trkpt lat="46.3931" lon="15.6622">
        <ele>253.260231</ele>
        <time>2026-07-10T09:22:42.000Z</time>
      </trkpt>
      <trkpt lat="46.39295" lon="15.66206">
        <ele>252.983648</ele>
        <time>2026-07-10T09:22:48.000Z</time>
      </trkpt>
      <trkpt lat="46.39281" lon="15.66173">
        <ele>252.595095</ele>
        <time>2026-07-10T09:22:55.000Z</time>
      </trkpt>
      <trkpt lat="46.39274" lon="15.66145">
        <ele>252.278301</ele>
        <time>2026-07-10T09:23:00.000Z</time>
      </trkpt>
      <trkpt lat="46.39274" lon="15.66138">
        <ele>252.213203</ele>
        <time>2026-07-10T09:23:01.000Z</time>
      </trkpt>
      <trkpt lat="46.39275" lon="15.66132">
        <ele>252.147557</ele>
        <time>2026-07-10T09:23:02.000Z</time>
      </trkpt>
      <trkpt lat="46.39276" lon="15.66119">
        <ele>251.986711</ele>
        <time>2026-07-10T09:23:04.000Z</time>
      </trkpt>
      <trkpt lat="46.39276" lon="15.66105">
        <ele>251.787433</ele>
        <time>2026-07-10T09:23:06.000Z</time>
      </trkpt>
      <trkpt lat="46.39273" lon="15.66092">
        <ele>251.593441</ele>
        <time>2026-07-10T09:23:08.000Z</time>
      </trkpt>
      <trkpt lat="46.39267" lon="15.66083">
        <ele>251.413316</ele>
        <time>2026-07-10T09:23:10.000Z</time>
      </trkpt>
      <trkpt lat="46.39229" lon="15.6605">
        <ele>250.4931</ele>
        <time>2026-07-10T09:23:19.000Z</time>
      </trkpt>
      <trkpt lat="46.39198" lon="15.6602">
        <ele>249.706901</ele>
        <time>2026-07-10T09:23:26.000Z</time>
      </trkpt>
      <trkpt lat="46.39193" lon="15.66015">
        <ele>249.589003</ele>
        <time>2026-07-10T09:23:27.000Z</time>
      </trkpt>
      <trkpt lat="46.3918" lon="15.66002">
        <ele>249.239813</ele>
        <time>2026-07-10T09:23:30.000Z</time>
      </trkpt>
      <trkpt lat="46.39161" lon="15.65983">
        <ele>248.7701</ele>
        <time>2026-07-10T09:23:34.000Z</time>
      </trkpt>
      <trkpt lat="46.39142" lon="15.65965">
        <ele>248.303735</ele>
        <time>2026-07-10T09:23:38.000Z</time>
      </trkpt>
      <trkpt lat="46.39115" lon="15.65937">
        <ele>248.337192</ele>
        <time>2026-07-10T09:23:44.000Z</time>
      </trkpt>
      <trkpt lat="46.39091" lon="15.65913">
        <ele>248.371818</ele>
        <time>2026-07-10T09:23:49.000Z</time>
      </trkpt>
      <trkpt lat="46.39078" lon="15.65899">
        <ele>248.392161</ele>
        <time>2026-07-10T09:23:52.000Z</time>
      </trkpt>
      <trkpt lat="46.39048" lon="15.65868">
        <ele>248.436563</ele>
        <time>2026-07-10T09:23:59.000Z</time>
      </trkpt>
      <trkpt lat="46.39036" lon="15.65855">
        <ele>248.454803</ele>
        <time>2026-07-10T09:24:02.000Z</time>
      </trkpt>
      <trkpt lat="46.39028" lon="15.65847">
        <ele>248.466493</ele>
        <time>2026-07-10T09:24:04.000Z</time>
      </trkpt>
      <trkpt lat="46.3902" lon="15.65838">
        <ele>248.478139</ele>
        <time>2026-07-10T09:24:06.000Z</time>
      </trkpt>
      <trkpt lat="46.39008" lon="15.65827">
        <ele>248.495882</ele>
        <time>2026-07-10T09:24:09.000Z</time>
      </trkpt>
      <trkpt lat="46.38998" lon="15.65827">
        <ele>248.507599</ele>
        <time>2026-07-10T09:24:11.000Z</time>
      </trkpt>
      <trkpt lat="46.38991" lon="15.65839">
        <ele>248.561662</ele>
        <time>2026-07-10T09:24:13.000Z</time>
      </trkpt>
      <trkpt lat="46.38988" lon="15.65855">
        <ele>248.672402</ele>
        <time>2026-07-10T09:24:15.000Z</time>
      </trkpt>
      <trkpt lat="46.38987" lon="15.65872">
        <ele>248.78628</ele>
        <time>2026-07-10T09:24:17.000Z</time>
      </trkpt>
      <trkpt lat="46.38986" lon="15.65922">
        <ele>249.117493</ele>
        <time>2026-07-10T09:24:23.000Z</time>
      </trkpt>
      <trkpt lat="46.38981" lon="15.65934">
        <ele>249.216338</ele>
        <time>2026-07-10T09:24:25.000Z</time>
      </trkpt>
      <trkpt lat="46.38976" lon="15.65939">
        <ele>249.267464</ele>
        <time>2026-07-10T09:24:26.000Z</time>
      </trkpt>
      <trkpt lat="46.38967" lon="15.65948">
        <ele>249.371667</ele>
        <time>2026-07-10T09:24:28.000Z</time>
      </trkpt>
      <trkpt lat="46.38963" lon="15.65952">
        <ele>249.422156</ele>
        <time>2026-07-10T09:24:29.000Z</time>
      </trkpt>
      <trkpt lat="46.38958" lon="15.65955">
        <ele>249.471001</ele>
        <time>2026-07-10T09:24:30.000Z</time>
      </trkpt>
      <trkpt lat="46.38953" lon="15.65959">
        <ele>249.522156</ele>
        <time>2026-07-10T09:24:31.000Z</time>
      </trkpt>
      <trkpt lat="46.38909" lon="15.6599">
        <ele>249.9941</ele>
        <time>2026-07-10T09:24:40.000Z</time>
      </trkpt>
      <trkpt lat="46.38858" lon="15.66027">
        <ele>249.942814</ele>
        <time>2026-07-10T09:24:50.000Z</time>
      </trkpt>
      <trkpt lat="46.38852" lon="15.6603">
        <ele>249.890001</ele>
        <time>2026-07-10T09:24:51.000Z</time>
      </trkpt>
      <trkpt lat="46.38806" lon="15.66064">
        <ele>249.420624</ele>
        <time>2026-07-10T09:25:00.000Z</time>
      </trkpt>
      <trkpt lat="46.38781" lon="15.66083">
        <ele>249.157102</ele>
        <time>2026-07-10T09:25:05.000Z</time>
      </trkpt>
      <trkpt lat="46.38757" lon="15.66101">
        <ele>248.911607</ele>
        <time>2026-07-10T09:25:10.000Z</time>
      </trkpt>
      <trkpt lat="46.38733" lon="15.66119">
        <ele>248.668666</ele>
        <time>2026-07-10T09:25:15.000Z</time>
      </trkpt>
      <trkpt lat="46.38724" lon="15.66127">
        <ele>248.588281</ele>
        <time>2026-07-10T09:25:17.000Z</time>
      </trkpt>
      <trkpt lat="46.38715" lon="15.66134">
        <ele>248.558399</ele>
        <time>2026-07-10T09:25:19.000Z</time>
      </trkpt>
      <trkpt lat="46.38677" lon="15.66161">
        <ele>248.440628</ele>
        <time>2026-07-10T09:25:27.000Z</time>
      </trkpt>
      <trkpt lat="46.3866" lon="15.66176">
        <ele>248.383949</ele>
        <time>2026-07-10T09:25:31.000Z</time>
      </trkpt>
      <trkpt lat="46.38636" lon="15.662">
        <ele>248.300577</ele>
        <time>2026-07-10T09:25:37.000Z</time>
      </trkpt>
      <trkpt lat="46.38632" lon="15.66204">
        <ele>248.287574</ele>
        <time>2026-07-10T09:25:38.000Z</time>
      </trkpt>
      <trkpt lat="46.38602" lon="15.66241">
        <ele>248.177007</ele>
        <time>2026-07-10T09:25:47.000Z</time>
      </trkpt>
      <trkpt lat="46.3859" lon="15.66252">
        <ele>248.136778</ele>
        <time>2026-07-10T09:25:52.000Z</time>
      </trkpt>
      <trkpt lat="46.38574" lon="15.66246">
        <ele>248.089856</ele>
        <time>2026-07-10T09:25:56.000Z</time>
      </trkpt>
      <trkpt lat="46.38546" lon="15.6623">
        <ele>247.925126</ele>
        <time>2026-07-10T09:26:02.000Z</time>
      </trkpt>
      <trkpt lat="46.38541" lon="15.66227">
        <ele>247.898568</ele>
        <time>2026-07-10T09:26:03.000Z</time>
      </trkpt>
      <trkpt lat="46.38532" lon="15.66221">
        <ele>247.844996</ele>
        <time>2026-07-10T09:26:05.000Z</time>
      </trkpt>
      <trkpt lat="46.38504" lon="15.66202">
        <ele>247.678232</ele>
        <time>2026-07-10T09:26:11.000Z</time>
      </trkpt>
      <trkpt lat="46.3849" lon="15.66194">
        <ele>247.592791</ele>
        <time>2026-07-10T09:26:14.000Z</time>
      </trkpt>
      <trkpt lat="46.38456" lon="15.66172">
        <ele>247.390929</ele>
        <time>2026-07-10T09:26:21.000Z</time>
      </trkpt>
      <trkpt lat="46.38451" lon="15.6617">
        <ele>247.363981</ele>
        <time>2026-07-10T09:26:22.000Z</time>
      </trkpt>
      <trkpt lat="46.38442" lon="15.66163">
        <ele>247.308102</ele>
        <time>2026-07-10T09:26:24.000Z</time>
      </trkpt>
      <trkpt lat="46.38434" lon="15.66155">
        <ele>247.253246</ele>
        <time>2026-07-10T09:26:26.000Z</time>
      </trkpt>
      <trkpt lat="46.3843" lon="15.6615">
        <ele>247.225143</ele>
        <time>2026-07-10T09:26:27.000Z</time>
      </trkpt>
      <trkpt lat="46.38419" lon="15.66134">
        <ele>247.140527</ele>
        <time>2026-07-10T09:26:30.000Z</time>
      </trkpt>
      <trkpt lat="46.38411" lon="15.66114">
        <ele>247.068422</ele>
        <time>2026-07-10T09:26:33.000Z</time>
      </trkpt>
      <trkpt lat="46.38385" lon="15.66058">
        <ele>246.885691</ele>
        <time>2026-07-10T09:26:42.000Z</time>
      </trkpt>
      <trkpt lat="46.38371" lon="15.66037">
        <ele>246.807115</ele>
        <time>2026-07-10T09:26:46.000Z</time>
      </trkpt>
      <trkpt lat="46.38354" lon="15.66018">
        <ele>246.725399</ele>
        <time>2026-07-10T09:26:50.000Z</time>
      </trkpt>
      <trkpt lat="46.38306" lon="15.65969">
        <ele>246.495635</ele>
        <time>2026-07-10T09:27:01.000Z</time>
      </trkpt>
      <trkpt lat="46.38302" lon="15.65964">
        <ele>246.473844</ele>
        <time>2026-07-10T09:27:02.000Z</time>
      </trkpt>
      <trkpt lat="46.38255" lon="15.65916">
        <ele>246.799796</ele>
        <time>2026-07-10T09:27:12.000Z</time>
      </trkpt>
      <trkpt lat="46.38215" lon="15.65883">
        <ele>247.248589</ele>
        <time>2026-07-10T09:27:20.000Z</time>
      </trkpt>
      <trkpt lat="46.3821" lon="15.65879">
        <ele>247.306163</ele>
        <time>2026-07-10T09:27:21.000Z</time>
      </trkpt>
      <trkpt lat="46.38199" lon="15.65872">
        <ele>247.422359</ele>
        <time>2026-07-10T09:27:23.000Z</time>
      </trkpt>
      <trkpt lat="46.38188" lon="15.65867">
        <ele>247.53496</ele>
        <time>2026-07-10T09:27:25.000Z</time>
      </trkpt>
      <trkpt lat="46.38182" lon="15.65865">
        <ele>247.594267</ele>
        <time>2026-07-10T09:27:26.000Z</time>
      </trkpt>
      <trkpt lat="46.38177" lon="15.65863">
        <ele>247.650547</ele>
        <time>2026-07-10T09:27:27.000Z</time>
      </trkpt>
      <trkpt lat="46.38159" lon="15.65859">
        <ele>247.830105</ele>
        <time>2026-07-10T09:27:30.000Z</time>
      </trkpt>
      <trkpt lat="46.38153" lon="15.65857">
        <ele>247.889027</ele>
        <time>2026-07-10T09:27:31.000Z</time>
      </trkpt>
      <trkpt lat="46.38147" lon="15.65856">
        <ele>247.94958</ele>
        <time>2026-07-10T09:27:32.000Z</time>
      </trkpt>
      <trkpt lat="46.38134" lon="15.65852">
        <ele>248.075498</ele>
        <time>2026-07-10T09:27:34.000Z</time>
      </trkpt>
      <trkpt lat="46.38128" lon="15.6585">
        <ele>248.135258</ele>
        <time>2026-07-10T09:27:35.000Z</time>
      </trkpt>
      <trkpt lat="46.38099" lon="15.65844">
        <ele>248.193926</ele>
        <time>2026-07-10T09:27:40.000Z</time>
      </trkpt>
      <trkpt lat="46.38088" lon="15.65843">
        <ele>248.201892</ele>
        <time>2026-07-10T09:27:42.000Z</time>
      </trkpt>
      <trkpt lat="46.38083" lon="15.65842">
        <ele>248.205879</ele>
        <time>2026-07-10T09:27:43.000Z</time>
      </trkpt>
      <trkpt lat="46.38055" lon="15.65831">
        <ele>248.22693</ele>
        <time>2026-07-10T09:27:48.000Z</time>
      </trkpt>
      <trkpt lat="46.38044" lon="15.65823">
        <ele>248.236572</ele>
        <time>2026-07-10T09:27:50.000Z</time>
      </trkpt>
      <trkpt lat="46.38034" lon="15.65815">
        <ele>248.244594</ele>
        <time>2026-07-10T09:27:52.000Z</time>
      </trkpt>
      <trkpt lat="46.38024" lon="15.65805">
        <ele>248.25334</ele>
        <time>2026-07-10T09:27:54.000Z</time>
      </trkpt>
      <trkpt lat="46.38019" lon="15.65801">
        <ele>248.257653</ele>
        <time>2026-07-10T09:27:55.000Z</time>
      </trkpt>
      <trkpt lat="46.38011" lon="15.65791">
        <ele>248.265889</ele>
        <time>2026-07-10T09:27:57.000Z</time>
      </trkpt>
      <trkpt lat="46.38007" lon="15.65785">
        <ele>248.270071</ele>
        <time>2026-07-10T09:27:58.000Z</time>
      </trkpt>
      <trkpt lat="46.37977" lon="15.65729">
        <ele>248.306225</ele>
        <time>2026-07-10T09:28:07.000Z</time>
      </trkpt>
      <trkpt lat="46.37967" lon="15.6571">
        <ele>248.184435</ele>
        <time>2026-07-10T09:28:10.000Z</time>
      </trkpt>
      <trkpt lat="46.37954" lon="15.6569">
        <ele>248.026995</ele>
        <time>2026-07-10T09:28:13.000Z</time>
      </trkpt>
      <trkpt lat="46.37935" lon="15.65661">
        <ele>247.791612</ele>
        <time>2026-07-10T09:28:18.000Z</time>
      </trkpt>
      <trkpt lat="46.37927" lon="15.65651">
        <ele>247.700996</ele>
        <time>2026-07-10T09:28:20.000Z</time>
      </trkpt>
      <trkpt lat="46.37924" lon="15.65647">
        <ele>247.658591</ele>
        <time>2026-07-10T09:28:21.000Z</time>
      </trkpt>
      <trkpt lat="46.37891" lon="15.65608">
        <ele>247.302483</ele>
        <time>2026-07-10T09:28:29.000Z</time>
      </trkpt>
      <trkpt lat="46.37869" lon="15.65586">
        <ele>247.068017</ele>
        <time>2026-07-10T09:28:34.000Z</time>
      </trkpt>
      <trkpt lat="46.37855" lon="15.65572">
        <ele>246.922</ele>
        <time>2026-07-10T09:28:37.000Z</time>
      </trkpt>
      <trkpt lat="46.37841" lon="15.65559">
        <ele>246.781031</ele>
        <time>2026-07-10T09:28:40.000Z</time>
      </trkpt>
      <trkpt lat="46.37823" lon="15.65541">
        <ele>246.583221</ele>
        <time>2026-07-10T09:28:44.000Z</time>
      </trkpt>
      <trkpt lat="46.37795" lon="15.65516">
        <ele>246.292443</ele>
        <time>2026-07-10T09:28:50.000Z</time>
      </trkpt>
      <trkpt lat="46.37775" lon="15.65501">
        <ele>246.09098</ele>
        <time>2026-07-10T09:28:54.000Z</time>
      </trkpt>
      <trkpt lat="46.37754" lon="15.65489">
        <ele>245.884439</ele>
        <time>2026-07-10T09:28:58.000Z</time>
      </trkpt>
      <trkpt lat="46.37712" lon="15.65473">
        <ele>245.497123</ele>
        <time>2026-07-10T09:29:06.000Z</time>
      </trkpt>
      <trkpt lat="46.3769" lon="15.65465">
        <ele>245.289564</ele>
        <time>2026-07-10T09:29:10.000Z</time>
      </trkpt>
      <trkpt lat="46.37673" lon="15.6546">
        <ele>245.159002</ele>
        <time>2026-07-10T09:29:13.000Z</time>
      </trkpt>
      <trkpt lat="46.37655" lon="15.65457">
        <ele>245.215847</ele>
        <time>2026-07-10T09:29:16.000Z</time>
      </trkpt>
      <trkpt lat="46.37626" lon="15.6545">
        <ele>245.311284</ele>
        <time>2026-07-10T09:29:21.000Z</time>
      </trkpt>
      <trkpt lat="46.3761" lon="15.65441">
        <ele>245.369081</ele>
        <time>2026-07-10T09:29:24.000Z</time>
      </trkpt>
      <trkpt lat="46.376" lon="15.65431">
        <ele>245.408104</ele>
        <time>2026-07-10T09:29:26.000Z</time>
      </trkpt>
      <trkpt lat="46.37568" lon="15.65377">
        <ele>245.569379</ele>
        <time>2026-07-10T09:29:34.000Z</time>
      </trkpt>
      <trkpt lat="46.3754" lon="15.65329">
        <ele>245.710059</ele>
        <time>2026-07-10T09:29:41.000Z</time>
      </trkpt>
      <trkpt lat="46.37532" lon="15.65318">
        <ele>245.723572</ele>
        <time>2026-07-10T09:29:43.000Z</time>
      </trkpt>
      <trkpt lat="46.37523" lon="15.65311">
        <ele>245.65216</ele>
        <time>2026-07-10T09:29:45.000Z</time>
      </trkpt>
      <trkpt lat="46.37514" lon="15.65315">
        <ele>245.587261</ele>
        <time>2026-07-10T09:29:47.000Z</time>
      </trkpt>
      <trkpt lat="46.3751" lon="15.65319">
        <ele>245.554015</ele>
        <time>2026-07-10T09:29:48.000Z</time>
      </trkpt>
      <trkpt lat="46.37492" lon="15.65351">
        <ele>245.363153</ele>
        <time>2026-07-10T09:29:53.000Z</time>
      </trkpt>
      <trkpt lat="46.37484" lon="15.65364">
        <ele>245.281903</ele>
        <time>2026-07-10T09:29:55.000Z</time>
      </trkpt>
      <trkpt lat="46.37462" lon="15.65402">
        <ele>245.047306</ele>
        <time>2026-07-10T09:30:01.000Z</time>
      </trkpt>
      <trkpt lat="46.37448" lon="15.65424">
        <ele>244.90338</ele>
        <time>2026-07-10T09:30:05.000Z</time>
      </trkpt>
      <trkpt lat="46.37439" lon="15.6544">
        <ele>244.80454</ele>
        <time>2026-07-10T09:30:08.000Z</time>
      </trkpt>
      <trkpt lat="46.37435" lon="15.65445">
        <ele>244.770084</ele>
        <time>2026-07-10T09:30:09.000Z</time>
      </trkpt>
      <trkpt lat="46.37426" lon="15.6545">
        <ele>244.708012</ele>
        <time>2026-07-10T09:30:11.000Z</time>
      </trkpt>
      <trkpt lat="46.37421" lon="15.65445">
        <ele>244.664013</ele>
        <time>2026-07-10T09:30:13.000Z</time>
      </trkpt>
      <trkpt lat="46.37419" lon="15.65439">
        <ele>244.633916</ele>
        <time>2026-07-10T09:30:14.000Z</time>
      </trkpt>
      <trkpt lat="46.37418" lon="15.65431">
        <ele>244.596226</ele>
        <time>2026-07-10T09:30:15.000Z</time>
      </trkpt>
      <trkpt lat="46.37417" lon="15.65415">
        <ele>244.516802</ele>
        <time>2026-07-10T09:30:17.000Z</time>
      </trkpt>
      <trkpt lat="46.37406" lon="15.6535">
        <ele>244.937415</ele>
        <time>2026-07-10T09:30:25.000Z</time>
      </trkpt>
      <trkpt lat="46.37396" lon="15.65285">
        <ele>245.378875</ele>
        <time>2026-07-10T09:30:33.000Z</time>
      </trkpt>
      <trkpt lat="46.37384" lon="15.65219">
        <ele>245.830594</ele>
        <time>2026-07-10T09:30:41.000Z</time>
      </trkpt>
      <trkpt lat="46.3738" lon="15.65203">
        <ele>245.939276</ele>
        <time>2026-07-10T09:30:43.000Z</time>
      </trkpt>
      <trkpt lat="46.37372" lon="15.65156">
        <ele>246.227922</ele>
        <time>2026-07-10T09:30:49.000Z</time>
      </trkpt>
      <trkpt lat="46.37367" lon="15.65123">
        <ele>246.211865</ele>
        <time>2026-07-10T09:30:53.000Z</time>
      </trkpt>
      <trkpt lat="46.37351" lon="15.6504">
        <ele>246.171351</ele>
        <time>2026-07-10T09:31:03.000Z</time>
      </trkpt>
      <trkpt lat="46.37343" lon="15.64991">
        <ele>246.147463</ele>
        <time>2026-07-10T09:31:09.000Z</time>
      </trkpt>
      <trkpt lat="46.3734" lon="15.64974">
        <ele>246.139204</ele>
        <time>2026-07-10T09:31:11.000Z</time>
      </trkpt>
      <trkpt lat="46.37334" lon="15.64941">
        <ele>246.122905</ele>
        <time>2026-07-10T09:31:15.000Z</time>
      </trkpt>
      <trkpt lat="46.37318" lon="15.64858">
        <ele>246.008879</ele>
        <time>2026-07-10T09:31:25.000Z</time>
      </trkpt>
      <trkpt lat="46.37312" lon="15.64818">
        <ele>245.929773</ele>
        <time>2026-07-10T09:31:30.000Z</time>
      </trkpt>
      <trkpt lat="46.37309" lon="15.64802">
        <ele>245.898916</ele>
        <time>2026-07-10T09:31:32.000Z</time>
      </trkpt>
      <trkpt lat="46.37308" lon="15.64786">
        <ele>245.869157</ele>
        <time>2026-07-10T09:31:34.000Z</time>
      </trkpt>
      <trkpt lat="46.37309" lon="15.64778">
        <ele>245.854319</ele>
        <time>2026-07-10T09:31:35.000Z</time>
      </trkpt>
      <trkpt lat="46.37313" lon="15.64747">
        <ele>245.793806</ele>
        <time>2026-07-10T09:31:39.000Z</time>
      </trkpt>
      <trkpt lat="46.37316" lon="15.64723">
        <ele>245.746444</ele>
        <time>2026-07-10T09:31:42.000Z</time>
      </trkpt>
      <trkpt lat="46.37316" lon="15.64699">
        <ele>245.701035</ele>
        <time>2026-07-10T09:31:45.000Z</time>
      </trkpt>
      <trkpt lat="46.37316" lon="15.64691">
        <ele>245.685628</ele>
        <time>2026-07-10T09:31:46.000Z</time>
      </trkpt>
      <trkpt lat="46.37308" lon="15.6466">
        <ele>245.622843</ele>
        <time>2026-07-10T09:31:50.000Z</time>
      </trkpt>
      <trkpt lat="46.37289" lon="15.64596">
        <ele>245.640177</ele>
        <time>2026-07-10T09:31:58.000Z</time>
      </trkpt>
      <trkpt lat="46.37287" lon="15.64572">
        <ele>245.651383</ele>
        <time>2026-07-10T09:32:01.000Z</time>
      </trkpt>
      <trkpt lat="46.37286" lon="15.64564">
        <ele>245.655087</ele>
        <time>2026-07-10T09:32:02.000Z</time>
      </trkpt>
      <trkpt lat="46.37286" lon="15.64547">
        <ele>245.662804</ele>
        <time>2026-07-10T09:32:04.000Z</time>
      </trkpt>
      <trkpt lat="46.37286" lon="15.64478">
        <ele>245.693494</ele>
        <time>2026-07-10T09:32:12.000Z</time>
      </trkpt>
      <trkpt lat="46.37287" lon="15.6447">
        <ele>245.697228</ele>
        <time>2026-07-10T09:32:13.000Z</time>
      </trkpt>
      <trkpt lat="46.37292" lon="15.64448">
        <ele>245.707898</ele>
        <time>2026-07-10T09:32:16.000Z</time>
      </trkpt>
      <trkpt lat="46.37294" lon="15.64441">
        <ele>245.711323</ele>
        <time>2026-07-10T09:32:17.000Z</time>
      </trkpt>
      <trkpt lat="46.3731" lon="15.64388">
        <ele>245.786114</ele>
        <time>2026-07-10T09:32:25.000Z</time>
      </trkpt>
      <trkpt lat="46.37317" lon="15.64362">
        <ele>245.880024</ele>
        <time>2026-07-10T09:32:29.000Z</time>
      </trkpt>
      <trkpt lat="46.37321" lon="15.64344">
        <ele>245.944543</ele>
        <time>2026-07-10T09:32:32.000Z</time>
      </trkpt>
      <trkpt lat="46.37331" lon="15.64315">
        <ele>246.049931</ele>
        <time>2026-07-10T09:32:37.000Z</time>
      </trkpt>
      <trkpt lat="46.37337" lon="15.64299">
        <ele>246.108551</ele>
        <time>2026-07-10T09:32:40.000Z</time>
      </trkpt>
      <trkpt lat="46.37338" lon="15.64294">
        <ele>246.127124</ele>
        <time>2026-07-10T09:32:41.000Z</time>
      </trkpt>
      <trkpt lat="46.37344" lon="15.64273">
        <ele>246.201157</ele>
        <time>2026-07-10T09:32:46.000Z</time>
      </trkpt>
      <trkpt lat="46.37347" lon="15.64262">
        <ele>246.241471</ele>
        <time>2026-07-10T09:32:51.000Z</time>
      </trkpt>
      <trkpt lat="46.37349" lon="15.64254">
        <ele>246.268829</ele>
        <time>2026-07-10T09:32:56.000Z</time>
      </trkpt>
      <trkpt lat="46.37348" lon="15.64255">
        <ele>246.273463</ele>
        <time>2026-07-10T09:33:51.000Z</time>
      </trkpt>
      <trkpt lat="46.37347" lon="15.64257">
        <ele>246.28029</ele>
        <time>2026-07-10T09:33:52.000Z</time>
      </trkpt>
      <trkpt lat="46.37347" lon="15.64259">
        <ele>246.286599</ele>
        <time>2026-07-10T09:33:53.000Z</time>
      </trkpt>
      <trkpt lat="46.37344" lon="15.64267">
        <ele>246.31823</ele>
        <time>2026-07-10T09:33:58.000Z</time>
      </trkpt>
      <trkpt lat="46.37343" lon="15.64273">
        <ele>246.338697</ele>
        <time>2026-07-10T09:34:01.000Z</time>
      </trkpt>
      <trkpt lat="46.37341" lon="15.6428">
        <ele>246.361718</ele>
        <time>2026-07-10T09:34:05.000Z</time>
      </trkpt>
      <trkpt lat="46.37341" lon="15.6428">
        <ele>246.361718</ele>
        <time>2026-07-10T09:34:07.000Z</time>
      </trkpt>
      <trkpt lat="46.37337" lon="15.64286">
        <ele>246.388147</ele>
        <time>2026-07-10T09:34:28.000Z</time>
      </trkpt>
      <trkpt lat="46.37336" lon="15.64289">
        <ele>246.400974</ele>
        <time>2026-07-10T09:34:29.000Z</time>
      </trkpt>
      <trkpt lat="46.37334" lon="15.64293">
        <ele>246.415966</ele>
        <time>2026-07-10T09:34:30.000Z</time>
      </trkpt>
      <trkpt lat="46.37327" lon="15.64321">
        <ele>246.515631</ele>
        <time>2026-07-10T09:34:35.000Z</time>
      </trkpt>
      <trkpt lat="46.37322" lon="15.6434">
        <ele>246.582863</ele>
        <time>2026-07-10T09:34:38.000Z</time>
      </trkpt>
      <trkpt lat="46.37317" lon="15.64359">
        <ele>246.496702</ele>
        <time>2026-07-10T09:34:41.000Z</time>
      </trkpt>
      <trkpt lat="46.37313" lon="15.64372">
        <ele>246.42634</ele>
        <time>2026-07-10T09:34:43.000Z</time>
      </trkpt>
      <trkpt lat="46.37305" lon="15.64403">
        <ele>246.259172</ele>
        <time>2026-07-10T09:34:48.000Z</time>
      </trkpt>
      <trkpt lat="46.37298" lon="15.64426">
        <ele>246.132791</ele>
        <time>2026-07-10T09:34:52.000Z</time>
      </trkpt>
      <trkpt lat="46.37293" lon="15.64443">
        <ele>246.037313</ele>
        <time>2026-07-10T09:34:55.000Z</time>
      </trkpt>
      <trkpt lat="46.37285" lon="15.64484">
        <ele>245.821433</ele>
        <time>2026-07-10T09:35:02.000Z</time>
      </trkpt>
      <trkpt lat="46.37284" lon="15.64525">
        <ele>245.611708</ele>
        <time>2026-07-10T09:35:10.000Z</time>
      </trkpt>
      <trkpt lat="46.37287" lon="15.6457">
        <ele>245.383421</ele>
        <time>2026-07-10T09:35:18.000Z</time>
      </trkpt>
      <trkpt lat="46.37289" lon="15.64598">
        <ele>245.219941</ele>
        <time>2026-07-10T09:35:23.000Z</time>
      </trkpt>
      <trkpt lat="46.37293" lon="15.64616">
        <ele>245.058965</ele>
        <time>2026-07-10T09:35:26.000Z</time>
      </trkpt>
      <trkpt lat="46.37302" lon="15.64645">
        <ele>244.793185</ele>
        <time>2026-07-10T09:35:31.000Z</time>
      </trkpt>
      <trkpt lat="46.37306" lon="15.64657">
        <ele>244.687533</ele>
        <time>2026-07-10T09:35:33.000Z</time>
      </trkpt>
      <trkpt lat="46.3731" lon="15.64673">
        <ele>244.54487</ele>
        <time>2026-07-10T09:35:36.000Z</time>
      </trkpt>
      <trkpt lat="46.37313" lon="15.64682">
        <ele>244.454726</ele>
        <time>2026-07-10T09:35:38.000Z</time>
      </trkpt>
      <trkpt lat="46.37315" lon="15.64692">
        <ele>244.367866</ele>
        <time>2026-07-10T09:35:40.000Z</time>
      </trkpt>
      <trkpt lat="46.37315" lon="15.64703">
        <ele>244.272769</ele>
        <time>2026-07-10T09:35:42.000Z</time>
      </trkpt>
      <trkpt lat="46.37313" lon="15.64748">
        <ele>243.89762</ele>
        <time>2026-07-10T09:35:49.000Z</time>
      </trkpt>
      <trkpt lat="46.37308" lon="15.64797">
        <ele>243.481401</ele>
        <time>2026-07-10T09:35:56.000Z</time>
      </trkpt>
      <trkpt lat="46.37313" lon="15.64839">
        <ele>243.119457</ele>
        <time>2026-07-10T09:36:02.000Z</time>
      </trkpt>
      <trkpt lat="46.37318" lon="15.64867">
        <ele>243.073277</ele>
        <time>2026-07-10T09:36:06.000Z</time>
      </trkpt>
      <trkpt lat="46.37323" lon="15.64894">
        <ele>243.074052</ele>
        <time>2026-07-10T09:36:10.000Z</time>
      </trkpt>
      <trkpt lat="46.37327" lon="15.64915">
        <ele>243.074634</ele>
        <time>2026-07-10T09:36:13.000Z</time>
      </trkpt>
      <trkpt lat="46.37333" lon="15.64948">
        <ele>243.07557</ele>
        <time>2026-07-10T09:36:18.000Z</time>
      </trkpt>
      <trkpt lat="46.37343" lon="15.65002">
        <ele>243.077085</ele>
        <time>2026-07-10T09:36:26.000Z</time>
      </trkpt>
      <trkpt lat="46.37355" lon="15.65072">
        <ele>243.079072</ele>
        <time>2026-07-10T09:36:37.000Z</time>
      </trkpt>
      <trkpt lat="46.37366" lon="15.65135">
        <ele>242.980309</ele>
        <time>2026-07-10T09:36:48.000Z</time>
      </trkpt>
      <trkpt lat="46.37372" lon="15.65168">
        <ele>242.8935</ele>
        <time>2026-07-10T09:36:54.000Z</time>
      </trkpt>
      <trkpt lat="46.37376" lon="15.65185">
        <ele>242.847232</ele>
        <time>2026-07-10T09:36:57.000Z</time>
      </trkpt>
      <trkpt lat="46.37378" lon="15.65191">
        <ele>242.83116</ele>
        <time>2026-07-10T09:36:58.000Z</time>
      </trkpt>
      <trkpt lat="46.3738" lon="15.65208">
        <ele>242.78704</ele>
        <time>2026-07-10T09:37:01.000Z</time>
      </trkpt>
      <trkpt lat="46.37385" lon="15.65233">
        <ele>242.721365</ele>
        <time>2026-07-10T09:37:05.000Z</time>
      </trkpt>
      <trkpt lat="46.37389" lon="15.65246">
        <ele>242.686514</ele>
        <time>2026-07-10T09:37:07.000Z</time>
      </trkpt>
      <trkpt lat="46.37397" lon="15.65299">
        <ele>242.549878</ele>
        <time>2026-07-10T09:37:15.000Z</time>
      </trkpt>
      <trkpt lat="46.374" lon="15.65317">
        <ele>242.502103</ele>
        <time>2026-07-10T09:37:18.000Z</time>
      </trkpt>
      <trkpt lat="46.37404" lon="15.6534">
        <ele>242.440282</ele>
        <time>2026-07-10T09:37:22.000Z</time>
      </trkpt>
      <trkpt lat="46.37414" lon="15.65406">
        <ele>242.836948</ele>
        <time>2026-07-10T09:37:32.000Z</time>
      </trkpt>
      <trkpt lat="46.37415" lon="15.65412">
        <ele>242.886927</ele>
        <time>2026-07-10T09:37:33.000Z</time>
      </trkpt>
      <trkpt lat="46.37419" lon="15.6544">
        <ele>243.086073</ele>
        <time>2026-07-10T09:37:37.000Z</time>
      </trkpt>
      <trkpt lat="46.37425" lon="15.6545">
        <ele>243.179675</ele>
        <time>2026-07-10T09:37:39.000Z</time>
      </trkpt>
      <trkpt lat="46.37429" lon="15.65452">
        <ele>243.228406</ele>
        <time>2026-07-10T09:37:40.000Z</time>
      </trkpt>
      <trkpt lat="46.37434" lon="15.65451">
        <ele>243.276463</ele>
        <time>2026-07-10T09:37:41.000Z</time>
      </trkpt>
      <trkpt lat="46.37438" lon="15.65448">
        <ele>243.322327</ele>
        <time>2026-07-10T09:37:42.000Z</time>
      </trkpt>
      <trkpt lat="46.3746" lon="15.65412">
        <ele>243.668449</ele>
        <time>2026-07-10T09:37:49.000Z</time>
      </trkpt>
      <trkpt lat="46.37474" lon="15.6539">
        <ele>243.878031</ele>
        <time>2026-07-10T09:37:53.000Z</time>
      </trkpt>
      <trkpt lat="46.3749" lon="15.65365">
        <ele>244.126524</ele>
        <time>2026-07-10T09:37:58.000Z</time>
      </trkpt>
      <trkpt lat="46.37493" lon="15.6536">
        <ele>244.173856</ele>
        <time>2026-07-10T09:37:59.000Z</time>
      </trkpt>
      <trkpt lat="46.37504" lon="15.65342">
        <ele>244.315179</ele>
        <time>2026-07-10T09:38:03.000Z</time>
      </trkpt>
      <trkpt lat="46.3751" lon="15.65332">
        <ele>244.359557</ele>
        <time>2026-07-10T09:38:05.000Z</time>
      </trkpt>
      <trkpt lat="46.37514" lon="15.65323">
        <ele>244.398977</ele>
        <time>2026-07-10T09:38:07.000Z</time>
      </trkpt>
      <trkpt lat="46.37522" lon="15.65315">
        <ele>244.447879</ele>
        <time>2026-07-10T09:38:10.000Z</time>
      </trkpt>
      <trkpt lat="46.37525" lon="15.65313">
        <ele>244.465687</ele>
        <time>2026-07-10T09:38:11.000Z</time>
      </trkpt>
      <trkpt lat="46.37537" lon="15.65321">
        <ele>244.535965</ele>
        <time>2026-07-10T09:38:15.000Z</time>
      </trkpt>
      <trkpt lat="46.37553" lon="15.65346">
        <ele>244.656414</ele>
        <time>2026-07-10T09:38:20.000Z</time>
      </trkpt>
      <trkpt lat="46.37583" lon="15.65397">
        <ele>244.895985</ele>
        <time>2026-07-10T09:38:29.000Z</time>
      </trkpt>
      <trkpt lat="46.37603" lon="15.6543">
        <ele>245.055037</ele>
        <time>2026-07-10T09:38:35.000Z</time>
      </trkpt>
      <trkpt lat="46.37616" lon="15.65443">
        <ele>245.134098</ele>
        <time>2026-07-10T09:38:38.000Z</time>
      </trkpt>
      <trkpt lat="46.37624" lon="15.65449">
        <ele>245.183543</ele>
        <time>2026-07-10T09:38:40.000Z</time>
      </trkpt>
      <trkpt lat="46.37636" lon="15.65455">
        <ele>245.223554</ele>
        <time>2026-07-10T09:38:43.000Z</time>
      </trkpt>
      <trkpt lat="46.3764" lon="15.65456">
        <ele>245.229389</ele>
        <time>2026-07-10T09:38:44.000Z</time>
      </trkpt>
      <trkpt lat="46.37656" lon="15.65459">
        <ele>245.252502</ele>
        <time>2026-07-10T09:38:48.000Z</time>
      </trkpt>
      <trkpt lat="46.37673" lon="15.65464">
        <ele>245.277125</ele>
        <time>2026-07-10T09:38:52.000Z</time>
      </trkpt>
      <trkpt lat="46.37705" lon="15.65473">
        <ele>245.323294</ele>
        <time>2026-07-10T09:38:59.000Z</time>
      </trkpt>
      <trkpt lat="46.37709" lon="15.65474">
        <ele>245.32981</ele>
        <time>2026-07-10T09:39:00.000Z</time>
      </trkpt>
      <trkpt lat="46.37737" lon="15.65483">
        <ele>245.3715</ele>
        <time>2026-07-10T09:39:07.000Z</time>
      </trkpt>
      <trkpt lat="46.37771" lon="15.655">
        <ele>245.42304</ele>
        <time>2026-07-10T09:39:16.000Z</time>
      </trkpt>
      <trkpt lat="46.37779" lon="15.65506">
        <ele>245.435631</ele>
        <time>2026-07-10T09:39:18.000Z</time>
      </trkpt>
      <trkpt lat="46.37783" lon="15.65508">
        <ele>245.442043</ele>
        <time>2026-07-10T09:39:19.000Z</time>
      </trkpt>
      <trkpt lat="46.37791" lon="15.65513">
        <ele>245.454074</ele>
        <time>2026-07-10T09:39:21.000Z</time>
      </trkpt>
      <trkpt lat="46.37804" lon="15.65523">
        <ele>245.471565</ele>
        <time>2026-07-10T09:39:25.000Z</time>
      </trkpt>
      <trkpt lat="46.37828" lon="15.65544">
        <ele>245.463332</ele>
        <time>2026-07-10T09:39:32.000Z</time>
      </trkpt>
      <trkpt lat="46.37861" lon="15.65577">
        <ele>245.451699</ele>
        <time>2026-07-10T09:39:41.000Z</time>
      </trkpt>
      <trkpt lat="46.37891" lon="15.65607">
        <ele>245.440977</ele>
        <time>2026-07-10T09:39:50.000Z</time>
      </trkpt>
      <trkpt lat="46.37897" lon="15.6561">
        <ele>245.43911</ele>
        <time>2026-07-10T09:39:52.000Z</time>
      </trkpt>
      <trkpt lat="46.379" lon="15.65609">
        <ele>245.438183</ele>
        <time>2026-07-10T09:39:53.000Z</time>
      </trkpt>
      <trkpt lat="46.37908" lon="15.65597">
        <ele>245.434894</ele>
        <time>2026-07-10T09:39:56.000Z</time>
      </trkpt>
      <trkpt lat="46.37923" lon="15.65551">
        <ele>245.424636</ele>
        <time>2026-07-10T09:40:04.000Z</time>
      </trkpt>
      <trkpt lat="46.37941" lon="15.65491">
        <ele>245.362279</ele>
        <time>2026-07-10T09:40:14.000Z</time>
      </trkpt>
      <trkpt lat="46.37955" lon="15.65438">
        <ele>245.285771</ele>
        <time>2026-07-10T09:40:23.000Z</time>
      </trkpt>
      <trkpt lat="46.37965" lon="15.65389">
        <ele>245.215198</ele>
        <time>2026-07-10T09:40:31.000Z</time>
      </trkpt>
      <trkpt lat="46.37978" lon="15.65346">
        <ele>245.151517</ele>
        <time>2026-07-10T09:40:38.000Z</time>
      </trkpt>
      <trkpt lat="46.37999" lon="15.65299">
        <ele>245.07392</ele>
        <time>2026-07-10T09:40:46.000Z</time>
      </trkpt>
      <trkpt lat="46.38007" lon="15.65264">
        <ele>245.091077</ele>
        <time>2026-07-10T09:40:51.000Z</time>
      </trkpt>
      <trkpt lat="46.38008" lon="15.65251">
        <ele>245.105591</ele>
        <time>2026-07-10T09:40:53.000Z</time>
      </trkpt>
      <trkpt lat="46.38011" lon="15.6523">
        <ele>245.127466</ele>
        <time>2026-07-10T09:40:56.000Z</time>
      </trkpt>
      <trkpt lat="46.38012" lon="15.65192">
        <ele>245.166782</ele>
        <time>2026-07-10T09:41:01.000Z</time>
      </trkpt>
      <trkpt lat="46.38015" lon="15.65125">
        <ele>245.237872</ele>
        <time>2026-07-10T09:41:10.000Z</time>
      </trkpt>
      <trkpt lat="46.38014" lon="15.65074">
        <ele>245.290744</ele>
        <time>2026-07-10T09:41:17.000Z</time>
      </trkpt>
      <trkpt lat="46.38012" lon="15.65046">
        <ele>245.320284</ele>
        <time>2026-07-10T09:41:21.000Z</time>
      </trkpt>
      <trkpt lat="46.38003" lon="15.64991">
        <ele>245.980039</ele>
        <time>2026-07-10T09:41:29.000Z</time>
      </trkpt>
      <trkpt lat="46.37992" lon="15.64966">
        <ele>246.433438</ele>
        <time>2026-07-10T09:41:33.000Z</time>
      </trkpt>
      <trkpt lat="46.37985" lon="15.64956">
        <ele>246.652097</ele>
        <time>2026-07-10T09:41:35.000Z</time>
      </trkpt>
      <trkpt lat="46.3796" lon="15.6492">
        <ele>247.432739</ele>
        <time>2026-07-10T09:41:42.000Z</time>
      </trkpt>
      <trkpt lat="46.37947" lon="15.649">
        <ele>247.846307</ele>
        <time>2026-07-10T09:41:46.000Z</time>
      </trkpt>
      <trkpt lat="46.37943" lon="15.64888">
        <ele>248.040152</ele>
        <time>2026-07-10T09:41:48.000Z</time>
      </trkpt>
      <trkpt lat="46.37942" lon="15.64875">
        <ele>248.246537</ele>
        <time>2026-07-10T09:41:50.000Z</time>
      </trkpt>
      <trkpt lat="46.37945" lon="15.64861">
        <ele>248.463113</ele>
        <time>2026-07-10T09:41:52.000Z</time>
      </trkpt>
      <trkpt lat="46.3796" lon="15.64832">
        <ele>249.013878</ele>
        <time>2026-07-10T09:41:57.000Z</time>
      </trkpt>
      <trkpt lat="46.37964" lon="15.64826">
        <ele>249.130229</ele>
        <time>2026-07-10T09:41:58.000Z</time>
      </trkpt>
      <trkpt lat="46.3799" lon="15.64782">
        <ele>249.237373</ele>
        <time>2026-07-10T09:42:06.000Z</time>
      </trkpt>
      <trkpt lat="46.3802" lon="15.64735">
        <ele>249.157286</ele>
        <time>2026-07-10T09:42:15.000Z</time>
      </trkpt>
      <trkpt lat="46.38034" lon="15.64712">
        <ele>249.11902</ele>
        <time>2026-07-10T09:42:19.000Z</time>
      </trkpt>
      <trkpt lat="46.38049" lon="15.64686">
        <ele>249.075311</ele>
        <time>2026-07-10T09:42:24.000Z</time>
      </trkpt>
      <trkpt lat="46.38065" lon="15.64659">
        <ele>249.030971</ele>
        <time>2026-07-10T09:42:29.000Z</time>
      </trkpt>
      <trkpt lat="46.38074" lon="15.64641">
        <ele>249.002219</ele>
        <time>2026-07-10T09:42:32.000Z</time>
      </trkpt>
      <trkpt lat="46.38105" lon="15.64585">
        <ele>248.869314</ele>
        <time>2026-07-10T09:42:42.000Z</time>
      </trkpt>
      <trkpt lat="46.38112" lon="15.64567">
        <ele>248.822397</ele>
        <time>2026-07-10T09:42:45.000Z</time>
      </trkpt>
      <trkpt lat="46.38117" lon="15.64547">
        <ele>248.775217</ele>
        <time>2026-07-10T09:42:48.000Z</time>
      </trkpt>
      <trkpt lat="46.38118" lon="15.6454">
        <ele>248.759726</ele>
        <time>2026-07-10T09:42:49.000Z</time>
      </trkpt>
      <trkpt lat="46.3812" lon="15.64521">
        <ele>248.717054</ele>
        <time>2026-07-10T09:42:52.000Z</time>
      </trkpt>
      <trkpt lat="46.3812" lon="15.64514">
        <ele>248.702191</ele>
        <time>2026-07-10T09:42:53.000Z</time>
      </trkpt>
      <trkpt lat="46.3812" lon="15.645">
        <ele>248.672021</ele>
        <time>2026-07-10T09:42:55.000Z</time>
      </trkpt>
      <trkpt lat="46.38111" lon="15.64433">
        <ele>248.519883</ele>
        <time>2026-07-10T09:43:04.000Z</time>
      </trkpt>
      <trkpt lat="46.38094" lon="15.64359">
        <ele>248.532334</ele>
        <time>2026-07-10T09:43:15.000Z</time>
      </trkpt>
      <trkpt lat="46.38089" lon="15.64332">
        <ele>248.73358</ele>
        <time>2026-07-10T09:43:19.000Z</time>
      </trkpt>
      <trkpt lat="46.38088" lon="15.6432">
        <ele>248.821174</ele>
        <time>2026-07-10T09:43:21.000Z</time>
      </trkpt>
      <trkpt lat="46.38092" lon="15.64296">
        <ele>249.004943</ele>
        <time>2026-07-10T09:43:26.000Z</time>
      </trkpt>
      <trkpt lat="46.38098" lon="15.64287">
        <ele>249.09418</ele>
        <time>2026-07-10T09:43:31.000Z</time>
      </trkpt>
      <trkpt lat="46.38099" lon="15.64287">
        <ele>249.100817</ele>
        <time>2026-07-10T09:43:33.000Z</time>
      </trkpt>
      <trkpt lat="46.38103" lon="15.64287">
        <ele>249.139568</ele>
        <time>2026-07-10T09:44:41.000Z</time>
      </trkpt>
      <trkpt lat="46.38105" lon="15.64286">
        <ele>249.161083</ele>
        <time>2026-07-10T09:44:42.000Z</time>
      </trkpt>
      <trkpt lat="46.38119" lon="15.64283">
        <ele>249.315182</ele>
        <time>2026-07-10T09:44:48.000Z</time>
      </trkpt>
      <trkpt lat="46.38129" lon="15.64283">
        <ele>249.412456</ele>
        <time>2026-07-10T09:44:51.000Z</time>
      </trkpt>
      <trkpt lat="46.3814" lon="15.64284">
        <ele>249.533791</ele>
        <time>2026-07-10T09:44:54.000Z</time>
      </trkpt>
      <trkpt lat="46.38155" lon="15.64282">
        <ele>249.693267</ele>
        <time>2026-07-10T09:44:57.000Z</time>
      </trkpt>
      <trkpt lat="46.38161" lon="15.64279">
        <ele>249.751026</ele>
        <time>2026-07-10T09:44:58.000Z</time>
      </trkpt>
      <trkpt lat="46.38165" lon="15.64275">
        <ele>249.805215</ele>
        <time>2026-07-10T09:44:59.000Z</time>
      </trkpt>
      <trkpt lat="46.38168" lon="15.64269">
        <ele>249.856362</ele>
        <time>2026-07-10T09:45:00.000Z</time>
      </trkpt>
      <trkpt lat="46.38171" lon="15.64256">
        <ele>249.95154</ele>
        <time>2026-07-10T09:45:02.000Z</time>
      </trkpt>
      <trkpt lat="46.38169" lon="15.64235">
        <ele>250.110105</ele>
        <time>2026-07-10T09:45:05.000Z</time>
      </trkpt>
      <trkpt lat="46.38168" lon="15.64227">
        <ele>250.163794</ele>
        <time>2026-07-10T09:45:06.000Z</time>
      </trkpt>
      <trkpt lat="46.38159" lon="15.64179">
        <ele>250.440074</ele>
        <time>2026-07-10T09:45:14.000Z</time>
      </trkpt>
      <trkpt lat="46.38153" lon="15.64147">
        <ele>250.606254</ele>
        <time>2026-07-10T09:45:20.000Z</time>
      </trkpt>
      <trkpt lat="46.38148" lon="15.64116">
        <ele>250.759741</ele>
        <time>2026-07-10T09:45:25.000Z</time>
      </trkpt>
      <trkpt lat="46.38145" lon="15.64099">
        <ele>250.84811</ele>
        <time>2026-07-10T09:45:28.000Z</time>
      </trkpt>
      <trkpt lat="46.38139" lon="15.64076">
        <ele>250.964168</ele>
        <time>2026-07-10T09:45:32.000Z</time>
      </trkpt>
      <trkpt lat="46.38136" lon="15.64058">
        <ele>251.056386</ele>
        <time>2026-07-10T09:45:35.000Z</time>
      </trkpt>
      <trkpt lat="46.38133" lon="15.6404">
        <ele>251.146938</ele>
        <time>2026-07-10T09:45:38.000Z</time>
      </trkpt>
      <trkpt lat="46.38122" lon="15.63996">
        <ele>251.374874</ele>
        <time>2026-07-10T09:45:45.000Z</time>
      </trkpt>
      <trkpt lat="46.38106" lon="15.63947">
        <ele>251.437636</ele>
        <time>2026-07-10T09:45:54.000Z</time>
      </trkpt>
      <trkpt lat="46.38098" lon="15.63917">
        <ele>251.264271</ele>
        <time>2026-07-10T09:46:01.000Z</time>
      </trkpt>
      <trkpt lat="46.38089" lon="15.63896">
        <ele>251.133632</ele>
        <time>2026-07-10T09:46:08.000Z</time>
      </trkpt>
      <trkpt lat="46.38086" lon="15.6389">
        <ele>251.088612</ele>
        <time>2026-07-10T09:46:10.000Z</time>
      </trkpt>
      <trkpt lat="46.38083" lon="15.63882">
        <ele>251.041853</ele>
        <time>2026-07-10T09:46:13.000Z</time>
      </trkpt>
      <trkpt lat="46.38083" lon="15.63882">
        <ele>251.040054</ele>
        <time>2026-07-10T09:46:14.000Z</time>
      </trkpt>
      <trkpt lat="46.38083" lon="15.63882">
        <ele>251.040054</ele>
        <time>2026-07-10T09:46:15.000Z</time>
      </trkpt>
      <trkpt lat="46.38079" lon="15.63876">
        <ele>250.997512</ele>
        <time>2026-07-10T09:46:28.000Z</time>
      </trkpt>
      <trkpt lat="46.38078" lon="15.63874">
        <ele>250.984748</ele>
        <time>2026-07-10T09:46:29.000Z</time>
      </trkpt>
      <trkpt lat="46.38076" lon="15.63871">
        <ele>250.960348</ele>
        <time>2026-07-10T09:46:31.000Z</time>
      </trkpt>
      <trkpt lat="46.38076" lon="15.6387">
        <ele>250.956256</ele>
        <time>2026-07-10T09:46:33.000Z</time>
      </trkpt>
      <trkpt lat="46.3807" lon="15.63866">
        <ele>250.908279</ele>
        <time>2026-07-10T09:46:40.000Z</time>
      </trkpt>
      <trkpt lat="46.38068" lon="15.63863">
        <ele>250.882921</ele>
        <time>2026-07-10T09:46:41.000Z</time>
      </trkpt>
      <trkpt lat="46.3805" lon="15.63842">
        <ele>250.701854</ele>
        <time>2026-07-10T09:46:48.000Z</time>
      </trkpt>
      <trkpt lat="46.38043" lon="15.63837">
        <ele>250.640969</ele>
        <time>2026-07-10T09:46:51.000Z</time>
      </trkpt>
      <trkpt lat="46.38034" lon="15.63831">
        <ele>250.568811</ele>
        <time>2026-07-10T09:46:54.000Z</time>
      </trkpt>
      <trkpt lat="46.38013" lon="15.63812">
        <ele>250.372341</ele>
        <time>2026-07-10T09:47:01.000Z</time>
      </trkpt>
      <trkpt lat="46.38001" lon="15.63803">
        <ele>250.26624</ele>
        <time>2026-07-10T09:47:04.000Z</time>
      </trkpt>
      <trkpt lat="46.37985" lon="15.63791">
        <ele>250.11501</ele>
        <time>2026-07-10T09:47:08.000Z</time>
      </trkpt>
      <trkpt lat="46.3796" lon="15.63772">
        <ele>249.731278</ele>
        <time>2026-07-10T09:47:15.000Z</time>
      </trkpt>
      <trkpt lat="46.3795" lon="15.63767">
        <ele>249.589153</ele>
        <time>2026-07-10T09:47:18.000Z</time>
      </trkpt>
      <trkpt lat="46.37945" lon="15.63761">
        <ele>249.497207</ele>
        <time>2026-07-10T09:47:20.000Z</time>
      </trkpt>
      <trkpt lat="46.37929" lon="15.63742">
        <ele>249.208228</ele>
        <time>2026-07-10T09:47:26.000Z</time>
      </trkpt>
      <trkpt lat="46.37915" lon="15.63717">
        <ele>248.910369</ele>
        <time>2026-07-10T09:47:32.000Z</time>
      </trkpt>
      <trkpt lat="46.37899" lon="15.63679">
        <ele>248.493669</ele>
        <time>2026-07-10T09:47:40.000Z</time>
      </trkpt>
      <trkpt lat="46.37889" lon="15.63656">
        <ele>248.235712</ele>
        <time>2026-07-10T09:47:45.000Z</time>
      </trkpt>
      <trkpt lat="46.37881" lon="15.63645">
        <ele>248.085202</ele>
        <time>2026-07-10T09:47:48.000Z</time>
      </trkpt>
      <trkpt lat="46.37871" lon="15.63642">
        <ele>247.952195</ele>
        <time>2026-07-10T09:47:51.000Z</time>
      </trkpt>
      <trkpt lat="46.37868" lon="15.63644">
        <ele>247.910381</ele>
        <time>2026-07-10T09:47:52.000Z</time>
      </trkpt>
      <trkpt lat="46.37852" lon="15.63661">
        <ele>247.755887</ele>
        <time>2026-07-10T09:47:58.000Z</time>
      </trkpt>
      <trkpt lat="46.37834" lon="15.63681">
        <ele>248.31363</ele>
        <time>2026-07-10T09:48:05.000Z</time>
      </trkpt>
      <trkpt lat="46.37831" lon="15.63684">
        <ele>248.397363</ele>
        <time>2026-07-10T09:48:06.000Z</time>
      </trkpt>
      <trkpt lat="46.37824" lon="15.63693">
        <ele>248.637421</ele>
        <time>2026-07-10T09:48:09.000Z</time>
      </trkpt>
      <trkpt lat="46.37823" lon="15.63697">
        <ele>248.720301</ele>
        <time>2026-07-10T09:48:10.000Z</time>
      </trkpt>
      <trkpt lat="46.37828" lon="15.63711">
        <ele>248.975453</ele>
        <time>2026-07-10T09:48:14.000Z</time>
      </trkpt>
      <trkpt lat="46.3783" lon="15.63712">
        <ele>249.030307</ele>
        <time>2026-07-10T09:48:16.000Z</time>
      </trkpt>
      <trkpt lat="46.37829" lon="15.6371">
        <ele>249.066727</ele>
        <time>2026-07-10T09:48:17.000Z</time>
      </trkpt>
      <trkpt lat="46.37829" lon="15.63708">
        <ele>249.100737</ele>
        <time>2026-07-10T09:48:18.000Z</time>
      </trkpt>
      <trkpt lat="46.37826" lon="15.63702">
        <ele>249.213606</ele>
        <time>2026-07-10T09:48:21.000Z</time>
      </trkpt>
      <trkpt lat="46.37823" lon="15.63697">
        <ele>249.337979</ele>
        <time>2026-07-10T09:48:24.000Z</time>
      </trkpt>
      <trkpt lat="46.37821" lon="15.63696">
        <ele>249.377172</ele>
        <time>2026-07-10T09:48:26.000Z</time>
      </trkpt>
      <trkpt lat="46.37821" lon="15.63696">
        <ele>249.377172</ele>
        <time>2026-07-10T09:48:27.000Z</time>
      </trkpt>
      <trkpt lat="46.37822" lon="15.63692">
        <ele>249.454574</ele>
        <time>2026-07-10T09:48:57.000Z</time>
      </trkpt>
      <trkpt lat="46.37821" lon="15.63689">
        <ele>249.500766</ele>
        <time>2026-07-10T09:48:58.000Z</time>
      </trkpt>
      <trkpt lat="46.3782" lon="15.63687">
        <ele>249.546146</ele>
        <time>2026-07-10T09:48:59.000Z</time>
      </trkpt>
      <trkpt lat="46.37814" lon="15.63673">
        <ele>249.837094</ele>
        <time>2026-07-10T09:49:06.000Z</time>
      </trkpt>
      <trkpt lat="46.37813" lon="15.63671">
        <ele>249.872745</ele>
        <time>2026-07-10T09:49:08.000Z</time>
      </trkpt>
      <trkpt lat="46.37811" lon="15.63668">
        <ele>249.95717</ele>
        <time>2026-07-10T09:49:22.000Z</time>
      </trkpt>
      <trkpt lat="46.37809" lon="15.63663">
        <ele>250.046513</ele>
        <time>2026-07-10T09:49:24.000Z</time>
      </trkpt>
      <trkpt lat="46.37804" lon="15.63651">
        <ele>250.282516</ele>
        <time>2026-07-10T09:49:29.000Z</time>
      </trkpt>
      <trkpt lat="46.37801" lon="15.63643">
        <ele>250.434992</ele>
        <time>2026-07-10T09:49:32.000Z</time>
      </trkpt>
      <trkpt lat="46.37791" lon="15.63619">
        <ele>250.915014</ele>
        <time>2026-07-10T09:49:41.000Z</time>
      </trkpt>
      <trkpt lat="46.37776" lon="15.63598">
        <ele>251.445685</ele>
        <time>2026-07-10T09:49:50.000Z</time>
      </trkpt>
      <trkpt lat="46.37774" lon="15.63597">
        <ele>251.494852</ele>
        <time>2026-07-10T09:49:51.000Z</time>
      </trkpt>
      <trkpt lat="46.37765" lon="15.63591">
        <ele>251.750006</ele>
        <time>2026-07-10T09:49:56.000Z</time>
      </trkpt>
      <trkpt lat="46.37757" lon="15.63587">
        <ele>251.957383</ele>
        <time>2026-07-10T09:50:02.000Z</time>
      </trkpt>
      <trkpt lat="46.37757" lon="15.63589">
        <ele>251.981384</ele>
        <time>2026-07-10T09:50:42.000Z</time>
      </trkpt>
      <trkpt lat="46.37764" lon="15.63593">
        <ele>252.140813</ele>
        <time>2026-07-10T09:50:48.000Z</time>
      </trkpt>
      <trkpt lat="46.3777" lon="15.63599">
        <ele>252.153562</ele>
        <time>2026-07-10T09:50:54.000Z</time>
      </trkpt>
      <trkpt lat="46.37771" lon="15.63601">
        <ele>252.155826</ele>
        <time>2026-07-10T09:50:55.000Z</time>
      </trkpt>
      <trkpt lat="46.37773" lon="15.63602">
        <ele>252.15901</ele>
        <time>2026-07-10T09:50:57.000Z</time>
      </trkpt>
      <trkpt lat="46.37779" lon="15.63605">
        <ele>252.169882</ele>
        <time>2026-07-10T09:51:03.000Z</time>
      </trkpt>
      <trkpt lat="46.37783" lon="15.6361">
        <ele>252.178362</ele>
        <time>2026-07-10T09:51:09.000Z</time>
      </trkpt>
      <trkpt lat="46.37788" lon="15.6362">
        <ele>252.19151</ele>
        <time>2026-07-10T09:51:14.000Z</time>
      </trkpt>
      <trkpt lat="46.37792" lon="15.63626">
        <ele>252.201188</ele>
        <time>2026-07-10T09:51:16.000Z</time>
      </trkpt>
      <trkpt lat="46.37806" lon="15.63657">
        <ele>252.242473</ele>
        <time>2026-07-10T09:51:25.000Z</time>
      </trkpt>
      <trkpt lat="46.37814" lon="15.63675">
        <ele>252.26726</ele>
        <time>2026-07-10T09:51:30.000Z</time>
      </trkpt>
      <trkpt lat="46.3782" lon="15.63688">
        <ele>252.284186</ele>
        <time>2026-07-10T09:51:34.000Z</time>
      </trkpt>
      <trkpt lat="46.37822" lon="15.63689">
        <ele>252.287962</ele>
        <time>2026-07-10T09:51:35.000Z</time>
      </trkpt>
      <trkpt lat="46.37824" lon="15.63691">
        <ele>252.291289</ele>
        <time>2026-07-10T09:51:38.000Z</time>
      </trkpt>
      <trkpt lat="46.37831" lon="15.63689">
        <ele>252.302707</ele>
        <time>2026-07-10T09:52:30.000Z</time>
      </trkpt>
      <trkpt lat="46.37841" lon="15.6368">
        <ele>252.321601</ele>
        <time>2026-07-10T09:52:34.000Z</time>
      </trkpt>
      <trkpt lat="46.3785" lon="15.63672">
        <ele>252.338795</ele>
        <time>2026-07-10T09:52:37.000Z</time>
      </trkpt>
      <trkpt lat="46.37856" lon="15.63669">
        <ele>252.349089</ele>
        <time>2026-07-10T09:52:39.000Z</time>
      </trkpt>
      <trkpt lat="46.37859" lon="15.63668">
        <ele>252.354921</ele>
        <time>2026-07-10T09:52:40.000Z</time>
      </trkpt>
      <trkpt lat="46.3787" lon="15.63655">
        <ele>252.377929</ele>
        <time>2026-07-10T09:52:44.000Z</time>
      </trkpt>
      <trkpt lat="46.3787" lon="15.63645">
        <ele>252.389407</ele>
        <time>2026-07-10T09:52:46.000Z</time>
      </trkpt>
      <trkpt lat="46.37868" lon="15.6364">
        <ele>252.395512</ele>
        <time>2026-07-10T09:52:47.000Z</time>
      </trkpt>
      <trkpt lat="46.37854" lon="15.63616">
        <ele>252.43064</ele>
        <time>2026-07-10T09:52:53.000Z</time>
      </trkpt>
      <trkpt lat="46.3784" lon="15.63583">
        <ele>252.86823</ele>
        <time>2026-07-10T09:53:01.000Z</time>
      </trkpt>
      <trkpt lat="46.37829" lon="15.63558">
        <ele>253.219144</ele>
        <time>2026-07-10T09:53:07.000Z</time>
      </trkpt>
      <trkpt lat="46.37826" lon="15.6355">
        <ele>253.328342</ele>
        <time>2026-07-10T09:53:09.000Z</time>
      </trkpt>
      <trkpt lat="46.37816" lon="15.63536">
        <ele>253.559971</ele>
        <time>2026-07-10T09:53:13.000Z</time>
      </trkpt>
      <trkpt lat="46.37813" lon="15.63534">
        <ele>253.615668</ele>
        <time>2026-07-10T09:53:14.000Z</time>
      </trkpt>
      <trkpt lat="46.37807" lon="15.63528">
        <ele>253.746536</ele>
        <time>2026-07-10T09:53:17.000Z</time>
      </trkpt>
      <trkpt lat="46.37804" lon="15.63521">
        <ele>253.840315</ele>
        <time>2026-07-10T09:53:19.000Z</time>
      </trkpt>
      <trkpt lat="46.37796" lon="15.63502">
        <ele>254.104403</ele>
        <time>2026-07-10T09:53:24.000Z</time>
      </trkpt>
      <trkpt lat="46.37789" lon="15.63487">
        <ele>254.321795</ele>
        <time>2026-07-10T09:53:28.000Z</time>
      </trkpt>
      <trkpt lat="46.37778" lon="15.63455">
        <ele>254.740333</ele>
        <time>2026-07-10T09:53:36.000Z</time>
      </trkpt>
      <trkpt lat="46.37776" lon="15.63451">
        <ele>254.795865</ele>
        <time>2026-07-10T09:53:37.000Z</time>
      </trkpt>
      <trkpt lat="46.37761" lon="15.63414">
        <ele>255.300034</ele>
        <time>2026-07-10T09:53:46.000Z</time>
      </trkpt>
      <trkpt lat="46.37741" lon="15.6337">
        <ele>255.826612</ele>
        <time>2026-07-10T09:53:57.000Z</time>
      </trkpt>
      <trkpt lat="46.37736" lon="15.63357">
        <ele>255.965155</ele>
        <time>2026-07-10T09:54:00.000Z</time>
      </trkpt>
      <trkpt lat="46.37727" lon="15.63335">
        <ele>256.200814</ele>
        <time>2026-07-10T09:54:05.000Z</time>
      </trkpt>
      <trkpt lat="46.37723" lon="15.63327">
        <ele>256.293505</ele>
        <time>2026-07-10T09:54:07.000Z</time>
      </trkpt>
      <trkpt lat="46.37716" lon="15.6331">
        <ele>256.475558</ele>
        <time>2026-07-10T09:54:11.000Z</time>
      </trkpt>
      <trkpt lat="46.37709" lon="15.63294">
        <ele>256.648228</ele>
        <time>2026-07-10T09:54:15.000Z</time>
      </trkpt>
      <trkpt lat="46.37704" lon="15.63282">
        <ele>256.778145</ele>
        <time>2026-07-10T09:54:18.000Z</time>
      </trkpt>
      <trkpt lat="46.37698" lon="15.63265">
        <ele>256.953793</ele>
        <time>2026-07-10T09:54:22.000Z</time>
      </trkpt>
      <trkpt lat="46.37687" lon="15.63237">
        <ele>257.248126</ele>
        <time>2026-07-10T09:54:29.000Z</time>
      </trkpt>
      <trkpt lat="46.37675" lon="15.63209">
        <ele>257.559788</ele>
        <time>2026-07-10T09:54:36.000Z</time>
      </trkpt>
      <trkpt lat="46.37659" lon="15.63176">
        <ele>257.869967</ele>
        <time>2026-07-10T09:54:44.000Z</time>
      </trkpt>
      <trkpt lat="46.37649" lon="15.63153">
        <ele>257.588067</ele>
        <time>2026-07-10T09:54:50.000Z</time>
      </trkpt>
      <trkpt lat="46.37648" lon="15.63149">
        <ele>257.545219</ele>
        <time>2026-07-10T09:54:51.000Z</time>
      </trkpt>
      <trkpt lat="46.37641" lon="15.63134">
        <ele>257.365861</ele>
        <time>2026-07-10T09:54:55.000Z</time>
      </trkpt>
      <trkpt lat="46.37637" lon="15.63127">
        <ele>257.27975</ele>
        <time>2026-07-10T09:54:57.000Z</time>
      </trkpt>
      <trkpt lat="46.37628" lon="15.63106">
        <ele>257.032682</ele>
        <time>2026-07-10T09:55:02.000Z</time>
      </trkpt>
      <trkpt lat="46.3762" lon="15.63086">
        <ele>256.803181</ele>
        <time>2026-07-10T09:55:07.000Z</time>
      </trkpt>
      <trkpt lat="46.37609" lon="15.63056">
        <ele>256.462758</ele>
        <time>2026-07-10T09:55:14.000Z</time>
      </trkpt>
      <trkpt lat="46.37604" lon="15.63039">
        <ele>256.270071</ele>
        <time>2026-07-10T09:55:19.000Z</time>
      </trkpt>
      <trkpt lat="46.37602" lon="15.63036">
        <ele>256.225772</ele>
        <time>2026-07-10T09:55:20.000Z</time>
      </trkpt>
      <trkpt lat="46.37596" lon="15.63038">
        <ele>256.136859</ele>
        <time>2026-07-10T09:55:22.000Z</time>
      </trkpt>
      <trkpt lat="46.37586" lon="15.63047">
        <ele>255.972347</ele>
        <time>2026-07-10T09:55:25.000Z</time>
      </trkpt>
      <trkpt lat="46.37583" lon="15.63051">
        <ele>255.916561</ele>
        <time>2026-07-10T09:55:26.000Z</time>
      </trkpt>
      <trkpt lat="46.37577" lon="15.63056">
        <ele>255.8096</ele>
        <time>2026-07-10T09:55:28.000Z</time>
      </trkpt>
      <trkpt lat="46.3757" lon="15.6306">
        <ele>255.705559</ele>
        <time>2026-07-10T09:55:30.000Z</time>
      </trkpt>
      <trkpt lat="46.37559" lon="15.63065">
        <ele>255.526761</ele>
        <time>2026-07-10T09:55:34.000Z</time>
      </trkpt>
      <trkpt lat="46.37558" lon="15.63065">
        <ele>255.519421</ele>
        <time>2026-07-10T09:55:36.000Z</time>
      </trkpt>
      <trkpt lat="46.37553" lon="15.63064">
        <ele>255.441405</ele>
        <time>2026-07-10T09:55:40.000Z</time>
      </trkpt>
      <trkpt lat="46.37548" lon="15.63064">
        <ele>255.375583</ele>
        <time>2026-07-10T09:55:43.000Z</time>
      </trkpt>
      <trkpt lat="46.37548" lon="15.63064">
        <ele>255.37122</ele>
        <time>2026-07-10T09:55:45.000Z</time>
      </trkpt>
      <trkpt lat="46.37545" lon="15.63062">
        <ele>255.33122</ele>
        <time>2026-07-10T09:58:11.000Z</time>
      </trkpt>
      <trkpt lat="46.37543" lon="15.63062">
        <ele>255.299208</ele>
        <time>2026-07-10T09:58:12.000Z</time>
      </trkpt>
      <trkpt lat="46.37528" lon="15.63058">
        <ele>255.736125</ele>
        <time>2026-07-10T09:58:18.000Z</time>
      </trkpt>
      <trkpt lat="46.37508" lon="15.63054">
        <ele>256.370993</ele>
        <time>2026-07-10T09:58:24.000Z</time>
      </trkpt>
      <trkpt lat="46.37478" lon="15.63054">
        <ele>257.341404</ele>
        <time>2026-07-10T09:58:31.000Z</time>
      </trkpt>
      <trkpt lat="46.37469" lon="15.63056">
        <ele>257.622268</ele>
        <time>2026-07-10T09:58:33.000Z</time>
      </trkpt>
      <trkpt lat="46.37461" lon="15.63057">
        <ele>257.909223</ele>
        <time>2026-07-10T09:58:35.000Z</time>
      </trkpt>
      <trkpt lat="46.37456" lon="15.63059">
        <ele>258.068012</ele>
        <time>2026-07-10T09:58:36.000Z</time>
      </trkpt>
      <trkpt lat="46.37445" lon="15.63062">
        <ele>258.409541</ele>
        <time>2026-07-10T09:58:38.000Z</time>
      </trkpt>
      <trkpt lat="46.37431" lon="15.63063">
        <ele>258.871911</ele>
        <time>2026-07-10T09:58:41.000Z</time>
      </trkpt>
      <trkpt lat="46.37427" lon="15.63065">
        <ele>259.015881</ele>
        <time>2026-07-10T09:58:42.000Z</time>
      </trkpt>
      <trkpt lat="46.37408" lon="15.6307">
        <ele>259.620266</ele>
        <time>2026-07-10T09:58:46.000Z</time>
      </trkpt>
      <trkpt lat="46.37404" lon="15.63072">
        <ele>259.760534</ele>
        <time>2026-07-10T09:58:47.000Z</time>
      </trkpt>
      <trkpt lat="46.37386" lon="15.63079">
        <ele>260.357213</ele>
        <time>2026-07-10T09:58:52.000Z</time>
      </trkpt>
      <trkpt lat="46.3736" lon="15.63088">
        <ele>261.229449</ele>
        <time>2026-07-10T09:58:58.000Z</time>
      </trkpt>
      <trkpt lat="46.37351" lon="15.63091">
        <ele>261.541812</ele>
        <time>2026-07-10T09:59:00.000Z</time>
      </trkpt>
      <trkpt lat="46.37333" lon="15.631">
        <ele>262.163005</ele>
        <time>2026-07-10T09:59:04.000Z</time>
      </trkpt>
      <trkpt lat="46.37325" lon="15.63103">
        <ele>262.445998</ele>
        <time>2026-07-10T09:59:06.000Z</time>
      </trkpt>
      <trkpt lat="46.37306" lon="15.63112">
        <ele>263.124587</ele>
        <time>2026-07-10T09:59:10.000Z</time>
      </trkpt>
      <trkpt lat="46.37281" lon="15.63124">
        <ele>264.025577</ele>
        <time>2026-07-10T09:59:15.000Z</time>
      </trkpt>
      <trkpt lat="46.37257" lon="15.63131">
        <ele>264.850777</ele>
        <time>2026-07-10T09:59:20.000Z</time>
      </trkpt>
      <trkpt lat="46.37252" lon="15.63133">
        <ele>264.99587</ele>
        <time>2026-07-10T09:59:21.000Z</time>
      </trkpt>
      <trkpt lat="46.37244" lon="15.63137">
        <ele>265.281451</ele>
        <time>2026-07-10T09:59:23.000Z</time>
      </trkpt>
      <trkpt lat="46.37235" lon="15.63141">
        <ele>265.61427</ele>
        <time>2026-07-10T09:59:25.000Z</time>
      </trkpt>
      <trkpt lat="46.37226" lon="15.63145">
        <ele>265.939904</ele>
        <time>2026-07-10T09:59:27.000Z</time>
      </trkpt>
      <trkpt lat="46.37216" lon="15.63148">
        <ele>266.287857</ele>
        <time>2026-07-10T09:59:29.000Z</time>
      </trkpt>
      <trkpt lat="46.37205" lon="15.6315">
        <ele>266.644534</ele>
        <time>2026-07-10T09:59:31.000Z</time>
      </trkpt>
      <trkpt lat="46.37194" lon="15.6315">
        <ele>267.022059</ele>
        <time>2026-07-10T09:59:33.000Z</time>
      </trkpt>
      <trkpt lat="46.37183" lon="15.6315">
        <ele>266.749044</ele>
        <time>2026-07-10T09:59:35.000Z</time>
      </trkpt>
      <trkpt lat="46.37177" lon="15.6315">
        <ele>266.518809</ele>
        <time>2026-07-10T09:59:36.000Z</time>
      </trkpt>
      <trkpt lat="46.37138" lon="15.63149">
        <ele>264.930694</ele>
        <time>2026-07-10T09:59:42.000Z</time>
      </trkpt>
      <trkpt lat="46.371" lon="15.63151">
        <ele>263.409949</ele>
        <time>2026-07-10T09:59:47.000Z</time>
      </trkpt>
      <trkpt lat="46.37061" lon="15.6316">
        <ele>261.837331</ele>
        <time>2026-07-10T09:59:52.000Z</time>
      </trkpt>
      <trkpt lat="46.37046" lon="15.63158">
        <ele>261.23001</ele>
        <time>2026-07-10T09:59:54.000Z</time>
      </trkpt>
      <trkpt lat="46.37018" lon="15.63155">
        <ele>260.094833</ele>
        <time>2026-07-10T09:59:59.000Z</time>
      </trkpt>
      <trkpt lat="46.37014" lon="15.63152">
        <ele>259.919966</ele>
        <time>2026-07-10T10:00:01.000Z</time>
      </trkpt>
      <trkpt lat="46.37013" lon="15.63151">
        <ele>259.862614</ele>
        <time>2026-07-10T10:00:02.000Z</time>
      </trkpt>
      <trkpt lat="46.37012" lon="15.63152">
        <ele>259.836202</ele>
        <time>2026-07-10T10:00:03.000Z</time>
      </trkpt>
      <trkpt lat="46.37012" lon="15.63152">
        <ele>259.832817</ele>
        <time>2026-07-10T10:00:06.000Z</time>
      </trkpt>
      <trkpt lat="46.37007" lon="15.63151">
        <ele>259.804575</ele>
        <time>2026-07-10T10:02:29.000Z</time>
      </trkpt>
      <trkpt lat="46.37006" lon="15.63149">
        <ele>259.791272</ele>
        <time>2026-07-10T10:02:30.000Z</time>
      </trkpt>
      <trkpt lat="46.37004" lon="15.63148">
        <ele>259.776539</ele>
        <time>2026-07-10T10:02:31.000Z</time>
      </trkpt>
      <trkpt lat="46.37002" lon="15.63146">
        <ele>259.761054</ele>
        <time>2026-07-10T10:02:32.000Z</time>
      </trkpt>
      <trkpt lat="46.36997" lon="15.63141">
        <ele>259.72166</ele>
        <time>2026-07-10T10:02:34.000Z</time>
      </trkpt>
      <trkpt lat="46.36988" lon="15.63133">
        <ele>259.656849</ele>
        <time>2026-07-10T10:02:37.000Z</time>
      </trkpt>
      <trkpt lat="46.36962" lon="15.63115">
        <ele>259.465259</ele>
        <time>2026-07-10T10:02:46.000Z</time>
      </trkpt>
      <trkpt lat="46.36932" lon="15.63092">
        <ele>259.246474</ele>
        <time>2026-07-10T10:02:55.000Z</time>
      </trkpt>
      <trkpt lat="46.36921" lon="15.63083">
        <ele>259.164249</ele>
        <time>2026-07-10T10:02:58.000Z</time>
      </trkpt>
      <trkpt lat="46.369" lon="15.63067">
        <ele>259.006189</ele>
        <time>2026-07-10T10:03:04.000Z</time>
      </trkpt>
      <trkpt lat="46.36893" lon="15.63062">
        <ele>258.955611</ele>
        <time>2026-07-10T10:03:06.000Z</time>
      </trkpt>
      <trkpt lat="46.36869" lon="15.63051">
        <ele>258.793434</ele>
        <time>2026-07-10T10:03:13.000Z</time>
      </trkpt>
      <trkpt lat="46.36859" lon="15.63048">
        <ele>258.726481</ele>
        <time>2026-07-10T10:03:16.000Z</time>
      </trkpt>
      <trkpt lat="46.36849" lon="15.63047">
        <ele>258.69404</ele>
        <time>2026-07-10T10:03:19.000Z</time>
      </trkpt>
      <trkpt lat="46.36839" lon="15.63047">
        <ele>259.189091</ele>
        <time>2026-07-10T10:03:22.000Z</time>
      </trkpt>
      <trkpt lat="46.36817" lon="15.63048">
        <ele>260.292942</ele>
        <time>2026-07-10T10:03:29.000Z</time>
      </trkpt>
      <trkpt lat="46.36794" lon="15.63048">
        <ele>261.405833</ele>
        <time>2026-07-10T10:03:36.000Z</time>
      </trkpt>
      <trkpt lat="46.36779" lon="15.63048">
        <ele>262.165571</ele>
        <time>2026-07-10T10:03:41.000Z</time>
      </trkpt>
      <trkpt lat="46.36763" lon="15.63044">
        <ele>262.928835</ele>
        <time>2026-07-10T10:03:46.000Z</time>
      </trkpt>
      <trkpt lat="46.36758" lon="15.63043">
        <ele>263.209221</ele>
        <time>2026-07-10T10:03:48.000Z</time>
      </trkpt>
      <trkpt lat="46.36732" lon="15.63034">
        <ele>264.486922</ele>
        <time>2026-07-10T10:03:57.000Z</time>
      </trkpt>
      <trkpt lat="46.36708" lon="15.63024">
        <ele>265.699872</ele>
        <time>2026-07-10T10:04:05.000Z</time>
      </trkpt>
      <trkpt lat="46.36694" lon="15.63021">
        <ele>266.417293</ele>
        <time>2026-07-10T10:04:10.000Z</time>
      </trkpt>
      <trkpt lat="46.36689" lon="15.63022">
        <ele>266.68943</ele>
        <time>2026-07-10T10:04:12.000Z</time>
      </trkpt>
      <trkpt lat="46.36681" lon="15.63028">
        <ele>267.123504</ele>
        <time>2026-07-10T10:04:17.000Z</time>
      </trkpt>
      <trkpt lat="46.3668" lon="15.63028">
        <ele>267.150029</ele>
        <time>2026-07-10T10:04:19.000Z</time>
      </trkpt>
      <trkpt lat="46.36681" lon="15.63023">
        <ele>267.300132</ele>
        <time>2026-07-10T10:12:41.000Z</time>
      </trkpt>
      <trkpt lat="46.36683" lon="15.63022">
        <ele>267.421138</ele>
        <time>2026-07-10T10:12:42.000Z</time>
      </trkpt>
      <trkpt lat="46.3669" lon="15.63008">
        <ele>267.517844</ele>
        <time>2026-07-10T10:12:46.000Z</time>
      </trkpt>
      <trkpt lat="46.36699" lon="15.62981">
        <ele>267.587458</ele>
        <time>2026-07-10T10:12:52.000Z</time>
      </trkpt>
      <trkpt lat="46.36702" lon="15.62973">
        <ele>267.608307</ele>
        <time>2026-07-10T10:12:54.000Z</time>
      </trkpt>
      <trkpt lat="46.36709" lon="15.62947">
        <ele>267.671522</ele>
        <time>2026-07-10T10:13:01.000Z</time>
      </trkpt>
      <trkpt lat="46.36719" lon="15.62901">
        <ele>267.781189</ele>
        <time>2026-07-10T10:13:11.000Z</time>
      </trkpt>
      <trkpt lat="46.36724" lon="15.62868">
        <ele>267.858411</ele>
        <time>2026-07-10T10:13:17.000Z</time>
      </trkpt>
      <trkpt lat="46.36726" lon="15.62846">
        <ele>267.910588</ele>
        <time>2026-07-10T10:13:21.000Z</time>
      </trkpt>
      <trkpt lat="46.36726" lon="15.62822">
        <ele>267.964503</ele>
        <time>2026-07-10T10:13:25.000Z</time>
      </trkpt>
      <trkpt lat="46.36724" lon="15.6281">
        <ele>267.992643</ele>
        <time>2026-07-10T10:13:27.000Z</time>
      </trkpt>
      <trkpt lat="46.36718" lon="15.6278">
        <ele>268.064966</ele>
        <time>2026-07-10T10:13:32.000Z</time>
      </trkpt>
      <trkpt lat="46.367" lon="15.62721">
        <ele>267.503876</ele>
        <time>2026-07-10T10:13:42.000Z</time>
      </trkpt>
      <trkpt lat="46.36699" lon="15.62715">
        <ele>267.439517</ele>
        <time>2026-07-10T10:13:43.000Z</time>
      </trkpt>
      <trkpt lat="46.36697" lon="15.62708">
        <ele>267.369503</ele>
        <time>2026-07-10T10:13:44.000Z</time>
      </trkpt>
      <trkpt lat="46.36682" lon="15.6266">
        <ele>266.84804</ele>
        <time>2026-07-10T10:13:52.000Z</time>
      </trkpt>
      <trkpt lat="46.36665" lon="15.62602">
        <ele>266.226879</ele>
        <time>2026-07-10T10:14:02.000Z</time>
      </trkpt>
      <trkpt lat="46.36661" lon="15.6259">
        <ele>266.091565</ele>
        <time>2026-07-10T10:14:04.000Z</time>
      </trkpt>
      <trkpt lat="46.36653" lon="15.62557">
        <ele>265.744476</ele>
        <time>2026-07-10T10:14:09.000Z</time>
      </trkpt>
      <trkpt lat="46.36634" lon="15.62492">
        <ele>267.022911</ele>
        <time>2026-07-10T10:14:18.000Z</time>
      </trkpt>
      <trkpt lat="46.36629" lon="15.62472">
        <ele>267.717995</ele>
        <time>2026-07-10T10:14:21.000Z</time>
      </trkpt>
      <trkpt lat="46.36624" lon="15.62454">
        <ele>268.342946</ele>
        <time>2026-07-10T10:14:24.000Z</time>
      </trkpt>
      <trkpt lat="46.36613" lon="15.62417">
        <ele>269.654809</ele>
        <time>2026-07-10T10:14:31.000Z</time>
      </trkpt>
      <trkpt lat="46.36607" lon="15.62395">
        <ele>270.44144</ele>
        <time>2026-07-10T10:14:35.000Z</time>
      </trkpt>
      <trkpt lat="46.36601" lon="15.62378">
        <ele>271.090203</ele>
        <time>2026-07-10T10:14:39.000Z</time>
      </trkpt>
      <trkpt lat="46.36596" lon="15.62364">
        <ele>271.593292</ele>
        <time>2026-07-10T10:14:42.000Z</time>
      </trkpt>
      <trkpt lat="46.36592" lon="15.62351">
        <ele>272.064143</ele>
        <time>2026-07-10T10:14:45.000Z</time>
      </trkpt>
      <trkpt lat="46.36587" lon="15.62334">
        <ele>272.655551</ele>
        <time>2026-07-10T10:14:49.000Z</time>
      </trkpt>
      <trkpt lat="46.36586" lon="15.6233">
        <ele>272.807456</ele>
        <time>2026-07-10T10:14:50.000Z</time>
      </trkpt>
      <trkpt lat="46.3658" lon="15.6231">
        <ele>273.526421</ele>
        <time>2026-07-10T10:14:56.000Z</time>
      </trkpt>
      <trkpt lat="46.36576" lon="15.62284">
        <ele>274.577717</ele>
        <time>2026-07-10T10:15:04.000Z</time>
      </trkpt>
      <trkpt lat="46.36574" lon="15.62263">
        <ele>275.701822</ele>
        <time>2026-07-10T10:15:10.000Z</time>
      </trkpt>
      <trkpt lat="46.36574" lon="15.6226">
        <ele>275.841691</ele>
        <time>2026-07-10T10:15:11.000Z</time>
      </trkpt>
      <trkpt lat="46.36575" lon="15.62253">
        <ele>276.213077</ele>
        <time>2026-07-10T10:15:13.000Z</time>
      </trkpt>
      <trkpt lat="46.36575" lon="15.62244">
        <ele>276.706699</ele>
        <time>2026-07-10T10:15:16.000Z</time>
      </trkpt>
      <trkpt lat="46.36574" lon="15.62239">
        <ele>276.954033</ele>
        <time>2026-07-10T10:15:18.000Z</time>
      </trkpt>
      <trkpt lat="46.36574" lon="15.62236">
        <ele>277.119625</ele>
        <time>2026-07-10T10:15:20.000Z</time>
      </trkpt>
      <trkpt lat="46.36572" lon="15.62218">
        <ele>278.127905</ele>
        <time>2026-07-10T10:15:26.000Z</time>
      </trkpt>
      <trkpt lat="46.36571" lon="15.62205">
        <ele>278.805183</ele>
        <time>2026-07-10T10:15:31.000Z</time>
      </trkpt>
      <trkpt lat="46.36571" lon="15.62202">
        <ele>278.947766</ele>
        <time>2026-07-10T10:15:32.000Z</time>
      </trkpt>
      <trkpt lat="46.36571" lon="15.62194">
        <ele>279.384633</ele>
        <time>2026-07-10T10:15:35.000Z</time>
      </trkpt>
      <trkpt lat="46.36571" lon="15.62181">
        <ele>280.030467</ele>
        <time>2026-07-10T10:15:39.000Z</time>
      </trkpt>
      <trkpt lat="46.36571" lon="15.62178">
        <ele>280.199176</ele>
        <time>2026-07-10T10:15:40.000Z</time>
      </trkpt>
      <trkpt lat="46.36572" lon="15.62163">
        <ele>281.018423</ele>
        <time>2026-07-10T10:15:45.000Z</time>
      </trkpt>
      <trkpt lat="46.36573" lon="15.62156">
        <ele>281.35623</ele>
        <time>2026-07-10T10:15:47.000Z</time>
      </trkpt>
      <trkpt lat="46.36578" lon="15.62129">
        <ele>282.84327</ele>
        <time>2026-07-10T10:15:56.000Z</time>
      </trkpt>
      <trkpt lat="46.36581" lon="15.62114">
        <ele>283.689573</ele>
        <time>2026-07-10T10:16:01.000Z</time>
      </trkpt>
      <trkpt lat="46.36583" lon="15.62108">
        <ele>284.019719</ele>
        <time>2026-07-10T10:16:03.000Z</time>
      </trkpt>
      <trkpt lat="46.36591" lon="15.62086">
        <ele>285.325637</ele>
        <time>2026-07-10T10:16:11.000Z</time>
      </trkpt>
      <trkpt lat="46.36592" lon="15.62083">
        <ele>285.486534</ele>
        <time>2026-07-10T10:16:12.000Z</time>
      </trkpt>
      <trkpt lat="46.36597" lon="15.62071">
        <ele>286.230205</ele>
        <time>2026-07-10T10:16:16.000Z</time>
      </trkpt>
      <trkpt lat="46.36602" lon="15.62059">
        <ele>286.936512</ele>
        <time>2026-07-10T10:16:20.000Z</time>
      </trkpt>
      <trkpt lat="46.36615" lon="15.62036">
        <ele>287.562602</ele>
        <time>2026-07-10T10:16:29.000Z</time>
      </trkpt>
      <trkpt lat="46.36631" lon="15.62018">
        <ele>287.227895</ele>
        <time>2026-07-10T10:16:37.000Z</time>
      </trkpt>
      <trkpt lat="46.36633" lon="15.62017">
        <ele>287.179796</ele>
        <time>2026-07-10T10:16:38.000Z</time>
      </trkpt>
      <trkpt lat="46.36641" lon="15.62013">
        <ele>287.038685</ele>
        <time>2026-07-10T10:16:41.000Z</time>
      </trkpt>
      <trkpt lat="46.36657" lon="15.62005">
        <ele>286.752057</ele>
        <time>2026-07-10T10:16:46.000Z</time>
      </trkpt>
      <trkpt lat="46.3668" lon="15.61993">
        <ele>286.348948</ele>
        <time>2026-07-10T10:16:52.000Z</time>
      </trkpt>
      <trkpt lat="46.36687" lon="15.61989">
        <ele>286.212201</ele>
        <time>2026-07-10T10:16:54.000Z</time>
      </trkpt>
      <trkpt lat="46.36722" lon="15.61967">
        <ele>285.580766</ele>
        <time>2026-07-10T10:17:02.000Z</time>
      </trkpt>
      <trkpt lat="46.36764" lon="15.61942">
        <ele>284.811486</ele>
        <time>2026-07-10T10:17:12.000Z</time>
      </trkpt>
      <trkpt lat="46.36792" lon="15.61923">
        <ele>284.946523</ele>
        <time>2026-07-10T10:17:20.000Z</time>
      </trkpt>
      <trkpt lat="46.36798" lon="15.61919">
        <ele>285.009853</ele>
        <time>2026-07-10T10:17:22.000Z</time>
      </trkpt>
      <trkpt lat="46.3681" lon="15.6191">
        <ele>285.142614</ele>
        <time>2026-07-10T10:17:26.000Z</time>
      </trkpt>
      <trkpt lat="46.36813" lon="15.61907">
        <ele>285.174676</ele>
        <time>2026-07-10T10:17:27.000Z</time>
      </trkpt>
      <trkpt lat="46.36832" lon="15.61884">
        <ele>285.410979</ele>
        <time>2026-07-10T10:17:34.000Z</time>
      </trkpt>
      <trkpt lat="46.36842" lon="15.61871">
        <ele>285.545537</ele>
        <time>2026-07-10T10:17:38.000Z</time>
      </trkpt>
      <trkpt lat="46.36858" lon="15.61849">
        <ele>285.756665</ele>
        <time>2026-07-10T10:17:44.000Z</time>
      </trkpt>
      <trkpt lat="46.36881" lon="15.61823">
        <ele>286.035598</ele>
        <time>2026-07-10T10:17:52.000Z</time>
      </trkpt>
      <trkpt lat="46.36902" lon="15.61812">
        <ele>286.258778</ele>
        <time>2026-07-10T10:17:58.000Z</time>
      </trkpt>
      <trkpt lat="46.36936" lon="15.61795">
        <ele>286.795341</ele>
        <time>2026-07-10T10:18:07.000Z</time>
      </trkpt>
      <trkpt lat="46.36958" lon="15.61777">
        <ele>287.352613</ele>
        <time>2026-07-10T10:18:14.000Z</time>
      </trkpt>
      <trkpt lat="46.36964" lon="15.61772">
        <ele>287.500141</ele>
        <time>2026-07-10T10:18:16.000Z</time>
      </trkpt>
      <trkpt lat="46.36986" lon="15.61748">
        <ele>288.098877</ele>
        <time>2026-07-10T10:18:24.000Z</time>
      </trkpt>
      <trkpt lat="46.37005" lon="15.61723">
        <ele>288.660285</ele>
        <time>2026-07-10T10:18:31.000Z</time>
      </trkpt>
      <trkpt lat="46.37026" lon="15.61693">
        <ele>289.290344</ele>
        <time>2026-07-10T10:18:38.000Z</time>
      </trkpt>
      <trkpt lat="46.37032" lon="15.61684">
        <ele>289.476792</ele>
        <time>2026-07-10T10:18:40.000Z</time>
      </trkpt>
      <trkpt lat="46.37047" lon="15.6166">
        <ele>289.965764</ele>
        <time>2026-07-10T10:18:45.000Z</time>
      </trkpt>
      <trkpt lat="46.37057" lon="15.61646">
        <ele>290.266207</ele>
        <time>2026-07-10T10:18:48.000Z</time>
      </trkpt>
      <trkpt lat="46.3706" lon="15.61641">
        <ele>290.329157</ele>
        <time>2026-07-10T10:18:49.000Z</time>
      </trkpt>
      <trkpt lat="46.37067" lon="15.61631">
        <ele>290.164147</ele>
        <time>2026-07-10T10:18:52.000Z</time>
      </trkpt>
      <trkpt lat="46.37068" lon="15.61629">
        <ele>290.129063</ele>
        <time>2026-07-10T10:18:53.000Z</time>
      </trkpt>
      <trkpt lat="46.37068" lon="15.61627">
        <ele>290.110142</ele>
        <time>2026-07-10T10:18:54.000Z</time>
      </trkpt>
      <trkpt lat="46.37062" lon="15.61633">
        <ele>289.994826</ele>
        <time>2026-07-10T10:18:57.000Z</time>
      </trkpt>
      <trkpt lat="46.37049" lon="15.61648">
        <ele>289.726096</ele>
        <time>2026-07-10T10:19:01.000Z</time>
      </trkpt>
      <trkpt lat="46.37038" lon="15.61645">
        <ele>289.54063</ele>
        <time>2026-07-10T10:19:04.000Z</time>
      </trkpt>
      <trkpt lat="46.37021" lon="15.61623">
        <ele>289.164746</ele>
        <time>2026-07-10T10:19:08.000Z</time>
      </trkpt>
      <trkpt lat="46.36993" lon="15.61581">
        <ele>288.507105</ele>
        <time>2026-07-10T10:19:13.000Z</time>
      </trkpt>
      <trkpt lat="46.36955" lon="15.61517">
        <ele>287.54139</ele>
        <time>2026-07-10T10:19:19.000Z</time>
      </trkpt>
      <trkpt lat="46.36918" lon="15.61449">
        <ele>284.562613</ele>
        <time>2026-07-10T10:19:25.000Z</time>
      </trkpt>
      <trkpt lat="46.36889" lon="15.61388">
        <ele>281.680038</ele>
        <time>2026-07-10T10:19:30.000Z</time>
      </trkpt>
      <trkpt lat="46.36878" lon="15.61364">
        <ele>280.558288</ele>
        <time>2026-07-10T10:19:32.000Z</time>
      </trkpt>
      <trkpt lat="46.36848" lon="15.61302">
        <ele>277.624567</ele>
        <time>2026-07-10T10:19:37.000Z</time>
      </trkpt>
      <trkpt lat="46.36839" lon="15.61275">
        <ele>276.375019</ele>
        <time>2026-07-10T10:19:39.000Z</time>
      </trkpt>
      <trkpt lat="46.36819" lon="15.61201">
        <ele>273.048666</ele>
        <time>2026-07-10T10:19:44.000Z</time>
      </trkpt>
      <trkpt lat="46.36797" lon="15.61114">
        <ele>269.147488</ele>
        <time>2026-07-10T10:19:50.000Z</time>
      </trkpt>
      <trkpt lat="46.36794" lon="15.611">
        <ele>268.540273</ele>
        <time>2026-07-10T10:19:51.000Z</time>
      </trkpt>
      <trkpt lat="46.36783" lon="15.61061">
        <ele>266.76521</ele>
        <time>2026-07-10T10:19:54.000Z</time>
      </trkpt>
      <trkpt lat="46.36772" lon="15.61038">
        <ele>265.776143</ele>
        <time>2026-07-10T10:19:56.000Z</time>
      </trkpt>
      <trkpt lat="46.36729" lon="15.60972">
        <ele>263.065881</ele>
        <time>2026-07-10T10:20:02.000Z</time>
      </trkpt>
      <trkpt lat="46.36722" lon="15.60961">
        <ele>262.61255</ele>
        <time>2026-07-10T10:20:03.000Z</time>
      </trkpt>
      <trkpt lat="46.36686" lon="15.60895">
        <ele>260.089335</ele>
        <time>2026-07-10T10:20:09.000Z</time>
      </trkpt>
      <trkpt lat="46.36665" lon="15.60839">
        <ele>258.369148</ele>
        <time>2026-07-10T10:20:14.000Z</time>
      </trkpt>
      <trkpt lat="46.36659" lon="15.60793">
        <ele>257.820054</ele>
        <time>2026-07-10T10:20:18.000Z</time>
      </trkpt>
      <trkpt lat="46.36658" lon="15.60782">
        <ele>257.688817</ele>
        <time>2026-07-10T10:20:19.000Z</time>
      </trkpt>
      <trkpt lat="46.3665" lon="15.60741">
        <ele>257.190258</ele>
        <time>2026-07-10T10:20:23.000Z</time>
      </trkpt>
      <trkpt lat="46.36647" lon="15.60733">
        <ele>257.075726</ele>
        <time>2026-07-10T10:20:24.000Z</time>
      </trkpt>
      <trkpt lat="46.36644" lon="15.60725">
        <ele>256.96279</ele>
        <time>2026-07-10T10:20:25.000Z</time>
      </trkpt>
      <trkpt lat="46.36635" lon="15.60711">
        <ele>256.737629</ele>
        <time>2026-07-10T10:20:27.000Z</time>
      </trkpt>
      <trkpt lat="46.3663" lon="15.60705">
        <ele>256.627845</ele>
        <time>2026-07-10T10:20:28.000Z</time>
      </trkpt>
      <trkpt lat="46.36606" lon="15.6068">
        <ele>256.121858</ele>
        <time>2026-07-10T10:20:33.000Z</time>
      </trkpt>
      <trkpt lat="46.36597" lon="15.6067">
        <ele>255.933048</ele>
        <time>2026-07-10T10:20:35.000Z</time>
      </trkpt>
      <trkpt lat="46.36556" lon="15.60626">
        <ele>255.26461</ele>
        <time>2026-07-10T10:20:44.000Z</time>
      </trkpt>
      <trkpt lat="46.36536" lon="15.60605">
        <ele>255.100281</ele>
        <time>2026-07-10T10:20:48.000Z</time>
      </trkpt>
      <trkpt lat="46.36507" lon="15.60574">
        <ele>254.853783</ele>
        <time>2026-07-10T10:20:54.000Z</time>
      </trkpt>
      <trkpt lat="46.36475" lon="15.60532">
        <ele>254.560617</ele>
        <time>2026-07-10T10:21:01.000Z</time>
      </trkpt>
      <trkpt lat="46.36467" lon="15.60518">
        <ele>254.478349</ele>
        <time>2026-07-10T10:21:03.000Z</time>
      </trkpt>
      <trkpt lat="46.36451" lon="15.60481">
        <ele>254.27457</ele>
        <time>2026-07-10T10:21:08.000Z</time>
      </trkpt>
      <trkpt lat="46.36443" lon="15.6046">
        <ele>254.211874</ele>
        <time>2026-07-10T10:21:11.000Z</time>
      </trkpt>
      <trkpt lat="46.36426" lon="15.60405">
        <ele>254.488902</ele>
        <time>2026-07-10T10:21:19.000Z</time>
      </trkpt>
      <trkpt lat="46.36403" lon="15.60345">
        <ele>254.805797</ele>
        <time>2026-07-10T10:21:28.000Z</time>
      </trkpt>
      <trkpt lat="46.36379" lon="15.60304">
        <ele>255.048484</ele>
        <time>2026-07-10T10:21:35.000Z</time>
      </trkpt>
      <trkpt lat="46.36377" lon="15.60298">
        <ele>255.083431</ele>
        <time>2026-07-10T10:21:36.000Z</time>
      </trkpt>
      <trkpt lat="46.36371" lon="15.60269">
        <ele>255.220302</ele>
        <time>2026-07-10T10:21:40.000Z</time>
      </trkpt>
      <trkpt lat="46.36366" lon="15.60209">
        <ele>255.384052</ele>
        <time>2026-07-10T10:21:48.000Z</time>
      </trkpt>
      <trkpt lat="46.36362" lon="15.60156">
        <ele>255.380044</ele>
        <time>2026-07-10T10:21:55.000Z</time>
      </trkpt>
      <trkpt lat="46.36356" lon="15.60102">
        <ele>255.37591</ele>
        <time>2026-07-10T10:22:02.000Z</time>
      </trkpt>
      <trkpt lat="46.36357" lon="15.60086">
        <ele>255.374704</ele>
        <time>2026-07-10T10:22:04.000Z</time>
      </trkpt>
      <trkpt lat="46.3636" lon="15.60071">
        <ele>255.373497</ele>
        <time>2026-07-10T10:22:06.000Z</time>
      </trkpt>
      <trkpt lat="46.36363" lon="15.60064">
        <ele>255.372891</ele>
        <time>2026-07-10T10:22:07.000Z</time>
      </trkpt>
      <trkpt lat="46.36366" lon="15.60058">
        <ele>255.372289</ele>
        <time>2026-07-10T10:22:08.000Z</time>
      </trkpt>
      <trkpt lat="46.3638" lon="15.60043">
        <ele>255.370345</ele>
        <time>2026-07-10T10:22:11.000Z</time>
      </trkpt>
      <trkpt lat="46.36385" lon="15.60037">
        <ele>255.369704</ele>
        <time>2026-07-10T10:22:12.000Z</time>
      </trkpt>
      <trkpt lat="46.36391" lon="15.60023">
        <ele>255.368424</ele>
        <time>2026-07-10T10:22:14.000Z</time>
      </trkpt>
      <trkpt lat="46.36393" lon="15.60015">
        <ele>255.367797</ele>
        <time>2026-07-10T10:22:15.000Z</time>
      </trkpt>
      <trkpt lat="46.36393" lon="15.60006">
        <ele>255.367172</ele>
        <time>2026-07-10T10:22:16.000Z</time>
      </trkpt>
      <trkpt lat="46.36393" lon="15.5999">
        <ele>255.374997</ele>
        <time>2026-07-10T10:22:18.000Z</time>
      </trkpt>
      <trkpt lat="46.36392" lon="15.59982">
        <ele>255.397219</ele>
        <time>2026-07-10T10:22:19.000Z</time>
      </trkpt>
      <trkpt lat="46.36386" lon="15.59906">
        <ele>255.603502</ele>
        <time>2026-07-10T10:22:29.000Z</time>
      </trkpt>
      <trkpt lat="46.36385" lon="15.59892">
        <ele>255.641438</ele>
        <time>2026-07-10T10:22:31.000Z</time>
      </trkpt>
      <trkpt lat="46.36385" lon="15.59885">
        <ele>255.659407</ele>
        <time>2026-07-10T10:22:32.000Z</time>
      </trkpt>
      <trkpt lat="46.36385" lon="15.59866">
        <ele>255.710846</ele>
        <time>2026-07-10T10:22:35.000Z</time>
      </trkpt>
      <trkpt lat="46.36386" lon="15.59861">
        <ele>255.724633</ele>
        <time>2026-07-10T10:22:36.000Z</time>
      </trkpt>
      <trkpt lat="46.36388" lon="15.5985">
        <ele>255.755628</ele>
        <time>2026-07-10T10:22:40.000Z</time>
      </trkpt>
      <trkpt lat="46.3639" lon="15.59838">
        <ele>255.787109</ele>
        <time>2026-07-10T10:22:46.000Z</time>
      </trkpt>
      <trkpt lat="46.36381" lon="15.59824">
        <ele>255.839118</ele>
        <time>2026-07-10T10:22:50.000Z</time>
      </trkpt>
      <trkpt lat="46.36361" lon="15.59807">
        <ele>255.927516</ele>
        <time>2026-07-10T10:22:55.000Z</time>
      </trkpt>
      <trkpt lat="46.36356" lon="15.59797">
        <ele>255.961051</ele>
        <time>2026-07-10T10:22:57.000Z</time>
      </trkpt>
      <trkpt lat="46.36348" lon="15.59781">
        <ele>256.015463</ele>
        <time>2026-07-10T10:23:00.000Z</time>
      </trkpt>
      <trkpt lat="46.36345" lon="15.59768">
        <ele>256.052421</ele>
        <time>2026-07-10T10:23:02.000Z</time>
      </trkpt>
      <trkpt lat="46.36344" lon="15.59761">
        <ele>256.053645</ele>
        <time>2026-07-10T10:23:03.000Z</time>
      </trkpt>
      <trkpt lat="46.36343" lon="15.59747">
        <ele>255.995381</ele>
        <time>2026-07-10T10:23:05.000Z</time>
      </trkpt>
      <trkpt lat="46.36343" lon="15.59725">
        <ele>255.902837</ele>
        <time>2026-07-10T10:23:08.000Z</time>
      </trkpt>
      <trkpt lat="46.3634" lon="15.5967">
        <ele>255.670888</ele>
        <time>2026-07-10T10:23:15.000Z</time>
      </trkpt>
      <trkpt lat="46.36339" lon="15.59656">
        <ele>255.610892</ele>
        <time>2026-07-10T10:23:17.000Z</time>
      </trkpt>
      <trkpt lat="46.36337" lon="15.5962">
        <ele>255.459872</ele>
        <time>2026-07-10T10:23:22.000Z</time>
      </trkpt>
      <trkpt lat="46.36336" lon="15.59613">
        <ele>255.429389</ele>
        <time>2026-07-10T10:23:23.000Z</time>
      </trkpt>
      <trkpt lat="46.36335" lon="15.59593">
        <ele>255.344343</ele>
        <time>2026-07-10T10:23:26.000Z</time>
      </trkpt>
      <trkpt lat="46.36331" lon="15.59537">
        <ele>255.107702</ele>
        <time>2026-07-10T10:23:34.000Z</time>
      </trkpt>
      <trkpt lat="46.3633" lon="15.59523">
        <ele>255.047065</ele>
        <time>2026-07-10T10:23:36.000Z</time>
      </trkpt>
      <trkpt lat="46.36325" lon="15.59462">
        <ele>254.992173</ele>
        <time>2026-07-10T10:23:44.000Z</time>
      </trkpt>
      <trkpt lat="46.36319" lon="15.5938">
        <ele>255.038064</ele>
        <time>2026-07-10T10:23:54.000Z</time>
      </trkpt>
      <trkpt lat="46.36312" lon="15.59303">
        <ele>255.081569</ele>
        <time>2026-07-10T10:24:04.000Z</time>
      </trkpt>
      <trkpt lat="46.36307" lon="15.59251">
        <ele>255.111362</ele>
        <time>2026-07-10T10:24:12.000Z</time>
      </trkpt>
      <trkpt lat="46.36303" lon="15.59216">
        <ele>255.294942</ele>
        <time>2026-07-10T10:24:18.000Z</time>
      </trkpt>
      <trkpt lat="46.36304" lon="15.59186">
        <ele>255.477171</ele>
        <time>2026-07-10T10:24:24.000Z</time>
      </trkpt>
      <trkpt lat="46.36306" lon="15.5917">
        <ele>255.576435</ele>
        <time>2026-07-10T10:24:26.000Z</time>
      </trkpt>
      <trkpt lat="46.36307" lon="15.59162">
        <ele>255.626009</ele>
        <time>2026-07-10T10:24:27.000Z</time>
      </trkpt>
      <trkpt lat="46.36303" lon="15.59125">
        <ele>255.854636</ele>
        <time>2026-07-10T10:24:32.000Z</time>
      </trkpt>
      <trkpt lat="46.36294" lon="15.591">
        <ele>256.027048</ele>
        <time>2026-07-10T10:24:36.000Z</time>
      </trkpt>
      <trkpt lat="46.36291" lon="15.59095">
        <ele>256.066745</ele>
        <time>2026-07-10T10:24:37.000Z</time>
      </trkpt>
      <trkpt lat="46.36289" lon="15.5909">
        <ele>256.103937</ele>
        <time>2026-07-10T10:24:38.000Z</time>
      </trkpt>
      <trkpt lat="46.36286" lon="15.59074">
        <ele>256.201758</ele>
        <time>2026-07-10T10:24:41.000Z</time>
      </trkpt>
      <trkpt lat="46.36285" lon="15.59063">
        <ele>256.271441</ele>
        <time>2026-07-10T10:24:43.000Z</time>
      </trkpt>
      <trkpt lat="46.36287" lon="15.59038">
        <ele>256.427066</ele>
        <time>2026-07-10T10:24:47.000Z</time>
      </trkpt>
      <trkpt lat="46.36287" lon="15.59031">
        <ele>256.466747</ele>
        <time>2026-07-10T10:24:48.000Z</time>
      </trkpt>
      <trkpt lat="46.36287" lon="15.5902">
        <ele>256.537583</ele>
        <time>2026-07-10T10:24:50.000Z</time>
      </trkpt>
      <trkpt lat="46.36286" lon="15.59014">
        <ele>256.574594</ele>
        <time>2026-07-10T10:24:51.000Z</time>
      </trkpt>
      <trkpt lat="46.36283" lon="15.58974">
        <ele>256.876272</ele>
        <time>2026-07-10T10:24:57.000Z</time>
      </trkpt>
      <trkpt lat="46.36283" lon="15.58959">
        <ele>257.018429</ele>
        <time>2026-07-10T10:24:59.000Z</time>
      </trkpt>
      <trkpt lat="46.36282" lon="15.58945">
        <ele>257.149872</ele>
        <time>2026-07-10T10:25:01.000Z</time>
      </trkpt>
      <trkpt lat="46.36281" lon="15.58939">
        <ele>257.214107</ele>
        <time>2026-07-10T10:25:02.000Z</time>
      </trkpt>
      <trkpt lat="46.36281" lon="15.58925">
        <ele>257.34502</ele>
        <time>2026-07-10T10:25:04.000Z</time>
      </trkpt>
      <trkpt lat="46.36281" lon="15.58911">
        <ele>257.473714</ele>
        <time>2026-07-10T10:25:06.000Z</time>
      </trkpt>
      <trkpt lat="46.36279" lon="15.58897">
        <ele>257.607937</ele>
        <time>2026-07-10T10:25:08.000Z</time>
      </trkpt>
      <trkpt lat="46.36274" lon="15.5887">
        <ele>257.868587</ele>
        <time>2026-07-10T10:25:12.000Z</time>
      </trkpt>
      <trkpt lat="46.36274" lon="15.58864">
        <ele>257.928758</ele>
        <time>2026-07-10T10:25:13.000Z</time>
      </trkpt>
      <trkpt lat="46.36273" lon="15.58857">
        <ele>257.98919</ele>
        <time>2026-07-10T10:25:14.000Z</time>
      </trkpt>
      <trkpt lat="46.36272" lon="15.58846">
        <ele>258.099393</ele>
        <time>2026-07-10T10:25:16.000Z</time>
      </trkpt>
      <trkpt lat="46.36273" lon="15.58834">
        <ele>258.206899</ele>
        <time>2026-07-10T10:25:18.000Z</time>
      </trkpt>
      <trkpt lat="46.36275" lon="15.58804">
        <ele>258.491516</ele>
        <time>2026-07-10T10:25:23.000Z</time>
      </trkpt>
      <trkpt lat="46.36274" lon="15.58774">
        <ele>258.769825</ele>
        <time>2026-07-10T10:25:28.000Z</time>
      </trkpt>
      <trkpt lat="46.36273" lon="15.58768">
        <ele>258.83008</ele>
        <time>2026-07-10T10:25:29.000Z</time>
      </trkpt>
      <trkpt lat="46.36273" lon="15.58761">
        <ele>258.89325</ele>
        <time>2026-07-10T10:25:30.000Z</time>
      </trkpt>
      <trkpt lat="46.36274" lon="15.58749">
        <ele>259.01386</ele>
        <time>2026-07-10T10:25:32.000Z</time>
      </trkpt>
      <trkpt lat="46.36272" lon="15.58736">
        <ele>259.131884</ele>
        <time>2026-07-10T10:25:34.000Z</time>
      </trkpt>
      <trkpt lat="46.36272" lon="15.5873">
        <ele>259.18313</ele>
        <time>2026-07-10T10:25:35.000Z</time>
      </trkpt>
      <trkpt lat="46.36273" lon="15.58706">
        <ele>259.357444</ele>
        <time>2026-07-10T10:25:39.000Z</time>
      </trkpt>
      <trkpt lat="46.36273" lon="15.58653">
        <ele>259.745326</ele>
        <time>2026-07-10T10:25:47.000Z</time>
      </trkpt>
      <trkpt lat="46.36271" lon="15.5864">
        <ele>259.843134</ele>
        <time>2026-07-10T10:25:49.000Z</time>
      </trkpt>
      <trkpt lat="46.36269" lon="15.58614">
        <ele>260.038614</ele>
        <time>2026-07-10T10:25:53.000Z</time>
      </trkpt>
      <trkpt lat="46.36269" lon="15.58607">
        <ele>260.085201</ele>
        <time>2026-07-10T10:25:54.000Z</time>
      </trkpt>
      <trkpt lat="46.36266" lon="15.58594">
        <ele>260.186341</ele>
        <time>2026-07-10T10:25:56.000Z</time>
      </trkpt>
      <trkpt lat="46.36266" lon="15.58588">
        <ele>260.231901</ele>
        <time>2026-07-10T10:25:57.000Z</time>
      </trkpt>
      <trkpt lat="46.36266" lon="15.58582">
        <ele>260.278182</ele>
        <time>2026-07-10T10:25:58.000Z</time>
      </trkpt>
      <trkpt lat="46.36266" lon="15.58569">
        <ele>260.3708</ele>
        <time>2026-07-10T10:26:00.000Z</time>
      </trkpt>
      <trkpt lat="46.36263" lon="15.58556">
        <ele>260.47506</ele>
        <time>2026-07-10T10:26:02.000Z</time>
      </trkpt>
      <trkpt lat="46.36261" lon="15.58532">
        <ele>260.64841</ele>
        <time>2026-07-10T10:26:06.000Z</time>
      </trkpt>
      <trkpt lat="46.36259" lon="15.58519">
        <ele>260.745095</ele>
        <time>2026-07-10T10:26:08.000Z</time>
      </trkpt>
      <trkpt lat="46.36258" lon="15.58512">
        <ele>260.79596</ele>
        <time>2026-07-10T10:26:09.000Z</time>
      </trkpt>
      <trkpt lat="46.36259" lon="15.58492">
        <ele>260.947533</ele>
        <time>2026-07-10T10:26:12.000Z</time>
      </trkpt>
      <trkpt lat="46.36261" lon="15.58474">
        <ele>261.083707</ele>
        <time>2026-07-10T10:26:15.000Z</time>
      </trkpt>
      <trkpt lat="46.36262" lon="15.58462">
        <ele>261.179875</ele>
        <time>2026-07-10T10:26:17.000Z</time>
      </trkpt>
      <trkpt lat="46.36261" lon="15.58455">
        <ele>261.233829</ele>
        <time>2026-07-10T10:26:18.000Z</time>
      </trkpt>
      <trkpt lat="46.36259" lon="15.58431">
        <ele>261.436659</ele>
        <time>2026-07-10T10:26:22.000Z</time>
      </trkpt>
      <trkpt lat="46.36259" lon="15.58424">
        <ele>261.490704</ele>
        <time>2026-07-10T10:26:23.000Z</time>
      </trkpt>
      <trkpt lat="46.36251" lon="15.58381">
        <ele>261.854167</ele>
        <time>2026-07-10T10:26:30.000Z</time>
      </trkpt>
      <trkpt lat="46.36249" lon="15.58351">
        <ele>262.099326</ele>
        <time>2026-07-10T10:26:35.000Z</time>
      </trkpt>
      <trkpt lat="46.36248" lon="15.58346">
        <ele>262.14575</ele>
        <time>2026-07-10T10:26:36.000Z</time>
      </trkpt>
      <trkpt lat="46.36246" lon="15.58334">
        <ele>262.2417</ele>
        <time>2026-07-10T10:26:38.000Z</time>
      </trkpt>
      <trkpt lat="46.36246" lon="15.58323">
        <ele>262.336389</ele>
        <time>2026-07-10T10:26:40.000Z</time>
      </trkpt>
      <trkpt lat="46.36242" lon="15.58287">
        <ele>262.629649</ele>
        <time>2026-07-10T10:26:46.000Z</time>
      </trkpt>
      <trkpt lat="46.3624" lon="15.58255">
        <ele>262.890316</ele>
        <time>2026-07-10T10:26:51.000Z</time>
      </trkpt>
      <trkpt lat="46.3624" lon="15.58243">
        <ele>262.989862</ele>
        <time>2026-07-10T10:26:53.000Z</time>
      </trkpt>
      <trkpt lat="46.36239" lon="15.58237">
        <ele>263.041603</ele>
        <time>2026-07-10T10:26:54.000Z</time>
      </trkpt>
      <trkpt lat="46.36238" lon="15.58231">
        <ele>263.092522</ele>
        <time>2026-07-10T10:26:55.000Z</time>
      </trkpt>
      <trkpt lat="46.36238" lon="15.58218">
        <ele>263.198487</ele>
        <time>2026-07-10T10:26:57.000Z</time>
      </trkpt>
      <trkpt lat="46.36239" lon="15.58203">
        <ele>263.346396</ele>
        <time>2026-07-10T10:26:59.000Z</time>
      </trkpt>
      <trkpt lat="46.36239" lon="15.58184">
        <ele>263.545153</ele>
        <time>2026-07-10T10:27:02.000Z</time>
      </trkpt>
      <trkpt lat="46.36239" lon="15.58171">
        <ele>263.674651</ele>
        <time>2026-07-10T10:27:04.000Z</time>
      </trkpt>
      <trkpt lat="46.36241" lon="15.58157">
        <ele>263.809715</ele>
        <time>2026-07-10T10:27:06.000Z</time>
      </trkpt>
      <trkpt lat="46.36244" lon="15.58152">
        <ele>263.879212</ele>
        <time>2026-07-10T10:27:07.000Z</time>
      </trkpt>
      <trkpt lat="46.36243" lon="15.58145">
        <ele>263.946482</ele>
        <time>2026-07-10T10:27:08.000Z</time>
      </trkpt>
      <trkpt lat="46.36241" lon="15.58132">
        <ele>264.081268</ele>
        <time>2026-07-10T10:27:10.000Z</time>
      </trkpt>
      <trkpt lat="46.36241" lon="15.58125">
        <ele>264.151275</ele>
        <time>2026-07-10T10:27:11.000Z</time>
      </trkpt>
      <trkpt lat="46.36241" lon="15.58118">
        <ele>264.223548</ele>
        <time>2026-07-10T10:27:12.000Z</time>
      </trkpt>
      <trkpt lat="46.36244" lon="15.58086">
        <ele>264.545162</ele>
        <time>2026-07-10T10:27:17.000Z</time>
      </trkpt>
      <trkpt lat="46.36247" lon="15.58057">
        <ele>264.844683</ele>
        <time>2026-07-10T10:27:22.000Z</time>
      </trkpt>
      <trkpt lat="46.36249" lon="15.58044">
        <ele>264.975511</ele>
        <time>2026-07-10T10:27:24.000Z</time>
      </trkpt>
      <trkpt lat="46.3625" lon="15.58031">
        <ele>265.107815</ele>
        <time>2026-07-10T10:27:26.000Z</time>
      </trkpt>
      <trkpt lat="46.3625" lon="15.58025">
        <ele>265.164103</ele>
        <time>2026-07-10T10:27:27.000Z</time>
      </trkpt>
      <trkpt lat="46.36246" lon="15.58006">
        <ele>265.364795</ele>
        <time>2026-07-10T10:27:30.000Z</time>
      </trkpt>
      <trkpt lat="46.36244" lon="15.57994">
        <ele>265.490693</ele>
        <time>2026-07-10T10:27:32.000Z</time>
      </trkpt>
      <trkpt lat="46.36244" lon="15.57983">
        <ele>265.603719</ele>
        <time>2026-07-10T10:27:34.000Z</time>
      </trkpt>
      <trkpt lat="46.3624" lon="15.57965">
        <ele>265.789113</ele>
        <time>2026-07-10T10:27:37.000Z</time>
      </trkpt>
      <trkpt lat="46.36232" lon="15.57936">
        <ele>266.608482</ele>
        <time>2026-07-10T10:27:42.000Z</time>
      </trkpt>
      <trkpt lat="46.36224" lon="15.57894">
        <ele>267.809628</ele>
        <time>2026-07-10T10:27:49.000Z</time>
      </trkpt>
      <trkpt lat="46.36219" lon="15.57871">
        <ele>268.459326</ele>
        <time>2026-07-10T10:27:53.000Z</time>
      </trkpt>
      <trkpt lat="46.36214" lon="15.57841">
        <ele>269.305628</ele>
        <time>2026-07-10T10:27:58.000Z</time>
      </trkpt>
      <trkpt lat="46.36213" lon="15.57829">
        <ele>269.649468</ele>
        <time>2026-07-10T10:28:00.000Z</time>
      </trkpt>
      <trkpt lat="46.36209" lon="15.57807">
        <ele>270.26741</ele>
        <time>2026-07-10T10:28:03.000Z</time>
      </trkpt>
      <trkpt lat="46.36209" lon="15.57801">
        <ele>270.424648</ele>
        <time>2026-07-10T10:28:04.000Z</time>
      </trkpt>
      <trkpt lat="46.36208" lon="15.57768">
        <ele>271.319633</ele>
        <time>2026-07-10T10:28:09.000Z</time>
      </trkpt>
      <trkpt lat="46.36208" lon="15.5776">
        <ele>271.539452</ele>
        <time>2026-07-10T10:28:10.000Z</time>
      </trkpt>
      <trkpt lat="46.36207" lon="15.57754">
        <ele>271.704805</ele>
        <time>2026-07-10T10:28:11.000Z</time>
      </trkpt>
      <trkpt lat="46.36201" lon="15.57738">
        <ele>272.203079</ele>
        <time>2026-07-10T10:28:14.000Z</time>
      </trkpt>
      <trkpt lat="46.36194" lon="15.57706">
        <ele>272.973267</ele>
        <time>2026-07-10T10:28:19.000Z</time>
      </trkpt>
      <trkpt lat="46.36175" lon="15.57669">
        <ele>273.177038</ele>
        <time>2026-07-10T10:28:26.000Z</time>
      </trkpt>
      <trkpt lat="46.3616" lon="15.57632">
        <ele>273.365611</ele>
        <time>2026-07-10T10:28:33.000Z</time>
      </trkpt>
      <trkpt lat="46.3615" lon="15.57603">
        <ele>273.511434</ele>
        <time>2026-07-10T10:28:39.000Z</time>
      </trkpt>
      <trkpt lat="46.36139" lon="15.57566">
        <ele>273.688024</ele>
        <time>2026-07-10T10:28:46.000Z</time>
      </trkpt>
      <trkpt lat="46.36122" lon="15.57536">
        <ele>273.85734</ele>
        <time>2026-07-10T10:28:52.000Z</time>
      </trkpt>
      <trkpt lat="46.36102" lon="15.57501">
        <ele>274.059474</ele>
        <time>2026-07-10T10:29:00.000Z</time>
      </trkpt>
      <trkpt lat="46.36099" lon="15.57495">
        <ele>274.093683</ele>
        <time>2026-07-10T10:29:02.000Z</time>
      </trkpt>
      <trkpt lat="46.36092" lon="15.57487">
        <ele>274.128327</ele>
        <time>2026-07-10T10:29:04.000Z</time>
      </trkpt>
      <trkpt lat="46.3607" lon="15.57461">
        <ele>274.24554</ele>
        <time>2026-07-10T10:29:10.000Z</time>
      </trkpt>
      <trkpt lat="46.36044" lon="15.57429">
        <ele>274.381776</ele>
        <time>2026-07-10T10:29:18.000Z</time>
      </trkpt>
      <trkpt lat="46.36022" lon="15.57388">
        <ele>274.528593</ele>
        <time>2026-07-10T10:29:27.000Z</time>
      </trkpt>
      <trkpt lat="46.36009" lon="15.57369">
        <ele>274.602273</ele>
        <time>2026-07-10T10:29:32.000Z</time>
      </trkpt>
      <trkpt lat="46.36007" lon="15.57366">
        <ele>274.613781</ele>
        <time>2026-07-10T10:29:33.000Z</time>
      </trkpt>
      <trkpt lat="46.36002" lon="15.57348">
        <ele>274.668129</ele>
        <time>2026-07-10T10:29:36.000Z</time>
      </trkpt>
      <trkpt lat="46.35986" lon="15.57298">
        <ele>274.822427</ele>
        <time>2026-07-10T10:29:45.000Z</time>
      </trkpt>
      <trkpt lat="46.35971" lon="15.57275">
        <ele>275.363921</ele>
        <time>2026-07-10T10:29:50.000Z</time>
      </trkpt>
      <trkpt lat="46.35952" lon="15.57247">
        <ele>276.066869</ele>
        <time>2026-07-10T10:29:56.000Z</time>
      </trkpt>
      <trkpt lat="46.35942" lon="15.57233">
        <ele>276.421281</ele>
        <time>2026-07-10T10:29:59.000Z</time>
      </trkpt>
      <trkpt lat="46.35934" lon="15.57222">
        <ele>276.70986</ele>
        <time>2026-07-10T10:30:02.000Z</time>
      </trkpt>
      <trkpt lat="46.35929" lon="15.57213">
        <ele>276.914821</ele>
        <time>2026-07-10T10:30:04.000Z</time>
      </trkpt>
      <trkpt lat="46.35925" lon="15.57203">
        <ele>277.122179</ele>
        <time>2026-07-10T10:30:06.000Z</time>
      </trkpt>
      <trkpt lat="46.35923" lon="15.57198">
        <ele>277.226556</ele>
        <time>2026-07-10T10:30:07.000Z</time>
      </trkpt>
      <trkpt lat="46.35909" lon="15.57158">
        <ele>278.019643</ele>
        <time>2026-07-10T10:30:15.000Z</time>
      </trkpt>
      <trkpt lat="46.35898" lon="15.57124">
        <ele>278.683699</ele>
        <time>2026-07-10T10:30:21.000Z</time>
      </trkpt>
      <trkpt lat="46.35893" lon="15.57102">
        <ele>279.101672</ele>
        <time>2026-07-10T10:30:25.000Z</time>
      </trkpt>
      <trkpt lat="46.35892" lon="15.57084">
        <ele>279.422208</ele>
        <time>2026-07-10T10:30:28.000Z</time>
      </trkpt>
      <trkpt lat="46.35895" lon="15.57064">
        <ele>280.005179</ele>
        <time>2026-07-10T10:30:32.000Z</time>
      </trkpt>
      <trkpt lat="46.35904" lon="15.57045">
        <ele>280.729689</ele>
        <time>2026-07-10T10:30:36.000Z</time>
      </trkpt>
      <trkpt lat="46.35914" lon="15.5703">
        <ele>281.355788</ele>
        <time>2026-07-10T10:30:40.000Z</time>
      </trkpt>
      <trkpt lat="46.35923" lon="15.57012">
        <ele>282.025922</ele>
        <time>2026-07-10T10:30:45.000Z</time>
      </trkpt>
      <trkpt lat="46.35926" lon="15.57007">
        <ele>282.210171</ele>
        <time>2026-07-10T10:30:47.000Z</time>
      </trkpt>
      <trkpt lat="46.35925" lon="15.57004">
        <ele>282.299034</ele>
        <time>2026-07-10T10:30:49.000Z</time>
      </trkpt>
      <trkpt lat="46.35924" lon="15.57004">
        <ele>282.347616</ele>
        <time>2026-07-10T10:30:50.000Z</time>
      </trkpt>
      <trkpt lat="46.35909" lon="15.56998">
        <ele>282.999289</ele>
        <time>2026-07-10T10:31:45.000Z</time>
      </trkpt>
      <trkpt lat="46.35902" lon="15.56998">
        <ele>283.345955</ele>
        <time>2026-07-10T10:31:47.000Z</time>
      </trkpt>
      <trkpt lat="46.35886" lon="15.57005">
        <ele>284.055639</ele>
        <time>2026-07-10T10:31:52.000Z</time>
      </trkpt>
      <trkpt lat="46.35872" lon="15.57006">
        <ele>284.673996</ele>
        <time>2026-07-10T10:31:55.000Z</time>
      </trkpt>
      <trkpt lat="46.35865" lon="15.57006">
        <ele>284.963282</ele>
        <time>2026-07-10T10:31:56.000Z</time>
      </trkpt>
      <trkpt lat="46.3586" lon="15.57008">
        <ele>285.214648</ele>
        <time>2026-07-10T10:31:57.000Z</time>
      </trkpt>
      <trkpt lat="46.35842" lon="15.57009">
        <ele>285.982693</ele>
        <time>2026-07-10T10:32:00.000Z</time>
      </trkpt>
      <trkpt lat="46.35832" lon="15.57011">
        <ele>286.438501</ele>
        <time>2026-07-10T10:32:02.000Z</time>
      </trkpt>
      <trkpt lat="46.35819" lon="15.57014">
        <ele>286.998998</ele>
        <time>2026-07-10T10:32:04.000Z</time>
      </trkpt>
      <trkpt lat="46.35784" lon="15.57021">
        <ele>287.173066</ele>
        <time>2026-07-10T10:32:10.000Z</time>
      </trkpt>
      <trkpt lat="46.35779" lon="15.57024">
        <ele>287.141726</ele>
        <time>2026-07-10T10:32:11.000Z</time>
      </trkpt>
      <trkpt lat="46.3577" lon="15.57035">
        <ele>287.080007</ele>
        <time>2026-07-10T10:32:13.000Z</time>
      </trkpt>
      <trkpt lat="46.35767" lon="15.57041">
        <ele>287.051894</ele>
        <time>2026-07-10T10:32:14.000Z</time>
      </trkpt>
      <trkpt lat="46.35751" lon="15.5707">
        <ele>286.912894</ele>
        <time>2026-07-10T10:32:19.000Z</time>
      </trkpt>
      <trkpt lat="46.35749" lon="15.57075">
        <ele>286.887619</ele>
        <time>2026-07-10T10:32:20.000Z</time>
      </trkpt>
      <trkpt lat="46.35735" lon="15.57108">
        <ele>286.742367</ele>
        <time>2026-07-10T10:32:26.000Z</time>
      </trkpt>
      <trkpt lat="46.35732" lon="15.57113">
        <ele>286.718181</ele>
        <time>2026-07-10T10:32:27.000Z</time>
      </trkpt>
      <trkpt lat="46.35725" lon="15.57119">
        <ele>286.672575</ele>
        <time>2026-07-10T10:32:29.000Z</time>
      </trkpt>
      <trkpt lat="46.35721" lon="15.57121">
        <ele>286.651826</ele>
        <time>2026-07-10T10:32:30.000Z</time>
      </trkpt>
      <trkpt lat="46.35718" lon="15.5712">
        <ele>286.630371</ele>
        <time>2026-07-10T10:32:31.000Z</time>
      </trkpt>
      <trkpt lat="46.35711" lon="15.57118">
        <ele>286.590766</ele>
        <time>2026-07-10T10:32:33.000Z</time>
      </trkpt>
      <trkpt lat="46.35708" lon="15.57115">
        <ele>286.571365</ele>
        <time>2026-07-10T10:32:34.000Z</time>
      </trkpt>
      <trkpt lat="46.35702" lon="15.57108">
        <ele>286.529408</ele>
        <time>2026-07-10T10:32:36.000Z</time>
      </trkpt>
      <trkpt lat="46.35694" lon="15.57095">
        <ele>286.465516</ele>
        <time>2026-07-10T10:32:39.000Z</time>
      </trkpt>
      <trkpt lat="46.35692" lon="15.57091">
        <ele>286.445777</ele>
        <time>2026-07-10T10:32:40.000Z</time>
      </trkpt>
      <trkpt lat="46.35679" lon="15.5707">
        <ele>286.334122</ele>
        <time>2026-07-10T10:32:45.000Z</time>
      </trkpt>
      <trkpt lat="46.35671" lon="15.57058">
        <ele>286.191593</ele>
        <time>2026-07-10T10:32:48.000Z</time>
      </trkpt>
      <trkpt lat="46.35653" lon="15.57038">
        <ele>285.919312</ele>
        <time>2026-07-10T10:32:53.000Z</time>
      </trkpt>
      <trkpt lat="46.35639" lon="15.57025">
        <ele>285.707802</ele>
        <time>2026-07-10T10:32:57.000Z</time>
      </trkpt>
      <trkpt lat="46.35635" lon="15.57023">
        <ele>285.657966</ele>
        <time>2026-07-10T10:32:58.000Z</time>
      </trkpt>
      <trkpt lat="46.35615" lon="15.57015">
        <ele>285.401375</ele>
        <time>2026-07-10T10:33:03.000Z</time>
      </trkpt>
      <trkpt lat="46.35586" lon="15.57006">
        <ele>285.036188</ele>
        <time>2026-07-10T10:33:11.000Z</time>
      </trkpt>
      <trkpt lat="46.35559" lon="15.56997">
        <ele>284.695277</ele>
        <time>2026-07-10T10:33:19.000Z</time>
      </trkpt>
      <trkpt lat="46.35542" lon="15.56992">
        <ele>284.469634</ele>
        <time>2026-07-10T10:33:24.000Z</time>
      </trkpt>
      <trkpt lat="46.35538" lon="15.5699">
        <ele>284.422495</ele>
        <time>2026-07-10T10:33:25.000Z</time>
      </trkpt>
      <trkpt lat="46.3551" lon="15.56986">
        <ele>284.204288</ele>
        <time>2026-07-10T10:33:33.000Z</time>
      </trkpt>
      <trkpt lat="46.35495" lon="15.5699">
        <ele>284.697233</ele>
        <time>2026-07-10T10:33:38.000Z</time>
      </trkpt>
      <trkpt lat="46.35473" lon="15.56997">
        <ele>285.375246</ele>
        <time>2026-07-10T10:33:45.000Z</time>
      </trkpt>
      <trkpt lat="46.35451" lon="15.57005">
        <ele>286.080699</ele>
        <time>2026-07-10T10:33:53.000Z</time>
      </trkpt>
      <trkpt lat="46.35441" lon="15.57012">
        <ele>286.421245</ele>
        <time>2026-07-10T10:33:57.000Z</time>
      </trkpt>
      <trkpt lat="46.35436" lon="15.57015">
        <ele>286.595617</ele>
        <time>2026-07-10T10:33:59.000Z</time>
      </trkpt>
      <trkpt lat="46.35425" lon="15.5702">
        <ele>286.937641</ele>
        <time>2026-07-10T10:34:03.000Z</time>
      </trkpt>
      <trkpt lat="46.35408" lon="15.57029">
        <ele>287.505103</ele>
        <time>2026-07-10T10:34:10.000Z</time>
      </trkpt>
      <trkpt lat="46.35398" lon="15.57034">
        <ele>287.828433</ele>
        <time>2026-07-10T10:34:14.000Z</time>
      </trkpt>
      <trkpt lat="46.3539" lon="15.57038">
        <ele>288.088661</ele>
        <time>2026-07-10T10:34:17.000Z</time>
      </trkpt>
      <trkpt lat="46.35385" lon="15.5704">
        <ele>288.259073</ele>
        <time>2026-07-10T10:34:19.000Z</time>
      </trkpt>
      <trkpt lat="46.35364" lon="15.57049">
        <ele>288.946084</ele>
        <time>2026-07-10T10:34:27.000Z</time>
      </trkpt>
      <trkpt lat="46.35345" lon="15.57055">
        <ele>289.535051</ele>
        <time>2026-07-10T10:34:34.000Z</time>
      </trkpt>
      <trkpt lat="46.3533" lon="15.57059">
        <ele>290.347149</ele>
        <time>2026-07-10T10:34:41.000Z</time>
      </trkpt>
      <trkpt lat="46.35313" lon="15.57063">
        <ele>291.338102</ele>
        <time>2026-07-10T10:34:49.000Z</time>
      </trkpt>
      <trkpt lat="46.35296" lon="15.57067">
        <ele>292.380522</ele>
        <time>2026-07-10T10:34:57.000Z</time>
      </trkpt>
      <trkpt lat="46.35294" lon="15.57067">
        <ele>292.505601</ele>
        <time>2026-07-10T10:34:58.000Z</time>
      </trkpt>
      <trkpt lat="46.35273" lon="15.57067">
        <ele>293.720728</ele>
        <time>2026-07-10T10:35:08.000Z</time>
      </trkpt>
      <trkpt lat="46.35251" lon="15.5706">
        <ele>295.038474</ele>
        <time>2026-07-10T10:35:19.000Z</time>
      </trkpt>
      <trkpt lat="46.3523" lon="15.57047">
        <ele>296.416093</ele>
        <time>2026-07-10T10:35:30.000Z</time>
      </trkpt>
      <trkpt lat="46.35212" lon="15.57033">
        <ele>297.619894</ele>
        <time>2026-07-10T10:35:40.000Z</time>
      </trkpt>
      <trkpt lat="46.35206" lon="15.57025">
        <ele>298.119162</ele>
        <time>2026-07-10T10:35:44.000Z</time>
      </trkpt>
      <trkpt lat="46.35206" lon="15.57019">
        <ele>298.3612</ele>
        <time>2026-07-10T10:35:46.000Z</time>
      </trkpt>
      <trkpt lat="46.3521" lon="15.57003">
        <ele>299.051563</ele>
        <time>2026-07-10T10:35:52.000Z</time>
      </trkpt>
      <trkpt lat="46.35216" lon="15.56982">
        <ele>299.99807</ele>
        <time>2026-07-10T10:35:59.000Z</time>
      </trkpt>
      <trkpt lat="46.35219" lon="15.56957">
        <ele>299.948234</ele>
        <time>2026-07-10T10:36:04.000Z</time>
      </trkpt>
      <trkpt lat="46.35213" lon="15.56943">
        <ele>299.610173</ele>
        <time>2026-07-10T10:36:06.000Z</time>
      </trkpt>
      <trkpt lat="46.35207" lon="15.56931">
        <ele>299.254681</ele>
        <time>2026-07-10T10:36:08.000Z</time>
      </trkpt>
      <trkpt lat="46.35181" lon="15.56887">
        <ele>297.963914</ele>
        <time>2026-07-10T10:36:14.000Z</time>
      </trkpt>
      <trkpt lat="46.35158" lon="15.5685">
        <ele>296.855733</ele>
        <time>2026-07-10T10:36:18.000Z</time>
      </trkpt>
      <trkpt lat="46.35145" lon="15.56829">
        <ele>296.22899</ele>
        <time>2026-07-10T10:36:20.000Z</time>
      </trkpt>
      <trkpt lat="46.35109" lon="15.56767">
        <ele>294.328729</ele>
        <time>2026-07-10T10:36:26.000Z</time>
      </trkpt>
      <trkpt lat="46.35098" lon="15.56743">
        <ele>293.332497</ele>
        <time>2026-07-10T10:36:29.000Z</time>
      </trkpt>
      <trkpt lat="46.35096" lon="15.56728">
        <ele>292.774544</ele>
        <time>2026-07-10T10:36:31.000Z</time>
      </trkpt>
      <trkpt lat="46.35098" lon="15.56712">
        <ele>292.190335</ele>
        <time>2026-07-10T10:36:33.000Z</time>
      </trkpt>
      <trkpt lat="46.35104" lon="15.56697">
        <ele>291.587619</ele>
        <time>2026-07-10T10:36:35.000Z</time>
      </trkpt>
      <trkpt lat="46.35114" lon="15.56675">
        <ele>290.648588</ele>
        <time>2026-07-10T10:36:38.000Z</time>
      </trkpt>
      <trkpt lat="46.35126" lon="15.56645">
        <ele>289.382054</ele>
        <time>2026-07-10T10:36:42.000Z</time>
      </trkpt>
      <trkpt lat="46.3513" lon="15.56629">
        <ele>288.795448</ele>
        <time>2026-07-10T10:36:44.000Z</time>
      </trkpt>
      <trkpt lat="46.35131" lon="15.56621">
        <ele>288.519647</ele>
        <time>2026-07-10T10:36:45.000Z</time>
      </trkpt>
      <trkpt lat="46.35131" lon="15.56614">
        <ele>288.24762</ele>
        <time>2026-07-10T10:36:46.000Z</time>
      </trkpt>
      <trkpt lat="46.35128" lon="15.56593">
        <ele>287.482628</ele>
        <time>2026-07-10T10:36:49.000Z</time>
      </trkpt>
      <trkpt lat="46.35124" lon="15.5658">
        <ele>286.976646</ele>
        <time>2026-07-10T10:36:51.000Z</time>
      </trkpt>
      <trkpt lat="46.35117" lon="15.56571">
        <ele>286.487943</ele>
        <time>2026-07-10T10:36:53.000Z</time>
      </trkpt>
      <trkpt lat="46.35105" lon="15.56557">
        <ele>285.715103</ele>
        <time>2026-07-10T10:36:56.000Z</time>
      </trkpt>
      <trkpt lat="46.35083" lon="15.56535">
        <ele>284.817837</ele>
        <time>2026-07-10T10:37:01.000Z</time>
      </trkpt>
      <trkpt lat="46.35042" lon="15.56493">
        <ele>283.680698</ele>
        <time>2026-07-10T10:37:09.000Z</time>
      </trkpt>
      <trkpt lat="46.35003" lon="15.56445">
        <ele>282.557686</ele>
        <time>2026-07-10T10:37:16.000Z</time>
      </trkpt>
      <trkpt lat="46.34972" lon="15.56388">
        <ele>281.434424</ele>
        <time>2026-07-10T10:37:23.000Z</time>
      </trkpt>
      <trkpt lat="46.34955" lon="15.56351">
        <ele>281.63198</ele>
        <time>2026-07-10T10:37:28.000Z</time>
      </trkpt>
      <trkpt lat="46.34941" lon="15.56314">
        <ele>282.325941</ele>
        <time>2026-07-10T10:37:34.000Z</time>
      </trkpt>
      <trkpt lat="46.34927" lon="15.56278">
        <ele>282.992491</ele>
        <time>2026-07-10T10:37:41.000Z</time>
      </trkpt>
      <trkpt lat="46.34923" lon="15.56269">
        <ele>283.17632</ele>
        <time>2026-07-10T10:37:43.000Z</time>
      </trkpt>
      <trkpt lat="46.34912" lon="15.56243">
        <ele>283.674915</ele>
        <time>2026-07-10T10:37:49.000Z</time>
      </trkpt>
      <trkpt lat="46.34899" lon="15.56211">
        <ele>284.281321</ele>
        <time>2026-07-10T10:37:58.000Z</time>
      </trkpt>
      <trkpt lat="46.34886" lon="15.56181">
        <ele>284.850233</ele>
        <time>2026-07-10T10:38:07.000Z</time>
      </trkpt>
      <trkpt lat="46.34883" lon="15.56172">
        <ele>285.018234</ele>
        <time>2026-07-10T10:38:10.000Z</time>
      </trkpt>
      <trkpt lat="46.34879" lon="15.56163">
        <ele>285.193039</ele>
        <time>2026-07-10T10:38:13.000Z</time>
      </trkpt>
      <trkpt lat="46.34878" lon="15.5616">
        <ele>285.248098</ele>
        <time>2026-07-10T10:38:14.000Z</time>
      </trkpt>
      <trkpt lat="46.34871" lon="15.56143">
        <ele>285.869843</ele>
        <time>2026-07-10T10:38:20.000Z</time>
      </trkpt>
      <trkpt lat="46.34866" lon="15.56131">
        <ele>286.5573</ele>
        <time>2026-07-10T10:38:24.000Z</time>
      </trkpt>
      <trkpt lat="46.34854" lon="15.561">
        <ele>288.415642</ele>
        <time>2026-07-10T10:38:35.000Z</time>
      </trkpt>
      <trkpt lat="46.34844" lon="15.56078">
        <ele>289.750213</ele>
        <time>2026-07-10T10:38:43.000Z</time>
      </trkpt>
      <trkpt lat="46.34837" lon="15.56056">
        <ele>291.009681</ele>
        <time>2026-07-10T10:38:50.000Z</time>
      </trkpt>
      <trkpt lat="46.34835" lon="15.56047">
        <ele>291.515057</ele>
        <time>2026-07-10T10:38:53.000Z</time>
      </trkpt>
      <trkpt lat="46.34834" lon="15.56019">
        <ele>292.966485</ele>
        <time>2026-07-10T10:39:02.000Z</time>
      </trkpt>
      <trkpt lat="46.34837" lon="15.56005">
        <ele>293.683928</ele>
        <time>2026-07-10T10:39:06.000Z</time>
      </trkpt>
      <trkpt lat="46.34839" lon="15.55994">
        <ele>294.297702</ele>
        <time>2026-07-10T10:39:10.000Z</time>
      </trkpt>
      <trkpt lat="46.3484" lon="15.55991">
        <ele>294.443903</ele>
        <time>2026-07-10T10:39:11.000Z</time>
      </trkpt>
      <trkpt lat="46.34845" lon="15.55972">
        <ele>295.523198</ele>
        <time>2026-07-10T10:39:18.000Z</time>
      </trkpt>
      <trkpt lat="46.34846" lon="15.55969">
        <ele>295.686593</ele>
        <time>2026-07-10T10:39:19.000Z</time>
      </trkpt>
      <trkpt lat="46.34848" lon="15.5596">
        <ele>296.147586</ele>
        <time>2026-07-10T10:39:22.000Z</time>
      </trkpt>
      <trkpt lat="46.34849" lon="15.55954">
        <ele>296.502316</ele>
        <time>2026-07-10T10:39:24.000Z</time>
      </trkpt>
      <trkpt lat="46.3485" lon="15.55942">
        <ele>297.139107</ele>
        <time>2026-07-10T10:39:28.000Z</time>
      </trkpt>
      <trkpt lat="46.34851" lon="15.55932">
        <ele>297.652587</ele>
        <time>2026-07-10T10:39:31.000Z</time>
      </trkpt>
      <trkpt lat="46.34851" lon="15.55928">
        <ele>297.855059</ele>
        <time>2026-07-10T10:39:32.000Z</time>
      </trkpt>
      <trkpt lat="46.3485" lon="15.55924">
        <ele>298.04959</ele>
        <time>2026-07-10T10:39:33.000Z</time>
      </trkpt>
      <trkpt lat="46.3485" lon="15.55917">
        <ele>298.416231</ele>
        <time>2026-07-10T10:39:35.000Z</time>
      </trkpt>
      <trkpt lat="46.3485" lon="15.55913">
        <ele>298.607723</ele>
        <time>2026-07-10T10:39:36.000Z</time>
      </trkpt>
      <trkpt lat="46.34851" lon="15.55894">
        <ele>299.432517</ele>
        <time>2026-07-10T10:39:42.000Z</time>
      </trkpt>
      <trkpt lat="46.34851" lon="15.55873">
        <ele>300.227502</ele>
        <time>2026-07-10T10:39:48.000Z</time>
      </trkpt>
      <trkpt lat="46.3485" lon="15.55844">
        <ele>301.346655</ele>
        <time>2026-07-10T10:39:56.000Z</time>
      </trkpt>
      <trkpt lat="46.34849" lon="15.55805">
        <ele>302.832797</ele>
        <time>2026-07-10T10:40:06.000Z</time>
      </trkpt>
      <trkpt lat="46.34848" lon="15.55769">
        <ele>304.232475</ele>
        <time>2026-07-10T10:40:15.000Z</time>
      </trkpt>
      <trkpt lat="46.34844" lon="15.55736">
        <ele>305.513443</ele>
        <time>2026-07-10T10:40:23.000Z</time>
      </trkpt>
      <trkpt lat="46.34839" lon="15.55695">
        <ele>307.097159</ele>
        <time>2026-07-10T10:40:32.000Z</time>
      </trkpt>
      <trkpt lat="46.34839" lon="15.5569">
        <ele>307.283051</ele>
        <time>2026-07-10T10:40:33.000Z</time>
      </trkpt>
      <trkpt lat="46.34832" lon="15.55655">
        <ele>308.6846</ele>
        <time>2026-07-10T10:40:41.000Z</time>
      </trkpt>
      <trkpt lat="46.34832" lon="15.55651">
        <ele>308.844485</ele>
        <time>2026-07-10T10:40:42.000Z</time>
      </trkpt>
      <trkpt lat="46.34831" lon="15.55647">
        <ele>308.934565</ele>
        <time>2026-07-10T10:40:43.000Z</time>
      </trkpt>
      <trkpt lat="46.34829" lon="15.55625">
        <ele>309.275315</ele>
        <time>2026-07-10T10:40:48.000Z</time>
      </trkpt>
      <trkpt lat="46.34829" lon="15.55617">
        <ele>309.409841</ele>
        <time>2026-07-10T10:40:50.000Z</time>
      </trkpt>
      <trkpt lat="46.34829" lon="15.55612">
        <ele>309.479425</ele>
        <time>2026-07-10T10:40:51.000Z</time>
      </trkpt>
      <trkpt lat="46.34832" lon="15.55577">
        <ele>310.035827</ele>
        <time>2026-07-10T10:40:59.000Z</time>
      </trkpt>
      <trkpt lat="46.34836" lon="15.55543">
        <ele>310.590782</ele>
        <time>2026-07-10T10:41:07.000Z</time>
      </trkpt>
      <trkpt lat="46.34843" lon="15.5551">
        <ele>311.129068</ele>
        <time>2026-07-10T10:41:15.000Z</time>
      </trkpt>
      <trkpt lat="46.34852" lon="15.55474">
        <ele>311.73743</ele>
        <time>2026-07-10T10:41:24.000Z</time>
      </trkpt>
      <trkpt lat="46.3486" lon="15.55442">
        <ele>312.269348</ele>
        <time>2026-07-10T10:41:32.000Z</time>
      </trkpt>
      <trkpt lat="46.34866" lon="15.55417">
        <ele>312.69376</ele>
        <time>2026-07-10T10:41:38.000Z</time>
      </trkpt>
      <trkpt lat="46.34871" lon="15.55399">
        <ele>313.005064</ele>
        <time>2026-07-10T10:41:42.000Z</time>
      </trkpt>
      <trkpt lat="46.3488" lon="15.5536">
        <ele>313.61532</ele>
        <time>2026-07-10T10:41:50.000Z</time>
      </trkpt>
      <trkpt lat="46.34883" lon="15.5535">
        <ele>313.776618</ele>
        <time>2026-07-10T10:41:52.000Z</time>
      </trkpt>
      <trkpt lat="46.34896" lon="15.55309">
        <ele>314.444976</ele>
        <time>2026-07-10T10:42:01.000Z</time>
      </trkpt>
      <trkpt lat="46.34907" lon="15.55264">
        <ele>315.160458</ele>
        <time>2026-07-10T10:42:11.000Z</time>
      </trkpt>
      <trkpt lat="46.34915" lon="15.55219">
        <ele>315.849441</ele>
        <time>2026-07-10T10:42:21.000Z</time>
      </trkpt>
      <trkpt lat="46.34922" lon="15.55184">
        <ele>316.398425</ele>
        <time>2026-07-10T10:42:29.000Z</time>
      </trkpt>
      <trkpt lat="46.34926" lon="15.55146">
        <ele>316.910585</ele>
        <time>2026-07-10T10:42:37.000Z</time>
      </trkpt>
      <trkpt lat="46.34928" lon="15.55103">
        <ele>317.139127</ele>
        <time>2026-07-10T10:42:46.000Z</time>
      </trkpt>
      <trkpt lat="46.34929" lon="15.55058">
        <ele>317.376869</ele>
        <time>2026-07-10T10:42:55.000Z</time>
      </trkpt>
      <trkpt lat="46.34929" lon="15.55018">
        <ele>317.592271</ele>
        <time>2026-07-10T10:43:02.000Z</time>
      </trkpt>
      <trkpt lat="46.34931" lon="15.54982">
        <ele>317.784638</ele>
        <time>2026-07-10T10:43:08.000Z</time>
      </trkpt>
      <trkpt lat="46.34932" lon="15.54958">
        <ele>317.911033</ele>
        <time>2026-07-10T10:43:12.000Z</time>
      </trkpt>
      <trkpt lat="46.34934" lon="15.54941">
        <ele>318.003763</ele>
        <time>2026-07-10T10:43:15.000Z</time>
      </trkpt>
      <trkpt lat="46.34935" lon="15.54928">
        <ele>318.072775</ele>
        <time>2026-07-10T10:43:17.000Z</time>
      </trkpt>
      <trkpt lat="46.34936" lon="15.54922">
        <ele>318.106107</ele>
        <time>2026-07-10T10:43:18.000Z</time>
      </trkpt>
      <trkpt lat="46.34938" lon="15.54916">
        <ele>318.139828</ele>
        <time>2026-07-10T10:43:19.000Z</time>
      </trkpt>
      <trkpt lat="46.34945" lon="15.54881">
        <ele>318.146999</ele>
        <time>2026-07-10T10:43:25.000Z</time>
      </trkpt>
      <trkpt lat="46.3495" lon="15.54866">
        <ele>318.000967</ele>
        <time>2026-07-10T10:43:28.000Z</time>
      </trkpt>
      <trkpt lat="46.34958" lon="15.54854">
        <ele>317.856124</ele>
        <time>2026-07-10T10:43:31.000Z</time>
      </trkpt>
      <trkpt lat="46.34981" lon="15.54827">
        <ele>317.46152</ele>
        <time>2026-07-10T10:43:39.000Z</time>
      </trkpt>
      <trkpt lat="46.34998" lon="15.54812">
        <ele>317.20298</ele>
        <time>2026-07-10T10:43:44.000Z</time>
      </trkpt>
      <trkpt lat="46.35009" lon="15.54802">
        <ele>317.036983</ele>
        <time>2026-07-10T10:43:47.000Z</time>
      </trkpt>
      <trkpt lat="46.35026" lon="15.54788">
        <ele>316.781138</ele>
        <time>2026-07-10T10:43:52.000Z</time>
      </trkpt>
      <trkpt lat="46.35054" lon="15.54771">
        <ele>316.391614</ele>
        <time>2026-07-10T10:44:00.000Z</time>
      </trkpt>
      <trkpt lat="46.35068" lon="15.54758">
        <ele>316.169166</ele>
        <time>2026-07-10T10:44:05.000Z</time>
      </trkpt>
      <trkpt lat="46.35083" lon="15.54744">
        <ele>315.941048</ele>
        <time>2026-07-10T10:44:10.000Z</time>
      </trkpt>
      <trkpt lat="46.35104" lon="15.54724">
        <ele>315.99557</ele>
        <time>2026-07-10T10:44:16.000Z</time>
      </trkpt>
      <trkpt lat="46.35124" lon="15.54708">
        <ele>316.056973</ele>
        <time>2026-07-10T10:44:21.000Z</time>
      </trkpt>
      <trkpt lat="46.35145" lon="15.54691">
        <ele>316.122654</ele>
        <time>2026-07-10T10:44:26.000Z</time>
      </trkpt>
      <trkpt lat="46.35153" lon="15.54683">
        <ele>316.148196</ele>
        <time>2026-07-10T10:44:28.000Z</time>
      </trkpt>
      <trkpt lat="46.35167" lon="15.54668">
        <ele>316.195976</ele>
        <time>2026-07-10T10:44:32.000Z</time>
      </trkpt>
      <trkpt lat="46.35176" lon="15.54656">
        <ele>316.229031</ele>
        <time>2026-07-10T10:44:35.000Z</time>
      </trkpt>
      <trkpt lat="46.35183" lon="15.54643">
        <ele>316.260141</ele>
        <time>2026-07-10T10:44:38.000Z</time>
      </trkpt>
      <trkpt lat="46.35187" lon="15.54633">
        <ele>316.281045</ele>
        <time>2026-07-10T10:44:40.000Z</time>
      </trkpt>
      <trkpt lat="46.35193" lon="15.54613">
        <ele>316.322647</ele>
        <time>2026-07-10T10:44:44.000Z</time>
      </trkpt>
      <trkpt lat="46.35198" lon="15.54581">
        <ele>316.384218</ele>
        <time>2026-07-10T10:44:50.000Z</time>
      </trkpt>
      <trkpt lat="46.35204" lon="15.54532">
        <ele>316.430377</ele>
        <time>2026-07-10T10:44:58.000Z</time>
      </trkpt>
      <trkpt lat="46.35206" lon="15.54505">
        <ele>316.440552</ele>
        <time>2026-07-10T10:45:02.000Z</time>
      </trkpt>
      <trkpt lat="46.35209" lon="15.54483">
        <ele>316.448608</ele>
        <time>2026-07-10T10:45:05.000Z</time>
      </trkpt>
      <trkpt lat="46.3521" lon="15.5447">
        <ele>316.453687</ele>
        <time>2026-07-10T10:45:07.000Z</time>
      </trkpt>
      <trkpt lat="46.35209" lon="15.54457">
        <ele>316.458408</ele>
        <time>2026-07-10T10:45:09.000Z</time>
      </trkpt>
      <trkpt lat="46.35209" lon="15.54451">
        <ele>316.460914</ele>
        <time>2026-07-10T10:45:10.000Z</time>
      </trkpt>
      <trkpt lat="46.35208" lon="15.54444">
        <ele>316.463264</ele>
        <time>2026-07-10T10:45:11.000Z</time>
      </trkpt>
      <trkpt lat="46.35206" lon="15.54432">
        <ele>316.46795</ele>
        <time>2026-07-10T10:45:13.000Z</time>
      </trkpt>
      <trkpt lat="46.35204" lon="15.54427">
        <ele>316.470301</ele>
        <time>2026-07-10T10:45:14.000Z</time>
      </trkpt>
      <trkpt lat="46.35195" lon="15.54411">
        <ele>316.477837</ele>
        <time>2026-07-10T10:45:17.000Z</time>
      </trkpt>
      <trkpt lat="46.35185" lon="15.54401">
        <ele>316.484464</ele>
        <time>2026-07-10T10:45:20.000Z</time>
      </trkpt>
      <trkpt lat="46.3516" lon="15.54378">
        <ele>316.500591</ele>
        <time>2026-07-10T10:45:27.000Z</time>
      </trkpt>
      <trkpt lat="46.35136" lon="15.54357">
        <ele>316.515708</ele>
        <time>2026-07-10T10:45:34.000Z</time>
      </trkpt>
      <trkpt lat="46.35121" lon="15.54344">
        <ele>316.124506</ele>
        <time>2026-07-10T10:45:38.000Z</time>
      </trkpt>
      <trkpt lat="46.35109" lon="15.54327">
        <ele>315.76085</ele>
        <time>2026-07-10T10:45:41.000Z</time>
      </trkpt>
      <trkpt lat="46.35103" lon="15.54312">
        <ele>315.486209</ele>
        <time>2026-07-10T10:45:43.000Z</time>
      </trkpt>
      <trkpt lat="46.35098" lon="15.54295">
        <ele>315.202987</ele>
        <time>2026-07-10T10:45:45.000Z</time>
      </trkpt>
      <trkpt lat="46.35097" lon="15.54276">
        <ele>314.905507</ele>
        <time>2026-07-10T10:45:47.000Z</time>
      </trkpt>
      <trkpt lat="46.35101" lon="15.54225">
        <ele>314.107828</ele>
        <time>2026-07-10T10:45:52.000Z</time>
      </trkpt>
      <trkpt lat="46.35109" lon="15.54162">
        <ele>313.099149</ele>
        <time>2026-07-10T10:45:59.000Z</time>
      </trkpt>
      <trkpt lat="46.3511" lon="15.54145">
        <ele>312.847695</ele>
        <time>2026-07-10T10:46:01.000Z</time>
      </trkpt>
      <trkpt lat="46.35107" lon="15.54129">
        <ele>312.586408</ele>
        <time>2026-07-10T10:46:03.000Z</time>
      </trkpt>
      <trkpt lat="46.35099" lon="15.54107">
        <ele>312.291291</ele>
        <time>2026-07-10T10:46:06.000Z</time>
      </trkpt>
      <trkpt lat="46.35094" lon="15.541">
        <ele>312.195871</ele>
        <time>2026-07-10T10:46:07.000Z</time>
      </trkpt>
      <trkpt lat="46.35081" lon="15.54086">
        <ele>311.95827</ele>
        <time>2026-07-10T10:46:10.000Z</time>
      </trkpt>
      <trkpt lat="46.35077" lon="15.54081">
        <ele>311.875737</ele>
        <time>2026-07-10T10:46:11.000Z</time>
      </trkpt>
      <trkpt lat="46.35072" lon="15.54076">
        <ele>311.788424</ele>
        <time>2026-07-10T10:46:12.000Z</time>
      </trkpt>
      <trkpt lat="46.35067" lon="15.54071">
        <ele>311.701742</ele>
        <time>2026-07-10T10:46:13.000Z</time>
      </trkpt>
      <trkpt lat="46.35036" lon="15.54046">
        <ele>311.182787</ele>
        <time>2026-07-10T10:46:19.000Z</time>
      </trkpt>
      <trkpt lat="46.35016" lon="15.54043">
        <ele>310.901643</ele>
        <time>2026-07-10T10:46:22.000Z</time>
      </trkpt>
      <trkpt lat="46.35009" lon="15.54045">
        <ele>310.79995</ele>
        <time>2026-07-10T10:46:23.000Z</time>
      </trkpt>
      <trkpt lat="46.35002" lon="15.54049">
        <ele>310.689208</ele>
        <time>2026-07-10T10:46:24.000Z</time>
      </trkpt>
      <trkpt lat="46.34979" lon="15.54064">
        <ele>310.322183</ele>
        <time>2026-07-10T10:46:27.000Z</time>
      </trkpt>
      <trkpt lat="46.34949" lon="15.54078">
        <ele>309.870818</ele>
        <time>2026-07-10T10:46:31.000Z</time>
      </trkpt>
      <trkpt lat="46.34935" lon="15.54079">
        <ele>309.055997</ele>
        <time>2026-07-10T10:46:33.000Z</time>
      </trkpt>
      <trkpt lat="46.34912" lon="15.5407">
        <ele>307.616444</ele>
        <time>2026-07-10T10:46:36.000Z</time>
      </trkpt>
      <trkpt lat="46.34905" lon="15.54065">
        <ele>307.111235</ele>
        <time>2026-07-10T10:46:37.000Z</time>
      </trkpt>
      <trkpt lat="46.34898" lon="15.54058">
        <ele>306.620793</ele>
        <time>2026-07-10T10:46:38.000Z</time>
      </trkpt>
      <trkpt lat="46.34885" lon="15.54039">
        <ele>305.505472</ele>
        <time>2026-07-10T10:46:40.000Z</time>
      </trkpt>
      <trkpt lat="46.34878" lon="15.5402">
        <ele>304.569221</ele>
        <time>2026-07-10T10:46:42.000Z</time>
      </trkpt>
      <trkpt lat="46.34874" lon="15.54005">
        <ele>303.915011</ele>
        <time>2026-07-10T10:46:43.000Z</time>
      </trkpt>
      <trkpt lat="46.34873" lon="15.53994">
        <ele>303.459338</ele>
        <time>2026-07-10T10:46:44.000Z</time>
      </trkpt>
      <trkpt lat="46.3487" lon="15.53968">
        <ele>302.336715</ele>
        <time>2026-07-10T10:46:46.000Z</time>
      </trkpt>
      <trkpt lat="46.3487" lon="15.53951">
        <ele>301.656582</ele>
        <time>2026-07-10T10:46:47.000Z</time>
      </trkpt>
      <trkpt lat="46.34869" lon="15.5387">
        <ele>298.31175</ele>
        <time>2026-07-10T10:46:53.000Z</time>
      </trkpt>
      <trkpt lat="46.34868" lon="15.53853">
        <ele>297.671809</ele>
        <time>2026-07-10T10:46:54.000Z</time>
      </trkpt>
      <trkpt lat="46.34862" lon="15.53827">
        <ele>296.62914</ele>
        <time>2026-07-10T10:46:56.000Z</time>
      </trkpt>
      <trkpt lat="46.34858" lon="15.53818">
        <ele>296.224998</ele>
        <time>2026-07-10T10:46:57.000Z</time>
      </trkpt>
      <trkpt lat="46.34853" lon="15.53808">
        <ele>295.727344</ele>
        <time>2026-07-10T10:46:58.000Z</time>
      </trkpt>
      <trkpt lat="46.34839" lon="15.53792">
        <ele>294.75305</ele>
        <time>2026-07-10T10:47:00.000Z</time>
      </trkpt>
      <trkpt lat="46.34819" lon="15.53784">
        <ele>293.646986</ele>
        <time>2026-07-10T10:47:02.000Z</time>
      </trkpt>
      <trkpt lat="46.34811" lon="15.53783">
        <ele>293.160589</ele>
        <time>2026-07-10T10:47:03.000Z</time>
      </trkpt>
      <trkpt lat="46.34773" lon="15.53782">
        <ele>291.109213</ele>
        <time>2026-07-10T10:47:08.000Z</time>
      </trkpt>
      <trkpt lat="46.34744" lon="15.53783">
        <ele>289.524925</ele>
        <time>2026-07-10T10:47:13.000Z</time>
      </trkpt>
      <trkpt lat="46.3473" lon="15.53783">
        <ele>289.348073</ele>
        <time>2026-07-10T10:47:16.000Z</time>
      </trkpt>
      <trkpt lat="46.34722" lon="15.53782">
        <ele>289.810749</ele>
        <time>2026-07-10T10:47:18.000Z</time>
      </trkpt>
      <trkpt lat="46.34718" lon="15.53782">
        <ele>290.034016</ele>
        <time>2026-07-10T10:47:19.000Z</time>
      </trkpt>
      <trkpt lat="46.34707" lon="15.53781">
        <ele>290.659288</ele>
        <time>2026-07-10T10:47:22.000Z</time>
      </trkpt>
      <trkpt lat="46.34699" lon="15.5378">
        <ele>291.092367</ele>
        <time>2026-07-10T10:47:24.000Z</time>
      </trkpt>
      <trkpt lat="46.34696" lon="15.53779">
        <ele>291.243655</ele>
        <time>2026-07-10T10:47:25.000Z</time>
      </trkpt>
      <trkpt lat="46.34689" lon="15.53778">
        <ele>291.630598</ele>
        <time>2026-07-10T10:47:27.000Z</time>
      </trkpt>
      <trkpt lat="46.34682" lon="15.53777">
        <ele>292.031128</ele>
        <time>2026-07-10T10:47:29.000Z</time>
      </trkpt>
      <trkpt lat="46.34666" lon="15.53768">
        <ele>293.01391</ele>
        <time>2026-07-10T10:47:34.000Z</time>
      </trkpt>
      <trkpt lat="46.34659" lon="15.53763">
        <ele>293.421072</ele>
        <time>2026-07-10T10:47:36.000Z</time>
      </trkpt>
      <trkpt lat="46.34639" lon="15.53743">
        <ele>294.760618</ele>
        <time>2026-07-10T10:47:43.000Z</time>
      </trkpt>
      <trkpt lat="46.34627" lon="15.53726">
        <ele>295.721619</ele>
        <time>2026-07-10T10:47:48.000Z</time>
      </trkpt>
      <trkpt lat="46.34619" lon="15.53713">
        <ele>296.385177</ele>
        <time>2026-07-10T10:47:52.000Z</time>
      </trkpt>
      <trkpt lat="46.34612" lon="15.53698">
        <ele>297.110345</ele>
        <time>2026-07-10T10:47:56.000Z</time>
      </trkpt>
      <trkpt lat="46.34608" lon="15.53689">
        <ele>297.496791</ele>
        <time>2026-07-10T10:47:58.000Z</time>
      </trkpt>
      <trkpt lat="46.34606" lon="15.53684">
        <ele>297.71872</ele>
        <time>2026-07-10T10:47:59.000Z</time>
      </trkpt>
      <trkpt lat="46.34604" lon="15.53681">
        <ele>297.864922</ele>
        <time>2026-07-10T10:48:00.000Z</time>
      </trkpt>
      <trkpt lat="46.34603" lon="15.53677">
        <ele>298.058945</ele>
        <time>2026-07-10T10:48:01.000Z</time>
      </trkpt>
      <trkpt lat="46.34601" lon="15.53672">
        <ele>298.253719</ele>
        <time>2026-07-10T10:48:02.000Z</time>
      </trkpt>
      <trkpt lat="46.34598" lon="15.53664">
        <ele>298.627039</ele>
        <time>2026-07-10T10:48:04.000Z</time>
      </trkpt>
      <trkpt lat="46.34596" lon="15.53658">
        <ele>298.857782</ele>
        <time>2026-07-10T10:48:05.000Z</time>
      </trkpt>
      <trkpt lat="46.34595" lon="15.53654">
        <ele>299.014267</ele>
        <time>2026-07-10T10:48:06.000Z</time>
      </trkpt>
      <trkpt lat="46.34593" lon="15.53644">
        <ele>299.082977</ele>
        <time>2026-07-10T10:48:08.000Z</time>
      </trkpt>
      <trkpt lat="46.34592" lon="15.53641">
        <ele>299.08855</ele>
        <time>2026-07-10T10:48:09.000Z</time>
      </trkpt>
      <trkpt lat="46.34589" lon="15.5363">
        <ele>299.1046</ele>
        <time>2026-07-10T10:48:11.000Z</time>
      </trkpt>
      <trkpt lat="46.34586" lon="15.53601">
        <ele>299.145971</ele>
        <time>2026-07-10T10:48:17.000Z</time>
      </trkpt>
      <trkpt lat="46.34585" lon="15.53548">
        <ele>299.220205</ele>
        <time>2026-07-10T10:48:26.000Z</time>
      </trkpt>
      <trkpt lat="46.34584" lon="15.53541">
        <ele>299.230056</ele>
        <time>2026-07-10T10:48:27.000Z</time>
      </trkpt>
      <trkpt lat="46.3458" lon="15.53525">
        <ele>299.253211</ele>
        <time>2026-07-10T10:48:29.000Z</time>
      </trkpt>
      <trkpt lat="46.34578" lon="15.5352">
        <ele>299.262028</ele>
        <time>2026-07-10T10:48:30.000Z</time>
      </trkpt>
      <trkpt lat="46.34568" lon="15.53501">
        <ele>299.295781</ele>
        <time>2026-07-10T10:48:33.000Z</time>
      </trkpt>
      <trkpt lat="46.34559" lon="15.53488">
        <ele>299.321124</ele>
        <time>2026-07-10T10:48:35.000Z</time>
      </trkpt>
      <trkpt lat="46.34535" lon="15.53444">
        <ele>299.39992</ele>
        <time>2026-07-10T10:48:42.000Z</time>
      </trkpt>
      <trkpt lat="46.34528" lon="15.53401">
        <ele>298.653401</ele>
        <time>2026-07-10T10:48:47.000Z</time>
      </trkpt>
      <trkpt lat="46.34529" lon="15.53347">
        <ele>296.472105</ele>
        <time>2026-07-10T10:48:52.000Z</time>
      </trkpt>
      <trkpt lat="46.34533" lon="15.53284">
        <ele>293.934807</ele>
        <time>2026-07-10T10:48:57.000Z</time>
      </trkpt>
      <trkpt lat="46.34534" lon="15.53274">
        <ele>293.504272</ele>
        <time>2026-07-10T10:48:58.000Z</time>
      </trkpt>
      <trkpt lat="46.34536" lon="15.53233">
        <ele>291.859714</ele>
        <time>2026-07-10T10:49:01.000Z</time>
      </trkpt>
      <trkpt lat="46.34538" lon="15.53202">
        <ele>290.588209</ele>
        <time>2026-07-10T10:49:03.000Z</time>
      </trkpt>
      <trkpt lat="46.34531" lon="15.53131">
        <ele>288.4634</ele>
        <time>2026-07-10T10:49:08.000Z</time>
      </trkpt>
      <trkpt lat="46.34514" lon="15.5305">
        <ele>287.214164</ele>
        <time>2026-07-10T10:49:14.000Z</time>
      </trkpt>
      <trkpt lat="46.34494" lon="15.52966">
        <ele>285.913759</ele>
        <time>2026-07-10T10:49:21.000Z</time>
      </trkpt>
      <trkpt lat="46.34483" lon="15.52922">
        <ele>285.228056</ele>
        <time>2026-07-10T10:49:26.000Z</time>
      </trkpt>
      <trkpt lat="46.34477" lon="15.52894">
        <ele>285.480618</ele>
        <time>2026-07-10T10:49:30.000Z</time>
      </trkpt>
      <trkpt lat="46.34474" lon="15.52881">
        <ele>285.758465</ele>
        <time>2026-07-10T10:49:32.000Z</time>
      </trkpt>
      <trkpt lat="46.34466" lon="15.52847">
        <ele>286.557332</ele>
        <time>2026-07-10T10:49:39.000Z</time>
      </trkpt>
      <trkpt lat="46.34464" lon="15.5283">
        <ele>286.926343</ele>
        <time>2026-07-10T10:49:44.000Z</time>
      </trkpt>
      <trkpt lat="46.34464" lon="15.52829">
        <ele>286.95018</ele>
        <time>2026-07-10T10:49:47.000Z</time>
      </trkpt>
      <trkpt lat="46.34462" lon="15.52823">
        <ele>287.09067</ele>
        <time>2026-07-10T10:50:48.000Z</time>
      </trkpt>
      <trkpt lat="46.34455" lon="15.52805">
        <ele>287.521293</ele>
        <time>2026-07-10T10:50:54.000Z</time>
      </trkpt>
      <trkpt lat="46.34437" lon="15.52778">
        <ele>288.347441</ele>
        <time>2026-07-10T10:51:02.000Z</time>
      </trkpt>
      <trkpt lat="46.34418" lon="15.52746">
        <ele>289.264547</ele>
        <time>2026-07-10T10:51:10.000Z</time>
      </trkpt>
      <trkpt lat="46.34398" lon="15.52715">
        <ele>290.177079</ele>
        <time>2026-07-10T10:51:17.000Z</time>
      </trkpt>
      <trkpt lat="46.34389" lon="15.52701">
        <ele>290.579471</ele>
        <time>2026-07-10T10:51:20.000Z</time>
      </trkpt>
      <trkpt lat="46.34375" lon="15.52678">
        <ele>290.55455</ele>
        <time>2026-07-10T10:51:25.000Z</time>
      </trkpt>
      <trkpt lat="46.34341" lon="15.52626">
        <ele>290.11715</ele>
        <time>2026-07-10T10:51:37.000Z</time>
      </trkpt>
      <trkpt lat="46.34314" lon="15.52591">
        <ele>289.794909</ele>
        <time>2026-07-10T10:51:46.000Z</time>
      </trkpt>
      <trkpt lat="46.34285" lon="15.52547">
        <ele>289.42668</ele>
        <time>2026-07-10T10:51:57.000Z</time>
      </trkpt>
      <trkpt lat="46.34272" lon="15.52514">
        <ele>289.186929</ele>
        <time>2026-07-10T10:52:05.000Z</time>
      </trkpt>
      <trkpt lat="46.34265" lon="15.52494">
        <ele>289.661211</ele>
        <time>2026-07-10T10:52:10.000Z</time>
      </trkpt>
      <trkpt lat="46.34262" lon="15.52486">
        <ele>290.132118</ele>
        <time>2026-07-10T10:52:12.000Z</time>
      </trkpt>
      <trkpt lat="46.34254" lon="15.52463">
        <ele>291.609953</ele>
        <time>2026-07-10T10:52:19.000Z</time>
      </trkpt>
      <trkpt lat="46.34238" lon="15.52435">
        <ele>293.632209</ele>
        <time>2026-07-10T10:52:29.000Z</time>
      </trkpt>
      <trkpt lat="46.34222" lon="15.52413">
        <ele>295.420136</ele>
        <time>2026-07-10T10:52:38.000Z</time>
      </trkpt>
      <trkpt lat="46.3422" lon="15.5241">
        <ele>295.630337</ele>
        <time>2026-07-10T10:52:39.000Z</time>
      </trkpt>
      <trkpt lat="46.34206" lon="15.5239">
        <ele>297.220004</ele>
        <time>2026-07-10T10:52:48.000Z</time>
      </trkpt>
      <trkpt lat="46.34194" lon="15.52374">
        <ele>298.539808</ele>
        <time>2026-07-10T10:52:55.000Z</time>
      </trkpt>
      <trkpt lat="46.34186" lon="15.52364">
        <ele>299.384898</ele>
        <time>2026-07-10T10:53:00.000Z</time>
      </trkpt>
      <trkpt lat="46.34181" lon="15.52356">
        <ele>299.950183</ele>
        <time>2026-07-10T10:53:04.000Z</time>
      </trkpt>
      <trkpt lat="46.34176" lon="15.52345">
        <ele>300.681218</ele>
        <time>2026-07-10T10:53:09.000Z</time>
      </trkpt>
      <trkpt lat="46.34172" lon="15.52324">
        <ele>301.898702</ele>
        <time>2026-07-10T10:53:17.000Z</time>
      </trkpt>
      <trkpt lat="46.34172" lon="15.52319">
        <ele>302.165316</ele>
        <time>2026-07-10T10:53:19.000Z</time>
      </trkpt>
      <trkpt lat="46.34173" lon="15.52308">
        <ele>302.815386</ele>
        <time>2026-07-10T10:53:23.000Z</time>
      </trkpt>
      <trkpt lat="46.34175" lon="15.52299">
        <ele>303.295146</ele>
        <time>2026-07-10T10:53:26.000Z</time>
      </trkpt>
      <trkpt lat="46.34176" lon="15.52281">
        <ele>304.263925</ele>
        <time>2026-07-10T10:53:33.000Z</time>
      </trkpt>
      <trkpt lat="46.34176" lon="15.52271">
        <ele>304.771976</ele>
        <time>2026-07-10T10:53:37.000Z</time>
      </trkpt>
      <trkpt lat="46.34174" lon="15.52261">
        <ele>305.316024</ele>
        <time>2026-07-10T10:53:40.000Z</time>
      </trkpt>
      <trkpt lat="46.34171" lon="15.52236">
        <ele>306.651112</ele>
        <time>2026-07-10T10:53:49.000Z</time>
      </trkpt>
      <trkpt lat="46.34167" lon="15.52217">
        <ele>307.692441</ele>
        <time>2026-07-10T10:53:56.000Z</time>
      </trkpt>
      <trkpt lat="46.34167" lon="15.52207">
        <ele>308.190127</ele>
        <time>2026-07-10T10:53:59.000Z</time>
      </trkpt>
      <trkpt lat="46.34165" lon="15.52204">
        <ele>308.388068</ele>
        <time>2026-07-10T10:54:01.000Z</time>
      </trkpt>
      <trkpt lat="46.34163" lon="15.52197">
        <ele>308.820956</ele>
        <time>2026-07-10T10:54:04.000Z</time>
      </trkpt>
      <trkpt lat="46.3416" lon="15.52193">
        <ele>309.08793</ele>
        <time>2026-07-10T10:54:06.000Z</time>
      </trkpt>
      <trkpt lat="46.34155" lon="15.52181">
        <ele>309.821668</ele>
        <time>2026-07-10T10:54:10.000Z</time>
      </trkpt>
      <trkpt lat="46.34148" lon="15.52173">
        <ele>310.461252</ele>
        <time>2026-07-10T10:54:13.000Z</time>
      </trkpt>
      <trkpt lat="46.34139" lon="15.5215">
        <ele>311.837975</ele>
        <time>2026-07-10T10:54:20.000Z</time>
      </trkpt>
      <trkpt lat="46.34131" lon="15.52135">
        <ele>312.840862</ele>
        <time>2026-07-10T10:54:26.000Z</time>
      </trkpt>
      <trkpt lat="46.34131" lon="15.52132">
        <ele>312.983699</ele>
        <time>2026-07-10T10:54:27.000Z</time>
      </trkpt>
      <trkpt lat="46.34127" lon="15.52118">
        <ele>313.764321</ele>
        <time>2026-07-10T10:54:31.000Z</time>
      </trkpt>
      <trkpt lat="46.34125" lon="15.52115">
        <ele>313.953747</ele>
        <time>2026-07-10T10:54:32.000Z</time>
      </trkpt>
      <trkpt lat="46.34124" lon="15.52111">
        <ele>314.195134</ele>
        <time>2026-07-10T10:54:34.000Z</time>
      </trkpt>
      <trkpt lat="46.34122" lon="15.52097">
        <ele>314.914664</ele>
        <time>2026-07-10T10:54:39.000Z</time>
      </trkpt>
      <trkpt lat="46.34121" lon="15.52092">
        <ele>315.184206</ele>
        <time>2026-07-10T10:54:41.000Z</time>
      </trkpt>
      <trkpt lat="46.34121" lon="15.52084">
        <ele>315.600596</ele>
        <time>2026-07-10T10:54:44.000Z</time>
      </trkpt>
      <trkpt lat="46.3412" lon="15.52082">
        <ele>315.741359</ele>
        <time>2026-07-10T10:54:45.000Z</time>
      </trkpt>
      <trkpt lat="46.3412" lon="15.52077">
        <ele>316.005833</ele>
        <time>2026-07-10T10:54:47.000Z</time>
      </trkpt>
      <trkpt lat="46.34119" lon="15.52055">
        <ele>317.101972</ele>
        <time>2026-07-10T10:54:55.000Z</time>
      </trkpt>
      <trkpt lat="46.34115" lon="15.52036">
        <ele>317.502006</ele>
        <time>2026-07-10T10:55:02.000Z</time>
      </trkpt>
      <trkpt lat="46.3411" lon="15.52014">
        <ele>317.988482</ele>
        <time>2026-07-10T10:55:11.000Z</time>
      </trkpt>
      <trkpt lat="46.34104" lon="15.51997">
        <ele>318.37105</ele>
        <time>2026-07-10T10:55:18.000Z</time>
      </trkpt>
      <trkpt lat="46.34096" lon="15.51977">
        <ele>318.846884</ele>
        <time>2026-07-10T10:55:25.000Z</time>
      </trkpt>
      <trkpt lat="46.34084" lon="15.51958">
        <ele>319.381619</ele>
        <time>2026-07-10T10:55:32.000Z</time>
      </trkpt>
      <trkpt lat="46.3407" lon="15.51938">
        <ele>319.973861</ele>
        <time>2026-07-10T10:55:39.000Z</time>
      </trkpt>
      <trkpt lat="46.34052" lon="15.51922">
        <ele>320.593289</ele>
        <time>2026-07-10T10:55:46.000Z</time>
      </trkpt>
      <trkpt lat="46.34028" lon="15.51907">
        <ele>321.373364</ele>
        <time>2026-07-10T10:55:55.000Z</time>
      </trkpt>
      <trkpt lat="46.34011" lon="15.51893">
        <ele>321.940475</ele>
        <time>2026-07-10T10:56:02.000Z</time>
      </trkpt>
      <trkpt lat="46.3399" lon="15.51875">
        <ele>323.158184</ele>
        <time>2026-07-10T10:56:11.000Z</time>
      </trkpt>
      <trkpt lat="46.33977" lon="15.51862">
        <ele>324.595194</ele>
        <time>2026-07-10T10:56:17.000Z</time>
      </trkpt>
      <trkpt lat="46.33963" lon="15.51856">
        <ele>325.960784</ele>
        <time>2026-07-10T10:56:23.000Z</time>
      </trkpt>
      <trkpt lat="46.33945" lon="15.51845">
        <ele>327.661168</ele>
        <time>2026-07-10T10:56:31.000Z</time>
      </trkpt>
      <trkpt lat="46.33936" lon="15.51842">
        <ele>328.543914</ele>
        <time>2026-07-10T10:56:36.000Z</time>
      </trkpt>
      <trkpt lat="46.33932" lon="15.5184">
        <ele>328.883606</ele>
        <time>2026-07-10T10:56:38.000Z</time>
      </trkpt>
      <trkpt lat="46.33921" lon="15.51834">
        <ele>329.950202</ele>
        <time>2026-07-10T10:56:44.000Z</time>
      </trkpt>
      <trkpt lat="46.33913" lon="15.5183">
        <ele>330.747497</ele>
        <time>2026-07-10T10:56:49.000Z</time>
      </trkpt>
      <trkpt lat="46.33911" lon="15.51829">
        <ele>330.915456</ele>
        <time>2026-07-10T10:56:50.000Z</time>
      </trkpt>
      <trkpt lat="46.33898" lon="15.51821">
        <ele>332.199135</ele>
        <time>2026-07-10T10:56:57.000Z</time>
      </trkpt>
      <trkpt lat="46.33886" lon="15.51819">
        <ele>333.27085</ele>
        <time>2026-07-10T10:57:03.000Z</time>
      </trkpt>
      <trkpt lat="46.3387" lon="15.51816">
        <ele>334.752288</ele>
        <time>2026-07-10T10:57:11.000Z</time>
      </trkpt>
      <trkpt lat="46.33858" lon="15.51815">
        <ele>335.811846</ele>
        <time>2026-07-10T10:57:17.000Z</time>
      </trkpt>
      <trkpt lat="46.33843" lon="15.51809">
        <ele>337.193311</ele>
        <time>2026-07-10T10:57:24.000Z</time>
      </trkpt>
      <trkpt lat="46.33834" lon="15.51802">
        <ele>338.1548</ele>
        <time>2026-07-10T10:57:29.000Z</time>
      </trkpt>
      <trkpt lat="46.3383" lon="15.51798">
        <ele>338.579715</ele>
        <time>2026-07-10T10:57:31.000Z</time>
      </trkpt>
      <trkpt lat="46.33818" lon="15.51782">
        <ele>339.271039</ele>
        <time>2026-07-10T10:57:39.000Z</time>
      </trkpt>
      <trkpt lat="46.33809" lon="15.51765">
        <ele>339.832222</ele>
        <time>2026-07-10T10:57:47.000Z</time>
      </trkpt>
      <trkpt lat="46.33806" lon="15.51755">
        <ele>340.14245</ele>
        <time>2026-07-10T10:57:52.000Z</time>
      </trkpt>
      <trkpt lat="46.338" lon="15.51745">
        <ele>340.489617</ele>
        <time>2026-07-10T10:57:56.000Z</time>
      </trkpt>
      <trkpt lat="46.33796" lon="15.51741">
        <ele>340.689097</ele>
        <time>2026-07-10T10:57:58.000Z</time>
      </trkpt>
      <trkpt lat="46.33783" lon="15.51726">
        <ele>341.339151</ele>
        <time>2026-07-10T10:58:07.000Z</time>
      </trkpt>
      <trkpt lat="46.33756" lon="15.51721">
        <ele>342.400012</ele>
        <time>2026-07-10T10:58:15.000Z</time>
      </trkpt>
      <trkpt lat="46.33737" lon="15.51726">
        <ele>343.152543</ele>
        <time>2026-07-10T10:58:22.000Z</time>
      </trkpt>
      <trkpt lat="46.3372" lon="15.51733">
        <ele>343.859439</ele>
        <time>2026-07-10T10:58:29.000Z</time>
      </trkpt>
      <trkpt lat="46.33699" lon="15.51734">
        <ele>344.65744</ele>
        <time>2026-07-10T10:58:37.000Z</time>
      </trkpt>
      <trkpt lat="46.33681" lon="15.51728">
        <ele>345.389556</ele>
        <time>2026-07-10T10:58:44.000Z</time>
      </trkpt>
      <trkpt lat="46.33669" lon="15.51713">
        <ele>345.515532</ele>
        <time>2026-07-10T10:58:51.000Z</time>
      </trkpt>
      <trkpt lat="46.33668" lon="15.51708">
        <ele>345.439755</ele>
        <time>2026-07-10T10:58:55.000Z</time>
      </trkpt>
      <trkpt lat="46.33664" lon="15.51714">
        <ele>345.317918</ele>
        <time>2026-07-10T10:59:10.000Z</time>
      </trkpt>
      <trkpt lat="46.33664" lon="15.51717">
        <ele>345.276247</ele>
        <time>2026-07-10T10:59:11.000Z</time>
      </trkpt>
      <trkpt lat="46.33667" lon="15.51736">
        <ele>344.9748</ele>
        <time>2026-07-10T10:59:17.000Z</time>
      </trkpt>
      <trkpt lat="46.3367" lon="15.51743">
        <ele>344.851903</ele>
        <time>2026-07-10T10:59:22.000Z</time>
      </trkpt>
      <trkpt lat="46.33666" lon="15.51753">
        <ele>344.679741</ele>
        <time>2026-07-10T11:07:34.000Z</time>
      </trkpt>
      <trkpt lat="46.33665" lon="15.51753">
        <ele>344.659113</ele>
        <time>2026-07-10T11:07:35.000Z</time>
      </trkpt>
      <trkpt lat="46.33665" lon="15.51754">
        <ele>344.637658</ele>
        <time>2026-07-10T11:07:36.000Z</time>
      </trkpt>
      <trkpt lat="46.33667" lon="15.51736">
        <ele>344.358313</ele>
        <time>2026-07-10T11:11:39.000Z</time>
      </trkpt>
      <trkpt lat="46.33666" lon="15.51732">
        <ele>344.297768</ele>
        <time>2026-07-10T11:11:40.000Z</time>
      </trkpt>
      <trkpt lat="46.33665" lon="15.51728">
        <ele>344.23045</ele>
        <time>2026-07-10T11:11:41.000Z</time>
      </trkpt>
      <trkpt lat="46.33664" lon="15.51706">
        <ele>343.892824</ele>
        <time>2026-07-10T11:11:45.000Z</time>
      </trkpt>
      <trkpt lat="46.33663" lon="15.51696">
        <ele>343.738382</ele>
        <time>2026-07-10T11:11:47.000Z</time>
      </trkpt>
      <trkpt lat="46.33658" lon="15.51659">
        <ele>343.161782</ele>
        <time>2026-07-10T11:11:54.000Z</time>
      </trkpt>
      <trkpt lat="46.33653" lon="15.51611">
        <ele>342.429751</ele>
        <time>2026-07-10T11:12:02.000Z</time>
      </trkpt>
      <trkpt lat="46.33652" lon="15.51593">
        <ele>342.145096</ele>
        <time>2026-07-10T11:12:05.000Z</time>
      </trkpt>
      <trkpt lat="46.3365" lon="15.51569">
        <ele>341.777241</ele>
        <time>2026-07-10T11:12:09.000Z</time>
      </trkpt>
      <trkpt lat="46.33643" lon="15.51522">
        <ele>341.355829</ele>
        <time>2026-07-10T11:12:18.000Z</time>
      </trkpt>
      <trkpt lat="46.33626" lon="15.51486">
        <ele>341.006196</ele>
        <time>2026-07-10T11:12:26.000Z</time>
      </trkpt>
      <trkpt lat="46.33612" lon="15.51467">
        <ele>340.772699</ele>
        <time>2026-07-10T11:12:31.000Z</time>
      </trkpt>
      <trkpt lat="46.33599" lon="15.51447">
        <ele>340.544977</ele>
        <time>2026-07-10T11:12:36.000Z</time>
      </trkpt>
      <trkpt lat="46.33597" lon="15.51443">
        <ele>340.500928</ele>
        <time>2026-07-10T11:12:37.000Z</time>
      </trkpt>
      <trkpt lat="46.3359" lon="15.5143">
        <ele>340.364813</ele>
        <time>2026-07-10T11:12:40.000Z</time>
      </trkpt>
      <trkpt lat="46.33572" lon="15.51391">
        <ele>339.980041</ele>
        <time>2026-07-10T11:12:48.000Z</time>
      </trkpt>
      <trkpt lat="46.33561" lon="15.51347">
        <ele>339.596318</ele>
        <time>2026-07-10T11:12:56.000Z</time>
      </trkpt>
      <trkpt lat="46.33555" lon="15.51294">
        <ele>339.025566</ele>
        <time>2026-07-10T11:13:05.000Z</time>
      </trkpt>
      <trkpt lat="46.33553" lon="15.51282">
        <ele>338.88732</ele>
        <time>2026-07-10T11:13:07.000Z</time>
      </trkpt>
      <trkpt lat="46.33544" lon="15.51267">
        <ele>338.674373</ele>
        <time>2026-07-10T11:13:10.000Z</time>
      </trkpt>
      <trkpt lat="46.33518" lon="15.51231">
        <ele>338.107219</ele>
        <time>2026-07-10T11:13:18.000Z</time>
      </trkpt>
      <trkpt lat="46.33507" lon="15.51217">
        <ele>337.882074</ele>
        <time>2026-07-10T11:13:21.000Z</time>
      </trkpt>
      <trkpt lat="46.3349" lon="15.51202">
        <ele>337.563624</ele>
        <time>2026-07-10T11:13:25.000Z</time>
      </trkpt>
      <trkpt lat="46.3348" lon="15.51196">
        <ele>337.396948</ele>
        <time>2026-07-10T11:13:27.000Z</time>
      </trkpt>
      <trkpt lat="46.33464" lon="15.51193">
        <ele>337.143796</ele>
        <time>2026-07-10T11:13:30.000Z</time>
      </trkpt>
      <trkpt lat="46.33442" lon="15.51195">
        <ele>336.801536</ele>
        <time>2026-07-10T11:13:34.000Z</time>
      </trkpt>
      <trkpt lat="46.33436" lon="15.51194">
        <ele>336.702078</ele>
        <time>2026-07-10T11:13:35.000Z</time>
      </trkpt>
      <trkpt lat="46.33403" lon="15.5119">
        <ele>336.09905</ele>
        <time>2026-07-10T11:13:40.000Z</time>
      </trkpt>
      <trkpt lat="46.33373" lon="15.51188">
        <ele>335.550355</ele>
        <time>2026-07-10T11:13:44.000Z</time>
      </trkpt>
      <trkpt lat="46.3335" lon="15.51187">
        <ele>335.120967</ele>
        <time>2026-07-10T11:13:47.000Z</time>
      </trkpt>
      <trkpt lat="46.33334" lon="15.51184">
        <ele>334.828201</ele>
        <time>2026-07-10T11:13:49.000Z</time>
      </trkpt>
      <trkpt lat="46.33319" lon="15.51177">
        <ele>334.532536</ele>
        <time>2026-07-10T11:13:51.000Z</time>
      </trkpt>
      <trkpt lat="46.33292" lon="15.51154">
        <ele>333.959344</ele>
        <time>2026-07-10T11:13:55.000Z</time>
      </trkpt>
      <trkpt lat="46.33285" lon="15.51151">
        <ele>333.822275</ele>
        <time>2026-07-10T11:13:56.000Z</time>
      </trkpt>
      <trkpt lat="46.33278" lon="15.51149">
        <ele>333.689697</ele>
        <time>2026-07-10T11:13:57.000Z</time>
      </trkpt>
      <trkpt lat="46.33264" lon="15.51149">
        <ele>333.434029</ele>
        <time>2026-07-10T11:13:59.000Z</time>
      </trkpt>
      <trkpt lat="46.3323" lon="15.51155">
        <ele>332.74638</ele>
        <time>2026-07-10T11:14:04.000Z</time>
      </trkpt>
      <trkpt lat="46.3318" lon="15.51164">
        <ele>331.722386</ele>
        <time>2026-07-10T11:14:12.000Z</time>
      </trkpt>
      <trkpt lat="46.33135" lon="15.51159">
        <ele>330.807838</ele>
        <time>2026-07-10T11:14:19.000Z</time>
      </trkpt>
      <trkpt lat="46.33109" lon="15.51152">
        <ele>330.275517</ele>
        <time>2026-07-10T11:14:23.000Z</time>
      </trkpt>
      <trkpt lat="46.33091" lon="15.51148">
        <ele>329.903799</ele>
        <time>2026-07-10T11:14:26.000Z</time>
      </trkpt>
      <trkpt lat="46.33073" lon="15.51144">
        <ele>329.958141</ele>
        <time>2026-07-10T11:14:29.000Z</time>
      </trkpt>
      <trkpt lat="46.3304" lon="15.51138">
        <ele>330.280398</ele>
        <time>2026-07-10T11:14:34.000Z</time>
      </trkpt>
      <trkpt lat="46.33003" lon="15.51141">
        <ele>330.628917</ele>
        <time>2026-07-10T11:14:40.000Z</time>
      </trkpt>
      <trkpt lat="46.32962" lon="15.51151">
        <ele>331.023018</ele>
        <time>2026-07-10T11:14:47.000Z</time>
      </trkpt>
      <trkpt lat="46.32947" lon="15.51155">
        <ele>331.169494</ele>
        <time>2026-07-10T11:14:50.000Z</time>
      </trkpt>
      <trkpt lat="46.32938" lon="15.51158">
        <ele>331.251277</ele>
        <time>2026-07-10T11:14:52.000Z</time>
      </trkpt>
      <trkpt lat="46.32904" lon="15.51173">
        <ele>331.623988</ele>
        <time>2026-07-10T11:15:00.000Z</time>
      </trkpt>
      <trkpt lat="46.32863" lon="15.51189">
        <ele>332.210478</ele>
        <time>2026-07-10T11:15:09.000Z</time>
      </trkpt>
      <trkpt lat="46.32841" lon="15.51201">
        <ele>332.54409</ele>
        <time>2026-07-10T11:15:14.000Z</time>
      </trkpt>
      <trkpt lat="46.32823" lon="15.51208">
        <ele>332.804394</ele>
        <time>2026-07-10T11:15:18.000Z</time>
      </trkpt>
      <trkpt lat="46.32776" lon="15.51224">
        <ele>333.46706</ele>
        <time>2026-07-10T11:15:28.000Z</time>
      </trkpt>
      <trkpt lat="46.32761" lon="15.51228">
        <ele>333.684366</ele>
        <time>2026-07-10T11:15:31.000Z</time>
      </trkpt>
      <trkpt lat="46.32745" lon="15.51234">
        <ele>333.913415</ele>
        <time>2026-07-10T11:15:34.000Z</time>
      </trkpt>
      <trkpt lat="46.327" lon="15.51255">
        <ele>333.632039</ele>
        <time>2026-07-10T11:15:43.000Z</time>
      </trkpt>
      <trkpt lat="46.32677" lon="15.51266">
        <ele>333.368701</ele>
        <time>2026-07-10T11:15:48.000Z</time>
      </trkpt>
      <trkpt lat="46.32667" lon="15.51269">
        <ele>333.261366</ele>
        <time>2026-07-10T11:15:50.000Z</time>
      </trkpt>
      <trkpt lat="46.32662" lon="15.51268">
        <ele>333.208556</ele>
        <time>2026-07-10T11:15:51.000Z</time>
      </trkpt>
      <trkpt lat="46.32653" lon="15.51266">
        <ele>333.111526</ele>
        <time>2026-07-10T11:15:53.000Z</time>
      </trkpt>
      <trkpt lat="46.32646" lon="15.51261">
        <ele>333.018703</ele>
        <time>2026-07-10T11:15:55.000Z</time>
      </trkpt>
      <trkpt lat="46.32622" lon="15.51233">
        <ele>332.68975</ele>
        <time>2026-07-10T11:16:03.000Z</time>
      </trkpt>
      <trkpt lat="46.32611" lon="15.51218">
        <ele>332.528271</ele>
        <time>2026-07-10T11:16:06.000Z</time>
      </trkpt>
      <trkpt lat="46.32602" lon="15.51209">
        <ele>332.40556</ele>
        <time>2026-07-10T11:16:08.000Z</time>
      </trkpt>
      <trkpt lat="46.32591" lon="15.512">
        <ele>332.266652</ele>
        <time>2026-07-10T11:16:10.000Z</time>
      </trkpt>
      <trkpt lat="46.32579" lon="15.51189">
        <ele>332.118172</ele>
        <time>2026-07-10T11:16:12.000Z</time>
      </trkpt>
      <trkpt lat="46.3255" lon="15.51169">
        <ele>330.441104</ele>
        <time>2026-07-10T11:16:16.000Z</time>
      </trkpt>
      <trkpt lat="46.32542" lon="15.51165">
        <ele>329.990828</ele>
        <time>2026-07-10T11:16:17.000Z</time>
      </trkpt>
      <trkpt lat="46.32509" lon="15.51158">
        <ele>328.193513</ele>
        <time>2026-07-10T11:16:21.000Z</time>
      </trkpt>
      <trkpt lat="46.3249" lon="15.51155">
        <ele>327.216051</ele>
        <time>2026-07-10T11:16:23.000Z</time>
      </trkpt>
      <trkpt lat="46.32434" lon="15.51147">
        <ele>324.198576</ele>
        <time>2026-07-10T11:16:29.000Z</time>
      </trkpt>
      <trkpt lat="46.32396" lon="15.51134">
        <ele>322.319675</ele>
        <time>2026-07-10T11:16:34.000Z</time>
      </trkpt>
      <trkpt lat="46.3237" lon="15.51121">
        <ele>321.796342</ele>
        <time>2026-07-10T11:16:38.000Z</time>
      </trkpt>
      <trkpt lat="46.32353" lon="15.51111">
        <ele>321.440765</ele>
        <time>2026-07-10T11:16:41.000Z</time>
      </trkpt>
      <trkpt lat="46.32315" lon="15.51089">
        <ele>320.653162</ele>
        <time>2026-07-10T11:16:48.000Z</time>
      </trkpt>
      <trkpt lat="46.32279" lon="15.51079">
        <ele>319.953943</ele>
        <time>2026-07-10T11:16:54.000Z</time>
      </trkpt>
      <trkpt lat="46.32237" lon="15.51069">
        <ele>319.132714</ele>
        <time>2026-07-10T11:17:01.000Z</time>
      </trkpt>
      <trkpt lat="46.32232" lon="15.51067">
        <ele>319.040573</ele>
        <time>2026-07-10T11:17:02.000Z</time>
      </trkpt>
      <trkpt lat="46.32199" lon="15.51051">
        <ele>318.815225</ele>
        <time>2026-07-10T11:17:08.000Z</time>
      </trkpt>
      <trkpt lat="46.32187" lon="15.51048">
        <ele>318.748782</ele>
        <time>2026-07-10T11:17:10.000Z</time>
      </trkpt>
      <trkpt lat="46.32175" lon="15.51048">
        <ele>318.679902</ele>
        <time>2026-07-10T11:17:12.000Z</time>
      </trkpt>
      <trkpt lat="46.32158" lon="15.5105">
        <ele>318.582636</ele>
        <time>2026-07-10T11:17:15.000Z</time>
      </trkpt>
      <trkpt lat="46.32127" lon="15.5105">
        <ele>318.400923</ele>
        <time>2026-07-10T11:17:21.000Z</time>
      </trkpt>
      <trkpt lat="46.32123" lon="15.51049">
        <ele>318.378147</ele>
        <time>2026-07-10T11:17:22.000Z</time>
      </trkpt>
      <trkpt lat="46.32103" lon="15.51038">
        <ele>318.25765</ele>
        <time>2026-07-10T11:17:26.000Z</time>
      </trkpt>
      <trkpt lat="46.32061" lon="15.51019">
        <ele>318.004697</ele>
        <time>2026-07-10T11:17:34.000Z</time>
      </trkpt>
      <trkpt lat="46.32012" lon="15.51009">
        <ele>319.021406</ele>
        <time>2026-07-10T11:17:43.000Z</time>
      </trkpt>
      <trkpt lat="46.31987" lon="15.51002">
        <ele>319.60213</ele>
        <time>2026-07-10T11:17:48.000Z</time>
      </trkpt>
      <trkpt lat="46.31983" lon="15.51">
        <ele>319.710537</ele>
        <time>2026-07-10T11:17:49.000Z</time>
      </trkpt>
      <trkpt lat="46.31979" lon="15.50997">
        <ele>319.818352</ele>
        <time>2026-07-10T11:17:50.000Z</time>
      </trkpt>
      <trkpt lat="46.31964" lon="15.50994">
        <ele>320.154085</ele>
        <time>2026-07-10T11:17:53.000Z</time>
      </trkpt>
      <trkpt lat="46.31956" lon="15.50994">
        <ele>320.343595</ele>
        <time>2026-07-10T11:17:55.000Z</time>
      </trkpt>
      <trkpt lat="46.31942" lon="15.50994">
        <ele>320.668828</ele>
        <time>2026-07-10T11:17:58.000Z</time>
      </trkpt>
      <trkpt lat="46.31938" lon="15.50993">
        <ele>320.773028</ele>
        <time>2026-07-10T11:17:59.000Z</time>
      </trkpt>
      <trkpt lat="46.3193" lon="15.5099">
        <ele>320.977335</ele>
        <time>2026-07-10T11:18:01.000Z</time>
      </trkpt>
      <trkpt lat="46.31921" lon="15.50987">
        <ele>321.175609</ele>
        <time>2026-07-10T11:18:03.000Z</time>
      </trkpt>
      <trkpt lat="46.31889" lon="15.50974">
        <ele>321.959932</ele>
        <time>2026-07-10T11:18:11.000Z</time>
      </trkpt>
      <trkpt lat="46.3187" lon="15.50966">
        <ele>322.672148</ele>
        <time>2026-07-10T11:18:17.000Z</time>
      </trkpt>
      <trkpt lat="46.31859" lon="15.50952">
        <ele>323.383213</ele>
        <time>2026-07-10T11:18:22.000Z</time>
      </trkpt>
      <trkpt lat="46.31847" lon="15.50932">
        <ele>324.242495</ele>
        <time>2026-07-10T11:18:26.000Z</time>
      </trkpt>
      <trkpt lat="46.31843" lon="15.50931">
        <ele>324.435741</ele>
        <time>2026-07-10T11:18:27.000Z</time>
      </trkpt>
      <trkpt lat="46.31823" lon="15.50923">
        <ele>325.430795</ele>
        <time>2026-07-10T11:18:33.000Z</time>
      </trkpt>
      <trkpt lat="46.31792" lon="15.50911">
        <ele>326.939199</ele>
        <time>2026-07-10T11:18:38.000Z</time>
      </trkpt>
      <trkpt lat="46.31768" lon="15.50904">
        <ele>328.115359</ele>
        <time>2026-07-10T11:18:44.000Z</time>
      </trkpt>
      <trkpt lat="46.31752" lon="15.50887">
        <ele>329.064228</ele>
        <time>2026-07-10T11:18:50.000Z</time>
      </trkpt>
      <trkpt lat="46.31737" lon="15.5087">
        <ele>329.983376</ele>
        <time>2026-07-10T11:18:55.000Z</time>
      </trkpt>
      <trkpt lat="46.3172" lon="15.5085">
        <ele>330.781344</ele>
        <time>2026-07-10T11:19:00.000Z</time>
      </trkpt>
      <trkpt lat="46.31715" lon="15.50846">
        <ele>330.813045</ele>
        <time>2026-07-10T11:19:01.000Z</time>
      </trkpt>
      <trkpt lat="46.31691" lon="15.50819">
        <ele>330.998924</ele>
        <time>2026-07-10T11:19:07.000Z</time>
      </trkpt>
      <trkpt lat="46.31682" lon="15.50809">
        <ele>331.06986</ele>
        <time>2026-07-10T11:19:09.000Z</time>
      </trkpt>
      <trkpt lat="46.31674" lon="15.50803">
        <ele>331.124985</ele>
        <time>2026-07-10T11:19:11.000Z</time>
      </trkpt>
      <trkpt lat="46.31654" lon="15.50789">
        <ele>331.259984</ele>
        <time>2026-07-10T11:19:16.000Z</time>
      </trkpt>
      <trkpt lat="46.31651" lon="15.50787">
        <ele>331.280642</ele>
        <time>2026-07-10T11:19:17.000Z</time>
      </trkpt>
      <trkpt lat="46.31646" lon="15.50784">
        <ele>331.310537</ele>
        <time>2026-07-10T11:19:18.000Z</time>
      </trkpt>
      <trkpt lat="46.31634" lon="15.50777">
        <ele>331.392622</ele>
        <time>2026-07-10T11:19:22.000Z</time>
      </trkpt>
      <trkpt lat="46.31621" lon="15.50756">
        <ele>331.509086</ele>
        <time>2026-07-10T11:19:27.000Z</time>
      </trkpt>
      <trkpt lat="46.31613" lon="15.5074">
        <ele>331.591704</ele>
        <time>2026-07-10T11:19:31.000Z</time>
      </trkpt>
      <trkpt lat="46.3161" lon="15.50735">
        <ele>331.621949</ele>
        <time>2026-07-10T11:19:35.000Z</time>
      </trkpt>
      <trkpt lat="46.3161" lon="15.50735">
        <ele>331.621949</ele>
        <time>2026-07-10T11:19:36.000Z</time>
      </trkpt>
      <trkpt lat="46.31612" lon="15.50742">
        <ele>331.653214</ele>
        <time>2026-07-10T11:19:57.000Z</time>
      </trkpt>
      <trkpt lat="46.31615" lon="15.50748">
        <ele>331.687616</ele>
        <time>2026-07-10T11:19:59.000Z</time>
      </trkpt>
      <trkpt lat="46.31626" lon="15.50769">
        <ele>331.797255</ele>
        <time>2026-07-10T11:20:05.000Z</time>
      </trkpt>
      <trkpt lat="46.31634" lon="15.50784">
        <ele>332.161012</ele>
        <time>2026-07-10T11:20:10.000Z</time>
      </trkpt>
      <trkpt lat="46.31634" lon="15.50785">
        <ele>332.200552</ele>
        <time>2026-07-10T11:20:12.000Z</time>
      </trkpt>
      <trkpt lat="46.31629" lon="15.50775">
        <ele>332.718473</ele>
        <time>2026-07-10T11:20:20.000Z</time>
      </trkpt>
      <trkpt lat="46.31622" lon="15.50761">
        <ele>333.369378</ele>
        <time>2026-07-10T11:20:24.000Z</time>
      </trkpt>
      <trkpt lat="46.31618" lon="15.5075">
        <ele>333.867096</ele>
        <time>2026-07-10T11:20:27.000Z</time>
      </trkpt>
      <trkpt lat="46.31608" lon="15.50732">
        <ele>334.804147</ele>
        <time>2026-07-10T11:20:33.000Z</time>
      </trkpt>
      <trkpt lat="46.31592" lon="15.5071">
        <ele>336.056526</ele>
        <time>2026-07-10T11:20:41.000Z</time>
      </trkpt>
      <trkpt lat="46.31572" lon="15.50697">
        <ele>337.311293</ele>
        <time>2026-07-10T11:20:50.000Z</time>
      </trkpt>
      <trkpt lat="46.31559" lon="15.50693">
        <ele>338.07054</ele>
        <time>2026-07-10T11:20:56.000Z</time>
      </trkpt>
      <trkpt lat="46.31539" lon="15.50689">
        <ele>339.234313</ele>
        <time>2026-07-10T11:21:05.000Z</time>
      </trkpt>
      <trkpt lat="46.31534" lon="15.50687">
        <ele>339.492218</ele>
        <time>2026-07-10T11:21:07.000Z</time>
      </trkpt>
      <trkpt lat="46.31526" lon="15.50688">
        <ele>339.938914</ele>
        <time>2026-07-10T11:21:11.000Z</time>
      </trkpt>
      <trkpt lat="46.31504" lon="15.50683">
        <ele>341.207539</ele>
        <time>2026-07-10T11:21:23.000Z</time>
      </trkpt>
      <trkpt lat="46.31488" lon="15.50678">
        <ele>342.208319</ele>
        <time>2026-07-10T11:21:32.000Z</time>
      </trkpt>
      <trkpt lat="46.31471" lon="15.50678">
        <ele>343.368726</ele>
        <time>2026-07-10T11:21:40.000Z</time>
      </trkpt>
      <trkpt lat="46.31458" lon="15.50686">
        <ele>344.358881</ele>
        <time>2026-07-10T11:21:47.000Z</time>
      </trkpt>
      <trkpt lat="46.31448" lon="15.50706">
        <ele>345.56561</ele>
        <time>2026-07-10T11:21:55.000Z</time>
      </trkpt>
      <trkpt lat="46.31447" lon="15.50708">
        <ele>345.690601</ele>
        <time>2026-07-10T11:21:56.000Z</time>
      </trkpt>
      <trkpt lat="46.31445" lon="15.50712">
        <ele>345.902529</ele>
        <time>2026-07-10T11:21:58.000Z</time>
      </trkpt>
      <trkpt lat="46.3144" lon="15.50724">
        <ele>346.577322</ele>
        <time>2026-07-10T11:22:03.000Z</time>
      </trkpt>
      <trkpt lat="46.3144" lon="15.50747">
        <ele>347.68431</ele>
        <time>2026-07-10T11:22:11.000Z</time>
      </trkpt>
      <trkpt lat="46.3144" lon="15.50748">
        <ele>347.757471</ele>
        <time>2026-07-10T11:22:12.000Z</time>
      </trkpt>
      <trkpt lat="46.3144" lon="15.50752">
        <ele>347.944084</ele>
        <time>2026-07-10T11:22:14.000Z</time>
      </trkpt>
      <trkpt lat="46.3144" lon="15.50754">
        <ele>348.052952</ele>
        <time>2026-07-10T11:22:15.000Z</time>
      </trkpt>
      <trkpt lat="46.31439" lon="15.50766">
        <ele>348.635442</ele>
        <time>2026-07-10T11:22:21.000Z</time>
      </trkpt>
      <trkpt lat="46.31439" lon="15.50768">
        <ele>348.747103</ele>
        <time>2026-07-10T11:22:22.000Z</time>
      </trkpt>
      <trkpt lat="46.31437" lon="15.50779">
        <ele>349.262907</ele>
        <time>2026-07-10T11:22:26.000Z</time>
      </trkpt>
      <trkpt lat="46.31434" lon="15.50804">
        <ele>350.510355</ele>
        <time>2026-07-10T11:22:33.000Z</time>
      </trkpt>
      <trkpt lat="46.31436" lon="15.50817">
        <ele>351.147759</ele>
        <time>2026-07-10T11:22:37.000Z</time>
      </trkpt>
      <trkpt lat="46.31443" lon="15.50842">
        <ele>352.458683</ele>
        <time>2026-07-10T11:22:43.000Z</time>
      </trkpt>
      <trkpt lat="46.31444" lon="15.50863">
        <ele>353.489846</ele>
        <time>2026-07-10T11:22:49.000Z</time>
      </trkpt>
      <trkpt lat="46.31441" lon="15.50884">
        <ele>354.520016</ele>
        <time>2026-07-10T11:22:55.000Z</time>
      </trkpt>
      <trkpt lat="46.31436" lon="15.50898">
        <ele>354.47424</ele>
        <time>2026-07-10T11:23:00.000Z</time>
      </trkpt>
      <trkpt lat="46.31436" lon="15.50901">
        <ele>354.375789</ele>
        <time>2026-07-10T11:23:01.000Z</time>
      </trkpt>
      <trkpt lat="46.31433" lon="15.50913">
        <ele>354.01625</ele>
        <time>2026-07-10T11:23:05.000Z</time>
      </trkpt>
      <trkpt lat="46.31432" lon="15.50926">
        <ele>353.615586</ele>
        <time>2026-07-10T11:23:09.000Z</time>
      </trkpt>
      <trkpt lat="46.31431" lon="15.50938">
        <ele>353.279085</ele>
        <time>2026-07-10T11:23:11.000Z</time>
      </trkpt>
      <trkpt lat="46.3143" lon="15.50966">
        <ele>352.444887</ele>
        <time>2026-07-10T11:23:17.000Z</time>
      </trkpt>
      <trkpt lat="46.31426" lon="15.50976">
        <ele>352.081576</ele>
        <time>2026-07-10T11:23:20.000Z</time>
      </trkpt>
      <trkpt lat="46.31422" lon="15.5098">
        <ele>351.872308</ele>
        <time>2026-07-10T11:23:22.000Z</time>
      </trkpt>
      <trkpt lat="46.31411" lon="15.50981">
        <ele>351.410471</ele>
        <time>2026-07-10T11:23:27.000Z</time>
      </trkpt>
      <trkpt lat="46.31403" lon="15.5098">
        <ele>351.049245</ele>
        <time>2026-07-10T11:23:30.000Z</time>
      </trkpt>
      <trkpt lat="46.31401" lon="15.50978">
        <ele>350.951638</ele>
        <time>2026-07-10T11:23:31.000Z</time>
      </trkpt>
      <trkpt lat="46.31385" lon="15.50966">
        <ele>350.180849</ele>
        <time>2026-07-10T11:23:38.000Z</time>
      </trkpt>
      <trkpt lat="46.31377" lon="15.50959">
        <ele>349.769419</ele>
        <time>2026-07-10T11:23:41.000Z</time>
      </trkpt>
      <trkpt lat="46.31371" lon="15.50961">
        <ele>349.52906</ele>
        <time>2026-07-10T11:23:43.000Z</time>
      </trkpt>
      <trkpt lat="46.3136" lon="15.50975">
        <ele>348.879872</ele>
        <time>2026-07-10T11:23:48.000Z</time>
      </trkpt>
      <trkpt lat="46.31358" lon="15.50979">
        <ele>348.749918</ele>
        <time>2026-07-10T11:23:49.000Z</time>
      </trkpt>
      <trkpt lat="46.31349" lon="15.50994">
        <ele>348.135242</ele>
        <time>2026-07-10T11:23:54.000Z</time>
      </trkpt>
      <trkpt lat="46.31337" lon="15.51007">
        <ele>347.499625</ele>
        <time>2026-07-10T11:23:58.000Z</time>
      </trkpt>
      <trkpt lat="46.31329" lon="15.51022">
        <ele>346.860168</ele>
        <time>2026-07-10T11:24:02.000Z</time>
      </trkpt>
      <trkpt lat="46.31317" lon="15.51034">
        <ele>345.760039</ele>
        <time>2026-07-10T11:24:06.000Z</time>
      </trkpt>
      <trkpt lat="46.31308" lon="15.51051">
        <ele>344.616453</ele>
        <time>2026-07-10T11:24:09.000Z</time>
      </trkpt>
      <trkpt lat="46.31307" lon="15.51052">
        <ele>344.488233</ele>
        <time>2026-07-10T11:24:10.000Z</time>
      </trkpt>
      <trkpt lat="46.313" lon="15.51072">
        <ele>343.285486</ele>
        <time>2026-07-10T11:24:15.000Z</time>
      </trkpt>
      <trkpt lat="46.313" lon="15.51074">
        <ele>343.161261</ele>
        <time>2026-07-10T11:24:16.000Z</time>
      </trkpt>
      <trkpt lat="46.31301" lon="15.51075">
        <ele>343.077768</ele>
        <time>2026-07-10T11:24:17.000Z</time>
      </trkpt>
      <trkpt lat="46.31303" lon="15.51075">
        <ele>342.976934</ele>
        <time>2026-07-10T11:24:18.000Z</time>
      </trkpt>
      <trkpt lat="46.31303" lon="15.51073">
        <ele>342.89801</ele>
        <time>2026-07-10T11:24:19.000Z</time>
      </trkpt>
      <trkpt lat="46.31305" lon="15.51057">
        <ele>341.997502</ele>
        <time>2026-07-10T11:24:27.000Z</time>
      </trkpt>
      <trkpt lat="46.31305" lon="15.5105">
        <ele>341.645755</ele>
        <time>2026-07-10T11:24:29.000Z</time>
      </trkpt>
      <trkpt lat="46.31298" lon="15.51035">
        <ele>340.680949</ele>
        <time>2026-07-10T11:24:33.000Z</time>
      </trkpt>
      <trkpt lat="46.31287" lon="15.51011">
        <ele>339.144852</ele>
        <time>2026-07-10T11:24:38.000Z</time>
      </trkpt>
      <trkpt lat="46.31274" lon="15.50995">
        <ele>337.811887</ele>
        <time>2026-07-10T11:24:42.000Z</time>
      </trkpt>
      <trkpt lat="46.31269" lon="15.50992">
        <ele>337.395055</ele>
        <time>2026-07-10T11:24:43.000Z</time>
      </trkpt>
      <trkpt lat="46.31247" lon="15.50981">
        <ele>335.622253</ele>
        <time>2026-07-10T11:24:48.000Z</time>
      </trkpt>
      <trkpt lat="46.31232" lon="15.50973">
        <ele>334.394173</ele>
        <time>2026-07-10T11:24:51.000Z</time>
      </trkpt>
      <trkpt lat="46.31226" lon="15.50968">
        <ele>333.819927</ele>
        <time>2026-07-10T11:24:52.000Z</time>
      </trkpt>
      <trkpt lat="46.31215" lon="15.50964">
        <ele>333.035691</ele>
        <time>2026-07-10T11:24:54.000Z</time>
      </trkpt>
      <trkpt lat="46.31207" lon="15.50962">
        <ele>332.611323</ele>
        <time>2026-07-10T11:24:56.000Z</time>
      </trkpt>
      <trkpt lat="46.312" lon="15.50959">
        <ele>332.231701</ele>
        <time>2026-07-10T11:24:58.000Z</time>
      </trkpt>
      <trkpt lat="46.31191" lon="15.50953">
        <ele>331.691327</ele>
        <time>2026-07-10T11:25:00.000Z</time>
      </trkpt>
      <trkpt lat="46.31184" lon="15.50946">
        <ele>331.245581</ele>
        <time>2026-07-10T11:25:02.000Z</time>
      </trkpt>
      <trkpt lat="46.31179" lon="15.5094">
        <ele>330.894017</ele>
        <time>2026-07-10T11:25:03.000Z</time>
      </trkpt>
      <trkpt lat="46.31172" lon="15.50932">
        <ele>330.39637</ele>
        <time>2026-07-10T11:25:05.000Z</time>
      </trkpt>
      <trkpt lat="46.3116" lon="15.50919">
        <ele>329.628521</ele>
        <time>2026-07-10T11:25:08.000Z</time>
      </trkpt>
      <trkpt lat="46.31156" lon="15.50916">
        <ele>329.383483</ele>
        <time>2026-07-10T11:25:09.000Z</time>
      </trkpt>
      <trkpt lat="46.31153" lon="15.50914">
        <ele>329.162084</ele>
        <time>2026-07-10T11:25:10.000Z</time>
      </trkpt>
      <trkpt lat="46.31138" lon="15.50911">
        <ele>328.390977</ele>
        <time>2026-07-10T11:25:13.000Z</time>
      </trkpt>
      <trkpt lat="46.31133" lon="15.5091">
        <ele>328.090812</ele>
        <time>2026-07-10T11:25:14.000Z</time>
      </trkpt>
      <trkpt lat="46.31106" lon="15.50904">
        <ele>326.639517</ele>
        <time>2026-07-10T11:25:19.000Z</time>
      </trkpt>
      <trkpt lat="46.31086" lon="15.50902">
        <ele>325.57932</ele>
        <time>2026-07-10T11:25:23.000Z</time>
      </trkpt>
      <trkpt lat="46.31069" lon="15.50898">
        <ele>324.635412</ele>
        <time>2026-07-10T11:25:27.000Z</time>
      </trkpt>
      <trkpt lat="46.31064" lon="15.50897">
        <ele>324.3917</ele>
        <time>2026-07-10T11:25:28.000Z</time>
      </trkpt>
      <trkpt lat="46.31039" lon="15.50892">
        <ele>323.08348</ele>
        <time>2026-07-10T11:25:33.000Z</time>
      </trkpt>
      <trkpt lat="46.30994" lon="15.50883">
        <ele>320.748636</ele>
        <time>2026-07-10T11:25:42.000Z</time>
      </trkpt>
      <trkpt lat="46.30943" lon="15.50876">
        <ele>318.194668</ele>
        <time>2026-07-10T11:25:53.000Z</time>
      </trkpt>
      <trkpt lat="46.30925" lon="15.50873">
        <ele>317.275029</ele>
        <time>2026-07-10T11:25:57.000Z</time>
      </trkpt>
      <trkpt lat="46.30903" lon="15.5087">
        <ele>316.137054</ele>
        <time>2026-07-10T11:26:02.000Z</time>
      </trkpt>
      <trkpt lat="46.30896" lon="15.50861">
        <ele>315.645327</ele>
        <time>2026-07-10T11:26:05.000Z</time>
      </trkpt>
      <trkpt lat="46.30889" lon="15.50832">
        <ele>314.574585</ele>
        <time>2026-07-10T11:26:11.000Z</time>
      </trkpt>
      <trkpt lat="46.30879" lon="15.50798">
        <ele>313.04385</ele>
        <time>2026-07-10T11:26:17.000Z</time>
      </trkpt>
      <trkpt lat="46.30878" lon="15.50792">
        <ele>312.724067</ele>
        <time>2026-07-10T11:26:18.000Z</time>
      </trkpt>
      <trkpt lat="46.30866" lon="15.50748">
        <ele>310.710385</ele>
        <time>2026-07-10T11:26:23.000Z</time>
      </trkpt>
      <trkpt lat="46.30849" lon="15.5069">
        <ele>307.986899</ele>
        <time>2026-07-10T11:26:28.000Z</time>
      </trkpt>
      <trkpt lat="46.30827" lon="15.50635">
        <ele>305.261923</ele>
        <time>2026-07-10T11:26:32.000Z</time>
      </trkpt>
      <trkpt lat="46.30789" lon="15.50569">
        <ele>301.231327</ele>
        <time>2026-07-10T11:26:37.000Z</time>
      </trkpt>
      <trkpt lat="46.30753" lon="15.50517">
        <ele>297.448782</ele>
        <time>2026-07-10T11:26:41.000Z</time>
      </trkpt>
      <trkpt lat="46.30744" lon="15.50503">
        <ele>296.501339</ele>
        <time>2026-07-10T11:26:42.000Z</time>
      </trkpt>
      <trkpt lat="46.30708" lon="15.50436">
        <ele>292.102399</ele>
        <time>2026-07-10T11:26:47.000Z</time>
      </trkpt>
      <trkpt lat="46.30671" lon="15.5038">
        <ele>288.929052</ele>
        <time>2026-07-10T11:26:52.000Z</time>
      </trkpt>
      <trkpt lat="46.30629" lon="15.50332">
        <ele>286.833641</ele>
        <time>2026-07-10T11:26:57.000Z</time>
      </trkpt>
      <trkpt lat="46.30599" lon="15.50296">
        <ele>285.261597</ele>
        <time>2026-07-10T11:27:01.000Z</time>
      </trkpt>
      <trkpt lat="46.30557" lon="15.50245">
        <ele>283.090844</ele>
        <time>2026-07-10T11:27:07.000Z</time>
      </trkpt>
      <trkpt lat="46.3055" lon="15.50237">
        <ele>282.746292</ele>
        <time>2026-07-10T11:27:08.000Z</time>
      </trkpt>
      <trkpt lat="46.30525" lon="15.50205">
        <ele>282.429648</ele>
        <time>2026-07-10T11:27:12.000Z</time>
      </trkpt>
      <trkpt lat="46.30501" lon="15.50174">
        <ele>282.132293</ele>
        <time>2026-07-10T11:27:16.000Z</time>
      </trkpt>
      <trkpt lat="46.3046" lon="15.50115">
        <ele>281.589427</ele>
        <time>2026-07-10T11:27:24.000Z</time>
      </trkpt>
      <trkpt lat="46.30448" lon="15.50097">
        <ele>281.431013</ele>
        <time>2026-07-10T11:27:27.000Z</time>
      </trkpt>
      <trkpt lat="46.30443" lon="15.50086">
        <ele>281.345538</ele>
        <time>2026-07-10T11:27:29.000Z</time>
      </trkpt>
      <trkpt lat="46.30437" lon="15.50071">
        <ele>281.229962</ele>
        <time>2026-07-10T11:27:32.000Z</time>
      </trkpt>
      <trkpt lat="46.3043" lon="15.50062">
        <ele>281.143854</ele>
        <time>2026-07-10T11:27:34.000Z</time>
      </trkpt>
      <trkpt lat="46.30399" lon="15.50038">
        <ele>280.618975</ele>
        <time>2026-07-10T11:27:41.000Z</time>
      </trkpt>
      <trkpt lat="46.30382" lon="15.50028">
        <ele>280.304537</ele>
        <time>2026-07-10T11:27:45.000Z</time>
      </trkpt>
      <trkpt lat="46.30362" lon="15.50011">
        <ele>279.929141</ele>
        <time>2026-07-10T11:27:50.000Z</time>
      </trkpt>
      <trkpt lat="46.30329" lon="15.49977">
        <ele>279.247188</ele>
        <time>2026-07-10T11:27:59.000Z</time>
      </trkpt>
      <trkpt lat="46.30326" lon="15.49972">
        <ele>279.170991</ele>
        <time>2026-07-10T11:28:00.000Z</time>
      </trkpt>
      <trkpt lat="46.3032" lon="15.49961">
        <ele>279.011182</ele>
        <time>2026-07-10T11:28:02.000Z</time>
      </trkpt>
      <trkpt lat="46.30317" lon="15.49956">
        <ele>278.928681</ele>
        <time>2026-07-10T11:28:03.000Z</time>
      </trkpt>
      <trkpt lat="46.30311" lon="15.49945">
        <ele>278.761467</ele>
        <time>2026-07-10T11:28:05.000Z</time>
      </trkpt>
      <trkpt lat="46.30305" lon="15.49933">
        <ele>278.58875</ele>
        <time>2026-07-10T11:28:07.000Z</time>
      </trkpt>
      <trkpt lat="46.30285" lon="15.49881">
        <ele>277.8926</ele>
        <time>2026-07-10T11:28:15.000Z</time>
      </trkpt>
      <trkpt lat="46.30278" lon="15.49854">
        <ele>277.515847</ele>
        <time>2026-07-10T11:28:19.000Z</time>
      </trkpt>
      <trkpt lat="46.30277" lon="15.4984">
        <ele>277.332923</ele>
        <time>2026-07-10T11:28:21.000Z</time>
      </trkpt>
      <trkpt lat="46.30276" lon="15.49827">
        <ele>277.166111</ele>
        <time>2026-07-10T11:28:23.000Z</time>
      </trkpt>
      <trkpt lat="46.30279" lon="15.49798">
        <ele>276.789361</ele>
        <time>2026-07-10T11:28:27.000Z</time>
      </trkpt>
      <trkpt lat="46.3028" lon="15.49784">
        <ele>276.595377</ele>
        <time>2026-07-10T11:28:29.000Z</time>
      </trkpt>
      <trkpt lat="46.30276" lon="15.4975">
        <ele>276.151991</ele>
        <time>2026-07-10T11:28:33.000Z</time>
      </trkpt>
      <trkpt lat="46.30273" lon="15.49732">
        <ele>275.913119</ele>
        <time>2026-07-10T11:28:35.000Z</time>
      </trkpt>
      <trkpt lat="46.30264" lon="15.49709">
        <ele>275.572817</ele>
        <time>2026-07-10T11:28:38.000Z</time>
      </trkpt>
      <trkpt lat="46.30254" lon="15.49696">
        <ele>275.307632</ele>
        <time>2026-07-10T11:28:40.000Z</time>
      </trkpt>
      <trkpt lat="46.30244" lon="15.49688">
        <ele>275.099794</ele>
        <time>2026-07-10T11:28:42.000Z</time>
      </trkpt>
      <trkpt lat="46.30222" lon="15.49674">
        <ele>274.669138</ele>
        <time>2026-07-10T11:28:46.000Z</time>
      </trkpt>
      <trkpt lat="46.30217" lon="15.49671">
        <ele>274.773085</ele>
        <time>2026-07-10T11:28:47.000Z</time>
      </trkpt>
      <trkpt lat="46.30202" lon="15.49663">
        <ele>275.108948</ele>
        <time>2026-07-10T11:28:51.000Z</time>
      </trkpt>
      <trkpt lat="46.30194" lon="15.4966">
        <ele>275.275997</ele>
        <time>2026-07-10T11:28:53.000Z</time>
      </trkpt>
      <trkpt lat="46.30175" lon="15.4965">
        <ele>275.687742</ele>
        <time>2026-07-10T11:29:00.000Z</time>
      </trkpt>
      <trkpt lat="46.30148" lon="15.49633">
        <ele>276.299995</ele>
        <time>2026-07-10T11:29:10.000Z</time>
      </trkpt>
      <trkpt lat="46.30144" lon="15.49638">
        <ele>276.411782</ele>
        <time>2026-07-10T11:29:12.000Z</time>
      </trkpt>
      <trkpt lat="46.30143" lon="15.49643">
        <ele>276.484276</ele>
        <time>2026-07-10T11:29:13.000Z</time>
      </trkpt>
      <trkpt lat="46.30142" lon="15.49648">
        <ele>276.553895</ele>
        <time>2026-07-10T11:29:14.000Z</time>
      </trkpt>
      <trkpt lat="46.30146" lon="15.49662">
        <ele>276.774139</ele>
        <time>2026-07-10T11:29:17.000Z</time>
      </trkpt>
      <trkpt lat="46.30151" lon="15.49695">
        <ele>277.246559</ele>
        <time>2026-07-10T11:29:24.000Z</time>
      </trkpt>
      <trkpt lat="46.30149" lon="15.49714">
        <ele>277.519848</ele>
        <time>2026-07-10T11:29:29.000Z</time>
      </trkpt>
      <trkpt lat="46.30146" lon="15.49719">
        <ele>277.61685</ele>
        <time>2026-07-10T11:29:31.000Z</time>
      </trkpt>
      <trkpt lat="46.30144" lon="15.49721">
        <ele>277.668708</ele>
        <time>2026-07-10T11:29:33.000Z</time>
      </trkpt>
      <trkpt lat="46.30144" lon="15.49721">
        <ele>277.672214</ele>
        <time>2026-07-10T11:29:34.000Z</time>
      </trkpt>
      <trkpt lat="46.30143" lon="15.49718">
        <ele>277.71921</ele>
        <time>2026-07-10T11:29:36.000Z</time>
      </trkpt>
      <trkpt lat="46.30143" lon="15.49715">
        <ele>277.750454</ele>
        <time>2026-07-10T11:29:38.000Z</time>
      </trkpt>
      <trkpt lat="46.30144" lon="15.49708">
        <ele>277.859341</ele>
        <time>2026-07-10T11:29:46.000Z</time>
      </trkpt>
      <trkpt lat="46.30144" lon="15.497">
        <ele>277.971836</ele>
        <time>2026-07-10T11:29:48.000Z</time>
      </trkpt>
      <trkpt lat="46.30146" lon="15.4969">
        <ele>278.115023</ele>
        <time>2026-07-10T11:29:51.000Z</time>
      </trkpt>
      <trkpt lat="46.30148" lon="15.49681">
        <ele>278.257144</ele>
        <time>2026-07-10T11:29:54.000Z</time>
      </trkpt>
      <trkpt lat="46.30149" lon="15.49674">
        <ele>278.349899</ele>
        <time>2026-07-10T11:29:59.000Z</time>
      </trkpt>
      <trkpt lat="46.30149" lon="15.49668">
        <ele>278.39763</ele>
        <time>2026-07-10T11:30:44.000Z</time>
      </trkpt>
      <trkpt lat="46.30145" lon="15.49661">
        <ele>278.461338</ele>
        <time>2026-07-10T11:30:47.000Z</time>
      </trkpt>
      <trkpt lat="46.3014" lon="15.49644">
        <ele>278.598276</ele>
        <time>2026-07-10T11:30:54.000Z</time>
      </trkpt>
      <trkpt lat="46.30143" lon="15.49646">
        <ele>278.640628</ele>
        <time>2026-07-10T11:30:57.000Z</time>
      </trkpt>
      <trkpt lat="46.30149" lon="15.49669">
        <ele>278.820201</ele>
        <time>2026-07-10T11:31:03.000Z</time>
      </trkpt>
      <trkpt lat="46.30151" lon="15.497">
        <ele>279.048759</ele>
        <time>2026-07-10T11:31:09.000Z</time>
      </trkpt>
      <trkpt lat="46.30147" lon="15.49738">
        <ele>279.320433</ele>
        <time>2026-07-10T11:31:17.000Z</time>
      </trkpt>
      <trkpt lat="46.30149" lon="15.49741">
        <ele>279.347233</ele>
        <time>2026-07-10T11:31:18.000Z</time>
      </trkpt>
      <trkpt lat="46.30152" lon="15.49743">
        <ele>279.386029</ele>
        <time>2026-07-10T11:31:20.000Z</time>
      </trkpt>
      <trkpt lat="46.30154" lon="15.49744">
        <ele>279.404357</ele>
        <time>2026-07-10T11:31:21.000Z</time>
      </trkpt>
      <trkpt lat="46.30155" lon="15.49745">
        <ele>279.42218</ele>
        <time>2026-07-10T11:31:22.000Z</time>
      </trkpt>
      <trkpt lat="46.30158" lon="15.49748">
        <ele>279.460372</ele>
        <time>2026-07-10T11:31:24.000Z</time>
      </trkpt>
      <trkpt lat="46.3016" lon="15.49747">
        <ele>279.484589</ele>
        <time>2026-07-10T11:31:25.000Z</time>
      </trkpt>
      <trkpt lat="46.30161" lon="15.49745">
        <ele>279.502037</ele>
        <time>2026-07-10T11:31:28.000Z</time>
      </trkpt>
      <trkpt lat="46.30158" lon="15.49742">
        <ele>279.534324</ele>
        <time>2026-07-10T12:07:21.000Z</time>
      </trkpt>
      <trkpt lat="46.30161" lon="15.49735">
        <ele>279.58958</ele>
        <time>2026-07-10T12:07:42.000Z</time>
      </trkpt>
      <trkpt lat="46.30161" lon="15.49735">
        <ele>279.594672</ele>
        <time>2026-07-10T12:07:43.000Z</time>
      </trkpt>
      <trkpt lat="46.30158" lon="15.49735">
        <ele>279.629305</ele>
        <time>2026-07-10T12:08:34.000Z</time>
      </trkpt>
      <trkpt lat="46.30154" lon="15.49739">
        <ele>279.677682</ele>
        <time>2026-07-10T12:08:35.000Z</time>
      </trkpt>
      <trkpt lat="46.30151" lon="15.49741">
        <ele>279.707258</ele>
        <time>2026-07-10T12:17:12.000Z</time>
      </trkpt>
      <trkpt lat="46.30152" lon="15.49724">
        <ele>279.825251</ele>
        <time>2026-07-10T12:17:17.000Z</time>
      </trkpt>
      <trkpt lat="46.30156" lon="15.49704">
        <ele>279.98079</ele>
        <time>2026-07-10T12:17:23.000Z</time>
      </trkpt>
      <trkpt lat="46.30155" lon="15.497">
        <ele>280.007029</ele>
        <time>2026-07-10T12:17:24.000Z</time>
      </trkpt>
      <trkpt lat="46.30157" lon="15.49687">
        <ele>280.10206</ele>
        <time>2026-07-10T12:17:27.000Z</time>
      </trkpt>
      <trkpt lat="46.30159" lon="15.49674">
        <ele>280.200844</ele>
        <time>2026-07-10T12:17:30.000Z</time>
      </trkpt>
      <trkpt lat="46.30165" lon="15.49651">
        <ele>280.020976</ele>
        <time>2026-07-10T12:17:35.000Z</time>
      </trkpt>
      <trkpt lat="46.30164" lon="15.49647">
        <ele>279.959876</ele>
        <time>2026-07-10T12:17:36.000Z</time>
      </trkpt>
      <trkpt lat="46.30161" lon="15.49642">
        <ele>279.899787</ele>
        <time>2026-07-10T12:17:37.000Z</time>
      </trkpt>
      <trkpt lat="46.30155" lon="15.49637">
        <ele>279.775185</ele>
        <time>2026-07-10T12:17:39.000Z</time>
      </trkpt>
      <trkpt lat="46.30132" lon="15.49621">
        <ele>279.351477</ele>
        <time>2026-07-10T12:17:46.000Z</time>
      </trkpt>
      <trkpt lat="46.30112" lon="15.49624">
        <ele>279.02483</ele>
        <time>2026-07-10T12:17:52.000Z</time>
      </trkpt>
      <trkpt lat="46.30085" lon="15.49618">
        <ele>278.574977</ele>
        <time>2026-07-10T12:18:00.000Z</time>
      </trkpt>
      <trkpt lat="46.30068" lon="15.49606">
        <ele>278.272752</ele>
        <time>2026-07-10T12:18:05.000Z</time>
      </trkpt>
      <trkpt lat="46.30065" lon="15.49604">
        <ele>278.213847</ele>
        <time>2026-07-10T12:18:06.000Z</time>
      </trkpt>
      <trkpt lat="46.30062" lon="15.49601">
        <ele>278.152725</ele>
        <time>2026-07-10T12:18:07.000Z</time>
      </trkpt>
      <trkpt lat="46.30042" lon="15.49584">
        <ele>277.76654</ele>
        <time>2026-07-10T12:18:12.000Z</time>
      </trkpt>
      <trkpt lat="46.30037" lon="15.49579">
        <ele>277.664086</ele>
        <time>2026-07-10T12:18:13.000Z</time>
      </trkpt>
      <trkpt lat="46.30027" lon="15.49567">
        <ele>277.450614</ele>
        <time>2026-07-10T12:18:15.000Z</time>
      </trkpt>
      <trkpt lat="46.30021" lon="15.49564">
        <ele>277.338115</ele>
        <time>2026-07-10T12:18:16.000Z</time>
      </trkpt>
      <trkpt lat="46.30014" lon="15.49562">
        <ele>277.230174</ele>
        <time>2026-07-10T12:18:17.000Z</time>
      </trkpt>
      <trkpt lat="46.30001" lon="15.49564">
        <ele>277.023358</ele>
        <time>2026-07-10T12:18:19.000Z</time>
      </trkpt>
      <trkpt lat="46.29984" lon="15.49578">
        <ele>276.698062</ele>
        <time>2026-07-10T12:18:23.000Z</time>
      </trkpt>
      <trkpt lat="46.29975" lon="15.49584">
        <ele>276.539544</ele>
        <time>2026-07-10T12:18:27.000Z</time>
      </trkpt>
      <trkpt lat="46.29954" lon="15.49584">
        <ele>276.189175</ele>
        <time>2026-07-10T12:18:36.000Z</time>
      </trkpt>
      <trkpt lat="46.29935" lon="15.49596">
        <ele>275.856576</ele>
        <time>2026-07-10T12:18:42.000Z</time>
      </trkpt>
      <trkpt lat="46.29926" lon="15.49601">
        <ele>275.706631</ele>
        <time>2026-07-10T12:18:44.000Z</time>
      </trkpt>
      <trkpt lat="46.29914" lon="15.49606">
        <ele>275.493292</ele>
        <time>2026-07-10T12:18:47.000Z</time>
      </trkpt>
      <trkpt lat="46.29909" lon="15.49607">
        <ele>275.42249</ele>
        <time>2026-07-10T12:18:48.000Z</time>
      </trkpt>
      <trkpt lat="46.29881" lon="15.4961">
        <ele>274.958456</ele>
        <time>2026-07-10T12:18:55.000Z</time>
      </trkpt>
      <trkpt lat="46.2987" lon="15.49609">
        <ele>274.783726</ele>
        <time>2026-07-10T12:18:58.000Z</time>
      </trkpt>
      <trkpt lat="46.29833" lon="15.49603">
        <ele>274.492653</ele>
        <time>2026-07-10T12:19:08.000Z</time>
      </trkpt>
      <trkpt lat="46.29803" lon="15.49599">
        <ele>274.972964</ele>
        <time>2026-07-10T12:19:17.000Z</time>
      </trkpt>
      <trkpt lat="46.29793" lon="15.49597">
        <ele>275.130427</ele>
        <time>2026-07-10T12:19:20.000Z</time>
      </trkpt>
      <trkpt lat="46.29786" lon="15.49596">
        <ele>275.23932</ele>
        <time>2026-07-10T12:19:22.000Z</time>
      </trkpt>
      <trkpt lat="46.29776" lon="15.49594">
        <ele>275.395163</ele>
        <time>2026-07-10T12:19:25.000Z</time>
      </trkpt>
      <trkpt lat="46.29743" lon="15.49589">
        <ele>275.919616</ele>
        <time>2026-07-10T12:19:35.000Z</time>
      </trkpt>
      <trkpt lat="46.29703" lon="15.4958">
        <ele>276.555685</ele>
        <time>2026-07-10T12:19:47.000Z</time>
      </trkpt>
      <trkpt lat="46.29681" lon="15.4958">
        <ele>276.896095</ele>
        <time>2026-07-10T12:19:54.000Z</time>
      </trkpt>
      <trkpt lat="46.29666" lon="15.49582">
        <ele>277.134163</ele>
        <time>2026-07-10T12:19:59.000Z</time>
      </trkpt>
      <trkpt lat="46.2966" lon="15.49582">
        <ele>277.276037</ele>
        <time>2026-07-10T12:20:01.000Z</time>
      </trkpt>
      <trkpt lat="46.29642" lon="15.49585">
        <ele>277.821006</ele>
        <time>2026-07-10T12:20:07.000Z</time>
      </trkpt>
      <trkpt lat="46.29626" lon="15.4959">
        <ele>278.315593</ele>
        <time>2026-07-10T12:20:13.000Z</time>
      </trkpt>
      <trkpt lat="46.2961" lon="15.49596">
        <ele>278.791577</ele>
        <time>2026-07-10T12:20:19.000Z</time>
      </trkpt>
      <trkpt lat="46.29601" lon="15.49597">
        <ele>279.059668</ele>
        <time>2026-07-10T12:20:22.000Z</time>
      </trkpt>
      <trkpt lat="46.29589" lon="15.49594">
        <ele>279.401339</ele>
        <time>2026-07-10T12:20:26.000Z</time>
      </trkpt>
      <trkpt lat="46.29587" lon="15.49594">
        <ele>279.479504</ele>
        <time>2026-07-10T12:20:27.000Z</time>
      </trkpt>
      <trkpt lat="46.29582" lon="15.49591">
        <ele>279.639399</ele>
        <time>2026-07-10T12:20:29.000Z</time>
      </trkpt>
      <trkpt lat="46.29569" lon="15.49583">
        <ele>280.054381</ele>
        <time>2026-07-10T12:20:35.000Z</time>
      </trkpt>
      <trkpt lat="46.29567" lon="15.4958">
        <ele>280.12635</ele>
        <time>2026-07-10T12:20:36.000Z</time>
      </trkpt>
      <trkpt lat="46.29559" lon="15.49574">
        <ele>280.400698</ele>
        <time>2026-07-10T12:20:40.000Z</time>
      </trkpt>
      <trkpt lat="46.29557" lon="15.49571">
        <ele>280.467012</ele>
        <time>2026-07-10T12:20:41.000Z</time>
      </trkpt>
      <trkpt lat="46.29542" lon="15.4955">
        <ele>281.090608</ele>
        <time>2026-07-10T12:20:50.000Z</time>
      </trkpt>
      <trkpt lat="46.29537" lon="15.49543">
        <ele>281.288366</ele>
        <time>2026-07-10T12:20:53.000Z</time>
      </trkpt>
      <trkpt lat="46.29533" lon="15.49536">
        <ele>281.482632</ele>
        <time>2026-07-10T12:20:56.000Z</time>
      </trkpt>
      <trkpt lat="46.29531" lon="15.49534">
        <ele>281.552933</ele>
        <time>2026-07-10T12:20:57.000Z</time>
      </trkpt>
      <trkpt lat="46.29529" lon="15.49532">
        <ele>281.624419</ele>
        <time>2026-07-10T12:20:58.000Z</time>
      </trkpt>
      <trkpt lat="46.29525" lon="15.49528">
        <ele>281.765021</ele>
        <time>2026-07-10T12:21:00.000Z</time>
      </trkpt>
      <trkpt lat="46.29515" lon="15.49519">
        <ele>282.115248</ele>
        <time>2026-07-10T12:21:05.000Z</time>
      </trkpt>
      <trkpt lat="46.295" lon="15.49507">
        <ele>282.781456</ele>
        <time>2026-07-10T12:21:13.000Z</time>
      </trkpt>
      <trkpt lat="46.29484" lon="15.49501">
        <ele>283.83998</ele>
        <time>2026-07-10T12:21:20.000Z</time>
      </trkpt>
      <trkpt lat="46.29465" lon="15.49487">
        <ele>285.185625</ele>
        <time>2026-07-10T12:21:30.000Z</time>
      </trkpt>
      <trkpt lat="46.29451" lon="15.49474">
        <ele>286.204355</ele>
        <time>2026-07-10T12:21:37.000Z</time>
      </trkpt>
      <trkpt lat="46.29447" lon="15.49471">
        <ele>286.484737</ele>
        <time>2026-07-10T12:21:39.000Z</time>
      </trkpt>
      <trkpt lat="46.29437" lon="15.49459">
        <ele>287.316401</ele>
        <time>2026-07-10T12:21:46.000Z</time>
      </trkpt>
      <trkpt lat="46.29427" lon="15.4945">
        <ele>288.0539</ele>
        <time>2026-07-10T12:21:52.000Z</time>
      </trkpt>
      <trkpt lat="46.29426" lon="15.49448">
        <ele>288.174351</ele>
        <time>2026-07-10T12:21:53.000Z</time>
      </trkpt>
      <trkpt lat="46.29416" lon="15.49429">
        <ele>289.181788</ele>
        <time>2026-07-10T12:22:02.000Z</time>
      </trkpt>
      <trkpt lat="46.29414" lon="15.49425">
        <ele>289.428154</ele>
        <time>2026-07-10T12:22:04.000Z</time>
      </trkpt>
      <trkpt lat="46.29403" lon="15.49402">
        <ele>290.594774</ele>
        <time>2026-07-10T12:22:13.000Z</time>
      </trkpt>
      <trkpt lat="46.29392" lon="15.49378">
        <ele>291.847288</ele>
        <time>2026-07-10T12:22:23.000Z</time>
      </trkpt>
      <trkpt lat="46.29389" lon="15.49372">
        <ele>292.219225</ele>
        <time>2026-07-10T12:22:26.000Z</time>
      </trkpt>
      <trkpt lat="46.29383" lon="15.49365">
        <ele>292.687037</ele>
        <time>2026-07-10T12:22:30.000Z</time>
      </trkpt>
      <trkpt lat="46.29381" lon="15.49364">
        <ele>292.791381</ele>
        <time>2026-07-10T12:22:31.000Z</time>
      </trkpt>
      <trkpt lat="46.29379" lon="15.49359">
        <ele>293.027514</ele>
        <time>2026-07-10T12:22:33.000Z</time>
      </trkpt>
      <trkpt lat="46.29378" lon="15.49358">
        <ele>293.111427</ele>
        <time>2026-07-10T12:22:34.000Z</time>
      </trkpt>
      <trkpt lat="46.29372" lon="15.49349">
        <ele>293.688086</ele>
        <time>2026-07-10T12:22:40.000Z</time>
      </trkpt>
      <trkpt lat="46.29368" lon="15.4934">
        <ele>294.041191</ele>
        <time>2026-07-10T12:22:45.000Z</time>
      </trkpt>
      <trkpt lat="46.29363" lon="15.49331">
        <ele>294.406843</ele>
        <time>2026-07-10T12:22:50.000Z</time>
      </trkpt>
      <trkpt lat="46.29358" lon="15.49322">
        <ele>294.743615</ele>
        <time>2026-07-10T12:22:54.000Z</time>
      </trkpt>
      <trkpt lat="46.29353" lon="15.49312">
        <ele>295.136952</ele>
        <time>2026-07-10T12:22:58.000Z</time>
      </trkpt>
      <trkpt lat="46.29343" lon="15.49295">
        <ele>295.858625</ele>
        <time>2026-07-10T12:23:06.000Z</time>
      </trkpt>
      <trkpt lat="46.29339" lon="15.49289">
        <ele>296.103186</ele>
        <time>2026-07-10T12:23:09.000Z</time>
      </trkpt>
      <trkpt lat="46.29334" lon="15.49284">
        <ele>296.368861</ele>
        <time>2026-07-10T12:23:12.000Z</time>
      </trkpt>
      <trkpt lat="46.29333" lon="15.49282">
        <ele>296.450751</ele>
        <time>2026-07-10T12:23:13.000Z</time>
      </trkpt>
      <trkpt lat="46.29327" lon="15.49271">
        <ele>296.903953</ele>
        <time>2026-07-10T12:23:18.000Z</time>
      </trkpt>
      <trkpt lat="46.29325" lon="15.49266">
        <ele>297.092864</ele>
        <time>2026-07-10T12:23:20.000Z</time>
      </trkpt>
      <trkpt lat="46.29318" lon="15.49258">
        <ele>297.475734</ele>
        <time>2026-07-10T12:23:24.000Z</time>
      </trkpt>
      <trkpt lat="46.29311" lon="15.49252">
        <ele>297.881819</ele>
        <time>2026-07-10T12:23:28.000Z</time>
      </trkpt>
      <trkpt lat="46.29309" lon="15.4925">
        <ele>297.975871</ele>
        <time>2026-07-10T12:23:29.000Z</time>
      </trkpt>
      <trkpt lat="46.29305" lon="15.49241">
        <ele>298.292487</ele>
        <time>2026-07-10T12:23:33.000Z</time>
      </trkpt>
      <trkpt lat="46.29304" lon="15.49239">
        <ele>298.377951</ele>
        <time>2026-07-10T12:23:34.000Z</time>
      </trkpt>
      <trkpt lat="46.29297" lon="15.49231">
        <ele>298.80769</ele>
        <time>2026-07-10T12:23:38.000Z</time>
      </trkpt>
      <trkpt lat="46.29295" lon="15.4923">
        <ele>298.914702</ele>
        <time>2026-07-10T12:23:39.000Z</time>
      </trkpt>
      <trkpt lat="46.29283" lon="15.49223">
        <ele>299.485547</ele>
        <time>2026-07-10T12:23:44.000Z</time>
      </trkpt>
      <trkpt lat="46.29264" lon="15.49208">
        <ele>300.471289</ele>
        <time>2026-07-10T12:23:52.000Z</time>
      </trkpt>
      <trkpt lat="46.29254" lon="15.49194">
        <ele>301.099285</ele>
        <time>2026-07-10T12:23:59.000Z</time>
      </trkpt>
      <trkpt lat="46.29243" lon="15.49188">
        <ele>301.653596</ele>
        <time>2026-07-10T12:24:05.000Z</time>
      </trkpt>
      <trkpt lat="46.29236" lon="15.49185">
        <ele>302.047851</ele>
        <time>2026-07-10T12:24:08.000Z</time>
      </trkpt>
      <trkpt lat="46.29231" lon="15.49181">
        <ele>302.543444</ele>
        <time>2026-07-10T12:24:11.000Z</time>
      </trkpt>
      <trkpt lat="46.2923" lon="15.49179">
        <ele>302.712454</ele>
        <time>2026-07-10T12:24:12.000Z</time>
      </trkpt>
      <trkpt lat="46.29227" lon="15.49176">
        <ele>303.063587</ele>
        <time>2026-07-10T12:24:14.000Z</time>
      </trkpt>
      <trkpt lat="46.29221" lon="15.49166">
        <ele>303.85288</ele>
        <time>2026-07-10T12:24:19.000Z</time>
      </trkpt>
      <trkpt lat="46.2922" lon="15.49164">
        <ele>304.004767</ele>
        <time>2026-07-10T12:24:20.000Z</time>
      </trkpt>
      <trkpt lat="46.29209" lon="15.49155">
        <ele>305.203719</ele>
        <time>2026-07-10T12:24:26.000Z</time>
      </trkpt>
      <trkpt lat="46.29204" lon="15.49149">
        <ele>305.734764</ele>
        <time>2026-07-10T12:24:29.000Z</time>
      </trkpt>
      <trkpt lat="46.29201" lon="15.49146">
        <ele>306.098133</ele>
        <time>2026-07-10T12:24:31.000Z</time>
      </trkpt>
      <trkpt lat="46.29197" lon="15.49139">
        <ele>306.655848</ele>
        <time>2026-07-10T12:24:34.000Z</time>
      </trkpt>
      <trkpt lat="46.29195" lon="15.49134">
        <ele>307.082296</ele>
        <time>2026-07-10T12:24:36.000Z</time>
      </trkpt>
      <trkpt lat="46.29193" lon="15.49131">
        <ele>307.282202</ele>
        <time>2026-07-10T12:24:37.000Z</time>
      </trkpt>
      <trkpt lat="46.29183" lon="15.49114">
        <ele>308.745074</ele>
        <time>2026-07-10T12:24:45.000Z</time>
      </trkpt>
      <trkpt lat="46.29183" lon="15.4911">
        <ele>309.014362</ele>
        <time>2026-07-10T12:24:49.000Z</time>
      </trkpt>
      <trkpt lat="46.29183" lon="15.49108">
        <ele>309.121912</ele>
        <time>2026-07-10T12:24:50.000Z</time>
      </trkpt>
      <trkpt lat="46.29174" lon="15.491">
        <ele>310.126603</ele>
        <time>2026-07-10T12:26:14.000Z</time>
      </trkpt>
      <trkpt lat="46.29172" lon="15.49098">
        <ele>310.335538</ele>
        <time>2026-07-10T12:26:15.000Z</time>
      </trkpt>
      <trkpt lat="46.29168" lon="15.49095">
        <ele>310.770975</ele>
        <time>2026-07-10T12:26:17.000Z</time>
      </trkpt>
      <trkpt lat="46.29156" lon="15.4908">
        <ele>312.18558</ele>
        <time>2026-07-10T12:26:24.000Z</time>
      </trkpt>
      <trkpt lat="46.2915" lon="15.49072">
        <ele>312.920856</ele>
        <time>2026-07-10T12:26:28.000Z</time>
      </trkpt>
      <trkpt lat="46.29148" lon="15.49064">
        <ele>313.476474</ele>
        <time>2026-07-10T12:26:31.000Z</time>
      </trkpt>
      <trkpt lat="46.29148" lon="15.49059">
        <ele>313.748425</ele>
        <time>2026-07-10T12:26:33.000Z</time>
      </trkpt>
      <trkpt lat="46.29144" lon="15.49051">
        <ele>314.382865</ele>
        <time>2026-07-10T12:26:38.000Z</time>
      </trkpt>
      <trkpt lat="46.29141" lon="15.49049">
        <ele>314.693342</ele>
        <time>2026-07-10T12:26:40.000Z</time>
      </trkpt>
      <trkpt lat="46.29132" lon="15.49038">
        <ele>315.80628</ele>
        <time>2026-07-10T12:26:48.000Z</time>
      </trkpt>
      <trkpt lat="46.29127" lon="15.49025">
        <ele>316.770161</ele>
        <time>2026-07-10T12:26:56.000Z</time>
      </trkpt>
      <trkpt lat="46.2912" lon="15.49014">
        <ele>317.687855</ele>
        <time>2026-07-10T12:27:03.000Z</time>
      </trkpt>
      <trkpt lat="46.29118" lon="15.49013">
        <ele>317.832905</ele>
        <time>2026-07-10T12:27:04.000Z</time>
      </trkpt>
      <trkpt lat="46.2911" lon="15.49">
        <ele>319.15116</ele>
        <time>2026-07-10T12:27:13.000Z</time>
      </trkpt>
      <trkpt lat="46.29106" lon="15.48987">
        <ele>320.420425</ele>
        <time>2026-07-10T12:27:21.000Z</time>
      </trkpt>
      <trkpt lat="46.29099" lon="15.48974">
        <ele>321.871692</ele>
        <time>2026-07-10T12:27:30.000Z</time>
      </trkpt>
      <trkpt lat="46.29097" lon="15.4897">
        <ele>322.241698</ele>
        <time>2026-07-10T12:27:32.000Z</time>
      </trkpt>
      <trkpt lat="46.29093" lon="15.48964">
        <ele>323.004991</ele>
        <time>2026-07-10T12:27:36.000Z</time>
      </trkpt>
      <trkpt lat="46.29088" lon="15.48953">
        <ele>324.155892</ele>
        <time>2026-07-10T12:27:42.000Z</time>
      </trkpt>
      <trkpt lat="46.29078" lon="15.48942">
        <ele>325.75703</ele>
        <time>2026-07-10T12:27:51.000Z</time>
      </trkpt>
      <trkpt lat="46.2907" lon="15.48933">
        <ele>326.985207</ele>
        <time>2026-07-10T12:27:58.000Z</time>
      </trkpt>
      <trkpt lat="46.29061" lon="15.48926">
        <ele>328.325454</ele>
        <time>2026-07-10T12:28:05.000Z</time>
      </trkpt>
      <trkpt lat="46.2906" lon="15.48924">
        <ele>328.530933</ele>
        <time>2026-07-10T12:28:06.000Z</time>
      </trkpt>
      <trkpt lat="46.29053" lon="15.48917">
        <ele>329.651936</ele>
        <time>2026-07-10T12:28:12.000Z</time>
      </trkpt>
      <trkpt lat="46.29041" lon="15.48905">
        <ele>331.406802</ele>
        <time>2026-07-10T12:28:21.000Z</time>
      </trkpt>
      <trkpt lat="46.29032" lon="15.48895">
        <ele>332.891016</ele>
        <time>2026-07-10T12:28:28.000Z</time>
      </trkpt>
      <trkpt lat="46.2903" lon="15.48892">
        <ele>333.25529</ele>
        <time>2026-07-10T12:28:30.000Z</time>
      </trkpt>
      <trkpt lat="46.29025" lon="15.48884">
        <ele>334.143503</ele>
        <time>2026-07-10T12:28:34.000Z</time>
      </trkpt>
      <trkpt lat="46.29024" lon="15.48882">
        <ele>334.401069</ele>
        <time>2026-07-10T12:28:35.000Z</time>
      </trkpt>
      <trkpt lat="46.29022" lon="15.48881">
        <ele>334.594523</ele>
        <time>2026-07-10T12:28:36.000Z</time>
      </trkpt>
      <trkpt lat="46.29016" lon="15.48873">
        <ele>335.677749</ele>
        <time>2026-07-10T12:28:42.000Z</time>
      </trkpt>
      <trkpt lat="46.29012" lon="15.48869">
        <ele>336.267218</ele>
        <time>2026-07-10T12:28:45.000Z</time>
      </trkpt>
      <trkpt lat="46.29007" lon="15.48864">
        <ele>337.066173</ele>
        <time>2026-07-10T12:28:49.000Z</time>
      </trkpt>
      <trkpt lat="46.29" lon="15.48856">
        <ele>338.238528</ele>
        <time>2026-07-10T12:28:55.000Z</time>
      </trkpt>
      <trkpt lat="46.28998" lon="15.48855">
        <ele>338.471789</ele>
        <time>2026-07-10T12:28:56.000Z</time>
      </trkpt>
      <trkpt lat="46.28993" lon="15.4885">
        <ele>339.206015</ele>
        <time>2026-07-10T12:29:00.000Z</time>
      </trkpt>
      <trkpt lat="46.28993" lon="15.48848">
        <ele>339.378703</ele>
        <time>2026-07-10T12:29:02.000Z</time>
      </trkpt>
      <trkpt lat="46.28992" lon="15.48847">
        <ele>339.485589</ele>
        <time>2026-07-10T12:29:03.000Z</time>
      </trkpt>
      <trkpt lat="46.28984" lon="15.48843">
        <ele>340.594254</ele>
        <time>2026-07-10T12:29:10.000Z</time>
      </trkpt>
      <trkpt lat="46.28973" lon="15.48838">
        <ele>342.089984</ele>
        <time>2026-07-10T12:29:19.000Z</time>
      </trkpt>
      <trkpt lat="46.28971" lon="15.48837">
        <ele>342.443797</ele>
        <time>2026-07-10T12:29:21.000Z</time>
      </trkpt>
      <trkpt lat="46.28967" lon="15.48837">
        <ele>342.917097</ele>
        <time>2026-07-10T12:29:24.000Z</time>
      </trkpt>
      <trkpt lat="46.28962" lon="15.48836">
        <ele>343.587979</ele>
        <time>2026-07-10T12:29:28.000Z</time>
      </trkpt>
      <trkpt lat="46.2896" lon="15.48833">
        <ele>344.077774</ele>
        <time>2026-07-10T12:29:30.000Z</time>
      </trkpt>
      <trkpt lat="46.28958" lon="15.48831">
        <ele>344.328173</ele>
        <time>2026-07-10T12:29:32.000Z</time>
      </trkpt>
      <trkpt lat="46.28957" lon="15.48833">
        <ele>344.549929</ele>
        <time>2026-07-10T12:29:35.000Z</time>
      </trkpt>
      <trkpt lat="46.28951" lon="15.48833">
        <ele>345.328985</ele>
        <time>2026-07-10T12:29:39.000Z</time>
      </trkpt>
      <trkpt lat="46.28949" lon="15.48832">
        <ele>345.601408</ele>
        <time>2026-07-10T12:29:42.000Z</time>
      </trkpt>
      <trkpt lat="46.28932" lon="15.48834">
        <ele>347.98766</ele>
        <time>2026-07-10T12:29:54.000Z</time>
      </trkpt>
      <trkpt lat="46.28929" lon="15.48837">
        <ele>348.463256</ele>
        <time>2026-07-10T12:29:56.000Z</time>
      </trkpt>
      <trkpt lat="46.28925" lon="15.48839">
        <ele>349.055762</ele>
        <time>2026-07-10T12:29:59.000Z</time>
      </trkpt>
      <trkpt lat="46.28916" lon="15.48839">
        <ele>350.431347</ele>
        <time>2026-07-10T12:30:06.000Z</time>
      </trkpt>
      <trkpt lat="46.28901" lon="15.48838">
        <ele>352.522721</ele>
        <time>2026-07-10T12:30:14.000Z</time>
      </trkpt>
      <trkpt lat="46.28898" lon="15.48839">
        <ele>352.928478</ele>
        <time>2026-07-10T12:30:16.000Z</time>
      </trkpt>
      <trkpt lat="46.28893" lon="15.48838">
        <ele>353.626462</ele>
        <time>2026-07-10T12:30:20.000Z</time>
      </trkpt>
      <trkpt lat="46.28892" lon="15.48838">
        <ele>353.690041</ele>
        <time>2026-07-10T12:30:23.000Z</time>
      </trkpt>
      <trkpt lat="46.28879" lon="15.48841">
        <ele>355.630111</ele>
        <time>2026-07-10T12:30:58.000Z</time>
      </trkpt>
      <trkpt lat="46.28877" lon="15.48842">
        <ele>355.883149</ele>
        <time>2026-07-10T12:30:59.000Z</time>
      </trkpt>
      <trkpt lat="46.28868" lon="15.4884">
        <ele>357.144289</ele>
        <time>2026-07-10T12:31:05.000Z</time>
      </trkpt>
      <trkpt lat="46.28862" lon="15.48836">
        <ele>358.029691</ele>
        <time>2026-07-10T12:31:10.000Z</time>
      </trkpt>
      <trkpt lat="46.28853" lon="15.4882">
        <ele>359.958929</ele>
        <time>2026-07-10T12:31:24.000Z</time>
      </trkpt>
      <trkpt lat="46.28853" lon="15.48818">
        <ele>360.151465</ele>
        <time>2026-07-10T12:31:25.000Z</time>
      </trkpt>
      <trkpt lat="46.28851" lon="15.48813">
        <ele>360.767609</ele>
        <time>2026-07-10T12:31:28.000Z</time>
      </trkpt>
      <trkpt lat="46.28849" lon="15.48808">
        <ele>361.323927</ele>
        <time>2026-07-10T12:31:31.000Z</time>
      </trkpt>
      <trkpt lat="46.28848" lon="15.48793">
        <ele>362.788732</ele>
        <time>2026-07-10T12:31:38.000Z</time>
      </trkpt>
      <trkpt lat="46.28851" lon="15.48788">
        <ele>363.373557</ele>
        <time>2026-07-10T12:31:43.000Z</time>
      </trkpt>
      <trkpt lat="46.28866" lon="15.48761">
        <ele>366.430696</ele>
        <time>2026-07-10T12:32:29.000Z</time>
      </trkpt>
      <trkpt lat="46.28867" lon="15.48759">
        <ele>366.543479</ele>
        <time>2026-07-10T12:32:30.000Z</time>
      </trkpt>
      <trkpt lat="46.28874" lon="15.48746">
        <ele>367.452439</ele>
        <time>2026-07-10T12:32:39.000Z</time>
      </trkpt>
      <trkpt lat="46.28876" lon="15.4874">
        <ele>367.748979</ele>
        <time>2026-07-10T12:32:42.000Z</time>
      </trkpt>
      <trkpt lat="46.28876" lon="15.48734">
        <ele>368.083559</ele>
        <time>2026-07-10T12:32:45.000Z</time>
      </trkpt>
      <trkpt lat="46.28875" lon="15.48732">
        <ele>368.204631</ele>
        <time>2026-07-10T12:32:46.000Z</time>
      </trkpt>
      <trkpt lat="46.2887" lon="15.48717">
        <ele>369.069214</ele>
        <time>2026-07-10T12:32:53.000Z</time>
      </trkpt>
      <trkpt lat="46.28857" lon="15.48712">
        <ele>370.118781</ele>
        <time>2026-07-10T12:33:01.000Z</time>
      </trkpt>
      <trkpt lat="46.28844" lon="15.48715">
        <ele>371.126586</ele>
        <time>2026-07-10T12:33:09.000Z</time>
      </trkpt>
      <trkpt lat="46.28827" lon="15.48715">
        <ele>372.412731</ele>
        <time>2026-07-10T12:33:20.000Z</time>
      </trkpt>
      <trkpt lat="46.28813" lon="15.4871">
        <ele>373.451922</ele>
        <time>2026-07-10T12:33:28.000Z</time>
      </trkpt>
      <trkpt lat="46.28802" lon="15.487">
        <ele>374.47095</ele>
        <time>2026-07-10T12:33:36.000Z</time>
      </trkpt>
      <trkpt lat="46.28791" lon="15.48689">
        <ele>375.45835</ele>
        <time>2026-07-10T12:33:45.000Z</time>
      </trkpt>
      <trkpt lat="46.28783" lon="15.4868">
        <ele>376.197049</ele>
        <time>2026-07-10T12:33:51.000Z</time>
      </trkpt>
      <trkpt lat="46.28783" lon="15.4868">
        <ele>376.222038</ele>
        <time>2026-07-10T12:33:52.000Z</time>
      </trkpt>
      <trkpt lat="46.28783" lon="15.48674">
        <ele>376.541746</ele>
        <time>2026-07-10T12:34:11.000Z</time>
      </trkpt>
      <trkpt lat="46.28782" lon="15.48672">
        <ele>376.665737</ele>
        <time>2026-07-10T12:34:12.000Z</time>
      </trkpt>
      <trkpt lat="46.28781" lon="15.4867">
        <ele>376.794794</ele>
        <time>2026-07-10T12:34:13.000Z</time>
      </trkpt>
      <trkpt lat="46.28775" lon="15.48654">
        <ele>377.760299</ele>
        <time>2026-07-10T12:34:21.000Z</time>
      </trkpt>
      <trkpt lat="46.28774" lon="15.48652">
        <ele>377.891054</ele>
        <time>2026-07-10T12:34:22.000Z</time>
      </trkpt>
      <trkpt lat="46.2877" lon="15.48643">
        <ele>378.455004</ele>
        <time>2026-07-10T12:34:26.000Z</time>
      </trkpt>
      <trkpt lat="46.2877" lon="15.48641">
        <ele>378.571009</ele>
        <time>2026-07-10T12:34:27.000Z</time>
      </trkpt>
      <trkpt lat="46.28767" lon="15.48631">
        <ele>379.117039</ele>
        <time>2026-07-10T12:34:31.000Z</time>
      </trkpt>
      <trkpt lat="46.28767" lon="15.48624">
        <ele>379.498976</ele>
        <time>2026-07-10T12:34:34.000Z</time>
      </trkpt>
      <trkpt lat="46.28769" lon="15.48613">
        <ele>380.207685</ele>
        <time>2026-07-10T12:34:38.000Z</time>
      </trkpt>
      <trkpt lat="46.28774" lon="15.4859">
        <ele>381.909514</ele>
        <time>2026-07-10T12:34:46.000Z</time>
      </trkpt>
      <trkpt lat="46.28774" lon="15.48586">
        <ele>382.147944</ele>
        <time>2026-07-10T12:34:47.000Z</time>
      </trkpt>
      <trkpt lat="46.28779" lon="15.48572">
        <ele>383.29778</ele>
        <time>2026-07-10T12:34:52.000Z</time>
      </trkpt>
      <trkpt lat="46.28781" lon="15.48562">
        <ele>384.017608</ele>
        <time>2026-07-10T12:34:55.000Z</time>
      </trkpt>
      <trkpt lat="46.28783" lon="15.48542">
        <ele>385.408882</ele>
        <time>2026-07-10T12:35:02.000Z</time>
      </trkpt>
      <trkpt lat="46.28783" lon="15.4852">
        <ele>386.978373</ele>
        <time>2026-07-10T12:35:10.000Z</time>
      </trkpt>
      <trkpt lat="46.28782" lon="15.48502">
        <ele>388.184559</ele>
        <time>2026-07-10T12:35:17.000Z</time>
      </trkpt>
      <trkpt lat="46.28782" lon="15.48486">
        <ele>389.306746</ele>
        <time>2026-07-10T12:35:24.000Z</time>
      </trkpt>
      <trkpt lat="46.28782" lon="15.48473">
        <ele>390.217592</ele>
        <time>2026-07-10T12:35:30.000Z</time>
      </trkpt>
      <trkpt lat="46.2878" lon="15.48469">
        <ele>390.544313</ele>
        <time>2026-07-10T12:35:32.000Z</time>
      </trkpt>
      <trkpt lat="46.28779" lon="15.48463">
        <ele>391.00261</ele>
        <time>2026-07-10T12:35:35.000Z</time>
      </trkpt>
      <trkpt lat="46.28777" lon="15.48452">
        <ele>391.801942</ele>
        <time>2026-07-10T12:35:40.000Z</time>
      </trkpt>
      <trkpt lat="46.28771" lon="15.48431">
        <ele>393.376239</ele>
        <time>2026-07-10T12:35:50.000Z</time>
      </trkpt>
      <trkpt lat="46.28768" lon="15.48423">
        <ele>394.01277</ele>
        <time>2026-07-10T12:35:55.000Z</time>
      </trkpt>
      <trkpt lat="46.28768" lon="15.48424">
        <ele>394.054131</ele>
        <time>2026-07-10T12:35:57.000Z</time>
      </trkpt>
      <trkpt lat="46.28768" lon="15.48399">
        <ele>395.806027</ele>
        <time>2026-07-10T12:36:15.000Z</time>
      </trkpt>
      <trkpt lat="46.28769" lon="15.48396">
        <ele>396.044457</ele>
        <time>2026-07-10T12:36:17.000Z</time>
      </trkpt>
      <trkpt lat="46.28802" lon="15.48358">
        <ele>399.60913</ele>
        <time>2026-07-10T12:37:30.000Z</time>
      </trkpt>
      <trkpt lat="46.28805" lon="15.48355">
        <ele>399.822254</ele>
        <time>2026-07-10T12:37:32.000Z</time>
      </trkpt>
      <trkpt lat="46.28813" lon="15.48345">
        <ele>400.56653</ele>
        <time>2026-07-10T12:37:39.000Z</time>
      </trkpt>
      <trkpt lat="46.28821" lon="15.48334">
        <ele>401.322454</ele>
        <time>2026-07-10T12:37:46.000Z</time>
      </trkpt>
      <trkpt lat="46.28827" lon="15.48327">
        <ele>401.840036</ele>
        <time>2026-07-10T12:37:50.000Z</time>
      </trkpt>
      <trkpt lat="46.28832" lon="15.48324">
        <ele>402.272589</ele>
        <time>2026-07-10T12:37:54.000Z</time>
      </trkpt>
      <trkpt lat="46.28843" lon="15.48313">
        <ele>403.198276</ele>
        <time>2026-07-10T12:38:01.000Z</time>
      </trkpt>
      <trkpt lat="46.28857" lon="15.48302">
        <ele>404.246044</ele>
        <time>2026-07-10T12:38:09.000Z</time>
      </trkpt>
      <trkpt lat="46.28869" lon="15.48296">
        <ele>405.134039</ele>
        <time>2026-07-10T12:38:16.000Z</time>
      </trkpt>
      <trkpt lat="46.28886" lon="15.48286">
        <ele>406.447524</ele>
        <time>2026-07-10T12:38:23.000Z</time>
      </trkpt>
      <trkpt lat="46.28901" lon="15.4827">
        <ele>407.755018</ele>
        <time>2026-07-10T12:38:29.000Z</time>
      </trkpt>
      <trkpt lat="46.28904" lon="15.48267">
        <ele>407.966675</ele>
        <time>2026-07-10T12:38:30.000Z</time>
      </trkpt>
      <trkpt lat="46.28912" lon="15.48248">
        <ele>409.020543</ele>
        <time>2026-07-10T12:38:35.000Z</time>
      </trkpt>
      <trkpt lat="46.28915" lon="15.48239">
        <ele>409.531739</ele>
        <time>2026-07-10T12:38:38.000Z</time>
      </trkpt>
      <trkpt lat="46.28918" lon="15.48215">
        <ele>410.674859</ele>
        <time>2026-07-10T12:38:46.000Z</time>
      </trkpt>
      <trkpt lat="46.28916" lon="15.482">
        <ele>411.463584</ele>
        <time>2026-07-10T12:38:52.000Z</time>
      </trkpt>
      <trkpt lat="46.28912" lon="15.48178">
        <ele>412.558136</ele>
        <time>2026-07-10T12:39:00.000Z</time>
      </trkpt>
      <trkpt lat="46.28909" lon="15.48162">
        <ele>413.398235</ele>
        <time>2026-07-10T12:39:06.000Z</time>
      </trkpt>
      <trkpt lat="46.28909" lon="15.48157">
        <ele>413.646546</ele>
        <time>2026-07-10T12:39:08.000Z</time>
      </trkpt>
      <trkpt lat="46.28908" lon="15.4815">
        <ele>414.004506</ele>
        <time>2026-07-10T12:39:11.000Z</time>
      </trkpt>
      <trkpt lat="46.28905" lon="15.48135">
        <ele>414.780992</ele>
        <time>2026-07-10T12:39:17.000Z</time>
      </trkpt>
      <trkpt lat="46.28902" lon="15.48119">
        <ele>415.60086</ele>
        <time>2026-07-10T12:39:23.000Z</time>
      </trkpt>
      <trkpt lat="46.28896" lon="15.48097">
        <ele>416.755506</ele>
        <time>2026-07-10T12:39:31.000Z</time>
      </trkpt>
      <trkpt lat="46.28893" lon="15.48089">
        <ele>417.225944</ele>
        <time>2026-07-10T12:39:34.000Z</time>
      </trkpt>
      <trkpt lat="46.2889" lon="15.48083">
        <ele>417.599626</ele>
        <time>2026-07-10T12:39:36.000Z</time>
      </trkpt>
      <trkpt lat="46.28879" lon="15.48067">
        <ele>418.723215</ele>
        <time>2026-07-10T12:39:44.000Z</time>
      </trkpt>
      <trkpt lat="46.28873" lon="15.48064">
        <ele>419.165557</ele>
        <time>2026-07-10T12:39:47.000Z</time>
      </trkpt>
      <trkpt lat="46.28866" lon="15.48059">
        <ele>419.726568</ele>
        <time>2026-07-10T12:39:50.000Z</time>
      </trkpt>
      <trkpt lat="46.28855" lon="15.48054">
        <ele>420.562678</ele>
        <time>2026-07-10T12:39:56.000Z</time>
      </trkpt>
      <trkpt lat="46.28841" lon="15.48056">
        <ele>421.563339</ele>
        <time>2026-07-10T12:40:01.000Z</time>
      </trkpt>
      <trkpt lat="46.28819" lon="15.48058">
        <ele>423.132399</ele>
        <time>2026-07-10T12:40:08.000Z</time>
      </trkpt>
      <trkpt lat="46.28805" lon="15.48068">
        <ele>423.743597</ele>
        <time>2026-07-10T12:40:15.000Z</time>
      </trkpt>
      <trkpt lat="46.28793" lon="15.48071">
        <ele>424.115833</ele>
        <time>2026-07-10T12:40:21.000Z</time>
      </trkpt>
      <trkpt lat="46.28778" lon="15.48077">
        <ele>424.577841</ele>
        <time>2026-07-10T12:40:29.000Z</time>
      </trkpt>
      <trkpt lat="46.28761" lon="15.48078">
        <ele>425.107573</ele>
        <time>2026-07-10T12:40:38.000Z</time>
      </trkpt>
      <trkpt lat="46.28749" lon="15.4807">
        <ele>425.501709</ele>
        <time>2026-07-10T12:40:45.000Z</time>
      </trkpt>
      <trkpt lat="46.28737" lon="15.48056">
        <ele>425.978929</ele>
        <time>2026-07-10T12:40:54.000Z</time>
      </trkpt>
      <trkpt lat="46.28729" lon="15.48043">
        <ele>426.363017</ele>
        <time>2026-07-10T12:41:02.000Z</time>
      </trkpt>
      <trkpt lat="46.2872" lon="15.48029">
        <ele>426.747105</ele>
        <time>2026-07-10T12:41:10.000Z</time>
      </trkpt>
      <trkpt lat="46.28711" lon="15.48015">
        <ele>427.151939</ele>
        <time>2026-07-10T12:41:19.000Z</time>
      </trkpt>
      <trkpt lat="46.28707" lon="15.48">
        <ele>427.509009</ele>
        <time>2026-07-10T12:41:26.000Z</time>
      </trkpt>
      <trkpt lat="46.28705" lon="15.47993">
        <ele>427.657917</ele>
        <time>2026-07-10T12:41:29.000Z</time>
      </trkpt>
      <trkpt lat="46.28708" lon="15.47985">
        <ele>427.833975</ele>
        <time>2026-07-10T12:41:33.000Z</time>
      </trkpt>
      <trkpt lat="46.2872" lon="15.47968">
        <ele>428.36404</ele>
        <time>2026-07-10T12:41:43.000Z</time>
      </trkpt>
      <trkpt lat="46.28728" lon="15.47957">
        <ele>428.707352</ele>
        <time>2026-07-10T12:41:49.000Z</time>
      </trkpt>
      <trkpt lat="46.28737" lon="15.47945">
        <ele>429.013412</ele>
        <time>2026-07-10T12:41:56.000Z</time>
      </trkpt>
      <trkpt lat="46.28748" lon="15.47927">
        <ele>429.38463</ele>
        <time>2026-07-10T12:42:02.000Z</time>
      </trkpt>
      <trkpt lat="46.2875" lon="15.47923">
        <ele>429.477434</ele>
        <time>2026-07-10T12:42:03.000Z</time>
      </trkpt>
      <trkpt lat="46.28767" lon="15.47902">
        <ele>429.984299</ele>
        <time>2026-07-10T12:42:07.000Z</time>
      </trkpt>
      <trkpt lat="46.28773" lon="15.47888">
        <ele>430.255306</ele>
        <time>2026-07-10T12:42:09.000Z</time>
      </trkpt>
      <trkpt lat="46.28775" lon="15.47873">
        <ele>430.498132</ele>
        <time>2026-07-10T12:42:11.000Z</time>
      </trkpt>
      <trkpt lat="46.28775" lon="15.47866">
        <ele>430.608371</ele>
        <time>2026-07-10T12:42:12.000Z</time>
      </trkpt>
      <trkpt lat="46.28774" lon="15.47851">
        <ele>430.855104</ele>
        <time>2026-07-10T12:42:15.000Z</time>
      </trkpt>
      <trkpt lat="46.28766" lon="15.47832">
        <ele>431.200127</ele>
        <time>2026-07-10T12:42:21.000Z</time>
      </trkpt>
      <trkpt lat="46.28752" lon="15.47806">
        <ele>431.740439</ele>
        <time>2026-07-10T12:42:31.000Z</time>
      </trkpt>
      <trkpt lat="46.28741" lon="15.47786">
        <ele>432.141525</ele>
        <time>2026-07-10T12:42:39.000Z</time>
      </trkpt>
      <trkpt lat="46.28727" lon="15.47774">
        <ele>432.507234</ele>
        <time>2026-07-10T12:42:46.000Z</time>
      </trkpt>
      <trkpt lat="46.28711" lon="15.47758">
        <ele>432.96045</ele>
        <time>2026-07-10T12:42:54.000Z</time>
      </trkpt>
      <trkpt lat="46.28703" lon="15.47729">
        <ele>434.739139</ele>
        <time>2026-07-10T12:43:02.000Z</time>
      </trkpt>
      <trkpt lat="46.28709" lon="15.47703">
        <ele>436.346475</ele>
        <time>2026-07-10T12:43:08.000Z</time>
      </trkpt>
      <trkpt lat="46.28719" lon="15.47694">
        <ele>437.387725</ele>
        <time>2026-07-10T12:43:13.000Z</time>
      </trkpt>
      <trkpt lat="46.2873" lon="15.47691">
        <ele>438.331421</ele>
        <time>2026-07-10T12:43:19.000Z</time>
      </trkpt>
      <trkpt lat="46.28741" lon="15.47686">
        <ele>439.350972</ele>
        <time>2026-07-10T12:43:26.000Z</time>
      </trkpt>
      <trkpt lat="46.28743" lon="15.47685">
        <ele>439.488906</ele>
        <time>2026-07-10T12:43:27.000Z</time>
      </trkpt>
      <trkpt lat="46.28755" lon="15.47685">
        <ele>440.584756</ele>
        <time>2026-07-10T12:43:35.000Z</time>
      </trkpt>
      <trkpt lat="46.28759" lon="15.47687">
        <ele>440.873202</ele>
        <time>2026-07-10T12:43:37.000Z</time>
      </trkpt>
      <trkpt lat="46.28762" lon="15.47688">
        <ele>441.153416</ele>
        <time>2026-07-10T12:43:39.000Z</time>
      </trkpt>
      <trkpt lat="46.28764" lon="15.47694">
        <ele>441.546475</ele>
        <time>2026-07-10T12:43:42.000Z</time>
      </trkpt>
      <trkpt lat="46.28768" lon="15.47702">
        <ele>442.164792</ele>
        <time>2026-07-10T12:43:47.000Z</time>
      </trkpt>
      <trkpt lat="46.28772" lon="15.47707">
        <ele>442.587156</ele>
        <time>2026-07-10T12:43:50.000Z</time>
      </trkpt>
      <trkpt lat="46.28773" lon="15.47708">
        <ele>442.732249</ele>
        <time>2026-07-10T12:43:51.000Z</time>
      </trkpt>
      <trkpt lat="46.28778" lon="15.4771">
        <ele>443.115656</ele>
        <time>2026-07-10T12:43:54.000Z</time>
      </trkpt>
      <trkpt lat="46.28779" lon="15.47711">
        <ele>443.225201</ele>
        <time>2026-07-10T12:43:55.000Z</time>
      </trkpt>
      <trkpt lat="46.2878" lon="15.47711">
        <ele>443.365298</ele>
        <time>2026-07-10T12:43:56.000Z</time>
      </trkpt>
      <trkpt lat="46.28782" lon="15.47711">
        <ele>443.512099</ele>
        <time>2026-07-10T12:43:57.000Z</time>
      </trkpt>
      <trkpt lat="46.28784" lon="15.47712">
        <ele>443.6589</ele>
        <time>2026-07-10T12:43:58.000Z</time>
      </trkpt>
      <trkpt lat="46.28788" lon="15.47713">
        <ele>444.069696</ele>
        <time>2026-07-10T12:44:01.000Z</time>
      </trkpt>
      <trkpt lat="46.28805" lon="15.47716">
        <ele>445.534184</ele>
        <time>2026-07-10T12:44:11.000Z</time>
      </trkpt>
      <trkpt lat="46.28822" lon="15.47718">
        <ele>447.023023</ele>
        <time>2026-07-10T12:44:20.000Z</time>
      </trkpt>
      <trkpt lat="46.28836" lon="15.47715">
        <ele>448.198962</ele>
        <time>2026-07-10T12:44:27.000Z</time>
      </trkpt>
      <trkpt lat="46.28848" lon="15.477">
        <ele>449.5567</ele>
        <time>2026-07-10T12:44:35.000Z</time>
      </trkpt>
      <trkpt lat="46.28854" lon="15.47683">
        <ele>450.62106</ele>
        <time>2026-07-10T12:44:41.000Z</time>
      </trkpt>
      <trkpt lat="46.28856" lon="15.47679">
        <ele>450.926995</ele>
        <time>2026-07-10T12:44:43.000Z</time>
      </trkpt>
      <trkpt lat="46.28859" lon="15.47662">
        <ele>451.914918</ele>
        <time>2026-07-10T12:44:50.000Z</time>
      </trkpt>
      <trkpt lat="46.28866" lon="15.47644">
        <ele>453.100843</ele>
        <time>2026-07-10T12:44:59.000Z</time>
      </trkpt>
      <trkpt lat="46.28874" lon="15.47627">
        <ele>454.311373</ele>
        <time>2026-07-10T12:45:07.000Z</time>
      </trkpt>
      <trkpt lat="46.2888" lon="15.47611">
        <ele>455.378912</ele>
        <time>2026-07-10T12:45:16.000Z</time>
      </trkpt>
      <trkpt lat="46.28883" lon="15.47602">
        <ele>455.894878</ele>
        <time>2026-07-10T12:45:20.000Z</time>
      </trkpt>
      <trkpt lat="46.28884" lon="15.47599">
        <ele>456.106277</ele>
        <time>2026-07-10T12:45:22.000Z</time>
      </trkpt>
      <trkpt lat="46.28889" lon="15.47587">
        <ele>456.928975</ele>
        <time>2026-07-10T12:45:28.000Z</time>
      </trkpt>
      <trkpt lat="46.28895" lon="15.47571">
        <ele>457.980456</ele>
        <time>2026-07-10T12:45:36.000Z</time>
      </trkpt>
      <trkpt lat="46.28896" lon="15.47556">
        <ele>458.83846</ele>
        <time>2026-07-10T12:45:42.000Z</time>
      </trkpt>
      <trkpt lat="46.28897" lon="15.47551">
        <ele>459.1666</ele>
        <time>2026-07-10T12:45:44.000Z</time>
      </trkpt>
      <trkpt lat="46.28897" lon="15.47539">
        <ele>459.82774</ele>
        <time>2026-07-10T12:45:48.000Z</time>
      </trkpt>
      <trkpt lat="46.28898" lon="15.47507">
        <ele>461.710196</ele>
        <time>2026-07-10T12:45:58.000Z</time>
      </trkpt>
      <trkpt lat="46.28894" lon="15.47464">
        <ele>463.720884</ele>
        <time>2026-07-10T12:46:08.000Z</time>
      </trkpt>
      <trkpt lat="46.28894" lon="15.47429">
        <ele>464.316643</ele>
        <time>2026-07-10T12:46:15.000Z</time>
      </trkpt>
      <trkpt lat="46.28899" lon="15.47387">
        <ele>465.032814</ele>
        <time>2026-07-10T12:46:24.000Z</time>
      </trkpt>
      <trkpt lat="46.28903" lon="15.4735">
        <ele>465.673318</ele>
        <time>2026-07-10T12:46:33.000Z</time>
      </trkpt>
      <trkpt lat="46.28908" lon="15.47325">
        <ele>466.118948</ele>
        <time>2026-07-10T12:46:40.000Z</time>
      </trkpt>
      <trkpt lat="46.28913" lon="15.47298">
        <ele>466.592025</ele>
        <time>2026-07-10T12:46:47.000Z</time>
      </trkpt>
      <trkpt lat="46.28923" lon="15.47257">
        <ele>467.333893</ele>
        <time>2026-07-10T12:46:56.000Z</time>
      </trkpt>
      <trkpt lat="46.28931" lon="15.47224">
        <ele>467.924179</ele>
        <time>2026-07-10T12:47:03.000Z</time>
      </trkpt>
      <trkpt lat="46.28933" lon="15.47199">
        <ele>469.083867</ele>
        <time>2026-07-10T12:47:09.000Z</time>
      </trkpt>
      <trkpt lat="46.28933" lon="15.47174">
        <ele>470.253322</ele>
        <time>2026-07-10T12:47:16.000Z</time>
      </trkpt>
      <trkpt lat="46.28933" lon="15.47167">
        <ele>470.59259</ele>
        <time>2026-07-10T12:47:19.000Z</time>
      </trkpt>
      <trkpt lat="46.28934" lon="15.47163">
        <ele>470.801129</ele>
        <time>2026-07-10T12:47:21.000Z</time>
      </trkpt>
      <trkpt lat="46.28928" lon="15.47146">
        <ele>471.715955</ele>
        <time>2026-07-10T12:47:28.000Z</time>
      </trkpt>
      <trkpt lat="46.28922" lon="15.47127">
        <ele>472.668984</ele>
        <time>2026-07-10T12:47:36.000Z</time>
      </trkpt>
      <trkpt lat="46.28919" lon="15.47116">
        <ele>473.24342</ele>
        <time>2026-07-10T12:47:41.000Z</time>
      </trkpt>
      <trkpt lat="46.28918" lon="15.47114">
        <ele>473.347069</ele>
        <time>2026-07-10T12:47:42.000Z</time>
      </trkpt>
      <trkpt lat="46.28915" lon="15.47106">
        <ele>473.776527</ele>
        <time>2026-07-10T12:47:46.000Z</time>
      </trkpt>
      <trkpt lat="46.28914" lon="15.47099">
        <ele>474.151754</ele>
        <time>2026-07-10T12:47:49.000Z</time>
      </trkpt>
      <trkpt lat="46.2891" lon="15.4708">
        <ele>475.073798</ele>
        <time>2026-07-10T12:47:57.000Z</time>
      </trkpt>
      <trkpt lat="46.28905" lon="15.47068">
        <ele>475.747568</ele>
        <time>2026-07-10T12:48:03.000Z</time>
      </trkpt>
      <trkpt lat="46.28904" lon="15.47063">
        <ele>475.993191</ele>
        <time>2026-07-10T12:48:05.000Z</time>
      </trkpt>
      <trkpt lat="46.28897" lon="15.47039">
        <ele>477.214078</ele>
        <time>2026-07-10T12:48:14.000Z</time>
      </trkpt>
      <trkpt lat="46.28895" lon="15.47034">
        <ele>477.500397</ele>
        <time>2026-07-10T12:48:16.000Z</time>
      </trkpt>
      <trkpt lat="46.28891" lon="15.47023">
        <ele>478.084739</ele>
        <time>2026-07-10T12:48:20.000Z</time>
      </trkpt>
      <trkpt lat="46.28887" lon="15.46993">
        <ele>479.531658</ele>
        <time>2026-07-10T12:48:30.000Z</time>
      </trkpt>
      <trkpt lat="46.28886" lon="15.46971">
        <ele>480.414028</ele>
        <time>2026-07-10T12:48:37.000Z</time>
      </trkpt>
      <trkpt lat="46.2889" lon="15.46943">
        <ele>480.859879</ele>
        <time>2026-07-10T12:48:46.000Z</time>
      </trkpt>
      <trkpt lat="46.28892" lon="15.46913">
        <ele>481.336648</ele>
        <time>2026-07-10T12:48:55.000Z</time>
      </trkpt>
      <trkpt lat="46.28896" lon="15.46875">
        <ele>481.940851</ele>
        <time>2026-07-10T12:49:04.000Z</time>
      </trkpt>
      <trkpt lat="46.28898" lon="15.46835">
        <ele>482.583253</ele>
        <time>2026-07-10T12:49:13.000Z</time>
      </trkpt>
      <trkpt lat="46.28895" lon="15.46802">
        <ele>483.117148</ele>
        <time>2026-07-10T12:49:21.000Z</time>
      </trkpt>
      <trkpt lat="46.28892" lon="15.46765">
        <ele>483.704727</ele>
        <time>2026-07-10T12:49:30.000Z</time>
      </trkpt>
      <trkpt lat="46.2889" lon="15.46721">
        <ele>484.394526</ele>
        <time>2026-07-10T12:49:40.000Z</time>
      </trkpt>
      <trkpt lat="46.28891" lon="15.46673">
        <ele>485.919991</ele>
        <time>2026-07-10T12:49:51.000Z</time>
      </trkpt>
      <trkpt lat="46.28893" lon="15.46624">
        <ele>487.50799</ele>
        <time>2026-07-10T12:50:02.000Z</time>
      </trkpt>
      <trkpt lat="46.28896" lon="15.46585">
        <ele>488.790315</ele>
        <time>2026-07-10T12:50:11.000Z</time>
      </trkpt>
      <trkpt lat="46.289" lon="15.4656">
        <ele>489.603353</ele>
        <time>2026-07-10T12:50:17.000Z</time>
      </trkpt>
      <trkpt lat="46.28901" lon="15.46536">
        <ele>490.393154</ele>
        <time>2026-07-10T12:50:24.000Z</time>
      </trkpt>
      <trkpt lat="46.28904" lon="15.46508">
        <ele>491.325111</ele>
        <time>2026-07-10T12:50:32.000Z</time>
      </trkpt>
      <trkpt lat="46.28907" lon="15.46476">
        <ele>492.367828</ele>
        <time>2026-07-10T12:50:40.000Z</time>
      </trkpt>
      <trkpt lat="46.28907" lon="15.46438">
        <ele>492.795017</ele>
        <time>2026-07-10T12:50:49.000Z</time>
      </trkpt>
      <trkpt lat="46.28911" lon="15.464">
        <ele>492.639123</ele>
        <time>2026-07-10T12:50:58.000Z</time>
      </trkpt>
      <trkpt lat="46.28909" lon="15.46369">
        <ele>492.513534</ele>
        <time>2026-07-10T12:51:05.000Z</time>
      </trkpt>
      <trkpt lat="46.28905" lon="15.46338">
        <ele>492.387512</ele>
        <time>2026-07-10T12:51:12.000Z</time>
      </trkpt>
      <trkpt lat="46.28905" lon="15.46322">
        <ele>492.322358</ele>
        <time>2026-07-10T12:51:15.000Z</time>
      </trkpt>
      <trkpt lat="46.28906" lon="15.46295">
        <ele>492.209166</ele>
        <time>2026-07-10T12:51:19.000Z</time>
      </trkpt>
      <trkpt lat="46.28905" lon="15.46288">
        <ele>492.183929</ele>
        <time>2026-07-10T12:51:20.000Z</time>
      </trkpt>
      <trkpt lat="46.28905" lon="15.46261">
        <ele>492.070428</ele>
        <time>2026-07-10T12:51:25.000Z</time>
      </trkpt>
      <trkpt lat="46.28905" lon="15.46255">
        <ele>492.04765</ele>
        <time>2026-07-10T12:51:26.000Z</time>
      </trkpt>
      <trkpt lat="46.28906" lon="15.46211">
        <ele>491.869491</ele>
        <time>2026-07-10T12:51:34.000Z</time>
      </trkpt>
      <trkpt lat="46.28905" lon="15.46206">
        <ele>491.847812</ele>
        <time>2026-07-10T12:51:35.000Z</time>
      </trkpt>
      <trkpt lat="46.28904" lon="15.46173">
        <ele>491.450281</ele>
        <time>2026-07-10T12:51:42.000Z</time>
      </trkpt>
      <trkpt lat="46.28901" lon="15.46135">
        <ele>490.918658</ele>
        <time>2026-07-10T12:51:48.000Z</time>
      </trkpt>
      <trkpt lat="46.28898" lon="15.46123">
        <ele>490.743316</ele>
        <time>2026-07-10T12:51:50.000Z</time>
      </trkpt>
      <trkpt lat="46.28894" lon="15.46114">
        <ele>490.598182</ele>
        <time>2026-07-10T12:51:52.000Z</time>
      </trkpt>
      <trkpt lat="46.28878" lon="15.46095">
        <ele>490.19445</ele>
        <time>2026-07-10T12:51:58.000Z</time>
      </trkpt>
      <trkpt lat="46.28874" lon="15.46094">
        <ele>490.118031</ele>
        <time>2026-07-10T12:51:59.000Z</time>
      </trkpt>
      <trkpt lat="46.28866" lon="15.46094">
        <ele>489.969608</ele>
        <time>2026-07-10T12:52:01.000Z</time>
      </trkpt>
      <trkpt lat="46.28853" lon="15.46102">
        <ele>489.680626</ele>
        <time>2026-07-10T12:52:06.000Z</time>
      </trkpt>
      <trkpt lat="46.28839" lon="15.46109">
        <ele>489.395318</ele>
        <time>2026-07-10T12:52:11.000Z</time>
      </trkpt>
      <trkpt lat="46.28836" lon="15.4611">
        <ele>489.333347</ele>
        <time>2026-07-10T12:52:15.000Z</time>
      </trkpt>
      <trkpt lat="46.28837" lon="15.46108">
        <ele>489.306695</ele>
        <time>2026-07-10T13:09:21.000Z</time>
      </trkpt>
      <trkpt lat="46.28834" lon="15.46109">
        <ele>489.256877</ele>
        <time>2026-07-10T13:09:22.000Z</time>
      </trkpt>
      <trkpt lat="46.28822" lon="15.46114">
        <ele>488.999497</ele>
        <time>2026-07-10T13:09:25.000Z</time>
      </trkpt>
      <trkpt lat="46.28796" lon="15.46125">
        <ele>488.477119</ele>
        <time>2026-07-10T13:09:29.000Z</time>
      </trkpt>
      <trkpt lat="46.28784" lon="15.46126">
        <ele>487.983798</ele>
        <time>2026-07-10T13:09:31.000Z</time>
      </trkpt>
      <trkpt lat="46.28773" lon="15.46122">
        <ele>486.641871</ele>
        <time>2026-07-10T13:09:33.000Z</time>
      </trkpt>
      <trkpt lat="46.28759" lon="15.4611">
        <ele>484.709003</ele>
        <time>2026-07-10T13:09:36.000Z</time>
      </trkpt>
      <trkpt lat="46.28751" lon="15.461">
        <ele>483.3903</ele>
        <time>2026-07-10T13:09:38.000Z</time>
      </trkpt>
      <trkpt lat="46.28734" lon="15.46069">
        <ele>480.058124</ele>
        <time>2026-07-10T13:09:43.000Z</time>
      </trkpt>
      <trkpt lat="46.28732" lon="15.46062">
        <ele>479.474219</ele>
        <time>2026-07-10T13:09:44.000Z</time>
      </trkpt>
      <trkpt lat="46.28718" lon="15.46015">
        <ele>475.194528</ele>
        <time>2026-07-10T13:09:51.000Z</time>
      </trkpt>
      <trkpt lat="46.28716" lon="15.46001">
        <ele>473.991676</ele>
        <time>2026-07-10T13:09:53.000Z</time>
      </trkpt>
      <trkpt lat="46.28718" lon="15.45986">
        <ele>472.673747</ele>
        <time>2026-07-10T13:09:55.000Z</time>
      </trkpt>
      <trkpt lat="46.28731" lon="15.45954">
        <ele>469.539012</ele>
        <time>2026-07-10T13:09:59.000Z</time>
      </trkpt>
      <trkpt lat="46.28734" lon="15.45934">
        <ele>467.865185</ele>
        <time>2026-07-10T13:10:01.000Z</time>
      </trkpt>
      <trkpt lat="46.28735" lon="15.45912">
        <ele>466.11215</ele>
        <time>2026-07-10T13:10:03.000Z</time>
      </trkpt>
      <trkpt lat="46.28732" lon="15.4586">
        <ele>462.885956</ele>
        <time>2026-07-10T13:10:07.000Z</time>
      </trkpt>
      <trkpt lat="46.2873" lon="15.45834">
        <ele>461.290695</ele>
        <time>2026-07-10T13:10:09.000Z</time>
      </trkpt>
      <trkpt lat="46.28725" lon="15.45799">
        <ele>459.047907</ele>
        <time>2026-07-10T13:10:12.000Z</time>
      </trkpt>
      <trkpt lat="46.28722" lon="15.45788">
        <ele>458.368749</ele>
        <time>2026-07-10T13:10:13.000Z</time>
      </trkpt>
      <trkpt lat="46.28719" lon="15.45778">
        <ele>457.671009</ele>
        <time>2026-07-10T13:10:14.000Z</time>
      </trkpt>
      <trkpt lat="46.28708" lon="15.4576">
        <ele>456.201753</ele>
        <time>2026-07-10T13:10:16.000Z</time>
      </trkpt>
      <trkpt lat="46.28694" lon="15.45744">
        <ele>454.60566</ele>
        <time>2026-07-10T13:10:18.000Z</time>
      </trkpt>
      <trkpt lat="46.28677" lon="15.4573">
        <ele>452.837114</ele>
        <time>2026-07-10T13:10:20.000Z</time>
      </trkpt>
      <trkpt lat="46.28668" lon="15.45725">
        <ele>451.940312</ele>
        <time>2026-07-10T13:10:21.000Z</time>
      </trkpt>
      <trkpt lat="46.28658" lon="15.4572">
        <ele>451.015816</ele>
        <time>2026-07-10T13:10:22.000Z</time>
      </trkpt>
      <trkpt lat="46.28641" lon="15.45708">
        <ele>449.266545</ele>
        <time>2026-07-10T13:10:24.000Z</time>
      </trkpt>
      <trkpt lat="46.28598" lon="15.45665">
        <ele>444.508698</ele>
        <time>2026-07-10T13:10:29.000Z</time>
      </trkpt>
      <trkpt lat="46.28557" lon="15.45615">
        <ele>439.520496</ele>
        <time>2026-07-10T13:10:34.000Z</time>
      </trkpt>
      <trkpt lat="46.28532" lon="15.45576">
        <ele>436.136364</ele>
        <time>2026-07-10T13:10:38.000Z</time>
      </trkpt>
      <trkpt lat="46.28518" lon="15.45565">
        <ele>434.703426</ele>
        <time>2026-07-10T13:10:40.000Z</time>
      </trkpt>
      <trkpt lat="46.28511" lon="15.45562">
        <ele>433.968202</ele>
        <time>2026-07-10T13:10:41.000Z</time>
      </trkpt>
      <trkpt lat="46.28498" lon="15.45557">
        <ele>433.059886</ele>
        <time>2026-07-10T13:10:43.000Z</time>
      </trkpt>
      <trkpt lat="46.28488" lon="15.45545">
        <ele>432.249375</ele>
        <time>2026-07-10T13:10:45.000Z</time>
      </trkpt>
      <trkpt lat="46.28487" lon="15.45528">
        <ele>431.516026</ele>
        <time>2026-07-10T13:10:47.000Z</time>
      </trkpt>
      <trkpt lat="46.2849" lon="15.45519">
        <ele>431.079415</ele>
        <time>2026-07-10T13:10:48.000Z</time>
      </trkpt>
      <trkpt lat="46.28493" lon="15.4551">
        <ele>430.634356</ele>
        <time>2026-07-10T13:10:49.000Z</time>
      </trkpt>
      <trkpt lat="46.28502" lon="15.45484">
        <ele>429.379508</ele>
        <time>2026-07-10T13:10:52.000Z</time>
      </trkpt>
      <trkpt lat="46.28501" lon="15.45466">
        <ele>428.594775</ele>
        <time>2026-07-10T13:10:54.000Z</time>
      </trkpt>
      <trkpt lat="46.28497" lon="15.45459">
        <ele>428.200916</ele>
        <time>2026-07-10T13:10:55.000Z</time>
      </trkpt>
      <trkpt lat="46.28492" lon="15.45453">
        <ele>427.792415</ele>
        <time>2026-07-10T13:10:56.000Z</time>
      </trkpt>
      <trkpt lat="46.28477" lon="15.45446">
        <ele>426.761225</ele>
        <time>2026-07-10T13:10:58.000Z</time>
      </trkpt>
      <trkpt lat="46.28441" lon="15.45442">
        <ele>424.517754</ele>
        <time>2026-07-10T13:11:02.000Z</time>
      </trkpt>
      <trkpt lat="46.28397" lon="15.4543">
        <ele>420.913824</ele>
        <time>2026-07-10T13:11:07.000Z</time>
      </trkpt>
      <trkpt lat="46.2838" lon="15.45426">
        <ele>418.742005</ele>
        <time>2026-07-10T13:11:09.000Z</time>
      </trkpt>
      <trkpt lat="46.28368" lon="15.45421">
        <ele>417.064119</ele>
        <time>2026-07-10T13:11:11.000Z</time>
      </trkpt>
      <trkpt lat="46.28356" lon="15.4541">
        <ele>415.350847</ele>
        <time>2026-07-10T13:11:13.000Z</time>
      </trkpt>
      <trkpt lat="46.28353" lon="15.45402">
        <ele>414.50169</ele>
        <time>2026-07-10T13:11:14.000Z</time>
      </trkpt>
      <trkpt lat="46.28349" lon="15.45393">
        <ele>413.561281</ele>
        <time>2026-07-10T13:11:15.000Z</time>
      </trkpt>
      <trkpt lat="46.28341" lon="15.45362">
        <ele>410.629805</ele>
        <time>2026-07-10T13:11:18.000Z</time>
      </trkpt>
      <trkpt lat="46.2834" lon="15.45352">
        <ele>409.795875</ele>
        <time>2026-07-10T13:11:19.000Z</time>
      </trkpt>
      <trkpt lat="46.28339" lon="15.45344">
        <ele>409.089632</ele>
        <time>2026-07-10T13:11:20.000Z</time>
      </trkpt>
      <trkpt lat="46.2834" lon="15.45336">
        <ele>408.390805</ele>
        <time>2026-07-10T13:11:21.000Z</time>
      </trkpt>
      <trkpt lat="46.28343" lon="15.4533">
        <ele>407.691263</ele>
        <time>2026-07-10T13:11:22.000Z</time>
      </trkpt>
      <trkpt lat="46.28352" lon="15.45319">
        <ele>406.231892</ele>
        <time>2026-07-10T13:11:24.000Z</time>
      </trkpt>
      <trkpt lat="46.28358" lon="15.45316">
        <ele>405.325109</ele>
        <time>2026-07-10T13:11:25.000Z</time>
      </trkpt>
      <trkpt lat="46.28375" lon="15.453">
        <ele>402.806559</ele>
        <time>2026-07-10T13:11:28.000Z</time>
      </trkpt>
      <trkpt lat="46.28382" lon="15.45283">
        <ele>401.011623</ele>
        <time>2026-07-10T13:11:30.000Z</time>
      </trkpt>
      <trkpt lat="46.28384" lon="15.45273">
        <ele>400.100238</ele>
        <time>2026-07-10T13:11:31.000Z</time>
      </trkpt>
      <trkpt lat="46.28391" lon="15.45242">
        <ele>397.973842</ele>
        <time>2026-07-10T13:11:34.000Z</time>
      </trkpt>
      <trkpt lat="46.28393" lon="15.45219">
        <ele>396.682078</ele>
        <time>2026-07-10T13:11:36.000Z</time>
      </trkpt>
      <trkpt lat="46.28391" lon="15.45196">
        <ele>395.3</ele>
        <time>2026-07-10T13:11:38.000Z</time>
      </trkpt>
      <trkpt lat="46.28388" lon="15.45185">
        <ele>394.609898</ele>
        <time>2026-07-10T13:11:39.000Z</time>
      </trkpt>
      <trkpt lat="46.28371" lon="15.4513">
        <ele>391.138928</ele>
        <time>2026-07-10T13:11:44.000Z</time>
      </trkpt>
      <trkpt lat="46.28367" lon="15.45118">
        <ele>390.37351</ele>
        <time>2026-07-10T13:11:45.000Z</time>
      </trkpt>
      <trkpt lat="46.28355" lon="15.4508">
        <ele>387.955873</ele>
        <time>2026-07-10T13:11:48.000Z</time>
      </trkpt>
      <trkpt lat="46.28344" lon="15.45047">
        <ele>385.842612</ele>
        <time>2026-07-10T13:11:51.000Z</time>
      </trkpt>
      <trkpt lat="46.2834" lon="15.45036">
        <ele>385.14462</ele>
        <time>2026-07-10T13:11:52.000Z</time>
      </trkpt>
      <trkpt lat="46.2833" lon="15.45018">
        <ele>384.287179</ele>
        <time>2026-07-10T13:11:54.000Z</time>
      </trkpt>
      <trkpt lat="46.28324" lon="15.4501">
        <ele>384.114059</ele>
        <time>2026-07-10T13:11:55.000Z</time>
      </trkpt>
      <trkpt lat="46.28302" lon="15.44971">
        <ele>383.333261</ele>
        <time>2026-07-10T13:12:00.000Z</time>
      </trkpt>
      <trkpt lat="46.28285" lon="15.44939">
        <ele>382.718498</ele>
        <time>2026-07-10T13:12:05.000Z</time>
      </trkpt>
      <trkpt lat="46.2828" lon="15.44929">
        <ele>382.523465</ele>
        <time>2026-07-10T13:12:07.000Z</time>
      </trkpt>
      <trkpt lat="46.28278" lon="15.44924">
        <ele>382.443604</ele>
        <time>2026-07-10T13:12:08.000Z</time>
      </trkpt>
      <trkpt lat="46.28274" lon="15.44917">
        <ele>382.297966</ele>
        <time>2026-07-10T13:12:10.000Z</time>
      </trkpt>
      <trkpt lat="46.28272" lon="15.44915">
        <ele>382.240222</ele>
        <time>2026-07-10T13:12:11.000Z</time>
      </trkpt>
      <trkpt lat="46.28266" lon="15.44905">
        <ele>382.040699</ele>
        <time>2026-07-10T13:12:14.000Z</time>
      </trkpt>
      <trkpt lat="46.28252" lon="15.44892">
        <ele>381.681313</ele>
        <time>2026-07-10T13:12:19.000Z</time>
      </trkpt>
      <trkpt lat="46.28248" lon="15.44893">
        <ele>381.583303</ele>
        <time>2026-07-10T13:12:20.000Z</time>
      </trkpt>
      <trkpt lat="46.28244" lon="15.44895">
        <ele>381.476246</ele>
        <time>2026-07-10T13:12:21.000Z</time>
      </trkpt>
      <trkpt lat="46.28234" lon="15.44908">
        <ele>381.193048</ele>
        <time>2026-07-10T13:12:23.000Z</time>
      </trkpt>
      <trkpt lat="46.28221" lon="15.44927">
        <ele>380.778361</ele>
        <time>2026-07-10T13:12:26.000Z</time>
      </trkpt>
      <trkpt lat="46.28216" lon="15.44931">
        <ele>380.647663</ele>
        <time>2026-07-10T13:12:27.000Z</time>
      </trkpt>
      <trkpt lat="46.2821" lon="15.44934">
        <ele>380.509017</ele>
        <time>2026-07-10T13:12:28.000Z</time>
      </trkpt>
      <trkpt lat="46.28188" lon="15.44936">
        <ele>378.943923</ele>
        <time>2026-07-10T13:12:31.000Z</time>
      </trkpt>
      <trkpt lat="46.28173" lon="15.44938">
        <ele>377.837389</ele>
        <time>2026-07-10T13:12:33.000Z</time>
      </trkpt>
      <trkpt lat="46.28149" lon="15.4494">
        <ele>376.082667</ele>
        <time>2026-07-10T13:12:36.000Z</time>
      </trkpt>
      <trkpt lat="46.28126" lon="15.4493">
        <ele>374.337365</ele>
        <time>2026-07-10T13:12:39.000Z</time>
      </trkpt>
      <trkpt lat="46.28119" lon="15.44925">
        <ele>373.706572</ele>
        <time>2026-07-10T13:12:40.000Z</time>
      </trkpt>
      <trkpt lat="46.28085" lon="15.44901">
        <ele>370.940961</ele>
        <time>2026-07-10T13:12:44.000Z</time>
      </trkpt>
      <trkpt lat="46.28044" lon="15.44852">
        <ele>367.029301</ele>
        <time>2026-07-10T13:12:49.000Z</time>
      </trkpt>
      <trkpt lat="46.28026" lon="15.4483">
        <ele>365.030956</ele>
        <time>2026-07-10T13:12:51.000Z</time>
      </trkpt>
      <trkpt lat="46.27995" lon="15.44787">
        <ele>361.560142</ele>
        <time>2026-07-10T13:12:55.000Z</time>
      </trkpt>
      <trkpt lat="46.27957" lon="15.44741">
        <ele>357.519441</ele>
        <time>2026-07-10T13:12:59.000Z</time>
      </trkpt>
      <trkpt lat="46.27948" lon="15.44734">
        <ele>356.699093</ele>
        <time>2026-07-10T13:13:01.000Z</time>
      </trkpt>
      <trkpt lat="46.27932" lon="15.44722">
        <ele>355.191446</ele>
        <time>2026-07-10T13:13:03.000Z</time>
      </trkpt>
      <trkpt lat="46.27915" lon="15.44717">
        <ele>353.801924</ele>
        <time>2026-07-10T13:13:05.000Z</time>
      </trkpt>
      <trkpt lat="46.27882" lon="15.44724">
        <ele>352.29416</ele>
        <time>2026-07-10T13:13:09.000Z</time>
      </trkpt>
      <trkpt lat="46.27857" lon="15.44726">
        <ele>352.001034</ele>
        <time>2026-07-10T13:13:13.000Z</time>
      </trkpt>
      <trkpt lat="46.27844" lon="15.44724">
        <ele>351.841869</ele>
        <time>2026-07-10T13:13:16.000Z</time>
      </trkpt>
      <trkpt lat="46.2784" lon="15.44721">
        <ele>351.785904</ele>
        <time>2026-07-10T13:13:17.000Z</time>
      </trkpt>
      <trkpt lat="46.27836" lon="15.44717">
        <ele>351.73028</ele>
        <time>2026-07-10T13:13:18.000Z</time>
      </trkpt>
      <trkpt lat="46.2783" lon="15.44706">
        <ele>351.613904</ele>
        <time>2026-07-10T13:13:20.000Z</time>
      </trkpt>
      <trkpt lat="46.27827" lon="15.44699">
        <ele>351.550617</ele>
        <time>2026-07-10T13:13:21.000Z</time>
      </trkpt>
      <trkpt lat="46.27805" lon="15.4465">
        <ele>351.06369</ele>
        <time>2026-07-10T13:13:28.000Z</time>
      </trkpt>
      <trkpt lat="46.27791" lon="15.44625">
        <ele>350.80085</ele>
        <time>2026-07-10T13:13:32.000Z</time>
      </trkpt>
      <trkpt lat="46.27782" lon="15.44613">
        <ele>350.653514</ele>
        <time>2026-07-10T13:13:35.000Z</time>
      </trkpt>
      <trkpt lat="46.27758" lon="15.44599">
        <ele>350.357645</ele>
        <time>2026-07-10T13:13:42.000Z</time>
      </trkpt>
      <trkpt lat="46.27734" lon="15.44586">
        <ele>350.931111</ele>
        <time>2026-07-10T13:13:49.000Z</time>
      </trkpt>
      <trkpt lat="46.27728" lon="15.44582">
        <ele>351.068095</ele>
        <time>2026-07-10T13:13:51.000Z</time>
      </trkpt>
      <trkpt lat="46.27717" lon="15.4457">
        <ele>351.377472</ele>
        <time>2026-07-10T13:13:55.000Z</time>
      </trkpt>
      <trkpt lat="46.27715" lon="15.44565">
        <ele>351.462959</ele>
        <time>2026-07-10T13:13:56.000Z</time>
      </trkpt>
      <trkpt lat="46.27713" lon="15.44561">
        <ele>351.543585</ele>
        <time>2026-07-10T13:13:57.000Z</time>
      </trkpt>
      <trkpt lat="46.27705" lon="15.44529">
        <ele>352.066334</ele>
        <time>2026-07-10T13:14:03.000Z</time>
      </trkpt>
      <trkpt lat="46.27695" lon="15.44504">
        <ele>352.496772</ele>
        <time>2026-07-10T13:14:07.000Z</time>
      </trkpt>
      <trkpt lat="46.27687" lon="15.44496">
        <ele>352.713124</ele>
        <time>2026-07-10T13:14:09.000Z</time>
      </trkpt>
      <trkpt lat="46.27657" lon="15.44474">
        <ele>353.460084</ele>
        <time>2026-07-10T13:14:15.000Z</time>
      </trkpt>
      <trkpt lat="46.27617" lon="15.44453">
        <ele>354.175723</ele>
        <time>2026-07-10T13:14:21.000Z</time>
      </trkpt>
      <trkpt lat="46.2757" lon="15.44433">
        <ele>352.05891</ele>
        <time>2026-07-10T13:14:27.000Z</time>
      </trkpt>
      <trkpt lat="46.2755" lon="15.44415">
        <ele>351.040379</ele>
        <time>2026-07-10T13:14:30.000Z</time>
      </trkpt>
      <trkpt lat="46.27544" lon="15.44403">
        <ele>350.606127</ele>
        <time>2026-07-10T13:14:31.000Z</time>
      </trkpt>
      <trkpt lat="46.27536" lon="15.4438">
        <ele>349.84743</ele>
        <time>2026-07-10T13:14:33.000Z</time>
      </trkpt>
      <trkpt lat="46.2753" lon="15.44356">
        <ele>349.093746</ele>
        <time>2026-07-10T13:14:35.000Z</time>
      </trkpt>
      <trkpt lat="46.27514" lon="15.44277">
        <ele>346.645305</ele>
        <time>2026-07-10T13:14:42.000Z</time>
      </trkpt>
      <trkpt lat="46.27506" lon="15.44261">
        <ele>346.144386</ele>
        <time>2026-07-10T13:14:44.000Z</time>
      </trkpt>
      <trkpt lat="46.27501" lon="15.44256">
        <ele>345.89208</ele>
        <time>2026-07-10T13:14:45.000Z</time>
      </trkpt>
      <trkpt lat="46.27494" lon="15.44252">
        <ele>345.606505</ele>
        <time>2026-07-10T13:14:46.000Z</time>
      </trkpt>
      <trkpt lat="46.27476" lon="15.4425">
        <ele>344.943736</ele>
        <time>2026-07-10T13:14:48.000Z</time>
      </trkpt>
      <trkpt lat="46.27446" lon="15.44247">
        <ele>343.797294</ele>
        <time>2026-07-10T13:14:51.000Z</time>
      </trkpt>
      <trkpt lat="46.27436" lon="15.44243">
        <ele>343.392574</ele>
        <time>2026-07-10T13:14:52.000Z</time>
      </trkpt>
      <trkpt lat="46.27412" lon="15.44239">
        <ele>342.486238</ele>
        <time>2026-07-10T13:14:54.000Z</time>
      </trkpt>
      <trkpt lat="46.27391" lon="15.44238">
        <ele>341.688764</ele>
        <time>2026-07-10T13:14:56.000Z</time>
      </trkpt>
      <trkpt lat="46.27371" lon="15.44236">
        <ele>340.931192</ele>
        <time>2026-07-10T13:14:58.000Z</time>
      </trkpt>
      <trkpt lat="46.27363" lon="15.44231">
        <ele>340.608915</ele>
        <time>2026-07-10T13:14:59.000Z</time>
      </trkpt>
      <trkpt lat="46.27357" lon="15.44225">
        <ele>340.313664</ele>
        <time>2026-07-10T13:15:00.000Z</time>
      </trkpt>
      <trkpt lat="46.27346" lon="15.44209">
        <ele>339.736487</ele>
        <time>2026-07-10T13:15:02.000Z</time>
      </trkpt>
      <trkpt lat="46.2732" lon="15.44166">
        <ele>338.471058</ele>
        <time>2026-07-10T13:15:07.000Z</time>
      </trkpt>
      <trkpt lat="46.27293" lon="15.44122">
        <ele>337.145133</ele>
        <time>2026-07-10T13:15:13.000Z</time>
      </trkpt>
      <trkpt lat="46.27284" lon="15.44107">
        <ele>336.709878</ele>
        <time>2026-07-10T13:15:15.000Z</time>
      </trkpt>
      <trkpt lat="46.27274" lon="15.44092">
        <ele>336.245695</ele>
        <time>2026-07-10T13:15:17.000Z</time>
      </trkpt>
      <trkpt lat="46.2727" lon="15.44083">
        <ele>336.009807</ele>
        <time>2026-07-10T13:15:18.000Z</time>
      </trkpt>
      <trkpt lat="46.2725" lon="15.44047">
        <ele>335.002326</ele>
        <time>2026-07-10T13:15:22.000Z</time>
      </trkpt>
      <trkpt lat="46.27234" lon="15.44034">
        <ele>334.38787</ele>
        <time>2026-07-10T13:15:24.000Z</time>
      </trkpt>
      <trkpt lat="46.27225" lon="15.44031">
        <ele>334.091414</ele>
        <time>2026-07-10T13:15:25.000Z</time>
      </trkpt>
      <trkpt lat="46.27216" lon="15.4403">
        <ele>333.833841</ele>
        <time>2026-07-10T13:15:26.000Z</time>
      </trkpt>
      <trkpt lat="46.27186" lon="15.44025">
        <ele>332.948704</ele>
        <time>2026-07-10T13:15:30.000Z</time>
      </trkpt>
      <trkpt lat="46.27156" lon="15.44014">
        <ele>332.061697</ele>
        <time>2026-07-10T13:15:35.000Z</time>
      </trkpt>
      <trkpt lat="46.27146" lon="15.44011">
        <ele>331.76386</ele>
        <time>2026-07-10T13:15:37.000Z</time>
      </trkpt>
      <trkpt lat="46.2714" lon="15.44004">
        <ele>331.522436</ele>
        <time>2026-07-10T13:15:39.000Z</time>
      </trkpt>
      <trkpt lat="46.2713" lon="15.43978">
        <ele>330.928889</ele>
        <time>2026-07-10T13:15:43.000Z</time>
      </trkpt>
      <trkpt lat="46.27116" lon="15.43944">
        <ele>330.124499</ele>
        <time>2026-07-10T13:15:48.000Z</time>
      </trkpt>
      <trkpt lat="46.27098" lon="15.43904">
        <ele>329.181715</ele>
        <time>2026-07-10T13:15:55.000Z</time>
      </trkpt>
      <trkpt lat="46.27093" lon="15.439">
        <ele>329.01366</ele>
        <time>2026-07-10T13:15:58.000Z</time>
      </trkpt>
      <trkpt lat="46.27093" lon="15.439">
        <ele>328.999127</ele>
        <time>2026-07-10T13:15:59.000Z</time>
      </trkpt>
      <trkpt lat="46.27093" lon="15.439">
        <ele>328.999127</ele>
        <time>2026-07-10T13:16:00.000Z</time>
      </trkpt>
      <trkpt lat="46.27089" lon="15.43895">
        <ele>328.853323</ele>
        <time>2026-07-10T13:16:14.000Z</time>
      </trkpt>
      <trkpt lat="46.27086" lon="15.43891">
        <ele>328.802622</ele>
        <time>2026-07-10T13:16:16.000Z</time>
      </trkpt>
      <trkpt lat="46.27072" lon="15.43874">
        <ele>329.212174</ele>
        <time>2026-07-10T13:16:21.000Z</time>
      </trkpt>
      <trkpt lat="46.27052" lon="15.43843">
        <ele>329.861729</ele>
        <time>2026-07-10T13:16:28.000Z</time>
      </trkpt>
      <trkpt lat="46.27049" lon="15.43839">
        <ele>329.95513</ele>
        <time>2026-07-10T13:16:29.000Z</time>
      </trkpt>
      <trkpt lat="46.27039" lon="15.43819">
        <ele>330.327109</ele>
        <time>2026-07-10T13:16:33.000Z</time>
      </trkpt>
      <trkpt lat="46.27034" lon="15.43802">
        <ele>330.615359</ele>
        <time>2026-07-10T13:16:36.000Z</time>
      </trkpt>
      <trkpt lat="46.27012" lon="15.43759">
        <ele>331.444697</ele>
        <time>2026-07-10T13:16:44.000Z</time>
      </trkpt>
      <trkpt lat="46.26986" lon="15.43717">
        <ele>332.327576</ele>
        <time>2026-07-10T13:16:53.000Z</time>
      </trkpt>
      <trkpt lat="46.26982" lon="15.43706">
        <ele>332.508</ele>
        <time>2026-07-10T13:16:55.000Z</time>
      </trkpt>
      <trkpt lat="46.26972" lon="15.43687">
        <ele>332.87578</ele>
        <time>2026-07-10T13:16:59.000Z</time>
      </trkpt>
      <trkpt lat="46.2697" lon="15.43683">
        <ele>332.950196</ele>
        <time>2026-07-10T13:17:00.000Z</time>
      </trkpt>
      <trkpt lat="46.26964" lon="15.43671">
        <ele>333.150039</ele>
        <time>2026-07-10T13:17:03.000Z</time>
      </trkpt>
      <trkpt lat="46.26949" lon="15.43644">
        <ele>333.633096</ele>
        <time>2026-07-10T13:17:09.000Z</time>
      </trkpt>
      <trkpt lat="46.26947" lon="15.4364">
        <ele>333.695761</ele>
        <time>2026-07-10T13:17:10.000Z</time>
      </trkpt>
      <trkpt lat="46.26939" lon="15.43629">
        <ele>333.915319</ele>
        <time>2026-07-10T13:17:14.000Z</time>
      </trkpt>
      <trkpt lat="46.26923" lon="15.43608">
        <ele>334.354348</ele>
        <time>2026-07-10T13:17:21.000Z</time>
      </trkpt>
      <trkpt lat="46.26915" lon="15.43592">
        <ele>334.623593</ele>
        <time>2026-07-10T13:17:24.000Z</time>
      </trkpt>
      <trkpt lat="46.26912" lon="15.43587">
        <ele>334.712611</ele>
        <time>2026-07-10T13:17:26.000Z</time>
      </trkpt>
      <trkpt lat="46.2691" lon="15.43579">
        <ele>334.82558</ele>
        <time>2026-07-10T13:17:28.000Z</time>
      </trkpt>
      <trkpt lat="46.26904" lon="15.43563">
        <ele>335.08839</ele>
        <time>2026-07-10T13:17:32.000Z</time>
      </trkpt>
      <trkpt lat="46.26902" lon="15.43558">
        <ele>335.161045</ele>
        <time>2026-07-10T13:17:33.000Z</time>
      </trkpt>
      <trkpt lat="46.26893" lon="15.43536">
        <ele>335.518786</ele>
        <time>2026-07-10T13:17:37.000Z</time>
      </trkpt>
      <trkpt lat="46.26891" lon="15.4353">
        <ele>335.608876</ele>
        <time>2026-07-10T13:17:38.000Z</time>
      </trkpt>
      <trkpt lat="46.26882" lon="15.43514">
        <ele>335.895687</ele>
        <time>2026-07-10T13:17:41.000Z</time>
      </trkpt>
      <trkpt lat="46.26874" lon="15.43504">
        <ele>336.109486</ele>
        <time>2026-07-10T13:17:43.000Z</time>
      </trkpt>
      <trkpt lat="46.26869" lon="15.43498">
        <ele>336.23434</ele>
        <time>2026-07-10T13:17:44.000Z</time>
      </trkpt>
      <trkpt lat="46.26865" lon="15.43494">
        <ele>336.329808</ele>
        <time>2026-07-10T13:17:45.000Z</time>
      </trkpt>
      <trkpt lat="46.26857" lon="15.43485">
        <ele>336.185941</ele>
        <time>2026-07-10T13:17:48.000Z</time>
      </trkpt>
      <trkpt lat="46.26841" lon="15.43471">
        <ele>335.704649</ele>
        <time>2026-07-10T13:17:54.000Z</time>
      </trkpt>
      <trkpt lat="46.26814" lon="15.43444">
        <ele>334.839096</ele>
        <time>2026-07-10T13:18:05.000Z</time>
      </trkpt>
      <trkpt lat="46.2681" lon="15.43439">
        <ele>334.685134</ele>
        <time>2026-07-10T13:18:07.000Z</time>
      </trkpt>
      <trkpt lat="46.26798" lon="15.43427">
        <ele>334.298321</ele>
        <time>2026-07-10T13:18:11.000Z</time>
      </trkpt>
      <trkpt lat="46.26777" lon="15.43415">
        <ele>333.712362</ele>
        <time>2026-07-10T13:18:17.000Z</time>
      </trkpt>
      <trkpt lat="46.26765" lon="15.43417">
        <ele>333.403151</ele>
        <time>2026-07-10T13:18:19.000Z</time>
      </trkpt>
      <trkpt lat="46.26757" lon="15.43415">
        <ele>333.182075</ele>
        <time>2026-07-10T13:18:21.000Z</time>
      </trkpt>
      <trkpt lat="46.26739" lon="15.43417">
        <ele>332.716626</ele>
        <time>2026-07-10T13:18:25.000Z</time>
      </trkpt>
      <trkpt lat="46.26726" lon="15.4341">
        <ele>332.348327</ele>
        <time>2026-07-10T13:18:28.000Z</time>
      </trkpt>
      <trkpt lat="46.26718" lon="15.43402">
        <ele>332.078674</ele>
        <time>2026-07-10T13:18:30.000Z</time>
      </trkpt>
      <trkpt lat="46.2671" lon="15.43394">
        <ele>331.839329</ele>
        <time>2026-07-10T13:18:32.000Z</time>
      </trkpt>
      <trkpt lat="46.26692" lon="15.43377">
        <ele>330.401723</ele>
        <time>2026-07-10T13:18:36.000Z</time>
      </trkpt>
      <trkpt lat="46.26687" lon="15.43373">
        <ele>329.900182</ele>
        <time>2026-07-10T13:18:37.000Z</time>
      </trkpt>
      <trkpt lat="46.26676" lon="15.43364">
        <ele>328.863451</ele>
        <time>2026-07-10T13:18:39.000Z</time>
      </trkpt>
      <trkpt lat="46.26665" lon="15.43358">
        <ele>327.837958</ele>
        <time>2026-07-10T13:18:41.000Z</time>
      </trkpt>
      <trkpt lat="46.26652" lon="15.43354">
        <ele>326.711889</ele>
        <time>2026-07-10T13:18:43.000Z</time>
      </trkpt>
      <trkpt lat="46.26635" lon="15.43356">
        <ele>325.296192</ele>
        <time>2026-07-10T13:18:46.000Z</time>
      </trkpt>
      <trkpt lat="46.26616" lon="15.43355">
        <ele>323.70369</ele>
        <time>2026-07-10T13:18:49.000Z</time>
      </trkpt>
      <trkpt lat="46.2661" lon="15.43356">
        <ele>323.165612</ele>
        <time>2026-07-10T13:18:50.000Z</time>
      </trkpt>
      <trkpt lat="46.26604" lon="15.43358">
        <ele>322.637676</ele>
        <time>2026-07-10T13:18:51.000Z</time>
      </trkpt>
      <trkpt lat="46.26554" lon="15.43371">
        <ele>318.338614</ele>
        <time>2026-07-10T13:18:58.000Z</time>
      </trkpt>
      <trkpt lat="46.26509" lon="15.43391">
        <ele>315.310871</ele>
        <time>2026-07-10T13:19:05.000Z</time>
      </trkpt>
      <trkpt lat="46.26475" lon="15.43405">
        <ele>313.820171</ele>
        <time>2026-07-10T13:19:11.000Z</time>
      </trkpt>
      <trkpt lat="46.2647" lon="15.43406">
        <ele>313.621764</ele>
        <time>2026-07-10T13:19:12.000Z</time>
      </trkpt>
      <trkpt lat="46.26441" lon="15.43407">
        <ele>312.421612</ele>
        <time>2026-07-10T13:19:17.000Z</time>
      </trkpt>
      <trkpt lat="46.26431" lon="15.43405">
        <ele>311.96955</ele>
        <time>2026-07-10T13:19:19.000Z</time>
      </trkpt>
      <trkpt lat="46.2642" lon="15.43402">
        <ele>311.518655</ele>
        <time>2026-07-10T13:19:21.000Z</time>
      </trkpt>
      <trkpt lat="46.26415" lon="15.434">
        <ele>311.279897</ele>
        <time>2026-07-10T13:19:22.000Z</time>
      </trkpt>
      <trkpt lat="46.26398" lon="15.43392">
        <ele>310.539264</ele>
        <time>2026-07-10T13:19:25.000Z</time>
      </trkpt>
      <trkpt lat="46.26377" lon="15.43387">
        <ele>309.635864</ele>
        <time>2026-07-10T13:19:29.000Z</time>
      </trkpt>
      <trkpt lat="46.26352" lon="15.43387">
        <ele>308.669457</ele>
        <time>2026-07-10T13:19:34.000Z</time>
      </trkpt>
      <trkpt lat="46.26348" lon="15.43388">
        <ele>308.56885</ele>
        <time>2026-07-10T13:19:35.000Z</time>
      </trkpt>
      <trkpt lat="46.26326" lon="15.4339">
        <ele>308.102211</ele>
        <time>2026-07-10T13:19:40.000Z</time>
      </trkpt>
      <trkpt lat="46.26324" lon="15.43389">
        <ele>308.041028</ele>
        <time>2026-07-10T13:19:41.000Z</time>
      </trkpt>
      <trkpt lat="46.26319" lon="15.43384">
        <ele>307.924111</ele>
        <time>2026-07-10T13:19:43.000Z</time>
      </trkpt>
      <trkpt lat="46.26319" lon="15.43377">
        <ele>307.817524</ele>
        <time>2026-07-10T13:19:45.000Z</time>
      </trkpt>
      <trkpt lat="46.2632" lon="15.43368">
        <ele>307.679454</ele>
        <time>2026-07-10T13:19:48.000Z</time>
      </trkpt>
      <trkpt lat="46.26321" lon="15.43367">
        <ele>307.657076</ele>
        <time>2026-07-10T13:19:49.000Z</time>
      </trkpt>
      <trkpt lat="46.26321" lon="15.43367">
        <ele>307.649616</ele>
        <time>2026-07-10T13:19:50.000Z</time>
      </trkpt>
      <trkpt lat="46.26328" lon="15.4336">
        <ele>307.472438</ele>
        <time>2026-07-10T13:20:41.000Z</time>
      </trkpt>
      <trkpt lat="46.2633" lon="15.43358">
        <ele>307.416636</ele>
        <time>2026-07-10T13:20:42.000Z</time>
      </trkpt>
      <trkpt lat="46.26343" lon="15.43338">
        <ele>307.011463</ele>
        <time>2026-07-10T13:20:48.000Z</time>
      </trkpt>
      <trkpt lat="46.26354" lon="15.43313">
        <ele>306.553929</ele>
        <time>2026-07-10T13:20:53.000Z</time>
      </trkpt>
      <trkpt lat="46.26364" lon="15.4329">
        <ele>306.146655</ele>
        <time>2026-07-10T13:20:58.000Z</time>
      </trkpt>
      <trkpt lat="46.26391" lon="15.43252">
        <ele>305.320588</ele>
        <time>2026-07-10T13:21:06.000Z</time>
      </trkpt>
      <trkpt lat="46.26413" lon="15.43239">
        <ele>304.763805</ele>
        <time>2026-07-10T13:21:11.000Z</time>
      </trkpt>
      <trkpt lat="46.26434" lon="15.43232">
        <ele>303.283372</ele>
        <time>2026-07-10T13:21:16.000Z</time>
      </trkpt>
      <trkpt lat="46.2644" lon="15.4323">
        <ele>302.921915</ele>
        <time>2026-07-10T13:21:17.000Z</time>
      </trkpt>
      <trkpt lat="46.26472" lon="15.43217">
        <ele>300.638009</ele>
        <time>2026-07-10T13:21:23.000Z</time>
      </trkpt>
      <trkpt lat="46.26492" lon="15.43213">
        <ele>299.305583</ele>
        <time>2026-07-10T13:21:27.000Z</time>
      </trkpt>
      <trkpt lat="46.26496" lon="15.43211">
        <ele>299.002939</ele>
        <time>2026-07-10T13:21:28.000Z</time>
      </trkpt>
      <trkpt lat="46.265" lon="15.43209">
        <ele>298.727981</ele>
        <time>2026-07-10T13:21:29.000Z</time>
      </trkpt>
      <trkpt lat="46.26508" lon="15.43202">
        <ele>298.12888</ele>
        <time>2026-07-10T13:21:31.000Z</time>
      </trkpt>
      <trkpt lat="46.2651" lon="15.43197">
        <ele>297.838515</ele>
        <time>2026-07-10T13:21:32.000Z</time>
      </trkpt>
      <trkpt lat="46.26512" lon="15.43191">
        <ele>297.552814</ele>
        <time>2026-07-10T13:21:33.000Z</time>
      </trkpt>
      <trkpt lat="46.26513" lon="15.4318">
        <ele>297.000698</ele>
        <time>2026-07-10T13:21:35.000Z</time>
      </trkpt>
      <trkpt lat="46.26513" lon="15.43168">
        <ele>296.446056</ele>
        <time>2026-07-10T13:21:37.000Z</time>
      </trkpt>
      <trkpt lat="46.26509" lon="15.43156">
        <ele>295.82605</ele>
        <time>2026-07-10T13:21:39.000Z</time>
      </trkpt>
      <trkpt lat="46.26501" lon="15.43146">
        <ele>295.136593</ele>
        <time>2026-07-10T13:21:41.000Z</time>
      </trkpt>
      <trkpt lat="46.26486" lon="15.43139">
        <ele>294.056227</ele>
        <time>2026-07-10T13:21:44.000Z</time>
      </trkpt>
      <trkpt lat="46.26476" lon="15.43136">
        <ele>293.382655</ele>
        <time>2026-07-10T13:21:46.000Z</time>
      </trkpt>
      <trkpt lat="46.26471" lon="15.43134">
        <ele>293.041867</ele>
        <time>2026-07-10T13:21:47.000Z</time>
      </trkpt>
      <trkpt lat="46.26463" lon="15.4313">
        <ele>293.116307</ele>
        <time>2026-07-10T13:21:49.000Z</time>
      </trkpt>
      <trkpt lat="46.26457" lon="15.43122">
        <ele>293.880941</ele>
        <time>2026-07-10T13:21:51.000Z</time>
      </trkpt>
      <trkpt lat="46.26453" lon="15.43118">
        <ele>294.306754</ele>
        <time>2026-07-10T13:21:52.000Z</time>
      </trkpt>
      <trkpt lat="46.26447" lon="15.43119">
        <ele>294.892836</ele>
        <time>2026-07-10T13:21:54.000Z</time>
      </trkpt>
      <trkpt lat="46.26438" lon="15.43124">
        <ele>295.762598</ele>
        <time>2026-07-10T13:21:57.000Z</time>
      </trkpt>
      <trkpt lat="46.26429" lon="15.43127">
        <ele>296.62628</ele>
        <time>2026-07-10T13:21:59.000Z</time>
      </trkpt>
      <trkpt lat="46.26406" lon="15.43124">
        <ele>298.84796</ele>
        <time>2026-07-10T13:22:05.000Z</time>
      </trkpt>
      <trkpt lat="46.26397" lon="15.43115">
        <ele>299.867433</ele>
        <time>2026-07-10T13:22:09.000Z</time>
      </trkpt>
      <trkpt lat="46.26394" lon="15.43113">
        <ele>300.233257</ele>
        <time>2026-07-10T13:22:10.000Z</time>
      </trkpt>
      <trkpt lat="46.26376" lon="15.43103">
        <ele>302.032861</ele>
        <time>2026-07-10T13:22:16.000Z</time>
      </trkpt>
      <trkpt lat="46.26364" lon="15.43098">
        <ele>303.178994</ele>
        <time>2026-07-10T13:22:21.000Z</time>
      </trkpt>
      <trkpt lat="46.26364" lon="15.43096">
        <ele>303.333516</ele>
        <time>2026-07-10T13:22:22.000Z</time>
      </trkpt>
      <trkpt lat="46.26364" lon="15.4309">
        <ele>303.724553</ele>
        <time>2026-07-10T13:22:24.000Z</time>
      </trkpt>
      <trkpt lat="46.26362" lon="15.43089">
        <ele>303.902825</ele>
        <time>2026-07-10T13:22:25.000Z</time>
      </trkpt>
      <trkpt lat="46.26356" lon="15.43091">
        <ele>304.442388</ele>
        <time>2026-07-10T13:22:29.000Z</time>
      </trkpt>
      <trkpt lat="46.26354" lon="15.4309">
        <ele>304.691627</ele>
        <time>2026-07-10T13:22:31.000Z</time>
      </trkpt>
      <trkpt lat="46.26341" lon="15.43081">
        <ele>306.069771</ele>
        <time>2026-07-10T13:22:37.000Z</time>
      </trkpt>
      <trkpt lat="46.26337" lon="15.43074">
        <ele>306.657643</ele>
        <time>2026-07-10T13:22:40.000Z</time>
      </trkpt>
      <trkpt lat="46.26337" lon="15.43063">
        <ele>307.367823</ele>
        <time>2026-07-10T13:22:43.000Z</time>
      </trkpt>
      <trkpt lat="46.26334" lon="15.43057">
        <ele>307.834576</ele>
        <time>2026-07-10T13:22:45.000Z</time>
      </trkpt>
      <trkpt lat="46.26329" lon="15.43052">
        <ele>308.368511</ele>
        <time>2026-07-10T13:22:47.000Z</time>
      </trkpt>
      <trkpt lat="46.26327" lon="15.43049">
        <ele>308.613416</ele>
        <time>2026-07-10T13:22:48.000Z</time>
      </trkpt>
      <trkpt lat="46.2632" lon="15.43044">
        <ele>309.428369</ele>
        <time>2026-07-10T13:22:51.000Z</time>
      </trkpt>
      <trkpt lat="46.2632" lon="15.43037">
        <ele>309.949976</ele>
        <time>2026-07-10T13:22:54.000Z</time>
      </trkpt>
      <trkpt lat="46.2632" lon="15.43033">
        <ele>310.203523</ele>
        <time>2026-07-10T13:22:55.000Z</time>
      </trkpt>
      <trkpt lat="46.26315" lon="15.4302">
        <ele>311.377331</ele>
        <time>2026-07-10T13:23:00.000Z</time>
      </trkpt>
      <trkpt lat="46.26314" lon="15.43017">
        <ele>311.591808</ele>
        <time>2026-07-10T13:23:01.000Z</time>
      </trkpt>
      <trkpt lat="46.26311" lon="15.43013">
        <ele>311.997186</ele>
        <time>2026-07-10T13:23:03.000Z</time>
      </trkpt>
      <trkpt lat="46.26309" lon="15.43005">
        <ele>312.691666</ele>
        <time>2026-07-10T13:23:06.000Z</time>
      </trkpt>
      <trkpt lat="46.26307" lon="15.43">
        <ele>313.166537</ele>
        <time>2026-07-10T13:23:08.000Z</time>
      </trkpt>
      <trkpt lat="46.26295" lon="15.42994">
        <ele>314.486163</ele>
        <time>2026-07-10T13:23:13.000Z</time>
      </trkpt>
      <trkpt lat="46.26298" lon="15.42988">
        <ele>315.036721</ele>
        <time>2026-07-10T13:23:14.000Z</time>
      </trkpt>
      <trkpt lat="46.26297" lon="15.4298">
        <ele>315.622201</ele>
        <time>2026-07-10T13:23:16.000Z</time>
      </trkpt>
      <trkpt lat="46.26296" lon="15.42977">
        <ele>315.897979</ele>
        <time>2026-07-10T13:23:17.000Z</time>
      </trkpt>
      <trkpt lat="46.26294" lon="15.42966">
        <ele>316.748318</ele>
        <time>2026-07-10T13:23:21.000Z</time>
      </trkpt>
      <trkpt lat="46.26293" lon="15.4296">
        <ele>317.218239</ele>
        <time>2026-07-10T13:23:24.000Z</time>
      </trkpt>
      <trkpt lat="46.26286" lon="15.42938">
        <ele>319.132199</ele>
        <time>2026-07-10T13:23:29.000Z</time>
      </trkpt>
      <trkpt lat="46.26289" lon="15.42924">
        <ele>320.225416</ele>
        <time>2026-07-10T13:23:33.000Z</time>
      </trkpt>
      <trkpt lat="46.26287" lon="15.42924">
        <ele>320.492111</ele>
        <time>2026-07-10T13:23:34.000Z</time>
      </trkpt>
      <trkpt lat="46.26274" lon="15.42922">
        <ele>321.925513</ele>
        <time>2026-07-10T13:23:37.000Z</time>
      </trkpt>
      <trkpt lat="46.26259" lon="15.42907">
        <ele>324.025154</ele>
        <time>2026-07-10T13:23:44.000Z</time>
      </trkpt>
      <trkpt lat="46.26245" lon="15.42896">
        <ele>325.781754</ele>
        <time>2026-07-10T13:23:50.000Z</time>
      </trkpt>
      <trkpt lat="46.26242" lon="15.42892">
        <ele>326.190962</ele>
        <time>2026-07-10T13:23:52.000Z</time>
      </trkpt>
      <trkpt lat="46.26239" lon="15.42888">
        <ele>326.627439</ele>
        <time>2026-07-10T13:23:54.000Z</time>
      </trkpt>
      <trkpt lat="46.26238" lon="15.42883">
        <ele>327.09412</ele>
        <time>2026-07-10T13:23:56.000Z</time>
      </trkpt>
      <trkpt lat="46.26236" lon="15.42881">
        <ele>327.322927</ele>
        <time>2026-07-10T13:23:57.000Z</time>
      </trkpt>
      <trkpt lat="46.26235" lon="15.42879">
        <ele>327.46793</ele>
        <time>2026-07-10T13:23:59.000Z</time>
      </trkpt>
      <trkpt lat="46.26229" lon="15.42875">
        <ele>328.275906</ele>
        <time>2026-07-10T13:24:01.000Z</time>
      </trkpt>
      <trkpt lat="46.26227" lon="15.42872">
        <ele>328.549813</ele>
        <time>2026-07-10T13:24:02.000Z</time>
      </trkpt>
      <trkpt lat="46.26221" lon="15.42866">
        <ele>329.312664</ele>
        <time>2026-07-10T13:24:05.000Z</time>
      </trkpt>
      <trkpt lat="46.2622" lon="15.42864">
        <ele>329.533062</ele>
        <time>2026-07-10T13:24:06.000Z</time>
      </trkpt>
      <trkpt lat="46.26214" lon="15.42856">
        <ele>329.694711</ele>
        <time>2026-07-10T13:24:10.000Z</time>
      </trkpt>
      <trkpt lat="46.26214" lon="15.42853">
        <ele>329.713939</ele>
        <time>2026-07-10T13:24:11.000Z</time>
      </trkpt>
      <trkpt lat="46.26215" lon="15.42852">
        <ele>329.73372</ele>
        <time>2026-07-10T13:24:12.000Z</time>
      </trkpt>
      <trkpt lat="46.26217" lon="15.4285">
        <ele>329.757223</ele>
        <time>2026-07-10T13:24:13.000Z</time>
      </trkpt>
      <trkpt lat="46.26217" lon="15.42849">
        <ele>329.765319</ele>
        <time>2026-07-10T13:24:14.000Z</time>
      </trkpt>
      <trkpt lat="46.26217" lon="15.42847">
        <ele>329.781231</ele>
        <time>2026-07-10T13:24:16.000Z</time>
      </trkpt>
      <trkpt lat="46.26227" lon="15.42844">
        <ele>329.898962</ele>
        <time>2026-07-10T13:24:20.000Z</time>
      </trkpt>
      <trkpt lat="46.26232" lon="15.42842">
        <ele>329.949725</ele>
        <time>2026-07-10T13:24:24.000Z</time>
      </trkpt>
      <trkpt lat="46.26234" lon="15.42838">
        <ele>329.990188</ele>
        <time>2026-07-10T13:24:25.000Z</time>
      </trkpt>
      <trkpt lat="46.26237" lon="15.42836">
        <ele>330.034877</ele>
        <time>2026-07-10T13:24:26.000Z</time>
      </trkpt>
      <trkpt lat="46.26244" lon="15.4283">
        <ele>330.119034</ele>
        <time>2026-07-10T13:24:29.000Z</time>
      </trkpt>
      <trkpt lat="46.26251" lon="15.42828">
        <ele>330.209691</ele>
        <time>2026-07-10T13:24:35.000Z</time>
      </trkpt>
      <trkpt lat="46.26254" lon="15.42829">
        <ele>330.243762</ele>
        <time>2026-07-10T13:24:37.000Z</time>
      </trkpt>
      <trkpt lat="46.26261" lon="15.42827">
        <ele>330.320797</ele>
        <time>2026-07-10T13:24:41.000Z</time>
      </trkpt>
      <trkpt lat="46.26263" lon="15.42825">
        <ele>330.349131</ele>
        <time>2026-07-10T13:24:45.000Z</time>
      </trkpt>
      <trkpt lat="46.26264" lon="15.42824">
        <ele>330.368402</ele>
        <time>2026-07-10T13:24:46.000Z</time>
      </trkpt>
      <trkpt lat="46.26284" lon="15.42819">
        <ele>330.601936</ele>
        <time>2026-07-10T13:24:53.000Z</time>
      </trkpt>
      <trkpt lat="46.2629" lon="15.4282">
        <ele>330.670424</ele>
        <time>2026-07-10T13:24:55.000Z</time>
      </trkpt>
      <trkpt lat="46.26297" lon="15.42821">
        <ele>330.756481</ele>
        <time>2026-07-10T13:24:59.000Z</time>
      </trkpt>
      <trkpt lat="46.26302" lon="15.42819">
        <ele>330.807557</ele>
        <time>2026-07-10T13:25:01.000Z</time>
      </trkpt>
      <trkpt lat="46.2631" lon="15.42816">
        <ele>330.909889</ele>
        <time>2026-07-10T13:25:04.000Z</time>
      </trkpt>
      <trkpt lat="46.26315" lon="15.42813">
        <ele>330.975066</ele>
        <time>2026-07-10T13:25:06.000Z</time>
      </trkpt>
      <trkpt lat="46.26324" lon="15.42811">
        <ele>331.07347</ele>
        <time>2026-07-10T13:25:10.000Z</time>
      </trkpt>
      <trkpt lat="46.26326" lon="15.42809">
        <ele>331.103995</ele>
        <time>2026-07-10T13:25:11.000Z</time>
      </trkpt>
      <trkpt lat="46.26328" lon="15.42808">
        <ele>331.12784</ele>
        <time>2026-07-10T13:25:12.000Z</time>
      </trkpt>
      <trkpt lat="46.26336" lon="15.4281">
        <ele>331.225826</ele>
        <time>2026-07-10T13:25:15.000Z</time>
      </trkpt>
      <trkpt lat="46.26345" lon="15.42808">
        <ele>331.331345</ele>
        <time>2026-07-10T13:25:18.000Z</time>
      </trkpt>
      <trkpt lat="46.2635" lon="15.42809">
        <ele>331.388808</ele>
        <time>2026-07-10T13:25:20.000Z</time>
      </trkpt>
      <trkpt lat="46.2636" lon="15.42807">
        <ele>331.504878</ele>
        <time>2026-07-10T13:25:23.000Z</time>
      </trkpt>
      <trkpt lat="46.26364" lon="15.42809">
        <ele>331.548041</ele>
        <time>2026-07-10T13:25:24.000Z</time>
      </trkpt>
      <trkpt lat="46.26371" lon="15.42809">
        <ele>331.637303</ele>
        <time>2026-07-10T13:25:28.000Z</time>
      </trkpt>
      <trkpt lat="46.26378" lon="15.42809">
        <ele>331.561784</ele>
        <time>2026-07-10T13:25:30.000Z</time>
      </trkpt>
      <trkpt lat="46.26381" lon="15.42811">
        <ele>331.334945</ele>
        <time>2026-07-10T13:25:32.000Z</time>
      </trkpt>
      <trkpt lat="46.26386" lon="15.42813">
        <ele>331.033513</ele>
        <time>2026-07-10T13:25:34.000Z</time>
      </trkpt>
      <trkpt lat="46.26391" lon="15.42815">
        <ele>330.737856</ele>
        <time>2026-07-10T13:25:36.000Z</time>
      </trkpt>
      <trkpt lat="46.26396" lon="15.42815">
        <ele>330.436705</ele>
        <time>2026-07-10T13:25:38.000Z</time>
      </trkpt>
      <trkpt lat="46.26397" lon="15.42814">
        <ele>330.31824</ele>
        <time>2026-07-10T13:25:39.000Z</time>
      </trkpt>
      <trkpt lat="46.26402" lon="15.42815">
        <ele>330.050928</ele>
        <time>2026-07-10T13:25:41.000Z</time>
      </trkpt>
      <trkpt lat="46.26416" lon="15.42811">
        <ele>329.211463</ele>
        <time>2026-07-10T13:25:46.000Z</time>
      </trkpt>
      <trkpt lat="46.26429" lon="15.42803">
        <ele>328.358584</ele>
        <time>2026-07-10T13:25:51.000Z</time>
      </trkpt>
      <trkpt lat="46.26431" lon="15.42802">
        <ele>328.215945</ele>
        <time>2026-07-10T13:25:52.000Z</time>
      </trkpt>
      <trkpt lat="46.26435" lon="15.42803">
        <ele>327.993826</ele>
        <time>2026-07-10T13:25:53.000Z</time>
      </trkpt>
      <trkpt lat="46.26446" lon="15.42809">
        <ele>327.277383</ele>
        <time>2026-07-10T13:25:56.000Z</time>
      </trkpt>
      <trkpt lat="46.26454" lon="15.42808">
        <ele>326.802263</ele>
        <time>2026-07-10T13:25:59.000Z</time>
      </trkpt>
      <trkpt lat="46.26465" lon="15.42795">
        <ele>325.923793</ele>
        <time>2026-07-10T13:26:03.000Z</time>
      </trkpt>
      <trkpt lat="46.26468" lon="15.42792">
        <ele>325.745606</ele>
        <time>2026-07-10T13:26:04.000Z</time>
      </trkpt>
      <trkpt lat="46.2647" lon="15.42789">
        <ele>325.584627</ele>
        <time>2026-07-10T13:26:05.000Z</time>
      </trkpt>
      <trkpt lat="46.26476" lon="15.42786">
        <ele>325.149696</ele>
        <time>2026-07-10T13:26:08.000Z</time>
      </trkpt>
      <trkpt lat="46.26486" lon="15.4278">
        <ele>324.553753</ele>
        <time>2026-07-10T13:26:10.000Z</time>
      </trkpt>
      <trkpt lat="46.26508" lon="15.42759">
        <ele>322.942888</ele>
        <time>2026-07-10T13:26:18.000Z</time>
      </trkpt>
      <trkpt lat="46.26512" lon="15.42745">
        <ele>322.322587</ele>
        <time>2026-07-10T13:26:22.000Z</time>
      </trkpt>
      <trkpt lat="46.26514" lon="15.42739">
        <ele>322.056963</ele>
        <time>2026-07-10T13:26:24.000Z</time>
      </trkpt>
      <trkpt lat="46.26516" lon="15.42738">
        <ele>321.954191</ele>
        <time>2026-07-10T13:26:25.000Z</time>
      </trkpt>
      <trkpt lat="46.26518" lon="15.42734">
        <ele>321.708521</ele>
        <time>2026-07-10T13:26:27.000Z</time>
      </trkpt>
      <trkpt lat="46.26519" lon="15.42732">
        <ele>321.592839</ele>
        <time>2026-07-10T13:26:28.000Z</time>
      </trkpt>
      <trkpt lat="46.2652" lon="15.42728">
        <ele>321.444935</ele>
        <time>2026-07-10T13:26:29.000Z</time>
      </trkpt>
      <trkpt lat="46.26528" lon="15.42716">
        <ele>321.091053</ele>
        <time>2026-07-10T13:26:34.000Z</time>
      </trkpt>
      <trkpt lat="46.26531" lon="15.42716">
        <ele>321.290122</ele>
        <time>2026-07-10T13:26:35.000Z</time>
      </trkpt>
      <trkpt lat="46.26539" lon="15.4271">
        <ele>321.863078</ele>
        <time>2026-07-10T13:26:38.000Z</time>
      </trkpt>
      <trkpt lat="46.2654" lon="15.42708">
        <ele>321.999828</ele>
        <time>2026-07-10T13:26:39.000Z</time>
      </trkpt>
      <trkpt lat="46.26544" lon="15.42701">
        <ele>322.411881</ele>
        <time>2026-07-10T13:26:42.000Z</time>
      </trkpt>
      <trkpt lat="46.26548" lon="15.42696">
        <ele>322.71074</ele>
        <time>2026-07-10T13:26:44.000Z</time>
      </trkpt>
      <trkpt lat="46.2655" lon="15.42692">
        <ele>322.970479</ele>
        <time>2026-07-10T13:26:46.000Z</time>
      </trkpt>
      <trkpt lat="46.26559" lon="15.42689">
        <ele>323.554524</ele>
        <time>2026-07-10T13:26:49.000Z</time>
      </trkpt>
      <trkpt lat="46.26564" lon="15.42688">
        <ele>323.904108</ele>
        <time>2026-07-10T13:26:50.000Z</time>
      </trkpt>
      <trkpt lat="46.26568" lon="15.42687">
        <ele>324.148011</ele>
        <time>2026-07-10T13:26:51.000Z</time>
      </trkpt>
      <trkpt lat="46.26573" lon="15.42689">
        <ele>324.515525</ele>
        <time>2026-07-10T13:26:53.000Z</time>
      </trkpt>
      <trkpt lat="46.26577" lon="15.42691">
        <ele>324.745907</ele>
        <time>2026-07-10T13:26:54.000Z</time>
      </trkpt>
      <trkpt lat="46.26588" lon="15.4269">
        <ele>325.460878</ele>
        <time>2026-07-10T13:26:58.000Z</time>
      </trkpt>
      <trkpt lat="46.26592" lon="15.42691">
        <ele>325.777184</ele>
        <time>2026-07-10T13:27:00.000Z</time>
      </trkpt>
      <trkpt lat="46.26604" lon="15.42689">
        <ele>326.566992</ele>
        <time>2026-07-10T13:27:05.000Z</time>
      </trkpt>
      <trkpt lat="46.26609" lon="15.42688">
        <ele>326.881731</ele>
        <time>2026-07-10T13:27:07.000Z</time>
      </trkpt>
      <trkpt lat="46.26615" lon="15.42682">
        <ele>327.386048</ele>
        <time>2026-07-10T13:27:10.000Z</time>
      </trkpt>
      <trkpt lat="46.26627" lon="15.42671">
        <ele>328.307648</ele>
        <time>2026-07-10T13:27:15.000Z</time>
      </trkpt>
      <trkpt lat="46.26632" lon="15.42664">
        <ele>328.767856</ele>
        <time>2026-07-10T13:27:17.000Z</time>
      </trkpt>
      <trkpt lat="46.26638" lon="15.42657">
        <ele>329.267183</ele>
        <time>2026-07-10T13:27:19.000Z</time>
      </trkpt>
      <trkpt lat="46.2664" lon="15.42653">
        <ele>329.505979</ele>
        <time>2026-07-10T13:27:20.000Z</time>
      </trkpt>
      <trkpt lat="46.26651" lon="15.4263">
        <ele>330.746486</ele>
        <time>2026-07-10T13:27:25.000Z</time>
      </trkpt>
      <trkpt lat="46.26663" lon="15.42601">
        <ele>332.272731</ele>
        <time>2026-07-10T13:27:30.000Z</time>
      </trkpt>
      <trkpt lat="46.26677" lon="15.42568">
        <ele>332.403418</ele>
        <time>2026-07-10T13:27:37.000Z</time>
      </trkpt>
      <trkpt lat="46.26683" lon="15.42533">
        <ele>332.035275</ele>
        <time>2026-07-10T13:27:45.000Z</time>
      </trkpt>
      <trkpt lat="46.26685" lon="15.42514">
        <ele>331.832497</ele>
        <time>2026-07-10T13:27:50.000Z</time>
      </trkpt>
      <trkpt lat="46.26688" lon="15.42507">
        <ele>331.750261</ele>
        <time>2026-07-10T13:27:52.000Z</time>
      </trkpt>
      <trkpt lat="46.26697" lon="15.42485">
        <ele>331.486578</ele>
        <time>2026-07-10T13:27:59.000Z</time>
      </trkpt>
      <trkpt lat="46.26698" lon="15.42482">
        <ele>331.455324</ele>
        <time>2026-07-10T13:28:00.000Z</time>
      </trkpt>
      <trkpt lat="46.26704" lon="15.4247">
        <ele>331.300109</ele>
        <time>2026-07-10T13:28:05.000Z</time>
      </trkpt>
      <trkpt lat="46.26716" lon="15.42448">
        <ele>331.018821</ele>
        <time>2026-07-10T13:28:13.000Z</time>
      </trkpt>
      <trkpt lat="46.26726" lon="15.42432">
        <ele>330.800675</ele>
        <time>2026-07-10T13:28:19.000Z</time>
      </trkpt>
      <trkpt lat="46.26727" lon="15.4243">
        <ele>330.765452</ele>
        <time>2026-07-10T13:28:20.000Z</time>
      </trkpt>
      <trkpt lat="46.26735" lon="15.42421">
        <ele>330.617068</ele>
        <time>2026-07-10T13:28:24.000Z</time>
      </trkpt>
      <trkpt lat="46.2674" lon="15.42417">
        <ele>330.541935</ele>
        <time>2026-07-10T13:28:26.000Z</time>
      </trkpt>
      <trkpt lat="46.26742" lon="15.42416">
        <ele>330.504457</ele>
        <time>2026-07-10T13:28:27.000Z</time>
      </trkpt>
      <trkpt lat="46.26758" lon="15.42393">
        <ele>330.170002</ele>
        <time>2026-07-10T13:28:36.000Z</time>
      </trkpt>
      <trkpt lat="46.26759" lon="15.42374">
        <ele>330.08042</ele>
        <time>2026-07-10T13:28:41.000Z</time>
      </trkpt>
      <trkpt lat="46.26753" lon="15.4236">
        <ele>330.197462</ele>
        <time>2026-07-10T13:28:46.000Z</time>
      </trkpt>
      <trkpt lat="46.26741" lon="15.42339">
        <ele>330.395415</ele>
        <time>2026-07-10T13:28:54.000Z</time>
      </trkpt>
      <trkpt lat="46.26732" lon="15.42323">
        <ele>330.542129</ele>
        <time>2026-07-10T13:29:00.000Z</time>
      </trkpt>
      <trkpt lat="46.26724" lon="15.42313">
        <ele>330.657349</ele>
        <time>2026-07-10T13:29:05.000Z</time>
      </trkpt>
      <trkpt lat="46.26713" lon="15.42296">
        <ele>330.823362</ele>
        <time>2026-07-10T13:29:12.000Z</time>
      </trkpt>
      <trkpt lat="46.26706" lon="15.42282">
        <ele>330.952235</ele>
        <time>2026-07-10T13:29:18.000Z</time>
      </trkpt>
      <trkpt lat="46.26706" lon="15.42281">
        <ele>330.957333</ele>
        <time>2026-07-10T13:29:20.000Z</time>
      </trkpt>
      <trkpt lat="46.26701" lon="15.42276">
        <ele>331.014718</ele>
        <time>2026-07-10T13:29:26.000Z</time>
      </trkpt>
      <trkpt lat="46.26695" lon="15.42259">
        <ele>331.156916</ele>
        <time>2026-07-10T13:29:31.000Z</time>
      </trkpt>
      <trkpt lat="46.26689" lon="15.42242">
        <ele>331.298782</ele>
        <time>2026-07-10T13:29:34.000Z</time>
      </trkpt>
      <trkpt lat="46.26684" lon="15.42229">
        <ele>331.403498</ele>
        <time>2026-07-10T13:29:36.000Z</time>
      </trkpt>
      <trkpt lat="46.26682" lon="15.42222">
        <ele>331.458303</ele>
        <time>2026-07-10T13:29:37.000Z</time>
      </trkpt>
      <trkpt lat="46.26674" lon="15.42185">
        <ele>331.738105</ele>
        <time>2026-07-10T13:29:42.000Z</time>
      </trkpt>
      <trkpt lat="46.26672" lon="15.42171">
        <ele>331.843088</ele>
        <time>2026-07-10T13:29:44.000Z</time>
      </trkpt>
      <trkpt lat="46.26672" lon="15.4215">
        <ele>331.757919</ele>
        <time>2026-07-10T13:29:47.000Z</time>
      </trkpt>
      <trkpt lat="46.26674" lon="15.42143">
        <ele>331.637719</ele>
        <time>2026-07-10T13:29:48.000Z</time>
      </trkpt>
      <trkpt lat="46.26677" lon="15.42125">
        <ele>331.33331</ele>
        <time>2026-07-10T13:29:51.000Z</time>
      </trkpt>
      <trkpt lat="46.2668" lon="15.42115">
        <ele>331.133421</ele>
        <time>2026-07-10T13:29:53.000Z</time>
      </trkpt>
      <trkpt lat="46.26697" lon="15.42077">
        <ele>330.402912</ele>
        <time>2026-07-10T13:30:00.000Z</time>
      </trkpt>
      <trkpt lat="46.26699" lon="15.42072">
        <ele>330.297262</ele>
        <time>2026-07-10T13:30:01.000Z</time>
      </trkpt>
      <trkpt lat="46.267" lon="15.42066">
        <ele>330.202289</ele>
        <time>2026-07-10T13:30:02.000Z</time>
      </trkpt>
      <trkpt lat="46.26702" lon="15.42044">
        <ele>329.825781</ele>
        <time>2026-07-10T13:30:06.000Z</time>
      </trkpt>
      <trkpt lat="46.26703" lon="15.42009">
        <ele>329.249213</ele>
        <time>2026-07-10T13:30:13.000Z</time>
      </trkpt>
      <trkpt lat="46.26704" lon="15.41983">
        <ele>328.813776</ele>
        <time>2026-07-10T13:30:19.000Z</time>
      </trkpt>
      <trkpt lat="46.26705" lon="15.41965">
        <ele>328.523477</ele>
        <time>2026-07-10T13:30:23.000Z</time>
      </trkpt>
      <trkpt lat="46.26702" lon="15.41944">
        <ele>328.165196</ele>
        <time>2026-07-10T13:30:28.000Z</time>
      </trkpt>
      <trkpt lat="46.26697" lon="15.41904">
        <ele>327.62283</ele>
        <time>2026-07-10T13:30:37.000Z</time>
      </trkpt>
      <trkpt lat="46.26687" lon="15.41865">
        <ele>327.72243</ele>
        <time>2026-07-10T13:30:46.000Z</time>
      </trkpt>
      <trkpt lat="46.26675" lon="15.41837">
        <ele>327.800831</ele>
        <time>2026-07-10T13:30:53.000Z</time>
      </trkpt>
      <trkpt lat="46.26662" lon="15.41805">
        <ele>327.886764</ele>
        <time>2026-07-10T13:31:01.000Z</time>
      </trkpt>
      <trkpt lat="46.2666" lon="15.41797">
        <ele>327.907566</ele>
        <time>2026-07-10T13:31:03.000Z</time>
      </trkpt>
      <trkpt lat="46.26646" lon="15.41769">
        <ele>327.988957</ele>
        <time>2026-07-10T13:31:10.000Z</time>
      </trkpt>
      <trkpt lat="46.26643" lon="15.41765">
        <ele>328.002939</ele>
        <time>2026-07-10T13:31:11.000Z</time>
      </trkpt>
      <trkpt lat="46.26632" lon="15.41747">
        <ele>328.06007</ele>
        <time>2026-07-10T13:31:15.000Z</time>
      </trkpt>
      <trkpt lat="46.26626" lon="15.41737">
        <ele>328.092116</ele>
        <time>2026-07-10T13:31:17.000Z</time>
      </trkpt>
      <trkpt lat="46.26609" lon="15.41706">
        <ele>328.184605</ele>
        <time>2026-07-10T13:31:23.000Z</time>
      </trkpt>
      <trkpt lat="46.266" lon="15.41687">
        <ele>328.418561</ele>
        <time>2026-07-10T13:31:27.000Z</time>
      </trkpt>
      <trkpt lat="46.26591" lon="15.41665">
        <ele>329.139872</ele>
        <time>2026-07-10T13:31:32.000Z</time>
      </trkpt>
      <trkpt lat="46.26581" lon="15.41632">
        <ele>330.174852</ele>
        <time>2026-07-10T13:31:39.000Z</time>
      </trkpt>
      <trkpt lat="46.26563" lon="15.41581">
        <ele>331.790831</ele>
        <time>2026-07-10T13:31:50.000Z</time>
      </trkpt>
      <trkpt lat="46.26553" lon="15.41554">
        <ele>332.667434</ele>
        <time>2026-07-10T13:31:56.000Z</time>
      </trkpt>
      <trkpt lat="46.26545" lon="15.41533">
        <ele>333.356532</ele>
        <time>2026-07-10T13:32:01.000Z</time>
      </trkpt>
      <trkpt lat="46.2654" lon="15.41512">
        <ele>333.956723</ele>
        <time>2026-07-10T13:32:06.000Z</time>
      </trkpt>
      <trkpt lat="46.2653" lon="15.41489">
        <ele>334.746773</ele>
        <time>2026-07-10T13:32:13.000Z</time>
      </trkpt>
      <trkpt lat="46.26517" lon="15.41476">
        <ele>335.365946</ele>
        <time>2026-07-10T13:32:18.000Z</time>
      </trkpt>
      <trkpt lat="46.26508" lon="15.41463">
        <ele>335.645641</ele>
        <time>2026-07-10T13:32:22.000Z</time>
      </trkpt>
      <trkpt lat="46.265" lon="15.41445">
        <ele>335.753193</ele>
        <time>2026-07-10T13:32:27.000Z</time>
      </trkpt>
      <trkpt lat="46.26484" lon="15.41426">
        <ele>335.894447</ele>
        <time>2026-07-10T13:32:33.000Z</time>
      </trkpt>
      <trkpt lat="46.26473" lon="15.41418">
        <ele>335.983252</ele>
        <time>2026-07-10T13:32:36.000Z</time>
      </trkpt>
      <trkpt lat="46.2646" lon="15.41406">
        <ele>336.094482</ele>
        <time>2026-07-10T13:32:40.000Z</time>
      </trkpt>
      <trkpt lat="46.26436" lon="15.41381">
        <ele>336.2997</ele>
        <time>2026-07-10T13:32:49.000Z</time>
      </trkpt>
      <trkpt lat="46.26417" lon="15.41353">
        <ele>336.492979</ele>
        <time>2026-07-10T13:32:56.000Z</time>
      </trkpt>
      <trkpt lat="46.26405" lon="15.41333">
        <ele>336.625193</ele>
        <time>2026-07-10T13:33:00.000Z</time>
      </trkpt>
      <trkpt lat="46.26403" lon="15.41327">
        <ele>336.659435</ele>
        <time>2026-07-10T13:33:01.000Z</time>
      </trkpt>
      <trkpt lat="46.264" lon="15.41321">
        <ele>336.693677</ele>
        <time>2026-07-10T13:33:02.000Z</time>
      </trkpt>
      <trkpt lat="46.26394" lon="15.41311">
        <ele>336.757905</ele>
        <time>2026-07-10T13:33:04.000Z</time>
      </trkpt>
      <trkpt lat="46.26386" lon="15.41294">
        <ele>336.861043</ele>
        <time>2026-07-10T13:33:07.000Z</time>
      </trkpt>
      <trkpt lat="46.26383" lon="15.41288">
        <ele>336.781444</ele>
        <time>2026-07-10T13:33:08.000Z</time>
      </trkpt>
      <trkpt lat="46.26367" lon="15.41256">
        <ele>336.199374</ele>
        <time>2026-07-10T13:33:14.000Z</time>
      </trkpt>
      <trkpt lat="46.26342" lon="15.41215">
        <ele>335.405173</ele>
        <time>2026-07-10T13:33:23.000Z</time>
      </trkpt>
      <trkpt lat="46.26337" lon="15.41206">
        <ele>335.245505</ele>
        <time>2026-07-10T13:33:25.000Z</time>
      </trkpt>
      <trkpt lat="46.2633" lon="15.41187">
        <ele>334.920495</ele>
        <time>2026-07-10T13:33:29.000Z</time>
      </trkpt>
      <trkpt lat="46.26317" lon="15.41151">
        <ele>334.336184</ele>
        <time>2026-07-10T13:33:36.000Z</time>
      </trkpt>
      <trkpt lat="46.263" lon="15.41119">
        <ele>333.751181</ele>
        <time>2026-07-10T13:33:41.000Z</time>
      </trkpt>
      <trkpt lat="46.26272" lon="15.41093">
        <ele>333.022804</ele>
        <time>2026-07-10T13:33:47.000Z</time>
      </trkpt>
      <trkpt lat="46.26246" lon="15.41068">
        <ele>331.774198</ele>
        <time>2026-07-10T13:33:52.000Z</time>
      </trkpt>
      <trkpt lat="46.26242" lon="15.41062">
        <ele>331.516216</ele>
        <time>2026-07-10T13:33:53.000Z</time>
      </trkpt>
      <trkpt lat="46.26238" lon="15.41055">
        <ele>331.273781</ele>
        <time>2026-07-10T13:33:54.000Z</time>
      </trkpt>
      <trkpt lat="46.26228" lon="15.4103">
        <ele>330.473785</ele>
        <time>2026-07-10T13:33:57.000Z</time>
      </trkpt>
      <trkpt lat="46.26222" lon="15.41012">
        <ele>329.904756</ele>
        <time>2026-07-10T13:33:59.000Z</time>
      </trkpt>
      <trkpt lat="46.26215" lon="15.40994">
        <ele>329.323552</ele>
        <time>2026-07-10T13:34:01.000Z</time>
      </trkpt>
      <trkpt lat="46.26197" lon="15.40956">
        <ele>328.029372</ele>
        <time>2026-07-10T13:34:06.000Z</time>
      </trkpt>
      <trkpt lat="46.26194" lon="15.40947">
        <ele>327.758835</ele>
        <time>2026-07-10T13:34:07.000Z</time>
      </trkpt>
      <trkpt lat="46.26192" lon="15.40937">
        <ele>327.458787</ele>
        <time>2026-07-10T13:34:08.000Z</time>
      </trkpt>
      <trkpt lat="46.26193" lon="15.40917">
        <ele>326.904488</ele>
        <time>2026-07-10T13:34:10.000Z</time>
      </trkpt>
      <trkpt lat="46.26197" lon="15.40892">
        <ele>326.19068</ele>
        <time>2026-07-10T13:34:12.000Z</time>
      </trkpt>
      <trkpt lat="46.262" lon="15.40867">
        <ele>325.618094</ele>
        <time>2026-07-10T13:34:14.000Z</time>
      </trkpt>
      <trkpt lat="46.26201" lon="15.40856">
        <ele>325.441087</ele>
        <time>2026-07-10T13:34:15.000Z</time>
      </trkpt>
      <trkpt lat="46.26203" lon="15.40834">
        <ele>325.107269</ele>
        <time>2026-07-10T13:34:17.000Z</time>
      </trkpt>
      <trkpt lat="46.26207" lon="15.40816">
        <ele>324.820311</ele>
        <time>2026-07-10T13:34:19.000Z</time>
      </trkpt>
      <trkpt lat="46.26211" lon="15.40809">
        <ele>324.693583</ele>
        <time>2026-07-10T13:34:20.000Z</time>
      </trkpt>
      <trkpt lat="46.26214" lon="15.40803">
        <ele>324.575739</ele>
        <time>2026-07-10T13:34:21.000Z</time>
      </trkpt>
      <trkpt lat="46.26223" lon="15.40798">
        <ele>324.364269</ele>
        <time>2026-07-10T13:34:23.000Z</time>
      </trkpt>
      <trkpt lat="46.2624" lon="15.40805">
        <ele>323.976328</ele>
        <time>2026-07-10T13:34:26.000Z</time>
      </trkpt>
      <trkpt lat="46.26258" lon="15.40819">
        <ele>323.522701</ele>
        <time>2026-07-10T13:34:29.000Z</time>
      </trkpt>
      <trkpt lat="46.26265" lon="15.40822">
        <ele>323.368767</ele>
        <time>2026-07-10T13:34:30.000Z</time>
      </trkpt>
      <trkpt lat="46.26273" lon="15.40825">
        <ele>323.192551</ele>
        <time>2026-07-10T13:34:31.000Z</time>
      </trkpt>
      <trkpt lat="46.26299" lon="15.40829">
        <ele>322.618072</ele>
        <time>2026-07-10T13:34:34.000Z</time>
      </trkpt>
      <trkpt lat="46.26314" lon="15.40824">
        <ele>322.265182</ele>
        <time>2026-07-10T13:34:36.000Z</time>
      </trkpt>
      <trkpt lat="46.26322" lon="15.40819">
        <ele>322.073096</ele>
        <time>2026-07-10T13:34:37.000Z</time>
      </trkpt>
      <trkpt lat="46.26329" lon="15.40811">
        <ele>321.87858</ele>
        <time>2026-07-10T13:34:38.000Z</time>
      </trkpt>
      <trkpt lat="46.26338" lon="15.40787">
        <ele>320.604566</ele>
        <time>2026-07-10T13:34:40.000Z</time>
      </trkpt>
      <trkpt lat="46.26342" lon="15.40761">
        <ele>319.273915</ele>
        <time>2026-07-10T13:34:42.000Z</time>
      </trkpt>
      <trkpt lat="46.26342" lon="15.40747">
        <ele>318.584138</ele>
        <time>2026-07-10T13:34:43.000Z</time>
      </trkpt>
      <trkpt lat="46.2634" lon="15.40733">
        <ele>317.838608</ele>
        <time>2026-07-10T13:34:44.000Z</time>
      </trkpt>
      <trkpt lat="46.26332" lon="15.40705">
        <ele>316.284594</ele>
        <time>2026-07-10T13:34:46.000Z</time>
      </trkpt>
      <trkpt lat="46.26313" lon="15.40646">
        <ele>313.013772</ele>
        <time>2026-07-10T13:34:50.000Z</time>
      </trkpt>
      <trkpt lat="46.26302" lon="15.4058">
        <ele>309.610499</ele>
        <time>2026-07-10T13:34:54.000Z</time>
      </trkpt>
      <trkpt lat="46.26294" lon="15.40552">
        <ele>308.137693</ele>
        <time>2026-07-10T13:34:56.000Z</time>
      </trkpt>
      <trkpt lat="46.26278" lon="15.40523">
        <ele>306.399958</ele>
        <time>2026-07-10T13:34:58.000Z</time>
      </trkpt>
      <trkpt lat="46.26269" lon="15.40511">
        <ele>305.616527</ele>
        <time>2026-07-10T13:34:59.000Z</time>
      </trkpt>
      <trkpt lat="46.26258" lon="15.40488">
        <ele>304.343232</ele>
        <time>2026-07-10T13:35:01.000Z</time>
      </trkpt>
      <trkpt lat="46.26254" lon="15.40472">
        <ele>303.513574</ele>
        <time>2026-07-10T13:35:02.000Z</time>
      </trkpt>
      <trkpt lat="46.26251" lon="15.40444">
        <ele>302.2253</ele>
        <time>2026-07-10T13:35:04.000Z</time>
      </trkpt>
      <trkpt lat="46.26251" lon="15.40433">
        <ele>301.724578</ele>
        <time>2026-07-10T13:35:05.000Z</time>
      </trkpt>
      <trkpt lat="46.26259" lon="15.40382">
        <ele>299.306626</ele>
        <time>2026-07-10T13:35:09.000Z</time>
      </trkpt>
      <trkpt lat="46.26267" lon="15.40349">
        <ele>297.664009</ele>
        <time>2026-07-10T13:35:12.000Z</time>
      </trkpt>
      <trkpt lat="46.26275" lon="15.40328">
        <ele>296.634333</ele>
        <time>2026-07-10T13:35:14.000Z</time>
      </trkpt>
      <trkpt lat="46.2628" lon="15.40318">
        <ele>296.405587</ele>
        <time>2026-07-10T13:35:15.000Z</time>
      </trkpt>
      <trkpt lat="46.26292" lon="15.40302">
        <ele>295.961992</ele>
        <time>2026-07-10T13:35:17.000Z</time>
      </trkpt>
      <trkpt lat="46.26304" lon="15.40288">
        <ele>295.540998</ele>
        <time>2026-07-10T13:35:19.000Z</time>
      </trkpt>
      <trkpt lat="46.26313" lon="15.40272">
        <ele>295.159922</ele>
        <time>2026-07-10T13:35:21.000Z</time>
      </trkpt>
      <trkpt lat="46.26317" lon="15.40254">
        <ele>294.810566</ele>
        <time>2026-07-10T13:35:23.000Z</time>
      </trkpt>
      <trkpt lat="46.26317" lon="15.40246">
        <ele>294.668981</ele>
        <time>2026-07-10T13:35:24.000Z</time>
      </trkpt>
      <trkpt lat="46.26318" lon="15.40237">
        <ele>294.483958</ele>
        <time>2026-07-10T13:35:25.000Z</time>
      </trkpt>
      <trkpt lat="46.26316" lon="15.402">
        <ele>293.80682</ele>
        <time>2026-07-10T13:35:29.000Z</time>
      </trkpt>
      <trkpt lat="46.26316" lon="15.40184">
        <ele>293.496921</ele>
        <time>2026-07-10T13:35:31.000Z</time>
      </trkpt>
      <trkpt lat="46.26316" lon="15.40158">
        <ele>293.023025</ele>
        <time>2026-07-10T13:35:34.000Z</time>
      </trkpt>
      <trkpt lat="46.26315" lon="15.40143">
        <ele>292.729907</ele>
        <time>2026-07-10T13:35:36.000Z</time>
      </trkpt>
      <trkpt lat="46.26313" lon="15.40127">
        <ele>292.423861</ele>
        <time>2026-07-10T13:35:38.000Z</time>
      </trkpt>
      <trkpt lat="46.2631" lon="15.40119">
        <ele>292.266689</ele>
        <time>2026-07-10T13:35:39.000Z</time>
      </trkpt>
      <trkpt lat="46.26304" lon="15.40104">
        <ele>291.945417</ele>
        <time>2026-07-10T13:35:41.000Z</time>
      </trkpt>
      <trkpt lat="46.26296" lon="15.40091">
        <ele>291.730666</ele>
        <time>2026-07-10T13:35:43.000Z</time>
      </trkpt>
      <trkpt lat="46.26291" lon="15.40084">
        <ele>291.645301</ele>
        <time>2026-07-10T13:35:44.000Z</time>
      </trkpt>
      <trkpt lat="46.2626" lon="15.40054">
        <ele>291.168649</ele>
        <time>2026-07-10T13:35:50.000Z</time>
      </trkpt>
      <trkpt lat="46.26254" lon="15.40051">
        <ele>291.088446</ele>
        <time>2026-07-10T13:35:51.000Z</time>
      </trkpt>
      <trkpt lat="46.26248" lon="15.40048">
        <ele>291.00968</ele>
        <time>2026-07-10T13:35:52.000Z</time>
      </trkpt>
      <trkpt lat="46.26236" lon="15.40047">
        <ele>290.854093</ele>
        <time>2026-07-10T13:35:54.000Z</time>
      </trkpt>
      <trkpt lat="46.2623" lon="15.40047">
        <ele>290.772589</ele>
        <time>2026-07-10T13:35:55.000Z</time>
      </trkpt>
      <trkpt lat="46.26193" lon="15.40055">
        <ele>290.302962</ele>
        <time>2026-07-10T13:36:01.000Z</time>
      </trkpt>
      <trkpt lat="46.26187" lon="15.40055">
        <ele>290.226592</ele>
        <time>2026-07-10T13:36:02.000Z</time>
      </trkpt>
      <trkpt lat="46.26182" lon="15.40054">
        <ele>290.15592</ele>
        <time>2026-07-10T13:36:03.000Z</time>
      </trkpt>
      <trkpt lat="46.26172" lon="15.40046">
        <ele>290.015742</ele>
        <time>2026-07-10T13:36:05.000Z</time>
      </trkpt>
      <trkpt lat="46.26158" lon="15.40019">
        <ele>289.717446</ele>
        <time>2026-07-10T13:36:09.000Z</time>
      </trkpt>
      <trkpt lat="46.26155" lon="15.40012">
        <ele>289.644292</ele>
        <time>2026-07-10T13:36:10.000Z</time>
      </trkpt>
      <trkpt lat="46.26135" lon="15.39964">
        <ele>290.250085</ele>
        <time>2026-07-10T13:36:17.000Z</time>
      </trkpt>
      <trkpt lat="46.26131" lon="15.3995">
        <ele>290.499118</ele>
        <time>2026-07-10T13:36:19.000Z</time>
      </trkpt>
      <trkpt lat="46.26129" lon="15.39935">
        <ele>290.747117</ele>
        <time>2026-07-10T13:36:21.000Z</time>
      </trkpt>
      <trkpt lat="46.26129" lon="15.39929">
        <ele>290.844915</ele>
        <time>2026-07-10T13:36:22.000Z</time>
      </trkpt>
      <trkpt lat="46.26129" lon="15.39899">
        <ele>291.32264</ele>
        <time>2026-07-10T13:36:26.000Z</time>
      </trkpt>
      <trkpt lat="46.26127" lon="15.39886">
        <ele>291.532973</ele>
        <time>2026-07-10T13:36:28.000Z</time>
      </trkpt>
      <trkpt lat="46.26121" lon="15.39875">
        <ele>291.76389</ele>
        <time>2026-07-10T13:36:30.000Z</time>
      </trkpt>
      <trkpt lat="46.26117" lon="15.3987">
        <ele>291.881369</ele>
        <time>2026-07-10T13:36:31.000Z</time>
      </trkpt>
      <trkpt lat="46.26108" lon="15.39862">
        <ele>292.128482</ele>
        <time>2026-07-10T13:36:33.000Z</time>
      </trkpt>
      <trkpt lat="46.26093" lon="15.39851">
        <ele>292.52809</ele>
        <time>2026-07-10T13:36:37.000Z</time>
      </trkpt>
      <trkpt lat="46.26073" lon="15.39834">
        <ele>293.066845</ele>
        <time>2026-07-10T13:36:43.000Z</time>
      </trkpt>
      <trkpt lat="46.26064" lon="15.39819">
        <ele>293.385389</ele>
        <time>2026-07-10T13:36:47.000Z</time>
      </trkpt>
      <trkpt lat="46.2606" lon="15.3979">
        <ele>293.919884</ele>
        <time>2026-07-10T13:36:53.000Z</time>
      </trkpt>
      <trkpt lat="46.26057" lon="15.39765">
        <ele>294.53426</ele>
        <time>2026-07-10T13:36:59.000Z</time>
      </trkpt>
      <trkpt lat="46.26048" lon="15.39735">
        <ele>295.34019</ele>
        <time>2026-07-10T13:37:06.000Z</time>
      </trkpt>
      <trkpt lat="46.26037" lon="15.39714">
        <ele>295.960798</ele>
        <time>2026-07-10T13:37:11.000Z</time>
      </trkpt>
      <trkpt lat="46.26033" lon="15.39705">
        <ele>296.234503</ele>
        <time>2026-07-10T13:37:13.000Z</time>
      </trkpt>
      <trkpt lat="46.2603" lon="15.39695">
        <ele>296.483245</ele>
        <time>2026-07-10T13:37:15.000Z</time>
      </trkpt>
      <trkpt lat="46.26024" lon="15.39682">
        <ele>296.864923</ele>
        <time>2026-07-10T13:37:18.000Z</time>
      </trkpt>
      <trkpt lat="46.26019" lon="15.39654">
        <ele>297.566212</ele>
        <time>2026-07-10T13:37:24.000Z</time>
      </trkpt>
      <trkpt lat="46.2602" lon="15.39629">
        <ele>298.16119</ele>
        <time>2026-07-10T13:37:29.000Z</time>
      </trkpt>
      <trkpt lat="46.26023" lon="15.3962">
        <ele>298.39974</ele>
        <time>2026-07-10T13:37:31.000Z</time>
      </trkpt>
      <trkpt lat="46.26031" lon="15.39605">
        <ele>298.84566</ele>
        <time>2026-07-10T13:37:35.000Z</time>
      </trkpt>
      <trkpt lat="46.26036" lon="15.39594">
        <ele>299.184547</ele>
        <time>2026-07-10T13:37:38.000Z</time>
      </trkpt>
      <trkpt lat="46.26049" lon="15.3956">
        <ele>300.067839</ele>
        <time>2026-07-10T13:37:47.000Z</time>
      </trkpt>
      <trkpt lat="46.26055" lon="15.39531">
        <ele>300.641741</ele>
        <time>2026-07-10T13:37:54.000Z</time>
      </trkpt>
      <trkpt lat="46.26059" lon="15.39511">
        <ele>301.050445</ele>
        <time>2026-07-10T13:37:59.000Z</time>
      </trkpt>
      <trkpt lat="46.26064" lon="15.39493">
        <ele>301.40295</ele>
        <time>2026-07-10T13:38:03.000Z</time>
      </trkpt>
      <trkpt lat="46.26069" lon="15.39465">
        <ele>301.961005</ele>
        <time>2026-07-10T13:38:09.000Z</time>
      </trkpt>
      <trkpt lat="46.2607" lon="15.39455">
        <ele>302.138288</ele>
        <time>2026-07-10T13:38:11.000Z</time>
      </trkpt>
      <trkpt lat="46.26073" lon="15.39439">
        <ele>302.458948</ele>
        <time>2026-07-10T13:38:14.000Z</time>
      </trkpt>
      <trkpt lat="46.2608" lon="15.39422">
        <ele>302.838374</ele>
        <time>2026-07-10T13:38:18.000Z</time>
      </trkpt>
      <trkpt lat="46.26082" lon="15.39418">
        <ele>302.927044</ele>
        <time>2026-07-10T13:38:19.000Z</time>
      </trkpt>
      <trkpt lat="46.2609" lon="15.39405">
        <ele>303.253442</ele>
        <time>2026-07-10T13:38:23.000Z</time>
      </trkpt>
      <trkpt lat="46.26105" lon="15.39383">
        <ele>303.827812</ele>
        <time>2026-07-10T13:38:29.000Z</time>
      </trkpt>
      <trkpt lat="46.26116" lon="15.39367">
        <ele>304.266172</ele>
        <time>2026-07-10T13:38:35.000Z</time>
      </trkpt>
      <trkpt lat="46.26116" lon="15.39367">
        <ele>304.266172</ele>
        <time>2026-07-10T13:38:37.000Z</time>
      </trkpt>
      <trkpt lat="46.26119" lon="15.39363">
        <ele>304.368457</ele>
        <time>2026-07-10T13:38:45.000Z</time>
      </trkpt>
      <trkpt lat="46.26123" lon="15.39355">
        <ele>304.561455</ele>
        <time>2026-07-10T13:38:49.000Z</time>
      </trkpt>
      <trkpt lat="46.26124" lon="15.39354">
        <ele>304.582928</ele>
        <time>2026-07-10T13:38:52.000Z</time>
      </trkpt>
      <trkpt lat="46.26126" lon="15.39349">
        <ele>304.700967</ele>
        <time>2026-07-10T13:39:08.000Z</time>
      </trkpt>
      <trkpt lat="46.26129" lon="15.39345">
        <ele>304.816956</ele>
        <time>2026-07-10T13:39:10.000Z</time>
      </trkpt>
      <trkpt lat="46.26133" lon="15.39337">
        <ele>304.962577</ele>
        <time>2026-07-10T13:39:16.000Z</time>
      </trkpt>
      <trkpt lat="46.26133" lon="15.39329">
        <ele>305.060235</ele>
        <time>2026-07-10T13:39:43.000Z</time>
      </trkpt>
      <trkpt lat="46.26133" lon="15.39324">
        <ele>305.117079</ele>
        <time>2026-07-10T13:39:44.000Z</time>
      </trkpt>
      <trkpt lat="46.26131" lon="15.39319">
        <ele>305.186339</ele>
        <time>2026-07-10T13:39:45.000Z</time>
      </trkpt>
      <trkpt lat="46.26122" lon="15.39302">
        <ele>305.447717</ele>
        <time>2026-07-10T13:39:49.000Z</time>
      </trkpt>
      <trkpt lat="46.2611" lon="15.39284">
        <ele>305.75893</ele>
        <time>2026-07-10T13:39:53.000Z</time>
      </trkpt>
      <trkpt lat="46.26103" lon="15.39276">
        <ele>305.91293</ele>
        <time>2026-07-10T13:39:55.000Z</time>
      </trkpt>
      <trkpt lat="46.26074" lon="15.39241">
        <ele>306.585254</ele>
        <time>2026-07-10T13:40:03.000Z</time>
      </trkpt>
      <trkpt lat="46.26056" lon="15.39221">
        <ele>306.97692</ele>
        <time>2026-07-10T13:40:08.000Z</time>
      </trkpt>
      <trkpt lat="46.26044" lon="15.39209">
        <ele>307.23391</ele>
        <time>2026-07-10T13:40:11.000Z</time>
      </trkpt>
      <trkpt lat="46.26033" lon="15.39198">
        <ele>307.470033</ele>
        <time>2026-07-10T13:40:14.000Z</time>
      </trkpt>
      <trkpt lat="46.26012" lon="15.39182">
        <ele>307.899543</ele>
        <time>2026-07-10T13:40:19.000Z</time>
      </trkpt>
      <trkpt lat="46.26002" lon="15.39178">
        <ele>308.0682</ele>
        <time>2026-07-10T13:40:21.000Z</time>
      </trkpt>
      <trkpt lat="46.25955" lon="15.39154">
        <ele>306.082026</ele>
        <time>2026-07-10T13:40:30.000Z</time>
      </trkpt>
      <trkpt lat="46.25912" lon="15.39126">
        <ele>304.250936</ele>
        <time>2026-07-10T13:40:38.000Z</time>
      </trkpt>
      <trkpt lat="46.25888" lon="15.39099">
        <ele>303.055204</ele>
        <time>2026-07-10T13:40:43.000Z</time>
      </trkpt>
      <trkpt lat="46.2588" lon="15.39086">
        <ele>302.592344</ele>
        <time>2026-07-10T13:40:45.000Z</time>
      </trkpt>
      <trkpt lat="46.25856" lon="15.39049">
        <ele>301.201444</ele>
        <time>2026-07-10T13:40:51.000Z</time>
      </trkpt>
      <trkpt lat="46.25852" lon="15.39042">
        <ele>300.992343</ele>
        <time>2026-07-10T13:40:52.000Z</time>
      </trkpt>
      <trkpt lat="46.25833" lon="15.38995">
        <ele>300.077194</ele>
        <time>2026-07-10T13:40:59.000Z</time>
      </trkpt>
      <trkpt lat="46.25825" lon="15.3897">
        <ele>299.612969</ele>
        <time>2026-07-10T13:41:03.000Z</time>
      </trkpt>
      <trkpt lat="46.25824" lon="15.38957">
        <ele>299.393989</ele>
        <time>2026-07-10T13:41:05.000Z</time>
      </trkpt>
      <trkpt lat="46.25829" lon="15.38947">
        <ele>299.187386</ele>
        <time>2026-07-10T13:41:07.000Z</time>
      </trkpt>
      <trkpt lat="46.25835" lon="15.38939">
        <ele>298.9939</ele>
        <time>2026-07-10T13:41:09.000Z</time>
      </trkpt>
      <trkpt lat="46.25858" lon="15.38916">
        <ele>298.311665</ele>
        <time>2026-07-10T13:41:16.000Z</time>
      </trkpt>
      <trkpt lat="46.25862" lon="15.38913">
        <ele>298.193158</ele>
        <time>2026-07-10T13:41:17.000Z</time>
      </trkpt>
      <trkpt lat="46.25874" lon="15.38907">
        <ele>297.88963</ele>
        <time>2026-07-10T13:41:19.000Z</time>
      </trkpt>
      <trkpt lat="46.25881" lon="15.38905">
        <ele>297.734454</ele>
        <time>2026-07-10T13:41:20.000Z</time>
      </trkpt>
      <trkpt lat="46.25906" lon="15.38903">
        <ele>297.122958</ele>
        <time>2026-07-10T13:41:24.000Z</time>
      </trkpt>
      <trkpt lat="46.25912" lon="15.38901">
        <ele>296.976887</ele>
        <time>2026-07-10T13:41:25.000Z</time>
      </trkpt>
      <trkpt lat="46.25917" lon="15.38897">
        <ele>296.837976</ele>
        <time>2026-07-10T13:41:26.000Z</time>
      </trkpt>
      <trkpt lat="46.25926" lon="15.38885">
        <ele>296.489117</ele>
        <time>2026-07-10T13:41:28.000Z</time>
      </trkpt>
      <trkpt lat="46.25931" lon="15.38876">
        <ele>296.214368</ele>
        <time>2026-07-10T13:41:29.000Z</time>
      </trkpt>
      <trkpt lat="46.25939" lon="15.38856">
        <ele>295.654282</ele>
        <time>2026-07-10T13:41:31.000Z</time>
      </trkpt>
      <trkpt lat="46.25944" lon="15.38836">
        <ele>295.134956</ele>
        <time>2026-07-10T13:41:33.000Z</time>
      </trkpt>
      <trkpt lat="46.25944" lon="15.38812">
        <ele>294.56502</ele>
        <time>2026-07-10T13:41:35.000Z</time>
      </trkpt>
      <trkpt lat="46.25943" lon="15.38786">
        <ele>293.919891</ele>
        <time>2026-07-10T13:41:37.000Z</time>
      </trkpt>
      <trkpt lat="46.25936" lon="15.38759">
        <ele>293.232559</ele>
        <time>2026-07-10T13:41:39.000Z</time>
      </trkpt>
      <trkpt lat="46.25927" lon="15.38734">
        <ele>292.551232</ele>
        <time>2026-07-10T13:41:41.000Z</time>
      </trkpt>
      <trkpt lat="46.25918" lon="15.38713">
        <ele>291.935044</ele>
        <time>2026-07-10T13:41:43.000Z</time>
      </trkpt>
      <trkpt lat="46.25911" lon="15.38698">
        <ele>291.513481</ele>
        <time>2026-07-10T13:41:45.000Z</time>
      </trkpt>
      <trkpt lat="46.2591" lon="15.38693">
        <ele>291.393376</ele>
        <time>2026-07-10T13:41:46.000Z</time>
      </trkpt>
      <trkpt lat="46.25912" lon="15.38685">
        <ele>291.173043</ele>
        <time>2026-07-10T13:41:49.000Z</time>
      </trkpt>
      <trkpt lat="46.25914" lon="15.38671">
        <ele>290.84279</ele>
        <time>2026-07-10T13:41:52.000Z</time>
      </trkpt>
      <trkpt lat="46.25918" lon="15.38663">
        <ele>290.608215</ele>
        <time>2026-07-10T13:41:54.000Z</time>
      </trkpt>
      <trkpt lat="46.25933" lon="15.3864">
        <ele>290.312045</ele>
        <time>2026-07-10T13:41:59.000Z</time>
      </trkpt>
      <trkpt lat="46.25957" lon="15.38609">
        <ele>290.176696</ele>
        <time>2026-07-10T13:42:06.000Z</time>
      </trkpt>
      <trkpt lat="46.25965" lon="15.38602">
        <ele>290.139561</ele>
        <time>2026-07-10T13:42:08.000Z</time>
      </trkpt>
      <trkpt lat="46.25972" lon="15.38595">
        <ele>290.105064</ele>
        <time>2026-07-10T13:42:10.000Z</time>
      </trkpt>
      <trkpt lat="46.25975" lon="15.38593">
        <ele>290.088906</ele>
        <time>2026-07-10T13:42:11.000Z</time>
      </trkpt>
      <trkpt lat="46.25982" lon="15.3859">
        <ele>290.05887</ele>
        <time>2026-07-10T13:42:13.000Z</time>
      </trkpt>
      <trkpt lat="46.26003" lon="15.38591">
        <ele>289.97136</ele>
        <time>2026-07-10T13:42:20.000Z</time>
      </trkpt>
      <trkpt lat="46.26015" lon="15.38588">
        <ele>289.920422</ele>
        <time>2026-07-10T13:42:24.000Z</time>
      </trkpt>
      <trkpt lat="46.26026" lon="15.38577">
        <ele>289.865484</ele>
        <time>2026-07-10T13:42:29.000Z</time>
      </trkpt>
      <trkpt lat="46.26035" lon="15.38559">
        <ele>289.798906</ele>
        <time>2026-07-10T13:42:35.000Z</time>
      </trkpt>
      <trkpt lat="46.26044" lon="15.38539">
        <ele>289.732336</ele>
        <time>2026-07-10T13:42:42.000Z</time>
      </trkpt>
      <trkpt lat="46.26048" lon="15.38534">
        <ele>289.710626</ele>
        <time>2026-07-10T13:42:45.000Z</time>
      </trkpt>
      <trkpt lat="46.26052" lon="15.38532">
        <ele>289.695108</ele>
        <time>2026-07-10T13:42:47.000Z</time>
      </trkpt>
      <trkpt lat="46.26057" lon="15.38519">
        <ele>289.651947</ele>
        <time>2026-07-10T13:42:53.000Z</time>
      </trkpt>
      <trkpt lat="46.26063" lon="15.38505">
        <ele>289.905126</ele>
        <time>2026-07-10T13:42:59.000Z</time>
      </trkpt>
      <trkpt lat="46.26066" lon="15.38484">
        <ele>290.707694</ele>
        <time>2026-07-10T13:43:06.000Z</time>
      </trkpt>
      <trkpt lat="46.26067" lon="15.3848">
        <ele>290.837583</ele>
        <time>2026-07-10T13:43:07.000Z</time>
      </trkpt>
      <trkpt lat="46.26071" lon="15.38466">
        <ele>291.42501</ele>
        <time>2026-07-10T13:43:13.000Z</time>
      </trkpt>
      <trkpt lat="46.26076" lon="15.38455">
        <ele>291.90026</ele>
        <time>2026-07-10T13:43:18.000Z</time>
      </trkpt>
      <trkpt lat="46.26078" lon="15.38447">
        <ele>292.208462</ele>
        <time>2026-07-10T13:43:21.000Z</time>
      </trkpt>
      <trkpt lat="46.26083" lon="15.38436">
        <ele>292.698937</ele>
        <time>2026-07-10T13:43:25.000Z</time>
      </trkpt>
      <trkpt lat="46.26085" lon="15.38428">
        <ele>293.011194</ele>
        <time>2026-07-10T13:43:28.000Z</time>
      </trkpt>
      <trkpt lat="46.26097" lon="15.38419">
        <ele>293.708325</ele>
        <time>2026-07-10T13:43:34.000Z</time>
      </trkpt>
      <trkpt lat="46.26099" lon="15.38418">
        <ele>293.833721</ele>
        <time>2026-07-10T13:43:35.000Z</time>
      </trkpt>
      <trkpt lat="46.26101" lon="15.38417">
        <ele>293.926601</ele>
        <time>2026-07-10T13:43:36.000Z</time>
      </trkpt>
      <trkpt lat="46.26115" lon="15.38411">
        <ele>294.729132</ele>
        <time>2026-07-10T13:43:43.000Z</time>
      </trkpt>
      <trkpt lat="46.2612" lon="15.38409">
        <ele>294.999804</ele>
        <time>2026-07-10T13:43:45.000Z</time>
      </trkpt>
      <trkpt lat="46.26127" lon="15.38405">
        <ele>295.383775</ele>
        <time>2026-07-10T13:43:48.000Z</time>
      </trkpt>
      <trkpt lat="46.26133" lon="15.38402">
        <ele>295.760396</ele>
        <time>2026-07-10T13:43:51.000Z</time>
      </trkpt>
      <trkpt lat="46.26146" lon="15.38395">
        <ele>296.475784</ele>
        <time>2026-07-10T13:43:56.000Z</time>
      </trkpt>
      <trkpt lat="46.26158" lon="15.38385">
        <ele>297.22474</ele>
        <time>2026-07-10T13:44:01.000Z</time>
      </trkpt>
      <trkpt lat="46.26163" lon="15.38378">
        <ele>297.616209</ele>
        <time>2026-07-10T13:44:03.000Z</time>
      </trkpt>
      <trkpt lat="46.26176" lon="15.38355">
        <ele>298.69621</ele>
        <time>2026-07-10T13:44:09.000Z</time>
      </trkpt>
      <trkpt lat="46.26182" lon="15.38332">
        <ele>299.12479</ele>
        <time>2026-07-10T13:44:14.000Z</time>
      </trkpt>
      <trkpt lat="46.26192" lon="15.38303">
        <ele>298.702082</ele>
        <time>2026-07-10T13:44:21.000Z</time>
      </trkpt>
      <trkpt lat="46.26196" lon="15.38281">
        <ele>298.407911</ele>
        <time>2026-07-10T13:44:26.000Z</time>
      </trkpt>
      <trkpt lat="46.26197" lon="15.38274">
        <ele>298.310986</ele>
        <time>2026-07-10T13:44:28.000Z</time>
      </trkpt>
      <trkpt lat="46.26187" lon="15.38252">
        <ele>297.978754</ele>
        <time>2026-07-10T13:44:34.000Z</time>
      </trkpt>
      <trkpt lat="46.2617" lon="15.38244">
        <ele>297.641111</ele>
        <time>2026-07-10T13:44:39.000Z</time>
      </trkpt>
      <trkpt lat="46.26157" lon="15.3824">
        <ele>297.376379</ele>
        <time>2026-07-10T13:44:43.000Z</time>
      </trkpt>
      <trkpt lat="46.26155" lon="15.38238">
        <ele>297.342291</ele>
        <time>2026-07-10T13:44:44.000Z</time>
      </trkpt>
      <trkpt lat="46.26152" lon="15.38232">
        <ele>297.245323</ele>
        <time>2026-07-10T13:44:46.000Z</time>
      </trkpt>
      <trkpt lat="46.26153" lon="15.38225">
        <ele>297.153634</ele>
        <time>2026-07-10T13:44:48.000Z</time>
      </trkpt>
      <trkpt lat="46.2616" lon="15.38213">
        <ele>296.942978</ele>
        <time>2026-07-10T13:44:53.000Z</time>
      </trkpt>
      <trkpt lat="46.2616" lon="15.38211">
        <ele>296.914453</ele>
        <time>2026-07-10T13:44:54.000Z</time>
      </trkpt>
      <trkpt lat="46.26159" lon="15.38208">
        <ele>296.869768</ele>
        <time>2026-07-10T13:44:57.000Z</time>
      </trkpt>
      <trkpt lat="46.26153" lon="15.38191">
        <ele>296.619339</ele>
        <time>2026-07-10T13:45:01.000Z</time>
      </trkpt>
      <trkpt lat="46.26145" lon="15.38173">
        <ele>296.342997</ele>
        <time>2026-07-10T13:45:04.000Z</time>
      </trkpt>
      <trkpt lat="46.26143" lon="15.38166">
        <ele>296.243015</ele>
        <time>2026-07-10T13:45:05.000Z</time>
      </trkpt>
      <trkpt lat="46.26133" lon="15.3814">
        <ele>295.848468</ele>
        <time>2026-07-10T13:45:09.000Z</time>
      </trkpt>
      <trkpt lat="46.2613" lon="15.38126">
        <ele>295.969889</ele>
        <time>2026-07-10T13:45:11.000Z</time>
      </trkpt>
      <trkpt lat="46.26128" lon="15.38114">
        <ele>296.07924</ele>
        <time>2026-07-10T13:45:13.000Z</time>
      </trkpt>
      <trkpt lat="46.2613" lon="15.38106">
        <ele>296.15386</ele>
        <time>2026-07-10T13:45:15.000Z</time>
      </trkpt>
      <trkpt lat="46.26143" lon="15.38084">
        <ele>296.402654</ele>
        <time>2026-07-10T13:45:21.000Z</time>
      </trkpt>
      <trkpt lat="46.26159" lon="15.38055">
        <ele>296.723047</ele>
        <time>2026-07-10T13:45:29.000Z</time>
      </trkpt>
      <trkpt lat="46.26165" lon="15.3804">
        <ele>296.875776</ele>
        <time>2026-07-10T13:45:33.000Z</time>
      </trkpt>
      <trkpt lat="46.26167" lon="15.38032">
        <ele>296.945786</ele>
        <time>2026-07-10T13:45:35.000Z</time>
      </trkpt>
      <trkpt lat="46.26172" lon="15.38014">
        <ele>297.116879</ele>
        <time>2026-07-10T13:45:40.000Z</time>
      </trkpt>
      <trkpt lat="46.26174" lon="15.38007">
        <ele>297.181566</ele>
        <time>2026-07-10T13:45:42.000Z</time>
      </trkpt>
      <trkpt lat="46.26184" lon="15.3799">
        <ele>297.371159</ele>
        <time>2026-07-10T13:45:48.000Z</time>
      </trkpt>
      <trkpt lat="46.26186" lon="15.37986">
        <ele>297.416685</ele>
        <time>2026-07-10T13:45:50.000Z</time>
      </trkpt>
      <trkpt lat="46.26188" lon="15.37982">
        <ele>297.460153</ele>
        <time>2026-07-10T13:45:52.000Z</time>
      </trkpt>
      <trkpt lat="46.26193" lon="15.37972">
        <ele>297.564514</ele>
        <time>2026-07-10T13:45:58.000Z</time>
      </trkpt>
      <trkpt lat="46.26197" lon="15.37969">
        <ele>297.618737</ele>
        <time>2026-07-10T13:46:01.000Z</time>
      </trkpt>
      <trkpt lat="46.26197" lon="15.37965">
        <ele>297.654131</ele>
        <time>2026-07-10T13:46:03.000Z</time>
      </trkpt>
      <trkpt lat="46.26197" lon="15.37963">
        <ele>297.667634</ele>
        <time>2026-07-10T13:46:04.000Z</time>
      </trkpt>
      <trkpt lat="46.26197" lon="15.37961">
        <ele>297.683399</ele>
        <time>2026-07-10T13:46:05.000Z</time>
      </trkpt>
      <trkpt lat="46.26199" lon="15.3796">
        <ele>297.705191</ele>
        <time>2026-07-10T13:46:06.000Z</time>
      </trkpt>
      <trkpt lat="46.26201" lon="15.37953">
        <ele>297.775123</ele>
        <time>2026-07-10T13:46:09.000Z</time>
      </trkpt>
      <trkpt lat="46.26203" lon="15.37951">
        <ele>297.799308</ele>
        <time>2026-07-10T13:46:10.000Z</time>
      </trkpt>
      <trkpt lat="46.26204" lon="15.37948">
        <ele>297.822786</ele>
        <time>2026-07-10T13:46:11.000Z</time>
      </trkpt>
      <trkpt lat="46.26206" lon="15.3794">
        <ele>297.898991</ele>
        <time>2026-07-10T13:46:14.000Z</time>
      </trkpt>
      <trkpt lat="46.26213" lon="15.37925">
        <ele>298.054055</ele>
        <time>2026-07-10T13:46:20.000Z</time>
      </trkpt>
      <trkpt lat="46.26217" lon="15.37916">
        <ele>298.658317</ele>
        <time>2026-07-10T13:46:24.000Z</time>
      </trkpt>
      <trkpt lat="46.26217" lon="15.37913">
        <ele>298.879252</ele>
        <time>2026-07-10T13:46:25.000Z</time>
      </trkpt>
      <trkpt lat="46.26222" lon="15.37893">
        <ele>300.68424</ele>
        <time>2026-07-10T13:46:33.000Z</time>
      </trkpt>
      <trkpt lat="46.26222" lon="15.37889">
        <ele>301.004103</ele>
        <time>2026-07-10T13:46:34.000Z</time>
      </trkpt>
      <trkpt lat="46.26225" lon="15.37878">
        <ele>301.990849</ele>
        <time>2026-07-10T13:46:38.000Z</time>
      </trkpt>
      <trkpt lat="46.26225" lon="15.37875">
        <ele>302.216839</ele>
        <time>2026-07-10T13:46:39.000Z</time>
      </trkpt>
      <trkpt lat="46.26226" lon="15.37868">
        <ele>302.862681</ele>
        <time>2026-07-10T13:46:42.000Z</time>
      </trkpt>
      <trkpt lat="46.26229" lon="15.37856">
        <ele>303.946004</ele>
        <time>2026-07-10T13:46:47.000Z</time>
      </trkpt>
      <trkpt lat="46.2623" lon="15.37848">
        <ele>304.651512</ele>
        <time>2026-07-10T13:46:50.000Z</time>
      </trkpt>
      <trkpt lat="46.26231" lon="15.37838">
        <ele>305.473465</ele>
        <time>2026-07-10T13:46:54.000Z</time>
      </trkpt>
      <trkpt lat="46.26232" lon="15.37835">
        <ele>305.726082</ele>
        <time>2026-07-10T13:46:55.000Z</time>
      </trkpt>
      <trkpt lat="46.2623" lon="15.37825">
        <ele>306.632623</ele>
        <time>2026-07-10T13:46:59.000Z</time>
      </trkpt>
      <trkpt lat="46.26229" lon="15.37818">
        <ele>307.283112</ele>
        <time>2026-07-10T13:47:03.000Z</time>
      </trkpt>
      <trkpt lat="46.2623" lon="15.37812">
        <ele>307.764353</ele>
        <time>2026-07-10T13:47:05.000Z</time>
      </trkpt>
      <trkpt lat="46.2623" lon="15.37796">
        <ele>309.113422</ele>
        <time>2026-07-10T13:47:13.000Z</time>
      </trkpt>
      <trkpt lat="46.26225" lon="15.37783">
        <ele>310.42323</ele>
        <time>2026-07-10T13:47:20.000Z</time>
      </trkpt>
      <trkpt lat="46.26216" lon="15.37771">
        <ele>311.878077</ele>
        <time>2026-07-10T13:47:26.000Z</time>
      </trkpt>
      <trkpt lat="46.26214" lon="15.37767">
        <ele>312.24818</ele>
        <time>2026-07-10T13:47:28.000Z</time>
      </trkpt>
      <trkpt lat="46.26213" lon="15.37762">
        <ele>312.790493</ele>
        <time>2026-07-10T13:47:31.000Z</time>
      </trkpt>
      <trkpt lat="46.26212" lon="15.37756">
        <ele>313.275503</ele>
        <time>2026-07-10T13:47:33.000Z</time>
      </trkpt>
      <trkpt lat="46.26212" lon="15.37751">
        <ele>313.712536</ele>
        <time>2026-07-10T13:47:35.000Z</time>
      </trkpt>
      <trkpt lat="46.26211" lon="15.37748">
        <ele>313.961766</ele>
        <time>2026-07-10T13:47:36.000Z</time>
      </trkpt>
      <trkpt lat="46.2621" lon="15.37733">
        <ele>315.214994</ele>
        <time>2026-07-10T13:47:41.000Z</time>
      </trkpt>
      <trkpt lat="46.26211" lon="15.37729">
        <ele>315.584947</ele>
        <time>2026-07-10T13:47:43.000Z</time>
      </trkpt>
      <trkpt lat="46.26218" lon="15.37712">
        <ele>317.311787</ele>
        <time>2026-07-10T13:47:51.000Z</time>
      </trkpt>
      <trkpt lat="46.26221" lon="15.37703">
        <ele>318.172038</ele>
        <time>2026-07-10T13:47:56.000Z</time>
      </trkpt>
      <trkpt lat="46.26225" lon="15.37696">
        <ele>318.906148</ele>
        <time>2026-07-10T13:48:00.000Z</time>
      </trkpt>
      <trkpt lat="46.26225" lon="15.37693">
        <ele>319.106802</ele>
        <time>2026-07-10T13:48:01.000Z</time>
      </trkpt>
      <trkpt lat="46.26228" lon="15.37686">
        <ele>319.826453</ele>
        <time>2026-07-10T13:48:05.000Z</time>
      </trkpt>
      <trkpt lat="46.26231" lon="15.37683">
        <ele>320.168484</ele>
        <time>2026-07-10T13:48:07.000Z</time>
      </trkpt>
      <trkpt lat="46.2624" lon="15.37668">
        <ele>320.124754</ele>
        <time>2026-07-10T13:48:14.000Z</time>
      </trkpt>
      <trkpt lat="46.26248" lon="15.37647">
        <ele>320.07325</ele>
        <time>2026-07-10T13:48:22.000Z</time>
      </trkpt>
      <trkpt lat="46.26249" lon="15.37644">
        <ele>320.066686</ele>
        <time>2026-07-10T13:48:23.000Z</time>
      </trkpt>
      <trkpt lat="46.26253" lon="15.37635">
        <ele>320.043933</ele>
        <time>2026-07-10T13:48:27.000Z</time>
      </trkpt>
      <trkpt lat="46.26254" lon="15.37633">
        <ele>320.037446</ele>
        <time>2026-07-10T13:48:28.000Z</time>
      </trkpt>
      <trkpt lat="46.26263" lon="15.37627">
        <ele>320.007988</ele>
        <time>2026-07-10T13:48:34.000Z</time>
      </trkpt>
      <trkpt lat="46.26265" lon="15.37626">
        <ele>319.999799</ele>
        <time>2026-07-10T13:48:35.000Z</time>
      </trkpt>
      <trkpt lat="46.26282" lon="15.37615">
        <ele>319.942769</ele>
        <time>2026-07-10T13:48:43.000Z</time>
      </trkpt>
      <trkpt lat="46.26294" lon="15.37609">
        <ele>319.901561</ele>
        <time>2026-07-10T13:48:49.000Z</time>
      </trkpt>
      <trkpt lat="46.263" lon="15.37606">
        <ele>319.883655</ele>
        <time>2026-07-10T13:48:52.000Z</time>
      </trkpt>
      <trkpt lat="46.26307" lon="15.376">
        <ele>319.856961</ele>
        <time>2026-07-10T13:48:56.000Z</time>
      </trkpt>
      <trkpt lat="46.26311" lon="15.37597">
        <ele>319.84307</ele>
        <time>2026-07-10T13:48:58.000Z</time>
      </trkpt>
      <trkpt lat="46.26318" lon="15.3759">
        <ele>319.815478</ele>
        <time>2026-07-10T13:49:02.000Z</time>
      </trkpt>
      <trkpt lat="46.2632" lon="15.37587">
        <ele>319.80705</ele>
        <time>2026-07-10T13:49:03.000Z</time>
      </trkpt>
      <trkpt lat="46.26329" lon="15.37576">
        <ele>319.769673</ele>
        <time>2026-07-10T13:49:08.000Z</time>
      </trkpt>
      <trkpt lat="46.26331" lon="15.37572">
        <ele>319.760565</ele>
        <time>2026-07-10T13:49:09.000Z</time>
      </trkpt>
      <trkpt lat="46.26335" lon="15.37563">
        <ele>319.736324</ele>
        <time>2026-07-10T13:49:12.000Z</time>
      </trkpt>
      <trkpt lat="46.26344" lon="15.37536">
        <ele>319.67047</ele>
        <time>2026-07-10T13:49:21.000Z</time>
      </trkpt>
      <trkpt lat="46.26346" lon="15.37529">
        <ele>319.656019</ele>
        <time>2026-07-10T13:49:23.000Z</time>
      </trkpt>
      <trkpt lat="46.26349" lon="15.37514">
        <ele>319.620386</ele>
        <time>2026-07-10T13:49:28.000Z</time>
      </trkpt>
      <trkpt lat="46.26354" lon="15.37498">
        <ele>319.559578</ele>
        <time>2026-07-10T13:49:33.000Z</time>
      </trkpt>
      <trkpt lat="46.2636" lon="15.37477">
        <ele>319.457131</ele>
        <time>2026-07-10T13:49:40.000Z</time>
      </trkpt>
      <trkpt lat="46.26373" lon="15.37456">
        <ele>319.332236</ele>
        <time>2026-07-10T13:49:47.000Z</time>
      </trkpt>
      <trkpt lat="46.26384" lon="15.3744">
        <ele>319.228105</ele>
        <time>2026-07-10T13:49:54.000Z</time>
      </trkpt>
      <trkpt lat="46.26387" lon="15.37435">
        <ele>319.201028</ele>
        <time>2026-07-10T13:49:56.000Z</time>
      </trkpt>
      <trkpt lat="46.26393" lon="15.37428">
        <ele>319.155785</ele>
        <time>2026-07-10T13:50:00.000Z</time>
      </trkpt>
      <trkpt lat="46.26399" lon="15.37419">
        <ele>319.098575</ele>
        <time>2026-07-10T13:50:06.000Z</time>
      </trkpt>
      <trkpt lat="46.26403" lon="15.37413">
        <ele>319.058265</ele>
        <time>2026-07-10T13:50:10.000Z</time>
      </trkpt>
      <trkpt lat="46.26405" lon="15.37409">
        <ele>319.038936</ele>
        <time>2026-07-10T13:50:12.000Z</time>
      </trkpt>
      <trkpt lat="46.26406" lon="15.37408">
        <ele>319.030888</ele>
        <time>2026-07-10T13:50:13.000Z</time>
      </trkpt>
      <trkpt lat="46.26418" lon="15.37397">
        <ele>318.936411</ele>
        <time>2026-07-10T13:50:22.000Z</time>
      </trkpt>
      <trkpt lat="46.26433" lon="15.37388">
        <ele>318.836279</ele>
        <time>2026-07-10T13:50:32.000Z</time>
      </trkpt>
      <trkpt lat="46.26443" lon="15.37378">
        <ele>318.757597</ele>
        <time>2026-07-10T13:50:40.000Z</time>
      </trkpt>
      <trkpt lat="46.26452" lon="15.37366">
        <ele>318.679933</ele>
        <time>2026-07-10T13:50:49.000Z</time>
      </trkpt>
      <trkpt lat="46.26459" lon="15.37361">
        <ele>318.630269</ele>
        <time>2026-07-10T13:50:56.000Z</time>
      </trkpt>
      <trkpt lat="46.26461" lon="15.37361">
        <ele>318.617178</ele>
        <time>2026-07-10T13:50:59.000Z</time>
      </trkpt>
      <trkpt lat="46.26465" lon="15.37356">
        <ele>318.584456</ele>
        <time>2026-07-10T13:51:02.000Z</time>
      </trkpt>
      <trkpt lat="46.26474" lon="15.37347">
        <ele>318.515108</ele>
        <time>2026-07-10T13:51:07.000Z</time>
      </trkpt>
      <trkpt lat="46.2648" lon="15.37343">
        <ele>318.471039</ele>
        <time>2026-07-10T13:51:10.000Z</time>
      </trkpt>
      <trkpt lat="46.26494" lon="15.37332">
        <ele>318.372041</ele>
        <time>2026-07-10T13:51:17.000Z</time>
      </trkpt>
      <trkpt lat="46.2651" lon="15.37318">
        <ele>318.262348</ele>
        <time>2026-07-10T13:51:26.000Z</time>
      </trkpt>
      <trkpt lat="46.26524" lon="15.37301">
        <ele>318.148788</ele>
        <time>2026-07-10T13:51:34.000Z</time>
      </trkpt>
      <trkpt lat="46.26543" lon="15.37281">
        <ele>318.005746</ele>
        <time>2026-07-10T13:51:42.000Z</time>
      </trkpt>
      <trkpt lat="46.26557" lon="15.37264">
        <ele>317.895318</ele>
        <time>2026-07-10T13:51:48.000Z</time>
      </trkpt>
      <trkpt lat="46.2656" lon="15.37258">
        <ele>317.862919</ele>
        <time>2026-07-10T13:51:50.000Z</time>
      </trkpt>
      <trkpt lat="46.26568" lon="15.37246">
        <ele>317.792077</ele>
        <time>2026-07-10T13:51:54.000Z</time>
      </trkpt>
      <trkpt lat="46.26575" lon="15.37234">
        <ele>317.728141</ele>
        <time>2026-07-10T13:51:58.000Z</time>
      </trkpt>
      <trkpt lat="46.26584" lon="15.37215">
        <ele>317.629122</ele>
        <time>2026-07-10T13:52:05.000Z</time>
      </trkpt>
      <trkpt lat="46.26586" lon="15.3721">
        <ele>317.607606</ele>
        <time>2026-07-10T13:52:07.000Z</time>
      </trkpt>
      <trkpt lat="46.26592" lon="15.37197">
        <ele>317.539324</ele>
        <time>2026-07-10T13:52:14.000Z</time>
      </trkpt>
      <trkpt lat="46.26595" lon="15.37185">
        <ele>317.487414</ele>
        <time>2026-07-10T13:52:20.000Z</time>
      </trkpt>
      <trkpt lat="46.26601" lon="15.37171">
        <ele>317.416782</ele>
        <time>2026-07-10T13:52:28.000Z</time>
      </trkpt>
      <trkpt lat="46.26605" lon="15.37161">
        <ele>317.369237</ele>
        <time>2026-07-10T13:52:34.000Z</time>
      </trkpt>
      <trkpt lat="46.26605" lon="15.37158">
        <ele>317.35771</ele>
        <time>2026-07-10T13:52:36.000Z</time>
      </trkpt>
      <trkpt lat="46.26606" lon="15.37156">
        <ele>317.352955</ele>
        <time>2026-07-10T13:52:37.000Z</time>
      </trkpt>
      <trkpt lat="46.26608" lon="15.37143">
        <ele>317.321026</ele>
        <time>2026-07-10T13:52:43.000Z</time>
      </trkpt>
      <trkpt lat="46.26611" lon="15.37138">
        <ele>317.306001</ele>
        <time>2026-07-10T13:52:46.000Z</time>
      </trkpt>
      <trkpt lat="46.26611" lon="15.37134">
        <ele>317.294461</ele>
        <time>2026-07-10T13:52:49.000Z</time>
      </trkpt>
      <trkpt lat="46.26611" lon="15.37133">
        <ele>317.29321</ele>
        <time>2026-07-10T13:52:50.000Z</time>
      </trkpt>
      <trkpt lat="46.26612" lon="15.37126">
        <ele>317.27616</ele>
        <time>2026-07-10T13:56:26.000Z</time>
      </trkpt>
      <trkpt lat="46.26613" lon="15.37122">
        <ele>317.264995</ele>
        <time>2026-07-10T13:56:28.000Z</time>
      </trkpt>
      <trkpt lat="46.26615" lon="15.37103">
        <ele>317.219039</ele>
        <time>2026-07-10T13:56:33.000Z</time>
      </trkpt>
      <trkpt lat="46.26611" lon="15.37074">
        <ele>317.149302</ele>
        <time>2026-07-10T13:56:39.000Z</time>
      </trkpt>
      <trkpt lat="46.266" lon="15.37036">
        <ele>317.049673</ele>
        <time>2026-07-10T13:56:47.000Z</time>
      </trkpt>
      <trkpt lat="46.2659" lon="15.37012">
        <ele>316.981825</ele>
        <time>2026-07-10T13:56:52.000Z</time>
      </trkpt>
      <trkpt lat="46.26588" lon="15.37008">
        <ele>316.969123</ele>
        <time>2026-07-10T13:56:53.000Z</time>
      </trkpt>
      <trkpt lat="46.26579" lon="15.36987">
        <ele>316.910644</ele>
        <time>2026-07-10T13:56:57.000Z</time>
      </trkpt>
      <trkpt lat="46.26572" lon="15.36976">
        <ele>316.87389</ele>
        <time>2026-07-10T13:56:59.000Z</time>
      </trkpt>
      <trkpt lat="46.26561" lon="15.36964">
        <ele>316.827415</ele>
        <time>2026-07-10T13:57:01.000Z</time>
      </trkpt>
      <trkpt lat="46.26547" lon="15.36952">
        <ele>316.770847</ele>
        <time>2026-07-10T13:57:03.000Z</time>
      </trkpt>
      <trkpt lat="46.26518" lon="15.36922">
        <ele>316.893178</ele>
        <time>2026-07-10T13:57:07.000Z</time>
      </trkpt>
      <trkpt lat="46.26511" lon="15.36911">
        <ele>316.955948</ele>
        <time>2026-07-10T13:57:08.000Z</time>
      </trkpt>
      <trkpt lat="46.26473" lon="15.36846">
        <ele>317.321155</ele>
        <time>2026-07-10T13:57:14.000Z</time>
      </trkpt>
      <trkpt lat="46.26465" lon="15.36838">
        <ele>317.379831</ele>
        <time>2026-07-10T13:57:15.000Z</time>
      </trkpt>
      <trkpt lat="46.26443" lon="15.36818">
        <ele>317.542493</ele>
        <time>2026-07-10T13:57:18.000Z</time>
      </trkpt>
      <trkpt lat="46.26425" lon="15.36799">
        <ele>317.682003</ele>
        <time>2026-07-10T13:57:22.000Z</time>
      </trkpt>
      <trkpt lat="46.26413" lon="15.36782">
        <ele>317.78598</ele>
        <time>2026-07-10T13:57:26.000Z</time>
      </trkpt>
      <trkpt lat="46.26392" lon="15.36762">
        <ele>317.761564</ele>
        <time>2026-07-10T13:57:32.000Z</time>
      </trkpt>
      <trkpt lat="46.26367" lon="15.36741">
        <ele>317.574985</ele>
        <time>2026-07-10T13:57:37.000Z</time>
      </trkpt>
      <trkpt lat="46.26356" lon="15.36732">
        <ele>317.492495</ele>
        <time>2026-07-10T13:57:39.000Z</time>
      </trkpt>
      <trkpt lat="46.26339" lon="15.36711">
        <ele>317.344539</ele>
        <time>2026-07-10T13:57:42.000Z</time>
      </trkpt>
      <trkpt lat="46.26322" lon="15.3669">
        <ele>317.203806</ele>
        <time>2026-07-10T13:57:45.000Z</time>
      </trkpt>
      <trkpt lat="46.26312" lon="15.36678">
        <ele>317.120358</ele>
        <time>2026-07-10T13:57:47.000Z</time>
      </trkpt>
      <trkpt lat="46.26296" lon="15.36668">
        <ele>317.010905</ele>
        <time>2026-07-10T13:57:50.000Z</time>
      </trkpt>
      <trkpt lat="46.26292" lon="15.36667">
        <ele>316.980956</ele>
        <time>2026-07-10T13:57:51.000Z</time>
      </trkpt>
      <trkpt lat="46.26272" lon="15.36664">
        <ele>316.852139</ele>
        <time>2026-07-10T13:57:56.000Z</time>
      </trkpt>
      <trkpt lat="46.26261" lon="15.36661">
        <ele>316.778995</ele>
        <time>2026-07-10T13:57:59.000Z</time>
      </trkpt>
      <trkpt lat="46.26257" lon="15.36661">
        <ele>316.752463</ele>
        <time>2026-07-10T13:58:00.000Z</time>
      </trkpt>
      <trkpt lat="46.26252" lon="15.36661">
        <ele>316.720222</ele>
        <time>2026-07-10T13:58:01.000Z</time>
      </trkpt>
      <trkpt lat="46.2624" lon="15.36658">
        <ele>316.183421</ele>
        <time>2026-07-10T13:58:03.000Z</time>
      </trkpt>
      <trkpt lat="46.2622" lon="15.3665">
        <ele>314.842229</ele>
        <time>2026-07-10T13:58:06.000Z</time>
      </trkpt>
      <trkpt lat="46.26172" lon="15.36641">
        <ele>311.704208</ele>
        <time>2026-07-10T13:58:12.000Z</time>
      </trkpt>
      <trkpt lat="46.26121" lon="15.36634">
        <ele>308.327221</ele>
        <time>2026-07-10T13:58:18.000Z</time>
      </trkpt>
      <trkpt lat="46.26106" lon="15.36634">
        <ele>307.357874</ele>
        <time>2026-07-10T13:58:20.000Z</time>
      </trkpt>
      <trkpt lat="46.26089" lon="15.36637">
        <ele>306.273704</ele>
        <time>2026-07-10T13:58:22.000Z</time>
      </trkpt>
      <trkpt lat="46.26066" lon="15.3664">
        <ele>304.930657</ele>
        <time>2026-07-10T13:58:25.000Z</time>
      </trkpt>
      <trkpt lat="46.26059" lon="15.36637">
        <ele>304.805796</ele>
        <time>2026-07-10T13:58:26.000Z</time>
      </trkpt>
      <trkpt lat="46.26026" lon="15.36621">
        <ele>304.218414</ele>
        <time>2026-07-10T13:58:31.000Z</time>
      </trkpt>
      <trkpt lat="46.26009" lon="15.36608">
        <ele>303.890384</ele>
        <time>2026-07-10T13:58:34.000Z</time>
      </trkpt>
      <trkpt lat="46.26005" lon="15.36603">
        <ele>303.78558</ele>
        <time>2026-07-10T13:58:35.000Z</time>
      </trkpt>
      <trkpt lat="46.26001" lon="15.36595">
        <ele>303.675732</ele>
        <time>2026-07-10T13:58:36.000Z</time>
      </trkpt>
      <trkpt lat="46.25996" lon="15.36579">
        <ele>303.462583</ele>
        <time>2026-07-10T13:58:38.000Z</time>
      </trkpt>
      <trkpt lat="46.25992" lon="15.36562">
        <ele>303.253761</ele>
        <time>2026-07-10T13:58:40.000Z</time>
      </trkpt>
      <trkpt lat="46.2599" lon="15.36536">
        <ele>302.951345</ele>
        <time>2026-07-10T13:58:43.000Z</time>
      </trkpt>
      <trkpt lat="46.25986" lon="15.36504">
        <ele>302.563667</ele>
        <time>2026-07-10T13:58:47.000Z</time>
      </trkpt>
      <trkpt lat="46.25984" lon="15.36496">
        <ele>302.460219</ele>
        <time>2026-07-10T13:58:48.000Z</time>
      </trkpt>
      <trkpt lat="46.25979" lon="15.36481">
        <ele>302.266024</ele>
        <time>2026-07-10T13:58:50.000Z</time>
      </trkpt>
      <trkpt lat="46.25971" lon="15.36458">
        <ele>301.960813</ele>
        <time>2026-07-10T13:58:53.000Z</time>
      </trkpt>
      <trkpt lat="46.25948" lon="15.36413">
        <ele>303.336399</ele>
        <time>2026-07-10T13:59:00.000Z</time>
      </trkpt>
      <trkpt lat="46.25937" lon="15.36396">
        <ele>303.97321</ele>
        <time>2026-07-10T13:59:03.000Z</time>
      </trkpt>
      <trkpt lat="46.25924" lon="15.3638">
        <ele>304.630369</ele>
        <time>2026-07-10T13:59:06.000Z</time>
      </trkpt>
      <trkpt lat="46.25911" lon="15.36366">
        <ele>305.242634</ele>
        <time>2026-07-10T13:59:09.000Z</time>
      </trkpt>
      <trkpt lat="46.25901" lon="15.36347">
        <ele>305.888163</ele>
        <time>2026-07-10T13:59:12.000Z</time>
      </trkpt>
      <trkpt lat="46.25887" lon="15.36311">
        <ele>307.004933</ele>
        <time>2026-07-10T13:59:18.000Z</time>
      </trkpt>
      <trkpt lat="46.25879" lon="15.36289">
        <ele>307.680224</ele>
        <time>2026-07-10T13:59:21.000Z</time>
      </trkpt>
      <trkpt lat="46.25877" lon="15.36277">
        <ele>307.992366</ele>
        <time>2026-07-10T13:59:22.000Z</time>
      </trkpt>
      <trkpt lat="46.25871" lon="15.36261">
        <ele>308.475407</ele>
        <time>2026-07-10T13:59:24.000Z</time>
      </trkpt>
      <trkpt lat="46.25868" lon="15.36254">
        <ele>308.716804</ele>
        <time>2026-07-10T13:59:25.000Z</time>
      </trkpt>
      <trkpt lat="46.25863" lon="15.36246">
        <ele>308.90378</ele>
        <time>2026-07-10T13:59:26.000Z</time>
      </trkpt>
      <trkpt lat="46.2585" lon="15.36225">
        <ele>308.73717</ele>
        <time>2026-07-10T13:59:29.000Z</time>
      </trkpt>
      <trkpt lat="46.25838" lon="15.36198">
        <ele>308.552118</ele>
        <time>2026-07-10T13:59:32.000Z</time>
      </trkpt>
      <trkpt lat="46.25836" lon="15.36185">
        <ele>308.478153</ele>
        <time>2026-07-10T13:59:33.000Z</time>
      </trkpt>
      <trkpt lat="46.25837" lon="15.36151">
        <ele>308.278947</ele>
        <time>2026-07-10T13:59:36.000Z</time>
      </trkpt>
      <trkpt lat="46.25837" lon="15.3613">
        <ele>308.161381</ele>
        <time>2026-07-10T13:59:38.000Z</time>
      </trkpt>
      <trkpt lat="46.25834" lon="15.36101">
        <ele>307.989891</ele>
        <time>2026-07-10T13:59:41.000Z</time>
      </trkpt>
      <trkpt lat="46.25836" lon="15.36081">
        <ele>307.876956</ele>
        <time>2026-07-10T13:59:43.000Z</time>
      </trkpt>
      <trkpt lat="46.25836" lon="15.36063">
        <ele>307.771049</ele>
        <time>2026-07-10T13:59:45.000Z</time>
      </trkpt>
      <trkpt lat="46.25831" lon="15.36035">
        <ele>307.606304</ele>
        <time>2026-07-10T13:59:48.000Z</time>
      </trkpt>
      <trkpt lat="46.25817" lon="15.35996">
        <ele>307.040005</ele>
        <time>2026-07-10T13:59:54.000Z</time>
      </trkpt>
      <trkpt lat="46.25806" lon="15.3597">
        <ele>306.136541</ele>
        <time>2026-07-10T13:59:58.000Z</time>
      </trkpt>
      <trkpt lat="46.25798" lon="15.3596">
        <ele>305.644481</ele>
        <time>2026-07-10T14:00:00.000Z</time>
      </trkpt>
      <trkpt lat="46.25774" lon="15.35939">
        <ele>304.443442</ele>
        <time>2026-07-10T14:00:04.000Z</time>
      </trkpt>
      <trkpt lat="46.25748" lon="15.35905">
        <ele>302.862636</ele>
        <time>2026-07-10T14:00:08.000Z</time>
      </trkpt>
      <trkpt lat="46.25737" lon="15.3588">
        <ele>301.962206</ele>
        <time>2026-07-10T14:00:10.000Z</time>
      </trkpt>
      <trkpt lat="46.25733" lon="15.35868">
        <ele>301.568297</ele>
        <time>2026-07-10T14:00:11.000Z</time>
      </trkpt>
      <trkpt lat="46.2573" lon="15.35856">
        <ele>301.172137</ele>
        <time>2026-07-10T14:00:12.000Z</time>
      </trkpt>
      <trkpt lat="46.2573" lon="15.35831">
        <ele>300.409497</ele>
        <time>2026-07-10T14:00:14.000Z</time>
      </trkpt>
      <trkpt lat="46.25733" lon="15.35748">
        <ele>296.048624</ele>
        <time>2026-07-10T14:00:20.000Z</time>
      </trkpt>
      <trkpt lat="46.25733" lon="15.35712">
        <ele>293.66782</ele>
        <time>2026-07-10T14:00:23.000Z</time>
      </trkpt>
      <trkpt lat="46.25731" lon="15.357">
        <ele>292.855165</ele>
        <time>2026-07-10T14:00:24.000Z</time>
      </trkpt>
      <trkpt lat="46.25728" lon="15.35687">
        <ele>291.965705</ele>
        <time>2026-07-10T14:00:25.000Z</time>
      </trkpt>
      <trkpt lat="46.25719" lon="15.35664">
        <ele>290.231428</ele>
        <time>2026-07-10T14:00:27.000Z</time>
      </trkpt>
      <trkpt lat="46.25707" lon="15.35645">
        <ele>288.538914</ele>
        <time>2026-07-10T14:00:29.000Z</time>
      </trkpt>
      <trkpt lat="46.25693" lon="15.35629">
        <ele>286.855621</ele>
        <time>2026-07-10T14:00:31.000Z</time>
      </trkpt>
      <trkpt lat="46.25645" lon="15.35583">
        <ele>281.819673</ele>
        <time>2026-07-10T14:00:37.000Z</time>
      </trkpt>
      <trkpt lat="46.25638" lon="15.35574">
        <ele>281.328423</ele>
        <time>2026-07-10T14:00:38.000Z</time>
      </trkpt>
      <trkpt lat="46.25629" lon="15.35553">
        <ele>280.414857</ele>
        <time>2026-07-10T14:00:40.000Z</time>
      </trkpt>
      <trkpt lat="46.25623" lon="15.35514">
        <ele>278.919853</ele>
        <time>2026-07-10T14:00:43.000Z</time>
      </trkpt>
      <trkpt lat="46.25614" lon="15.35436">
        <ele>275.969986</ele>
        <time>2026-07-10T14:00:49.000Z</time>
      </trkpt>
      <trkpt lat="46.25611" lon="15.3541">
        <ele>275.013697</ele>
        <time>2026-07-10T14:00:51.000Z</time>
      </trkpt>
      <trkpt lat="46.25606" lon="15.35343">
        <ele>272.497175</ele>
        <time>2026-07-10T14:00:56.000Z</time>
      </trkpt>
      <trkpt lat="46.25605" lon="15.35332">
        <ele>272.061045</ele>
        <time>2026-07-10T14:00:57.000Z</time>
      </trkpt>
      <trkpt lat="46.25603" lon="15.35322">
        <ele>271.651449</ele>
        <time>2026-07-10T14:00:58.000Z</time>
      </trkpt>
      <trkpt lat="46.25594" lon="15.35308">
        <ele>270.889953</ele>
        <time>2026-07-10T14:01:00.000Z</time>
      </trkpt>
      <trkpt lat="46.25578" lon="15.35305">
        <ele>270.020678</ele>
        <time>2026-07-10T14:01:02.000Z</time>
      </trkpt>
      <trkpt lat="46.25552" lon="15.35293">
        <ele>268.468419</ele>
        <time>2026-07-10T14:01:07.000Z</time>
      </trkpt>
      <trkpt lat="46.25548" lon="15.35287">
        <ele>268.166382</ele>
        <time>2026-07-10T14:01:08.000Z</time>
      </trkpt>
      <trkpt lat="46.25548" lon="15.35277">
        <ele>267.756334</ele>
        <time>2026-07-10T14:01:09.000Z</time>
      </trkpt>
      <trkpt lat="46.25548" lon="15.35267">
        <ele>267.369369</ele>
        <time>2026-07-10T14:01:10.000Z</time>
      </trkpt>
      <trkpt lat="46.25539" lon="15.35207">
        <ele>264.99079</ele>
        <time>2026-07-10T14:01:17.000Z</time>
      </trkpt>
      <trkpt lat="46.25535" lon="15.35191">
        <ele>264.349148</ele>
        <time>2026-07-10T14:01:19.000Z</time>
      </trkpt>
      <trkpt lat="46.25529" lon="15.35176">
        <ele>263.680489</ele>
        <time>2026-07-10T14:01:21.000Z</time>
      </trkpt>
      <trkpt lat="46.2551" lon="15.35155">
        <ele>262.870912</ele>
        <time>2026-07-10T14:01:25.000Z</time>
      </trkpt>
      <trkpt lat="46.25506" lon="15.35148">
        <ele>263.016106</ele>
        <time>2026-07-10T14:01:26.000Z</time>
      </trkpt>
      <trkpt lat="46.25499" lon="15.35135">
        <ele>263.285398</ele>
        <time>2026-07-10T14:01:28.000Z</time>
      </trkpt>
      <trkpt lat="46.25497" lon="15.35127">
        <ele>263.423152</ele>
        <time>2026-07-10T14:01:29.000Z</time>
      </trkpt>
      <trkpt lat="46.25491" lon="15.35096">
        <ele>263.962153</ele>
        <time>2026-07-10T14:01:33.000Z</time>
      </trkpt>
      <trkpt lat="46.25487" lon="15.35073">
        <ele>264.342953</ele>
        <time>2026-07-10T14:01:36.000Z</time>
      </trkpt>
      <trkpt lat="46.25485" lon="15.35059">
        <ele>264.580334</ele>
        <time>2026-07-10T14:01:38.000Z</time>
      </trkpt>
      <trkpt lat="46.2548" lon="15.35034">
        <ele>265.012891</ele>
        <time>2026-07-10T14:01:42.000Z</time>
      </trkpt>
      <trkpt lat="46.25477" lon="15.35024">
        <ele>265.195741</ele>
        <time>2026-07-10T14:01:44.000Z</time>
      </trkpt>
      <trkpt lat="46.25476" lon="15.35012">
        <ele>265.388038</ele>
        <time>2026-07-10T14:01:46.000Z</time>
      </trkpt>
      <trkpt lat="46.25476" lon="15.35006">
        <ele>265.488275</ele>
        <time>2026-07-10T14:01:47.000Z</time>
      </trkpt>
      <trkpt lat="46.25471" lon="15.34984">
        <ele>265.880976</ele>
        <time>2026-07-10T14:01:51.000Z</time>
      </trkpt>
      <trkpt lat="46.25469" lon="15.34979">
        <ele>265.966933</ele>
        <time>2026-07-10T14:01:52.000Z</time>
      </trkpt>
      <trkpt lat="46.25462" lon="15.34967">
        <ele>266.231394</ele>
        <time>2026-07-10T14:01:55.000Z</time>
      </trkpt>
      <trkpt lat="46.25459" lon="15.34962">
        <ele>266.335258</ele>
        <time>2026-07-10T14:01:56.000Z</time>
      </trkpt>
      <trkpt lat="46.25449" lon="15.34951">
        <ele>266.630886</ele>
        <time>2026-07-10T14:02:00.000Z</time>
      </trkpt>
      <trkpt lat="46.25439" lon="15.34946">
        <ele>266.883362</ele>
        <time>2026-07-10T14:02:03.000Z</time>
      </trkpt>
      <trkpt lat="46.25432" lon="15.34945">
        <ele>267.134009</ele>
        <time>2026-07-10T14:02:05.000Z</time>
      </trkpt>
      <trkpt lat="46.2542" lon="15.34944">
        <ele>267.854274</ele>
        <time>2026-07-10T14:02:10.000Z</time>
      </trkpt>
      <trkpt lat="46.25406" lon="15.34938">
        <ele>268.75512</ele>
        <time>2026-07-10T14:02:16.000Z</time>
      </trkpt>
      <trkpt lat="46.25399" lon="15.34937">
        <ele>269.170788</ele>
        <time>2026-07-10T14:02:19.000Z</time>
      </trkpt>
      <trkpt lat="46.2539" lon="15.34932">
        <ele>269.721319</ele>
        <time>2026-07-10T14:02:22.000Z</time>
      </trkpt>
      <trkpt lat="46.25382" lon="15.3493">
        <ele>270.237665</ele>
        <time>2026-07-10T14:02:26.000Z</time>
      </trkpt>
      <trkpt lat="46.25377" lon="15.34929">
        <ele>270.53525</ele>
        <time>2026-07-10T14:02:28.000Z</time>
      </trkpt>
      <trkpt lat="46.25373" lon="15.3493">
        <ele>270.776514</ele>
        <time>2026-07-10T14:02:31.000Z</time>
      </trkpt>
      <trkpt lat="46.25368" lon="15.34928">
        <ele>271.05032</ele>
        <time>2026-07-10T14:02:34.000Z</time>
      </trkpt>
      <trkpt lat="46.2536" lon="15.34922">
        <ele>271.603008</ele>
        <time>2026-07-10T14:02:38.000Z</time>
      </trkpt>
      <trkpt lat="46.2535" lon="15.34918">
        <ele>272.208458</ele>
        <time>2026-07-10T14:02:41.000Z</time>
      </trkpt>
      <trkpt lat="46.25344" lon="15.34916">
        <ele>272.614972</ele>
        <time>2026-07-10T14:02:43.000Z</time>
      </trkpt>
      <trkpt lat="46.25331" lon="15.34911">
        <ele>273.38923</ele>
        <time>2026-07-10T14:02:46.000Z</time>
      </trkpt>
      <trkpt lat="46.25325" lon="15.34908">
        <ele>273.806051</ele>
        <time>2026-07-10T14:02:48.000Z</time>
      </trkpt>
      <trkpt lat="46.25303" lon="15.34902">
        <ele>275.115659</ele>
        <time>2026-07-10T14:02:54.000Z</time>
      </trkpt>
      <trkpt lat="46.25284" lon="15.34893">
        <ele>276.305248</ele>
        <time>2026-07-10T14:02:59.000Z</time>
      </trkpt>
      <trkpt lat="46.25279" lon="15.34891">
        <ele>276.616883</ele>
        <time>2026-07-10T14:03:00.000Z</time>
      </trkpt>
      <trkpt lat="46.25265" lon="15.34885">
        <ele>277.485487</ele>
        <time>2026-07-10T14:03:03.000Z</time>
      </trkpt>
      <trkpt lat="46.25257" lon="15.34879">
        <ele>277.678975</ele>
        <time>2026-07-10T14:03:05.000Z</time>
      </trkpt>
      <trkpt lat="46.25243" lon="15.34868">
        <ele>277.345037</ele>
        <time>2026-07-10T14:03:08.000Z</time>
      </trkpt>
      <trkpt lat="46.2522" lon="15.34848">
        <ele>276.757256</ele>
        <time>2026-07-10T14:03:12.000Z</time>
      </trkpt>
      <trkpt lat="46.2521" lon="15.34839">
        <ele>276.510844</ele>
        <time>2026-07-10T14:03:14.000Z</time>
      </trkpt>
      <trkpt lat="46.25202" lon="15.34827">
        <ele>276.263091</ele>
        <time>2026-07-10T14:03:16.000Z</time>
      </trkpt>
      <trkpt lat="46.25199" lon="15.34821">
        <ele>276.152375</ele>
        <time>2026-07-10T14:03:17.000Z</time>
      </trkpt>
      <trkpt lat="46.2519" lon="15.34797">
        <ele>275.74166</ele>
        <time>2026-07-10T14:03:20.000Z</time>
      </trkpt>
      <trkpt lat="46.25187" lon="15.34789">
        <ele>275.597963</ele>
        <time>2026-07-10T14:03:21.000Z</time>
      </trkpt>
      <trkpt lat="46.25166" lon="15.34745">
        <ele>274.799753</ele>
        <time>2026-07-10T14:03:26.000Z</time>
      </trkpt>
      <trkpt lat="46.25149" lon="15.34692">
        <ele>273.932459</ele>
        <time>2026-07-10T14:03:31.000Z</time>
      </trkpt>
      <trkpt lat="46.2514" lon="15.34666">
        <ele>272.300268</ele>
        <time>2026-07-10T14:03:33.000Z</time>
      </trkpt>
      <trkpt lat="46.25128" lon="15.34645">
        <ele>270.728427</ele>
        <time>2026-07-10T14:03:35.000Z</time>
      </trkpt>
      <trkpt lat="46.25095" lon="15.34569">
        <ele>265.450605</ele>
        <time>2026-07-10T14:03:41.000Z</time>
      </trkpt>
      <trkpt lat="46.25068" lon="15.34497">
        <ele>260.638698</ele>
        <time>2026-07-10T14:03:47.000Z</time>
      </trkpt>
      <trkpt lat="46.25064" lon="15.34486">
        <ele>259.8827</ele>
        <time>2026-07-10T14:03:48.000Z</time>
      </trkpt>
      <trkpt lat="46.25053" lon="15.34441">
        <ele>258.487101</ele>
        <time>2026-07-10T14:03:52.000Z</time>
      </trkpt>
      <trkpt lat="46.25046" lon="15.34389">
        <ele>258.314243</ele>
        <time>2026-07-10T14:03:57.000Z</time>
      </trkpt>
      <trkpt lat="46.25045" lon="15.34368">
        <ele>258.246163</ele>
        <time>2026-07-10T14:03:59.000Z</time>
      </trkpt>
      <trkpt lat="46.25046" lon="15.34329">
        <ele>258.116636</ele>
        <time>2026-07-10T14:04:03.000Z</time>
      </trkpt>
      <trkpt lat="46.25048" lon="15.34301">
        <ele>258.025348</ele>
        <time>2026-07-10T14:04:06.000Z</time>
      </trkpt>
      <trkpt lat="46.2505" lon="15.34293">
        <ele>257.996421</ele>
        <time>2026-07-10T14:04:07.000Z</time>
      </trkpt>
      <trkpt lat="46.25054" lon="15.34277">
        <ele>257.942258</ele>
        <time>2026-07-10T14:04:09.000Z</time>
      </trkpt>
      <trkpt lat="46.25059" lon="15.34263">
        <ele>257.889847</ele>
        <time>2026-07-10T14:04:11.000Z</time>
      </trkpt>
      <trkpt lat="46.25062" lon="15.34257">
        <ele>257.864704</ele>
        <time>2026-07-10T14:04:12.000Z</time>
      </trkpt>
      <trkpt lat="46.25071" lon="15.3424">
        <ele>257.79555</ele>
        <time>2026-07-10T14:04:15.000Z</time>
      </trkpt>
      <trkpt lat="46.25074" lon="15.34235">
        <ele>257.774928</ele>
        <time>2026-07-10T14:04:16.000Z</time>
      </trkpt>
      <trkpt lat="46.25075" lon="15.34231">
        <ele>257.758664</ele>
        <time>2026-07-10T14:04:17.000Z</time>
      </trkpt>
      <trkpt lat="46.25083" lon="15.34216">
        <ele>257.825752</ele>
        <time>2026-07-10T14:04:21.000Z</time>
      </trkpt>
      <trkpt lat="46.25091" lon="15.34197">
        <ele>258.231157</ele>
        <time>2026-07-10T14:04:25.000Z</time>
      </trkpt>
      <trkpt lat="46.25097" lon="15.34186">
        <ele>258.477401</ele>
        <time>2026-07-10T14:04:27.000Z</time>
      </trkpt>
      <trkpt lat="46.25102" lon="15.34174">
        <ele>258.738514</ele>
        <time>2026-07-10T14:04:29.000Z</time>
      </trkpt>
      <trkpt lat="46.25106" lon="15.34169">
        <ele>258.86888</ele>
        <time>2026-07-10T14:04:30.000Z</time>
      </trkpt>
      <trkpt lat="46.25114" lon="15.34149">
        <ele>259.28887</ele>
        <time>2026-07-10T14:04:34.000Z</time>
      </trkpt>
      <trkpt lat="46.25121" lon="15.34137">
        <ele>259.565361</ele>
        <time>2026-07-10T14:04:36.000Z</time>
      </trkpt>
      <trkpt lat="46.25131" lon="15.34109">
        <ele>260.140089</ele>
        <time>2026-07-10T14:04:40.000Z</time>
      </trkpt>
      <trkpt lat="46.25137" lon="15.34096">
        <ele>260.418206</ele>
        <time>2026-07-10T14:04:42.000Z</time>
      </trkpt>
      <trkpt lat="46.25145" lon="15.34074">
        <ele>260.866962</ele>
        <time>2026-07-10T14:04:45.000Z</time>
      </trkpt>
      <trkpt lat="46.25149" lon="15.34058">
        <ele>261.164534</ele>
        <time>2026-07-10T14:04:47.000Z</time>
      </trkpt>
      <trkpt lat="46.25151" lon="15.34051">
        <ele>261.307053</ele>
        <time>2026-07-10T14:04:48.000Z</time>
      </trkpt>
      <trkpt lat="46.25155" lon="15.34018">
        <ele>261.904741</ele>
        <time>2026-07-10T14:04:52.000Z</time>
      </trkpt>
      <trkpt lat="46.25156" lon="15.3401">
        <ele>262.051639</ele>
        <time>2026-07-10T14:04:53.000Z</time>
      </trkpt>
      <trkpt lat="46.25154" lon="15.3397">
        <ele>262.445013</ele>
        <time>2026-07-10T14:04:58.000Z</time>
      </trkpt>
      <trkpt lat="46.25153" lon="15.33962">
        <ele>262.459142</ele>
        <time>2026-07-10T14:04:59.000Z</time>
      </trkpt>
      <trkpt lat="46.25145" lon="15.33911">
        <ele>262.553514</ele>
        <time>2026-07-10T14:05:06.000Z</time>
      </trkpt>
      <trkpt lat="46.25142" lon="15.33899">
        <ele>262.574973</ele>
        <time>2026-07-10T14:05:08.000Z</time>
      </trkpt>
      <trkpt lat="46.2514" lon="15.33868">
        <ele>262.63039</ele>
        <time>2026-07-10T14:05:12.000Z</time>
      </trkpt>
      <trkpt lat="46.25129" lon="15.33787">
        <ele>262.778849</ele>
        <time>2026-07-10T14:05:23.000Z</time>
      </trkpt>
      <trkpt lat="46.25121" lon="15.33749">
        <ele>262.849297</ele>
        <time>2026-07-10T14:05:28.000Z</time>
      </trkpt>
      <trkpt lat="46.25112" lon="15.3372">
        <ele>262.464787</ele>
        <time>2026-07-10T14:05:32.000Z</time>
      </trkpt>
      <trkpt lat="46.25084" lon="15.33657">
        <ele>260.851805</ele>
        <time>2026-07-10T14:05:40.000Z</time>
      </trkpt>
      <trkpt lat="46.2507" lon="15.33637">
        <ele>260.231254</ele>
        <time>2026-07-10T14:05:43.000Z</time>
      </trkpt>
      <trkpt lat="46.25052" lon="15.33611">
        <ele>259.421491</ele>
        <time>2026-07-10T14:05:47.000Z</time>
      </trkpt>
      <trkpt lat="46.2504" lon="15.3359">
        <ele>258.828411</ele>
        <time>2026-07-10T14:05:50.000Z</time>
      </trkpt>
      <trkpt lat="46.25028" lon="15.33569">
        <ele>258.228999</ele>
        <time>2026-07-10T14:05:53.000Z</time>
      </trkpt>
      <trkpt lat="46.25025" lon="15.33561">
        <ele>258.025784</ele>
        <time>2026-07-10T14:05:54.000Z</time>
      </trkpt>
      <trkpt lat="46.25022" lon="15.33542">
        <ele>257.613149</ele>
        <time>2026-07-10T14:05:56.000Z</time>
      </trkpt>
      <trkpt lat="46.25022" lon="15.33533">
        <ele>257.40865</ele>
        <time>2026-07-10T14:05:57.000Z</time>
      </trkpt>
      <trkpt lat="46.25023" lon="15.33485">
        <ele>256.979082</ele>
        <time>2026-07-10T14:06:02.000Z</time>
      </trkpt>
      <trkpt lat="46.25021" lon="15.33414">
        <ele>256.549817</ele>
        <time>2026-07-10T14:06:09.000Z</time>
      </trkpt>
      <trkpt lat="46.25035" lon="15.3333">
        <ele>256.029163</ele>
        <time>2026-07-10T14:06:17.000Z</time>
      </trkpt>
      <trkpt lat="46.25041" lon="15.33311">
        <ele>255.901641</ele>
        <time>2026-07-10T14:06:19.000Z</time>
      </trkpt>
      <trkpt lat="46.25049" lon="15.33295">
        <ele>255.780845</ele>
        <time>2026-07-10T14:06:21.000Z</time>
      </trkpt>
      <trkpt lat="46.25054" lon="15.33288">
        <ele>255.717639</ele>
        <time>2026-07-10T14:06:22.000Z</time>
      </trkpt>
      <trkpt lat="46.25065" lon="15.33276">
        <ele>255.681746</ele>
        <time>2026-07-10T14:06:24.000Z</time>
      </trkpt>
      <trkpt lat="46.25072" lon="15.33271">
        <ele>255.742877</ele>
        <time>2026-07-10T14:06:25.000Z</time>
      </trkpt>
      <trkpt lat="46.25121" lon="15.3324">
        <ele>256.22047</ele>
        <time>2026-07-10T14:06:33.000Z</time>
      </trkpt>
      <trkpt lat="46.25172" lon="15.33212">
        <ele>256.69656</ele>
        <time>2026-07-10T14:06:41.000Z</time>
      </trkpt>
      <trkpt lat="46.25178" lon="15.33209">
        <ele>256.755836</ele>
        <time>2026-07-10T14:06:42.000Z</time>
      </trkpt>
      <trkpt lat="46.25191" lon="15.33201">
        <ele>256.877871</ele>
        <time>2026-07-10T14:06:44.000Z</time>
      </trkpt>
      <trkpt lat="46.25216" lon="15.33183">
        <ele>257.12213</ele>
        <time>2026-07-10T14:06:48.000Z</time>
      </trkpt>
      <trkpt lat="46.25221" lon="15.33177">
        <ele>257.181379</ele>
        <time>2026-07-10T14:06:49.000Z</time>
      </trkpt>
      <trkpt lat="46.25226" lon="15.3317">
        <ele>257.18091</ele>
        <time>2026-07-10T14:06:50.000Z</time>
      </trkpt>
      <trkpt lat="46.25232" lon="15.33154">
        <ele>256.910327</ele>
        <time>2026-07-10T14:06:52.000Z</time>
      </trkpt>
      <trkpt lat="46.25235" lon="15.33135">
        <ele>256.631355</ele>
        <time>2026-07-10T14:06:54.000Z</time>
      </trkpt>
      <trkpt lat="46.25236" lon="15.33114">
        <ele>256.331728</ele>
        <time>2026-07-10T14:06:56.000Z</time>
      </trkpt>
      <trkpt lat="46.25239" lon="15.33066">
        <ele>255.640775</ele>
        <time>2026-07-10T14:07:00.000Z</time>
      </trkpt>
      <trkpt lat="46.25252" lon="15.33013">
        <ele>254.832907</ele>
        <time>2026-07-10T14:07:04.000Z</time>
      </trkpt>
      <trkpt lat="46.25278" lon="15.32945">
        <ele>253.727302</ele>
        <time>2026-07-10T14:07:10.000Z</time>
      </trkpt>
      <trkpt lat="46.253" lon="15.32913">
        <ele>253.345751</ele>
        <time>2026-07-10T14:07:14.000Z</time>
      </trkpt>
      <trkpt lat="46.25332" lon="15.32872">
        <ele>253.024676</ele>
        <time>2026-07-10T14:07:20.000Z</time>
      </trkpt>
      <trkpt lat="46.25354" lon="15.3283">
        <ele>252.753519</ele>
        <time>2026-07-10T14:07:25.000Z</time>
      </trkpt>
      <trkpt lat="46.25363" lon="15.328">
        <ele>252.582815</ele>
        <time>2026-07-10T14:07:28.000Z</time>
      </trkpt>
      <trkpt lat="46.25365" lon="15.32789">
        <ele>252.524705</ele>
        <time>2026-07-10T14:07:29.000Z</time>
      </trkpt>
      <trkpt lat="46.25366" lon="15.32778">
        <ele>252.465424</ele>
        <time>2026-07-10T14:07:30.000Z</time>
      </trkpt>
      <trkpt lat="46.25364" lon="15.32732">
        <ele>252.230658</ele>
        <time>2026-07-10T14:07:34.000Z</time>
      </trkpt>
      <trkpt lat="46.25362" lon="15.32721">
        <ele>252.170693</ele>
        <time>2026-07-10T14:07:35.000Z</time>
      </trkpt>
      <trkpt lat="46.25348" lon="15.32657">
        <ele>253.151292</ele>
        <time>2026-07-10T14:07:41.000Z</time>
      </trkpt>
      <trkpt lat="46.25335" lon="15.32585">
        <ele>254.330265</ele>
        <time>2026-07-10T14:07:48.000Z</time>
      </trkpt>
      <trkpt lat="46.25334" lon="15.32575">
        <ele>254.490065</ele>
        <time>2026-07-10T14:07:49.000Z</time>
      </trkpt>
      <trkpt lat="46.25336" lon="15.32546">
        <ele>254.957271</ele>
        <time>2026-07-10T14:07:52.000Z</time>
      </trkpt>
      <trkpt lat="46.25344" lon="15.3251">
        <ele>255.5464</ele>
        <time>2026-07-10T14:07:56.000Z</time>
      </trkpt>
      <trkpt lat="46.25347" lon="15.32502">
        <ele>255.694127</ele>
        <time>2026-07-10T14:07:57.000Z</time>
      </trkpt>
      <trkpt lat="46.2535" lon="15.32494">
        <ele>255.833434</ele>
        <time>2026-07-10T14:07:58.000Z</time>
      </trkpt>
      <trkpt lat="46.25361" lon="15.32475">
        <ele>256.224277</ele>
        <time>2026-07-10T14:08:01.000Z</time>
      </trkpt>
      <trkpt lat="46.25365" lon="15.32469">
        <ele>256.344584</ele>
        <time>2026-07-10T14:08:02.000Z</time>
      </trkpt>
      <trkpt lat="46.25383" lon="15.32446">
        <ele>256.871592</ele>
        <time>2026-07-10T14:08:07.000Z</time>
      </trkpt>
      <trkpt lat="46.25387" lon="15.32443">
        <ele>256.966484</ele>
        <time>2026-07-10T14:08:08.000Z</time>
      </trkpt>
      <trkpt lat="46.25401" lon="15.32434">
        <ele>257.301095</ele>
        <time>2026-07-10T14:08:13.000Z</time>
      </trkpt>
      <trkpt lat="46.25407" lon="15.32428">
        <ele>257.471283</ele>
        <time>2026-07-10T14:08:16.000Z</time>
      </trkpt>
      <trkpt lat="46.25408" lon="15.32424">
        <ele>257.534597</ele>
        <time>2026-07-10T14:08:17.000Z</time>
      </trkpt>
      <trkpt lat="46.25401" lon="15.32404">
        <ele>257.87248</ele>
        <time>2026-07-10T14:08:21.000Z</time>
      </trkpt>
      <trkpt lat="46.25391" lon="15.32369">
        <ele>258.436557</ele>
        <time>2026-07-10T14:08:26.000Z</time>
      </trkpt>
      <trkpt lat="46.25389" lon="15.32362">
        <ele>258.55325</ele>
        <time>2026-07-10T14:08:27.000Z</time>
      </trkpt>
      <trkpt lat="46.25381" lon="15.3234">
        <ele>258.918837</ele>
        <time>2026-07-10T14:08:30.000Z</time>
      </trkpt>
      <trkpt lat="46.25373" lon="15.32328">
        <ele>259.172414</ele>
        <time>2026-07-10T14:08:32.000Z</time>
      </trkpt>
      <trkpt lat="46.25353" lon="15.32311">
        <ele>259.681526</ele>
        <time>2026-07-10T14:08:36.000Z</time>
      </trkpt>
      <trkpt lat="46.25348" lon="15.32308">
        <ele>259.805872</ele>
        <time>2026-07-10T14:08:37.000Z</time>
      </trkpt>
      <trkpt lat="46.25304" lon="15.32281">
        <ele>260.332101</ele>
        <time>2026-07-10T14:08:45.000Z</time>
      </trkpt>
      <trkpt lat="46.25289" lon="15.32273">
        <ele>260.413696</ele>
        <time>2026-07-10T14:08:48.000Z</time>
      </trkpt>
      <trkpt lat="46.25268" lon="15.32261">
        <ele>260.532677</ele>
        <time>2026-07-10T14:08:52.000Z</time>
      </trkpt>
      <trkpt lat="46.25263" lon="15.32257">
        <ele>260.563914</ele>
        <time>2026-07-10T14:08:53.000Z</time>
      </trkpt>
      <trkpt lat="46.25228" lon="15.32235">
        <ele>260.76134</ele>
        <time>2026-07-10T14:08:59.000Z</time>
      </trkpt>
      <trkpt lat="46.25216" lon="15.32227">
        <ele>260.830815</ele>
        <time>2026-07-10T14:09:01.000Z</time>
      </trkpt>
      <trkpt lat="46.25184" lon="15.32207">
        <ele>261.00801</ele>
        <time>2026-07-10T14:09:06.000Z</time>
      </trkpt>
      <trkpt lat="46.25141" lon="15.32181">
        <ele>260.659114</ele>
        <time>2026-07-10T14:09:13.000Z</time>
      </trkpt>
      <trkpt lat="46.25102" lon="15.32156">
        <ele>259.998565</ele>
        <time>2026-07-10T14:09:19.000Z</time>
      </trkpt>
      <trkpt lat="46.2505" lon="15.32125">
        <ele>259.098417</ele>
        <time>2026-07-10T14:09:27.000Z</time>
      </trkpt>
      <trkpt lat="46.25011" lon="15.32104">
        <ele>258.44442</ele>
        <time>2026-07-10T14:09:33.000Z</time>
      </trkpt>
      <trkpt lat="46.24993" lon="15.32095">
        <ele>258.078355</ele>
        <time>2026-07-10T14:09:36.000Z</time>
      </trkpt>
      <trkpt lat="46.24969" lon="15.32084">
        <ele>257.50773</ele>
        <time>2026-07-10T14:09:40.000Z</time>
      </trkpt>
      <trkpt lat="46.24952" lon="15.32077">
        <ele>257.096207</ele>
        <time>2026-07-10T14:09:43.000Z</time>
      </trkpt>
      <trkpt lat="46.24945" lon="15.32066">
        <ele>256.865753</ele>
        <time>2026-07-10T14:09:45.000Z</time>
      </trkpt>
      <trkpt lat="46.24943" lon="15.32058">
        <ele>256.739086</ele>
        <time>2026-07-10T14:09:46.000Z</time>
      </trkpt>
      <trkpt lat="46.24942" lon="15.3205">
        <ele>256.607043</ele>
        <time>2026-07-10T14:09:47.000Z</time>
      </trkpt>
      <trkpt lat="46.24938" lon="15.32018">
        <ele>256.095278</ele>
        <time>2026-07-10T14:09:51.000Z</time>
      </trkpt>
      <trkpt lat="46.24936" lon="15.32011">
        <ele>255.965491</ele>
        <time>2026-07-10T14:09:52.000Z</time>
      </trkpt>
      <trkpt lat="46.24929" lon="15.31998">
        <ele>255.699042</ele>
        <time>2026-07-10T14:09:54.000Z</time>
      </trkpt>
      <trkpt lat="46.24925" lon="15.31992">
        <ele>255.565667</ele>
        <time>2026-07-10T14:09:55.000Z</time>
      </trkpt>
      <trkpt lat="46.249" lon="15.31961">
        <ele>254.828467</ele>
        <time>2026-07-10T14:10:00.000Z</time>
      </trkpt>
      <trkpt lat="46.24893" lon="15.31944">
        <ele>254.506112</ele>
        <time>2026-07-10T14:10:02.000Z</time>
      </trkpt>
      <trkpt lat="46.24888" lon="15.31925">
        <ele>254.189861</ele>
        <time>2026-07-10T14:10:04.000Z</time>
      </trkpt>
      <trkpt lat="46.24887" lon="15.31906">
        <ele>253.983827</ele>
        <time>2026-07-10T14:10:06.000Z</time>
      </trkpt>
      <trkpt lat="46.24888" lon="15.31897">
        <ele>253.893798</ele>
        <time>2026-07-10T14:10:07.000Z</time>
      </trkpt>
      <trkpt lat="46.2489" lon="15.31888">
        <ele>253.804719</ele>
        <time>2026-07-10T14:10:08.000Z</time>
      </trkpt>
      <trkpt lat="46.24901" lon="15.31841">
        <ele>253.33803</ele>
        <time>2026-07-10T14:10:13.000Z</time>
      </trkpt>
      <trkpt lat="46.24919" lon="15.31763">
        <ele>252.552148</ele>
        <time>2026-07-10T14:10:21.000Z</time>
      </trkpt>
      <trkpt lat="46.24926" lon="15.31698">
        <ele>251.931898</ele>
        <time>2026-07-10T14:10:27.000Z</time>
      </trkpt>
      <trkpt lat="46.24926" lon="15.31676">
        <ele>251.723971</ele>
        <time>2026-07-10T14:10:29.000Z</time>
      </trkpt>
      <trkpt lat="46.24923" lon="15.31644">
        <ele>251.55148</ele>
        <time>2026-07-10T14:10:32.000Z</time>
      </trkpt>
      <trkpt lat="46.24919" lon="15.31623">
        <ele>251.45447</ele>
        <time>2026-07-10T14:10:34.000Z</time>
      </trkpt>
      <trkpt lat="46.24906" lon="15.3157">
        <ele>251.211484</ele>
        <time>2026-07-10T14:10:39.000Z</time>
      </trkpt>
      <trkpt lat="46.24901" lon="15.3155">
        <ele>251.117926</ele>
        <time>2026-07-10T14:10:41.000Z</time>
      </trkpt>
      <trkpt lat="46.2488" lon="15.31467">
        <ele>250.732883</ele>
        <time>2026-07-10T14:10:49.000Z</time>
      </trkpt>
      <trkpt lat="46.24874" lon="15.31446">
        <ele>250.632623</ele>
        <time>2026-07-10T14:10:51.000Z</time>
      </trkpt>
      <trkpt lat="46.24844" lon="15.31379">
        <ele>250.573317</ele>
        <time>2026-07-10T14:10:58.000Z</time>
      </trkpt>
      <trkpt lat="46.24813" lon="15.31332">
        <ele>250.622556</ele>
        <time>2026-07-10T14:11:04.000Z</time>
      </trkpt>
      <trkpt lat="46.24799" lon="15.31307">
        <ele>250.64661</ele>
        <time>2026-07-10T14:11:07.000Z</time>
      </trkpt>
      <trkpt lat="46.24795" lon="15.31297">
        <ele>250.654951</ele>
        <time>2026-07-10T14:11:08.000Z</time>
      </trkpt>
      <trkpt lat="46.24786" lon="15.31243">
        <ele>250.696479</ele>
        <time>2026-07-10T14:11:13.000Z</time>
      </trkpt>
      <trkpt lat="46.2478" lon="15.312">
        <ele>250.695945</ele>
        <time>2026-07-10T14:11:17.000Z</time>
      </trkpt>
      <trkpt lat="46.24773" lon="15.31168">
        <ele>250.461369</ele>
        <time>2026-07-10T14:11:20.000Z</time>
      </trkpt>
      <trkpt lat="46.24751" lon="15.31089">
        <ele>249.863512</ele>
        <time>2026-07-10T14:11:28.000Z</time>
      </trkpt>
      <trkpt lat="46.24741" lon="15.3105">
        <ele>249.578392</ele>
        <time>2026-07-10T14:11:32.000Z</time>
      </trkpt>
      <trkpt lat="46.24722" lon="15.30995">
        <ele>249.14673</ele>
        <time>2026-07-10T14:11:38.000Z</time>
      </trkpt>
      <trkpt lat="46.24705" lon="15.3096">
        <ele>248.733219</ele>
        <time>2026-07-10T14:11:42.000Z</time>
      </trkpt>
      <trkpt lat="46.247" lon="15.3094">
        <ele>248.284087</ele>
        <time>2026-07-10T14:11:44.000Z</time>
      </trkpt>
      <trkpt lat="46.24689" lon="15.30886">
        <ele>247.138455</ele>
        <time>2026-07-10T14:11:49.000Z</time>
      </trkpt>
      <trkpt lat="46.24689" lon="15.30875">
        <ele>246.902688</ele>
        <time>2026-07-10T14:11:50.000Z</time>
      </trkpt>
      <trkpt lat="46.24689" lon="15.30863">
        <ele>246.657546</ele>
        <time>2026-07-10T14:11:51.000Z</time>
      </trkpt>
      <trkpt lat="46.24692" lon="15.30831">
        <ele>245.997316</ele>
        <time>2026-07-10T14:11:54.000Z</time>
      </trkpt>
      <trkpt lat="46.24697" lon="15.30815">
        <ele>245.641947</ele>
        <time>2026-07-10T14:11:56.000Z</time>
      </trkpt>
      <trkpt lat="46.247" lon="15.30805">
        <ele>245.401017</ele>
        <time>2026-07-10T14:11:58.000Z</time>
      </trkpt>
      <trkpt lat="46.24703" lon="15.30799">
        <ele>245.246745</ele>
        <time>2026-07-10T14:12:02.000Z</time>
      </trkpt>
      <trkpt lat="46.24703" lon="15.30799">
        <ele>245.246745</ele>
        <time>2026-07-10T14:12:03.000Z</time>
      </trkpt>
      <trkpt lat="46.24706" lon="15.30791">
        <ele>245.071167</ele>
        <time>2026-07-10T14:12:07.000Z</time>
      </trkpt>
      <trkpt lat="46.24707" lon="15.30783">
        <ele>244.903567</ele>
        <time>2026-07-10T14:12:09.000Z</time>
      </trkpt>
      <trkpt lat="46.24711" lon="15.30761">
        <ele>244.422439</ele>
        <time>2026-07-10T14:12:13.000Z</time>
      </trkpt>
      <trkpt lat="46.24712" lon="15.30754">
        <ele>244.280815</ele>
        <time>2026-07-10T14:12:14.000Z</time>
      </trkpt>
      <trkpt lat="46.24712" lon="15.30746">
        <ele>244.111789</ele>
        <time>2026-07-10T14:12:15.000Z</time>
      </trkpt>
      <trkpt lat="46.24709" lon="15.30728">
        <ele>243.745086</ele>
        <time>2026-07-10T14:12:17.000Z</time>
      </trkpt>
      <trkpt lat="46.24706" lon="15.3072">
        <ele>243.555926</ele>
        <time>2026-07-10T14:12:18.000Z</time>
      </trkpt>
      <trkpt lat="46.24702" lon="15.30712">
        <ele>243.60399</ele>
        <time>2026-07-10T14:12:19.000Z</time>
      </trkpt>
      <trkpt lat="46.24689" lon="15.30696">
        <ele>243.72969</ele>
        <time>2026-07-10T14:12:21.000Z</time>
      </trkpt>
      <trkpt lat="46.24675" lon="15.30687">
        <ele>243.839576</ele>
        <time>2026-07-10T14:12:23.000Z</time>
      </trkpt>
      <trkpt lat="46.24661" lon="15.30681">
        <ele>243.951183</ele>
        <time>2026-07-10T14:12:25.000Z</time>
      </trkpt>
      <trkpt lat="46.24624" lon="15.30665">
        <ele>244.231984</ele>
        <time>2026-07-10T14:12:30.000Z</time>
      </trkpt>
      <trkpt lat="46.2461" lon="15.30656">
        <ele>244.344462</ele>
        <time>2026-07-10T14:12:32.000Z</time>
      </trkpt>
      <trkpt lat="46.24599" lon="15.30643">
        <ele>244.450825</ele>
        <time>2026-07-10T14:12:34.000Z</time>
      </trkpt>
      <trkpt lat="46.24588" lon="15.30627">
        <ele>244.561607</ele>
        <time>2026-07-10T14:12:36.000Z</time>
      </trkpt>
      <trkpt lat="46.24568" lon="15.30583">
        <ele>244.829803</ele>
        <time>2026-07-10T14:12:41.000Z</time>
      </trkpt>
      <trkpt lat="46.24562" lon="15.30565">
        <ele>244.998536</ele>
        <time>2026-07-10T14:12:43.000Z</time>
      </trkpt>
      <trkpt lat="46.2456" lon="15.30545">
        <ele>245.207859</ele>
        <time>2026-07-10T14:12:45.000Z</time>
      </trkpt>
      <trkpt lat="46.24559" lon="15.30536">
        <ele>245.30949</ele>
        <time>2026-07-10T14:12:46.000Z</time>
      </trkpt>
      <trkpt lat="46.24559" lon="15.30526">
        <ele>245.414249</ele>
        <time>2026-07-10T14:12:47.000Z</time>
      </trkpt>
      <trkpt lat="46.24555" lon="15.30499">
        <ele>245.701597</ele>
        <time>2026-07-10T14:12:50.000Z</time>
      </trkpt>
      <trkpt lat="46.24545" lon="15.30476">
        <ele>245.995935</ele>
        <time>2026-07-10T14:12:53.000Z</time>
      </trkpt>
      <trkpt lat="46.24535" lon="15.30462">
        <ele>246.197908</ele>
        <time>2026-07-10T14:12:55.000Z</time>
      </trkpt>
      <trkpt lat="46.24503" lon="15.30414">
        <ele>246.905536</ele>
        <time>2026-07-10T14:13:02.000Z</time>
      </trkpt>
      <trkpt lat="46.24499" lon="15.30406">
        <ele>247.014528</ele>
        <time>2026-07-10T14:13:03.000Z</time>
      </trkpt>
      <trkpt lat="46.24469" lon="15.30351">
        <ele>247.460904</ele>
        <time>2026-07-10T14:13:10.000Z</time>
      </trkpt>
      <trkpt lat="46.24435" lon="15.30299">
        <ele>246.456216</ele>
        <time>2026-07-10T14:13:17.000Z</time>
      </trkpt>
      <trkpt lat="46.24408" lon="15.30258">
        <ele>245.669907</ele>
        <time>2026-07-10T14:13:23.000Z</time>
      </trkpt>
      <trkpt lat="46.24396" lon="15.30233">
        <ele>245.248101</ele>
        <time>2026-07-10T14:13:27.000Z</time>
      </trkpt>
      <trkpt lat="46.24394" lon="15.30228">
        <ele>245.1664</ele>
        <time>2026-07-10T14:13:28.000Z</time>
      </trkpt>
      <trkpt lat="46.24385" lon="15.30217">
        <ele>244.932251</ele>
        <time>2026-07-10T14:13:31.000Z</time>
      </trkpt>
      <trkpt lat="46.2438" lon="15.30215">
        <ele>244.833299</ele>
        <time>2026-07-10T14:13:32.000Z</time>
      </trkpt>
      <trkpt lat="46.24344" lon="15.30217">
        <ele>244.105549</ele>
        <time>2026-07-10T14:13:39.000Z</time>
      </trkpt>
      <trkpt lat="46.24336" lon="15.30213">
        <ele>244.012802</ele>
        <time>2026-07-10T14:13:41.000Z</time>
      </trkpt>
      <trkpt lat="46.24332" lon="15.30209">
        <ele>244.022501</ele>
        <time>2026-07-10T14:13:42.000Z</time>
      </trkpt>
      <trkpt lat="46.2433" lon="15.30204">
        <ele>244.033066</ele>
        <time>2026-07-10T14:13:43.000Z</time>
      </trkpt>
      <trkpt lat="46.24327" lon="15.30189">
        <ele>244.057186</ele>
        <time>2026-07-10T14:13:45.000Z</time>
      </trkpt>
      <trkpt lat="46.24327" lon="15.30153">
        <ele>244.114912</ele>
        <time>2026-07-10T14:13:49.000Z</time>
      </trkpt>
      <trkpt lat="46.24327" lon="15.30071">
        <ele>244.244162</ele>
        <time>2026-07-10T14:13:58.000Z</time>
      </trkpt>
      <trkpt lat="46.24326" lon="15.30063">
        <ele>244.258031</ele>
        <time>2026-07-10T14:13:59.000Z</time>
      </trkpt>
      <trkpt lat="46.24311" lon="15.30004">
        <ele>244.356289</ele>
        <time>2026-07-10T14:14:06.000Z</time>
      </trkpt>
      <trkpt lat="46.24296" lon="15.2995">
        <ele>244.258353</ele>
        <time>2026-07-10T14:14:12.000Z</time>
      </trkpt>
      <trkpt lat="46.24271" lon="15.29876">
        <ele>243.627663</ele>
        <time>2026-07-10T14:14:20.000Z</time>
      </trkpt>
      <trkpt lat="46.24254" lon="15.29808">
        <ele>243.072695</ele>
        <time>2026-07-10T14:14:27.000Z</time>
      </trkpt>
      <trkpt lat="46.24241" lon="15.29726">
        <ele>242.426949</ele>
        <time>2026-07-10T14:14:35.000Z</time>
      </trkpt>
      <trkpt lat="46.24236" lon="15.29706">
        <ele>242.503644</ele>
        <time>2026-07-10T14:14:37.000Z</time>
      </trkpt>
      <trkpt lat="46.2422" lon="15.2963">
        <ele>242.80464</ele>
        <time>2026-07-10T14:14:45.000Z</time>
      </trkpt>
      <trkpt lat="46.24215" lon="15.29613">
        <ele>242.877079</ele>
        <time>2026-07-10T14:14:47.000Z</time>
      </trkpt>
      <trkpt lat="46.24207" lon="15.29599">
        <ele>242.947774</ele>
        <time>2026-07-10T14:14:49.000Z</time>
      </trkpt>
      <trkpt lat="46.24195" lon="15.29592">
        <ele>243.015147</ele>
        <time>2026-07-10T14:14:51.000Z</time>
      </trkpt>
      <trkpt lat="46.24189" lon="15.29591">
        <ele>243.04956</ele>
        <time>2026-07-10T14:14:52.000Z</time>
      </trkpt>
      <trkpt lat="46.24178" lon="15.29589">
        <ele>243.108611</ele>
        <time>2026-07-10T14:14:54.000Z</time>
      </trkpt>
      <trkpt lat="46.24171" lon="15.29584">
        <ele>243.15543</ele>
        <time>2026-07-10T14:14:56.000Z</time>
      </trkpt>
      <trkpt lat="46.24162" lon="15.29573">
        <ele>243.218435</ele>
        <time>2026-07-10T14:14:59.000Z</time>
      </trkpt>
      <trkpt lat="46.24161" lon="15.29567">
        <ele>243.242562</ele>
        <time>2026-07-10T14:15:00.000Z</time>
      </trkpt>
      <trkpt lat="46.24152" lon="15.29524">
        <ele>243.412297</ele>
        <time>2026-07-10T14:15:06.000Z</time>
      </trkpt>
      <trkpt lat="46.2414" lon="15.29467">
        <ele>243.379264</ele>
        <time>2026-07-10T14:15:13.000Z</time>
      </trkpt>
      <trkpt lat="46.24123" lon="15.29388">
        <ele>243.330099</ele>
        <time>2026-07-10T14:15:22.000Z</time>
      </trkpt>
      <trkpt lat="46.24121" lon="15.29379">
        <ele>243.324477</ele>
        <time>2026-07-10T14:15:23.000Z</time>
      </trkpt>
      <trkpt lat="46.24115" lon="15.29336">
        <ele>243.298197</ele>
        <time>2026-07-10T14:15:28.000Z</time>
      </trkpt>
      <trkpt lat="46.24114" lon="15.29319">
        <ele>243.288186</ele>
        <time>2026-07-10T14:15:30.000Z</time>
      </trkpt>
      <trkpt lat="46.24109" lon="15.29305">
        <ele>243.278398</ele>
        <time>2026-07-10T14:15:32.000Z</time>
      </trkpt>
      <trkpt lat="46.24105" lon="15.29298">
        <ele>243.273556</ele>
        <time>2026-07-10T14:15:33.000Z</time>
      </trkpt>
      <trkpt lat="46.24102" lon="15.29292">
        <ele>243.26864</ele>
        <time>2026-07-10T14:15:34.000Z</time>
      </trkpt>
      <trkpt lat="46.24094" lon="15.29268">
        <ele>243.224755</ele>
        <time>2026-07-10T14:15:37.000Z</time>
      </trkpt>
      <trkpt lat="46.24075" lon="15.29207">
        <ele>243.024637</ele>
        <time>2026-07-10T14:15:44.000Z</time>
      </trkpt>
      <trkpt lat="46.24062" lon="15.29174">
        <ele>242.91272</ele>
        <time>2026-07-10T14:15:48.000Z</time>
      </trkpt>
      <trkpt lat="46.24049" lon="15.29143">
        <ele>242.804665</ele>
        <time>2026-07-10T14:15:52.000Z</time>
      </trkpt>
      <trkpt lat="46.24024" lon="15.29087">
        <ele>242.603853</ele>
        <time>2026-07-10T14:16:00.000Z</time>
      </trkpt>
      <trkpt lat="46.24023" lon="15.29074">
        <ele>242.56598</ele>
        <time>2026-07-10T14:16:02.000Z</time>
      </trkpt>
      <trkpt lat="46.24024" lon="15.29068">
        <ele>242.547018</ele>
        <time>2026-07-10T14:16:03.000Z</time>
      </trkpt>
      <trkpt lat="46.24025" lon="15.29061">
        <ele>242.526817</ele>
        <time>2026-07-10T14:16:04.000Z</time>
      </trkpt>
      <trkpt lat="46.24023" lon="15.2905">
        <ele>242.490783</ele>
        <time>2026-07-10T14:16:06.000Z</time>
      </trkpt>
      <trkpt lat="46.24015" lon="15.29034">
        <ele>242.353711</ele>
        <time>2026-07-10T14:16:09.000Z</time>
      </trkpt>
      <trkpt lat="46.24007" lon="15.29026">
        <ele>242.240154</ele>
        <time>2026-07-10T14:16:11.000Z</time>
      </trkpt>
      <trkpt lat="46.24003" lon="15.29023">
        <ele>242.183084</ele>
        <time>2026-07-10T14:16:12.000Z</time>
      </trkpt>
      <trkpt lat="46.23993" lon="15.29018">
        <ele>242.070304</ele>
        <time>2026-07-10T14:16:14.000Z</time>
      </trkpt>
      <trkpt lat="46.23985" lon="15.2901">
        <ele>241.960319</ele>
        <time>2026-07-10T14:16:16.000Z</time>
      </trkpt>
      <trkpt lat="46.23982" lon="15.29004">
        <ele>241.898975</ele>
        <time>2026-07-10T14:16:17.000Z</time>
      </trkpt>
      <trkpt lat="46.23979" lon="15.28997">
        <ele>241.835794</ele>
        <time>2026-07-10T14:16:18.000Z</time>
      </trkpt>
      <trkpt lat="46.23967" lon="15.28959">
        <ele>241.501595</ele>
        <time>2026-07-10T14:16:23.000Z</time>
      </trkpt>
      <trkpt lat="46.23959" lon="15.28905">
        <ele>241.064226</ele>
        <time>2026-07-10T14:16:29.000Z</time>
      </trkpt>
      <trkpt lat="46.23957" lon="15.28876">
        <ele>240.838216</ele>
        <time>2026-07-10T14:16:32.000Z</time>
      </trkpt>
      <trkpt lat="46.23957" lon="15.28847">
        <ele>240.608864</ele>
        <time>2026-07-10T14:16:35.000Z</time>
      </trkpt>
      <trkpt lat="46.23958" lon="15.28829">
        <ele>240.462269</ele>
        <time>2026-07-10T14:16:37.000Z</time>
      </trkpt>
      <trkpt lat="46.23959" lon="15.288">
        <ele>240.574236</ele>
        <time>2026-07-10T14:16:40.000Z</time>
      </trkpt>
      <trkpt lat="46.23959" lon="15.2879">
        <ele>240.63663</ele>
        <time>2026-07-10T14:16:41.000Z</time>
      </trkpt>
      <trkpt lat="46.23956" lon="15.28759">
        <ele>240.829555</ele>
        <time>2026-07-10T14:16:44.000Z</time>
      </trkpt>
      <trkpt lat="46.23956" lon="15.28728">
        <ele>241.027599</ele>
        <time>2026-07-10T14:16:47.000Z</time>
      </trkpt>
      <trkpt lat="46.23958" lon="15.28685">
        <ele>241.293779</ele>
        <time>2026-07-10T14:16:51.000Z</time>
      </trkpt>
      <trkpt lat="46.23959" lon="15.28674">
        <ele>241.361379</ele>
        <time>2026-07-10T14:16:52.000Z</time>
      </trkpt>
      <trkpt lat="46.23962" lon="15.28645">
        <ele>241.540947</ele>
        <time>2026-07-10T14:16:55.000Z</time>
      </trkpt>
      <trkpt lat="46.2396" lon="15.28637">
        <ele>241.592307</ele>
        <time>2026-07-10T14:16:56.000Z</time>
      </trkpt>
      <trkpt lat="46.23957" lon="15.2863">
        <ele>241.648604</ele>
        <time>2026-07-10T14:16:57.000Z</time>
      </trkpt>
      <trkpt lat="46.23952" lon="15.28613">
        <ele>241.762015</ele>
        <time>2026-07-10T14:16:59.000Z</time>
      </trkpt>
      <trkpt lat="46.23951" lon="15.28604">
        <ele>241.81908</ele>
        <time>2026-07-10T14:17:00.000Z</time>
      </trkpt>
      <trkpt lat="46.2395" lon="15.28524">
        <ele>241.905527</ele>
        <time>2026-07-10T14:17:08.000Z</time>
      </trkpt>
      <trkpt lat="46.23948" lon="15.28444">
        <ele>241.662703</ele>
        <time>2026-07-10T14:17:16.000Z</time>
      </trkpt>
      <trkpt lat="46.23948" lon="15.28396">
        <ele>241.516442</ele>
        <time>2026-07-10T14:17:21.000Z</time>
      </trkpt>
      <trkpt lat="46.2395" lon="15.28388">
        <ele>241.489569</ele>
        <time>2026-07-10T14:17:22.000Z</time>
      </trkpt>
      <trkpt lat="46.23951" lon="15.28379">
        <ele>241.461222</ele>
        <time>2026-07-10T14:17:23.000Z</time>
      </trkpt>
      <trkpt lat="46.2395" lon="15.28361">
        <ele>241.407446</ele>
        <time>2026-07-10T14:17:25.000Z</time>
      </trkpt>
      <trkpt lat="46.23947" lon="15.28344">
        <ele>241.353105</ele>
        <time>2026-07-10T14:17:27.000Z</time>
      </trkpt>
      <trkpt lat="46.23946" lon="15.28324">
        <ele>241.293274</ele>
        <time>2026-07-10T14:17:29.000Z</time>
      </trkpt>
      <trkpt lat="46.23947" lon="15.28272">
        <ele>241.019865</ele>
        <time>2026-07-10T14:17:34.000Z</time>
      </trkpt>
      <trkpt lat="46.23952" lon="15.28225">
        <ele>240.725213</ele>
        <time>2026-07-10T14:17:39.000Z</time>
      </trkpt>
      <trkpt lat="46.23955" lon="15.28218">
        <ele>240.67834</ele>
        <time>2026-07-10T14:17:40.000Z</time>
      </trkpt>
      <trkpt lat="46.23958" lon="15.28212">
        <ele>240.630987</ele>
        <time>2026-07-10T14:17:41.000Z</time>
      </trkpt>
      <trkpt lat="46.23962" lon="15.28198">
        <ele>240.535328</ele>
        <time>2026-07-10T14:17:43.000Z</time>
      </trkpt>
      <trkpt lat="46.23962" lon="15.2819">
        <ele>240.488808</ele>
        <time>2026-07-10T14:17:44.000Z</time>
      </trkpt>
      <trkpt lat="46.23961" lon="15.28176">
        <ele>240.400743</ele>
        <time>2026-07-10T14:17:46.000Z</time>
      </trkpt>
      <trkpt lat="46.23963" lon="15.2815">
        <ele>240.238468</ele>
        <time>2026-07-10T14:17:49.000Z</time>
      </trkpt>
      <trkpt lat="46.2397" lon="15.28094">
        <ele>239.896476</ele>
        <time>2026-07-10T14:17:55.000Z</time>
      </trkpt>
      <trkpt lat="46.23983" lon="15.28017">
        <ele>240.066736</ele>
        <time>2026-07-10T14:18:04.000Z</time>
      </trkpt>
      <trkpt lat="46.23984" lon="15.28009">
        <ele>240.148226</ele>
        <time>2026-07-10T14:18:05.000Z</time>
      </trkpt>
      <trkpt lat="46.23993" lon="15.27968">
        <ele>240.579486</ele>
        <time>2026-07-10T14:18:11.000Z</time>
      </trkpt>
      <trkpt lat="46.23998" lon="15.27955">
        <ele>240.730523</ele>
        <time>2026-07-10T14:18:15.000Z</time>
      </trkpt>
      <trkpt lat="46.23996" lon="15.27952">
        <ele>240.764756</ele>
        <time>2026-07-10T14:18:17.000Z</time>
      </trkpt>
      <trkpt lat="46.23992" lon="15.27949">
        <ele>240.838476</ele>
        <time>2026-07-10T14:18:19.000Z</time>
      </trkpt>
      <trkpt lat="46.23983" lon="15.27936">
        <ele>241.024507</ele>
        <time>2026-07-10T14:18:24.000Z</time>
      </trkpt>
      <trkpt lat="46.23978" lon="15.27913">
        <ele>241.2634</ele>
        <time>2026-07-10T14:18:29.000Z</time>
      </trkpt>
      <trkpt lat="46.23962" lon="15.27893">
        <ele>241.578756</ele>
        <time>2026-07-10T14:18:35.000Z</time>
      </trkpt>
      <trkpt lat="46.23951" lon="15.27883">
        <ele>241.763388</ele>
        <time>2026-07-10T14:18:39.000Z</time>
      </trkpt>
      <trkpt lat="46.23947" lon="15.27879">
        <ele>241.835319</ele>
        <time>2026-07-10T14:18:41.000Z</time>
      </trkpt>
      <trkpt lat="46.23944" lon="15.27879">
        <ele>241.879234</ele>
        <time>2026-07-10T14:18:43.000Z</time>
      </trkpt>
      <trkpt lat="46.23948" lon="15.27881">
        <ele>241.946784</ele>
        <time>2026-07-10T14:18:45.000Z</time>
      </trkpt>
      <trkpt lat="46.23955" lon="15.27882">
        <ele>242.045195</ele>
        <time>2026-07-10T14:18:48.000Z</time>
      </trkpt>
      <trkpt lat="46.23955" lon="15.27878">
        <ele>242.081607</ele>
        <time>2026-07-10T14:18:49.000Z</time>
      </trkpt>
      <trkpt lat="46.23958" lon="15.27851">
        <ele>242.273493</ele>
        <time>2026-07-10T14:18:54.000Z</time>
      </trkpt>
      <trkpt lat="46.23962" lon="15.27832">
        <ele>242.258598</ele>
        <time>2026-07-10T14:18:57.000Z</time>
      </trkpt>
      <trkpt lat="46.23966" lon="15.2781">
        <ele>242.242479</ele>
        <time>2026-07-10T14:19:00.000Z</time>
      </trkpt>
      <trkpt lat="46.23974" lon="15.27772">
        <ele>242.214026</ele>
        <time>2026-07-10T14:19:05.000Z</time>
      </trkpt>
      <trkpt lat="46.23975" lon="15.27764">
        <ele>242.208278</ele>
        <time>2026-07-10T14:19:06.000Z</time>
      </trkpt>
      <trkpt lat="46.23976" lon="15.27756">
        <ele>242.202247</ele>
        <time>2026-07-10T14:19:07.000Z</time>
      </trkpt>
      <trkpt lat="46.23983" lon="15.27707">
        <ele>242.166211</ele>
        <time>2026-07-10T14:19:13.000Z</time>
      </trkpt>
      <trkpt lat="46.23988" lon="15.27668">
        <ele>242.137195</ele>
        <time>2026-07-10T14:19:19.000Z</time>
      </trkpt>
      <trkpt lat="46.23993" lon="15.27639">
        <ele>242.115429</ele>
        <time>2026-07-10T14:19:25.000Z</time>
      </trkpt>
      <trkpt lat="46.23997" lon="15.27606">
        <ele>242.09144</ele>
        <time>2026-07-10T14:19:33.000Z</time>
      </trkpt>
      <trkpt lat="46.24003" lon="15.27579">
        <ele>242.169347</ele>
        <time>2026-07-10T14:19:39.000Z</time>
      </trkpt>
      <trkpt lat="46.24004" lon="15.27553">
        <ele>242.242433</ele>
        <time>2026-07-10T14:19:44.000Z</time>
      </trkpt>
      <trkpt lat="46.23999" lon="15.27545">
        <ele>242.272352</ele>
        <time>2026-07-10T14:19:46.000Z</time>
      </trkpt>
      <trkpt lat="46.23996" lon="15.27542">
        <ele>242.288987</ele>
        <time>2026-07-10T14:19:47.000Z</time>
      </trkpt>
      <trkpt lat="46.23972" lon="15.27523">
        <ele>242.39952</ele>
        <time>2026-07-10T14:19:53.000Z</time>
      </trkpt>
      <trkpt lat="46.23964" lon="15.27507">
        <ele>242.455578</ele>
        <time>2026-07-10T14:19:57.000Z</time>
      </trkpt>
      <trkpt lat="46.2397" lon="15.27476">
        <ele>242.544697</ele>
        <time>2026-07-10T14:20:03.000Z</time>
      </trkpt>
      <trkpt lat="46.23966" lon="15.27449">
        <ele>242.622721</ele>
        <time>2026-07-10T14:20:08.000Z</time>
      </trkpt>
      <trkpt lat="46.2395" lon="15.27436">
        <ele>242.697856</ele>
        <time>2026-07-10T14:20:12.000Z</time>
      </trkpt>
      <trkpt lat="46.23922" lon="15.27414">
        <ele>242.826335</ele>
        <time>2026-07-10T14:20:19.000Z</time>
      </trkpt>
      <trkpt lat="46.23913" lon="15.27413">
        <ele>242.864952</ele>
        <time>2026-07-10T14:20:23.000Z</time>
      </trkpt>
      <trkpt lat="46.23912" lon="15.27413">
        <ele>242.868233</ele>
        <time>2026-07-10T14:20:26.000Z</time>
      </trkpt>
      <trkpt lat="46.23907" lon="15.27408">
        <ele>242.894213</ele>
        <time>2026-07-10T14:20:59.000Z</time>
      </trkpt>
      <trkpt lat="46.23895" lon="15.27392">
        <ele>242.959649</ele>
        <time>2026-07-10T14:21:04.000Z</time>
      </trkpt>
      <trkpt lat="46.23878" lon="15.27376">
        <ele>243.042715</ele>
        <time>2026-07-10T14:21:09.000Z</time>
      </trkpt>
      <trkpt lat="46.23857" lon="15.27358">
        <ele>243.140305</ele>
        <time>2026-07-10T14:21:14.000Z</time>
      </trkpt>
      <trkpt lat="46.23835" lon="15.27341">
        <ele>243.238703</ele>
        <time>2026-07-10T14:21:19.000Z</time>
      </trkpt>
      <trkpt lat="46.23817" lon="15.27328">
        <ele>243.321877</ele>
        <time>2026-07-10T14:21:23.000Z</time>
      </trkpt>
      <trkpt lat="46.23773" lon="15.27297">
        <ele>243.517516</ele>
        <time>2026-07-10T14:21:32.000Z</time>
      </trkpt>
      <trkpt lat="46.23738" lon="15.27275">
        <ele>243.923145</ele>
        <time>2026-07-10T14:21:40.000Z</time>
      </trkpt>
      <trkpt lat="46.23704" lon="15.2725">
        <ele>244.386408</ele>
        <time>2026-07-10T14:21:48.000Z</time>
      </trkpt>
      <trkpt lat="46.23696" lon="15.27244">
        <ele>244.502203</ele>
        <time>2026-07-10T14:21:50.000Z</time>
      </trkpt>
      <trkpt lat="46.23681" lon="15.27239">
        <ele>244.688449</ele>
        <time>2026-07-10T14:21:53.000Z</time>
      </trkpt>
      <trkpt lat="46.23677" lon="15.27237">
        <ele>244.747007</ele>
        <time>2026-07-10T14:21:54.000Z</time>
      </trkpt>
      <trkpt lat="46.2366" lon="15.27222">
        <ele>244.986791</ele>
        <time>2026-07-10T14:21:59.000Z</time>
      </trkpt>
      <trkpt lat="46.23655" lon="15.27214">
        <ele>245.076065</ele>
        <time>2026-07-10T14:22:01.000Z</time>
      </trkpt>
      <trkpt lat="46.23649" lon="15.27206">
        <ele>245.1828</ele>
        <time>2026-07-10T14:22:03.000Z</time>
      </trkpt>
      <trkpt lat="46.23645" lon="15.27202">
        <ele>245.240521</ele>
        <time>2026-07-10T14:22:04.000Z</time>
      </trkpt>
      <trkpt lat="46.23622" lon="15.27181">
        <ele>245.580471</ele>
        <time>2026-07-10T14:22:10.000Z</time>
      </trkpt>
      <trkpt lat="46.23614" lon="15.27174">
        <ele>245.69268</ele>
        <time>2026-07-10T14:22:12.000Z</time>
      </trkpt>
      <trkpt lat="46.23603" lon="15.27164">
        <ele>245.662963</ele>
        <time>2026-07-10T14:22:15.000Z</time>
      </trkpt>
      <trkpt lat="46.23595" lon="15.27161">
        <ele>245.486076</ele>
        <time>2026-07-10T14:22:17.000Z</time>
      </trkpt>
      <trkpt lat="46.23591" lon="15.27161">
        <ele>245.405016</ele>
        <time>2026-07-10T14:22:18.000Z</time>
      </trkpt>
      <trkpt lat="46.23583" lon="15.27161">
        <ele>245.224194</ele>
        <time>2026-07-10T14:22:21.000Z</time>
      </trkpt>
      <trkpt lat="46.23581" lon="15.27159">
        <ele>245.171968</ele>
        <time>2026-07-10T14:22:22.000Z</time>
      </trkpt>
      <trkpt lat="46.23579" lon="15.27156">
        <ele>245.123463</ele>
        <time>2026-07-10T14:22:23.000Z</time>
      </trkpt>
      <trkpt lat="46.23579" lon="15.27145">
        <ele>244.969153</ele>
        <time>2026-07-10T14:22:26.000Z</time>
      </trkpt>
      <trkpt lat="46.23578" lon="15.27138">
        <ele>244.858158</ele>
        <time>2026-07-10T14:22:30.000Z</time>
      </trkpt>
      <trkpt lat="46.2358" lon="15.27131">
        <ele>244.764408</ele>
        <time>2026-07-10T14:22:46.000Z</time>
      </trkpt>
      <trkpt lat="46.23581" lon="15.27123">
        <ele>244.641096</ele>
        <time>2026-07-10T14:22:48.000Z</time>
      </trkpt>
      <trkpt lat="46.23582" lon="15.27091">
        <ele>244.176575</ele>
        <time>2026-07-10T14:22:54.000Z</time>
      </trkpt>
      <trkpt lat="46.23581" lon="15.27058">
        <ele>243.700743</ele>
        <time>2026-07-10T14:22:59.000Z</time>
      </trkpt>
      <trkpt lat="46.23587" lon="15.27028">
        <ele>243.263654</ele>
        <time>2026-07-10T14:23:03.000Z</time>
      </trkpt>
      <trkpt lat="46.23589" lon="15.27014">
        <ele>243.051674</ele>
        <time>2026-07-10T14:23:05.000Z</time>
      </trkpt>
      <trkpt lat="46.23596" lon="15.26959">
        <ele>242.255328</ele>
        <time>2026-07-10T14:23:12.000Z</time>
      </trkpt>
      <trkpt lat="46.236" lon="15.2693">
        <ele>241.793164</ele>
        <time>2026-07-10T14:23:16.000Z</time>
      </trkpt>
      <trkpt lat="46.23602" lon="15.2691">
        <ele>241.476614</ele>
        <time>2026-07-10T14:23:19.000Z</time>
      </trkpt>
      <trkpt lat="46.23606" lon="15.26899">
        <ele>241.268633</ele>
        <time>2026-07-10T14:23:21.000Z</time>
      </trkpt>
      <trkpt lat="46.23608" lon="15.26885">
        <ele>241.049629</ele>
        <time>2026-07-10T14:23:23.000Z</time>
      </trkpt>
      <trkpt lat="46.23608" lon="15.26879">
        <ele>240.94504</ele>
        <time>2026-07-10T14:23:24.000Z</time>
      </trkpt>
      <trkpt lat="46.23608" lon="15.26865">
        <ele>240.725898</ele>
        <time>2026-07-10T14:23:26.000Z</time>
      </trkpt>
      <trkpt lat="46.2361" lon="15.26836">
        <ele>240.248048</ele>
        <time>2026-07-10T14:23:30.000Z</time>
      </trkpt>
      <trkpt lat="46.23617" lon="15.26799">
        <ele>239.63124</ele>
        <time>2026-07-10T14:23:35.000Z</time>
      </trkpt>
      <trkpt lat="46.23619" lon="15.26782">
        <ele>239.362593</ele>
        <time>2026-07-10T14:23:37.000Z</time>
      </trkpt>
      <trkpt lat="46.23627" lon="15.2673">
        <ele>238.508067</ele>
        <time>2026-07-10T14:23:44.000Z</time>
      </trkpt>
      <trkpt lat="46.23632" lon="15.26721">
        <ele>238.314859</ele>
        <time>2026-07-10T14:23:46.000Z</time>
      </trkpt>
      <trkpt lat="46.23636" lon="15.26718">
        <ele>238.221791</ele>
        <time>2026-07-10T14:23:47.000Z</time>
      </trkpt>
      <trkpt lat="46.23648" lon="15.26716">
        <ele>237.929231</ele>
        <time>2026-07-10T14:23:51.000Z</time>
      </trkpt>
      <trkpt lat="46.2365" lon="15.26716">
        <ele>237.886592</ele>
        <time>2026-07-10T14:23:52.000Z</time>
      </trkpt>
      <trkpt lat="46.23649" lon="15.26711">
        <ele>237.89082</ele>
        <time>2026-07-10T14:23:54.000Z</time>
      </trkpt>
      <trkpt lat="46.23636" lon="15.26703">
        <ele>238.105439</ele>
        <time>2026-07-10T14:23:59.000Z</time>
      </trkpt>
      <trkpt lat="46.23631" lon="15.26684">
        <ele>238.310452</ele>
        <time>2026-07-10T14:24:03.000Z</time>
      </trkpt>
      <trkpt lat="46.23632" lon="15.26677">
        <ele>238.378566</ele>
        <time>2026-07-10T14:24:04.000Z</time>
      </trkpt>
      <trkpt lat="46.23636" lon="15.26648">
        <ele>238.685431</ele>
        <time>2026-07-10T14:24:08.000Z</time>
      </trkpt>
      <trkpt lat="46.23644" lon="15.26593">
        <ele>239.254127</ele>
        <time>2026-07-10T14:24:15.000Z</time>
      </trkpt>
      <trkpt lat="46.23649" lon="15.26545">
        <ele>239.741403</ele>
        <time>2026-07-10T14:24:21.000Z</time>
      </trkpt>
      <trkpt lat="46.2365" lon="15.26538">
        <ele>239.81624</ele>
        <time>2026-07-10T14:24:22.000Z</time>
      </trkpt>
      <trkpt lat="46.23653" lon="15.26482">
        <ele>240.385314</ele>
        <time>2026-07-10T14:24:29.000Z</time>
      </trkpt>
      <trkpt lat="46.23656" lon="15.26432">
        <ele>240.60375</ele>
        <time>2026-07-10T14:24:35.000Z</time>
      </trkpt>
      <trkpt lat="46.23657" lon="15.26415">
        <ele>240.652848</ele>
        <time>2026-07-10T14:24:37.000Z</time>
      </trkpt>
      <trkpt lat="46.2366" lon="15.26346">
        <ele>240.848428</ele>
        <time>2026-07-10T14:24:45.000Z</time>
      </trkpt>
      <trkpt lat="46.23665" lon="15.26265">
        <ele>241.07635</ele>
        <time>2026-07-10T14:24:54.000Z</time>
      </trkpt>
      <trkpt lat="46.2367" lon="15.26184">
        <ele>241.300946</ele>
        <time>2026-07-10T14:25:03.000Z</time>
      </trkpt>
      <trkpt lat="46.23673" lon="15.2611">
        <ele>241.497533</ele>
        <time>2026-07-10T14:25:12.000Z</time>
      </trkpt>
      <trkpt lat="46.23673" lon="15.2609">
        <ele>241.551094</ele>
        <time>2026-07-10T14:25:15.000Z</time>
      </trkpt>
      <trkpt lat="46.23674" lon="15.26085">
        <ele>241.564874</ele>
        <time>2026-07-10T14:25:16.000Z</time>
      </trkpt>
      <trkpt lat="46.23677" lon="15.26056">
        <ele>241.643616</ele>
        <time>2026-07-10T14:25:21.000Z</time>
      </trkpt>
      <trkpt lat="46.23679" lon="15.2603">
        <ele>241.71233</ele>
        <time>2026-07-10T14:25:25.000Z</time>
      </trkpt>
      <trkpt lat="46.2368" lon="15.26016">
        <ele>241.751769</ele>
        <time>2026-07-10T14:25:27.000Z</time>
      </trkpt>
      <trkpt lat="46.2368" lon="15.25942">
        <ele>241.890329</ele>
        <time>2026-07-10T14:25:37.000Z</time>
      </trkpt>
      <trkpt lat="46.23683" lon="15.25881">
        <ele>241.736351</ele>
        <time>2026-07-10T14:25:45.000Z</time>
      </trkpt>
      <trkpt lat="46.23685" lon="15.25802">
        <ele>241.537969</ele>
        <time>2026-07-10T14:25:55.000Z</time>
      </trkpt>
      <trkpt lat="46.23686" lon="15.25768">
        <ele>241.450618</ele>
        <time>2026-07-10T14:26:00.000Z</time>
      </trkpt>
      <trkpt lat="46.23689" lon="15.25757">
        <ele>241.420939</ele>
        <time>2026-07-10T14:26:02.000Z</time>
      </trkpt>
      <trkpt lat="46.23695" lon="15.25748">
        <ele>241.389868</ele>
        <time>2026-07-10T14:26:04.000Z</time>
      </trkpt>
      <trkpt lat="46.23702" lon="15.25741">
        <ele>241.359415</ele>
        <time>2026-07-10T14:26:06.000Z</time>
      </trkpt>
      <trkpt lat="46.23711" lon="15.25733">
        <ele>241.320928</ele>
        <time>2026-07-10T14:26:10.000Z</time>
      </trkpt>
      <trkpt lat="46.23712" lon="15.2573">
        <ele>241.311995</ele>
        <time>2026-07-10T14:26:12.000Z</time>
      </trkpt>
      <trkpt lat="46.2371" lon="15.25726">
        <ele>241.299124</ele>
        <time>2026-07-10T14:26:14.000Z</time>
      </trkpt>
      <trkpt lat="46.23699" lon="15.25717">
        <ele>241.201639</ele>
        <time>2026-07-10T14:26:19.000Z</time>
      </trkpt>
      <trkpt lat="46.23692" lon="15.2571">
        <ele>241.010784</ele>
        <time>2026-07-10T14:26:25.000Z</time>
      </trkpt>
      <trkpt lat="46.23691" lon="15.25701">
        <ele>240.870503</ele>
        <time>2026-07-10T14:26:33.000Z</time>
      </trkpt>
      <trkpt lat="46.23691" lon="15.25694">
        <ele>240.774507</ele>
        <time>2026-07-10T14:26:35.000Z</time>
      </trkpt>
      <trkpt lat="46.23691" lon="15.25664">
        <ele>240.329319</ele>
        <time>2026-07-10T14:26:41.000Z</time>
      </trkpt>
      <trkpt lat="46.23693" lon="15.25626">
        <ele>239.753145</ele>
        <time>2026-07-10T14:26:48.000Z</time>
      </trkpt>
      <trkpt lat="46.237" lon="15.25615">
        <ele>239.542328</ele>
        <time>2026-07-10T14:26:51.000Z</time>
      </trkpt>
      <trkpt lat="46.237" lon="15.25611">
        <ele>239.48156</ele>
        <time>2026-07-10T14:26:52.000Z</time>
      </trkpt>
      <trkpt lat="46.237" lon="15.25608">
        <ele>239.438361</ele>
        <time>2026-07-10T14:26:53.000Z</time>
      </trkpt>
      <trkpt lat="46.23699" lon="15.25606">
        <ele>239.398571</ele>
        <time>2026-07-10T14:26:55.000Z</time>
      </trkpt>
      <trkpt lat="46.237" lon="15.25605">
        <ele>239.381709</ele>
        <time>2026-07-10T14:26:56.000Z</time>
      </trkpt>
      <trkpt lat="46.237" lon="15.25599">
        <ele>239.293466</ele>
        <time>2026-07-10T14:27:00.000Z</time>
      </trkpt>
      <trkpt lat="46.237" lon="15.25597">
        <ele>239.259485</ele>
        <time>2026-07-10T14:27:03.000Z</time>
      </trkpt>
      <trkpt lat="46.23697" lon="15.25587">
        <ele>239.087564</ele>
        <time>2026-07-10T14:27:08.000Z</time>
      </trkpt>
      <trkpt lat="46.23696" lon="15.25577">
        <ele>238.945239</ele>
        <time>2026-07-10T14:27:10.000Z</time>
      </trkpt>
      <trkpt lat="46.23698" lon="15.25545">
        <ele>238.46327</ele>
        <time>2026-07-10T14:27:16.000Z</time>
      </trkpt>
      <trkpt lat="46.23699" lon="15.25501">
        <ele>237.803687</ele>
        <time>2026-07-10T14:27:23.000Z</time>
      </trkpt>
      <trkpt lat="46.237" lon="15.25454">
        <ele>237.832211</ele>
        <time>2026-07-10T14:27:31.000Z</time>
      </trkpt>
      <trkpt lat="46.23702" lon="15.25426">
        <ele>238.536009</ele>
        <time>2026-07-10T14:27:37.000Z</time>
      </trkpt>
      <trkpt lat="46.23702" lon="15.25422">
        <ele>238.638641</ele>
        <time>2026-07-10T14:27:38.000Z</time>
      </trkpt>
      <trkpt lat="46.23705" lon="15.25405">
        <ele>239.068852</ele>
        <time>2026-07-10T14:27:43.000Z</time>
      </trkpt>
      <trkpt lat="46.23704" lon="15.25404">
        <ele>239.092238</ele>
        <time>2026-07-10T14:27:45.000Z</time>
      </trkpt>
      <trkpt lat="46.23698" lon="15.25402">
        <ele>239.31351</ele>
        <time>2026-07-10T14:27:48.000Z</time>
      </trkpt>
      <trkpt lat="46.23695" lon="15.25401">
        <ele>239.429348</ele>
        <time>2026-07-10T14:27:49.000Z</time>
      </trkpt>
      <trkpt lat="46.23685" lon="15.25396">
        <ele>239.802548</ele>
        <time>2026-07-10T14:27:53.000Z</time>
      </trkpt>
      <trkpt lat="46.23683" lon="15.2539">
        <ele>239.982087</ele>
        <time>2026-07-10T14:27:55.000Z</time>
      </trkpt>
      <trkpt lat="46.23678" lon="15.25386">
        <ele>240.170339</ele>
        <time>2026-07-10T14:27:57.000Z</time>
      </trkpt>
      <trkpt lat="46.23662" lon="15.25384">
        <ele>240.766255</ele>
        <time>2026-07-10T14:28:02.000Z</time>
      </trkpt>
      <trkpt lat="46.23634" lon="15.25381">
        <ele>241.770345</ele>
        <time>2026-07-10T14:28:09.000Z</time>
      </trkpt>
      <trkpt lat="46.23605" lon="15.25383">
        <ele>242.819352</ele>
        <time>2026-07-10T14:28:16.000Z</time>
      </trkpt>
      <trkpt lat="46.23587" lon="15.25379">
        <ele>243.480469</ele>
        <time>2026-07-10T14:28:21.000Z</time>
      </trkpt>
      <trkpt lat="46.23578" lon="15.25375">
        <ele>243.80313</ele>
        <time>2026-07-10T14:28:25.000Z</time>
      </trkpt>
      <trkpt lat="46.23578" lon="15.25375">
        <ele>243.80313</ele>
        <time>2026-07-10T14:28:26.000Z</time>
      </trkpt>
      <trkpt lat="46.23574" lon="15.25367">
        <ele>243.989888</ele>
        <time>2026-07-10T14:28:32.000Z</time>
      </trkpt>
      <trkpt lat="46.23571" lon="15.25365">
        <ele>244.085318</ele>
        <time>2026-07-10T14:28:33.000Z</time>
      </trkpt>
      <trkpt lat="46.23557" lon="15.25356">
        <ele>244.481429</ele>
        <time>2026-07-10T14:28:38.000Z</time>
      </trkpt>
      <trkpt lat="46.23543" lon="15.25359">
        <ele>244.844529</ele>
        <time>2026-07-10T14:28:42.000Z</time>
      </trkpt>
      <trkpt lat="46.23515" lon="15.25357">
        <ele>245.584166</ele>
        <time>2026-07-10T14:28:49.000Z</time>
      </trkpt>
      <trkpt lat="46.23499" lon="15.25346">
        <ele>246.042788</ele>
        <time>2026-07-10T14:28:54.000Z</time>
      </trkpt>
      <trkpt lat="46.23482" lon="15.25337">
        <ele>246.512986</ele>
        <time>2026-07-10T14:28:58.000Z</time>
      </trkpt>
      <trkpt lat="46.23474" lon="15.25316">
        <ele>246.944043</ele>
        <time>2026-07-10T14:29:02.000Z</time>
      </trkpt>
      <trkpt lat="46.23475" lon="15.25291">
        <ele>247.405987</ele>
        <time>2026-07-10T14:29:06.000Z</time>
      </trkpt>
      <trkpt lat="46.23482" lon="15.25245">
        <ele>248.24717</ele>
        <time>2026-07-10T14:29:13.000Z</time>
      </trkpt>
      <trkpt lat="46.23483" lon="15.25238">
        <ele>248.371732</ele>
        <time>2026-07-10T14:29:14.000Z</time>
      </trkpt>
      <trkpt lat="46.23487" lon="15.2518">
        <ele>247.551871</ele>
        <time>2026-07-10T14:29:23.000Z</time>
      </trkpt>
      <trkpt lat="46.23488" lon="15.25153">
        <ele>247.001868</ele>
        <time>2026-07-10T14:29:27.000Z</time>
      </trkpt>
      <trkpt lat="46.23489" lon="15.25135">
        <ele>246.62512</ele>
        <time>2026-07-10T14:29:30.000Z</time>
      </trkpt>
      <trkpt lat="46.23488" lon="15.2513">
        <ele>246.515134</ele>
        <time>2026-07-10T14:29:31.000Z</time>
      </trkpt>
      <trkpt lat="46.2349" lon="15.25107">
        <ele>246.050933</ele>
        <time>2026-07-10T14:29:36.000Z</time>
      </trkpt>
      <trkpt lat="46.2349" lon="15.25103">
        <ele>245.971062</ele>
        <time>2026-07-10T14:29:40.000Z</time>
      </trkpt>
      <trkpt lat="46.23486" lon="15.25102">
        <ele>245.848713</ele>
        <time>2026-07-10T14:29:45.000Z</time>
      </trkpt>
      <trkpt lat="46.2348" lon="15.25102">
        <ele>245.69474</ele>
        <time>2026-07-10T14:29:47.000Z</time>
      </trkpt>
      <trkpt lat="46.23478" lon="15.25101">
        <ele>245.634263</ele>
        <time>2026-07-10T14:29:48.000Z</time>
      </trkpt>
      <trkpt lat="46.23477" lon="15.25096">
        <ele>245.525689</ele>
        <time>2026-07-10T14:29:50.000Z</time>
      </trkpt>
      <trkpt lat="46.23478" lon="15.25074">
        <ele>245.073961</ele>
        <time>2026-07-10T14:29:55.000Z</time>
      </trkpt>
      <trkpt lat="46.23478" lon="15.25043">
        <ele>244.428743</ele>
        <time>2026-07-10T14:30:01.000Z</time>
      </trkpt>
      <trkpt lat="46.2348" lon="15.25005">
        <ele>243.644606</ele>
        <time>2026-07-10T14:30:08.000Z</time>
      </trkpt>
      <trkpt lat="46.2348" lon="15.24978">
        <ele>243.221887</ele>
        <time>2026-07-10T14:30:13.000Z</time>
      </trkpt>
      <trkpt lat="46.23481" lon="15.24943">
        <ele>243.221887</ele>
        <time>2026-07-10T14:30:19.000Z</time>
      </trkpt>
      <trkpt lat="46.23482" lon="15.24914">
        <ele>243.221887</ele>
        <time>2026-07-10T14:30:24.000Z</time>
      </trkpt>
      <trkpt lat="46.23484" lon="15.24871">
        <ele>243.221887</ele>
        <time>2026-07-10T14:30:32.000Z</time>
      </trkpt>
      <trkpt lat="46.2349" lon="15.24839">
        <ele>243.221887</ele>
        <time>2026-07-10T14:30:38.000Z</time>
      </trkpt>
      <trkpt lat="46.23495" lon="15.24806">
        <ele>243.221887</ele>
        <time>2026-07-10T14:30:44.000Z</time>
      </trkpt>
      <trkpt lat="46.23502" lon="15.24771">
        <ele>243.221887</ele>
        <time>2026-07-10T14:30:51.000Z</time>
      </trkpt>
      <trkpt lat="46.23511" lon="15.24736">
        <ele>243.221887</ele>
        <time>2026-07-10T14:30:58.000Z</time>
      </trkpt>
      <trkpt lat="46.23507" lon="15.24729">
        <ele>243.221887</ele>
        <time>2026-07-10T14:31:00.000Z</time>
      </trkpt>
      <trkpt lat="46.23505" lon="15.24728">
        <ele>243.221887</ele>
        <time>2026-07-10T14:31:01.000Z</time>
      </trkpt>
      <trkpt lat="46.23502" lon="15.24729">
        <ele>243.221887</ele>
        <time>2026-07-10T14:31:02.000Z</time>
      </trkpt>
      <trkpt lat="46.23497" lon="15.24735">
        <ele>243.221887</ele>
        <time>2026-07-10T14:31:04.000Z</time>
      </trkpt>
      <trkpt lat="46.23487" lon="15.24754">
        <ele>243.221887</ele>
        <time>2026-07-10T14:31:09.000Z</time>
      </trkpt>
      <trkpt lat="46.23479" lon="15.24763">
        <ele>243.221887</ele>
        <time>2026-07-10T14:31:14.000Z</time>
      </trkpt>
      <trkpt lat="46.2348" lon="15.24763">
        <ele>243.221887</ele>
        <time>2026-07-10T14:31:17.000Z</time>
      </trkpt>
    </trkseg>
  </trk>
</gpx>